<?xml version="1.0" encoding="UTF-8" standalone="no" ?>
<gpx xmlns="http://www.topografix.com/GPX/1/1" xmlns:xsi="http://www.w3.org/2001/XMLSchema-instance" xsi:schemaLocation="http://www.topografix.com/GPX/1/1 http://www.topografix.com/GPX/1/1/gpx.xsd" version="1.1" creator="VisuGPX - https://www.visugpx.com">
  <metadata>
    <name>Villards-d'Héria - Lac de l'Antre</name>
    <desc><![CDATA[
]]></desc>
  </metadata>
  <trk>
    <name><![CDATA[Villards-d’Héria Rando lac de l'Antre]]></name>
    <trkseg>
      <trkpt lat="46.42262" lon="5.74165">
        <ele>816.40002441406</ele>
        <time>2017-08-06T09:37:56.000Z</time>
      </trkpt>
      <trkpt lat="46.42263" lon="5.74157">
        <ele>817.59997558594</ele>
        <time>2017-08-06T09:38:11.000Z</time>
      </trkpt>
      <trkpt lat="46.42264" lon="5.74157">
        <ele>817.79998779297</ele>
        <time>2017-08-06T09:38:12.000Z</time>
      </trkpt>
      <trkpt lat="46.42269" lon="5.74162">
        <ele>818.40002441406</ele>
        <time>2017-08-06T09:38:48.000Z</time>
      </trkpt>
      <trkpt lat="46.4227" lon="5.74163">
        <ele>818.59997558594</ele>
        <time>2017-08-06T09:38:49.000Z</time>
      </trkpt>
      <trkpt lat="46.42272" lon="5.74164">
        <ele>818.59997558594</ele>
        <time>2017-08-06T09:38:50.000Z</time>
      </trkpt>
      <trkpt lat="46.42287" lon="5.74171">
        <ele>819.59997558594</ele>
        <time>2017-08-06T09:39:03.000Z</time>
      </trkpt>
      <trkpt lat="46.42292" lon="5.74173">
        <ele>820.20001220703</ele>
        <time>2017-08-06T09:39:07.000Z</time>
      </trkpt>
      <trkpt lat="46.42294" lon="5.74175">
        <ele>820.59997558594</ele>
        <time>2017-08-06T09:39:10.000Z</time>
      </trkpt>
      <trkpt lat="46.42295" lon="5.74176">
        <ele>821</ele>
        <time>2017-08-06T09:39:11.000Z</time>
      </trkpt>
      <trkpt lat="46.42297" lon="5.74178">
        <ele>821.40002441406</ele>
        <time>2017-08-06T09:39:13.000Z</time>
      </trkpt>
      <trkpt lat="46.423" lon="5.74181">
        <ele>821.79998779297</ele>
        <time>2017-08-06T09:39:17.000Z</time>
      </trkpt>
      <trkpt lat="46.423" lon="5.74181">
        <ele>821.79998779297</ele>
        <time>2017-08-06T09:39:18.000Z</time>
      </trkpt>
      <trkpt lat="46.42305" lon="5.74183">
        <ele>822</ele>
        <time>2017-08-06T09:39:22.000Z</time>
      </trkpt>
      <trkpt lat="46.42307" lon="5.74185">
        <ele>822.20001220703</ele>
        <time>2017-08-06T09:39:25.000Z</time>
      </trkpt>
      <trkpt lat="46.42311" lon="5.74192">
        <ele>822.59997558594</ele>
        <time>2017-08-06T09:39:31.000Z</time>
      </trkpt>
      <trkpt lat="46.42315" lon="5.74198">
        <ele>822.59997558594</ele>
        <time>2017-08-06T09:39:35.000Z</time>
      </trkpt>
      <trkpt lat="46.42317" lon="5.742">
        <ele>822.79998779297</ele>
        <time>2017-08-06T09:39:37.000Z</time>
      </trkpt>
      <trkpt lat="46.42324" lon="5.74206">
        <ele>823.40002441406</ele>
        <time>2017-08-06T09:39:44.000Z</time>
      </trkpt>
      <trkpt lat="46.42327" lon="5.74203">
        <ele>824</ele>
        <time>2017-08-06T09:39:46.000Z</time>
      </trkpt>
      <trkpt lat="46.42331" lon="5.74202">
        <ele>824.20001220703</ele>
        <time>2017-08-06T09:39:48.000Z</time>
      </trkpt>
      <trkpt lat="46.42335" lon="5.74197">
        <ele>825</ele>
        <time>2017-08-06T09:39:53.000Z</time>
      </trkpt>
      <trkpt lat="46.42344" lon="5.74197">
        <ele>826</ele>
        <time>2017-08-06T09:40:04.000Z</time>
      </trkpt>
      <trkpt lat="46.42351" lon="5.742">
        <ele>826.59997558594</ele>
        <time>2017-08-06T09:40:10.000Z</time>
      </trkpt>
      <trkpt lat="46.4235" lon="5.74207">
        <ele>827</ele>
        <time>2017-08-06T09:40:18.000Z</time>
      </trkpt>
      <trkpt lat="46.42353" lon="5.74209">
        <ele>827</ele>
        <time>2017-08-06T09:40:19.000Z</time>
      </trkpt>
      <trkpt lat="46.4236" lon="5.7421">
        <ele>826.79998779297</ele>
        <time>2017-08-06T09:40:35.000Z</time>
      </trkpt>
      <trkpt lat="46.42361" lon="5.74211">
        <ele>827</ele>
        <time>2017-08-06T09:40:37.000Z</time>
      </trkpt>
      <trkpt lat="46.42371" lon="5.74218">
        <ele>828</ele>
        <time>2017-08-06T09:40:48.000Z</time>
      </trkpt>
      <trkpt lat="46.42382" lon="5.74224">
        <ele>828.79998779297</ele>
        <time>2017-08-06T09:40:58.000Z</time>
      </trkpt>
      <trkpt lat="46.42385" lon="5.74225">
        <ele>829</ele>
        <time>2017-08-06T09:41:00.000Z</time>
      </trkpt>
      <trkpt lat="46.42386" lon="5.74225">
        <ele>829.20001220703</ele>
        <time>2017-08-06T09:41:01.000Z</time>
      </trkpt>
      <trkpt lat="46.42389" lon="5.74227">
        <ele>829.40002441406</ele>
        <time>2017-08-06T09:41:04.000Z</time>
      </trkpt>
      <trkpt lat="46.42405" lon="5.74234">
        <ele>830</ele>
        <time>2017-08-06T09:41:19.000Z</time>
      </trkpt>
      <trkpt lat="46.42406" lon="5.74236">
        <ele>830</ele>
        <time>2017-08-06T09:41:21.000Z</time>
      </trkpt>
      <trkpt lat="46.42408" lon="5.74238">
        <ele>830</ele>
        <time>2017-08-06T09:41:23.000Z</time>
      </trkpt>
      <trkpt lat="46.42412" lon="5.7424">
        <ele>830</ele>
        <time>2017-08-06T09:41:25.000Z</time>
      </trkpt>
      <trkpt lat="46.42415" lon="5.7424">
        <ele>830.40002441406</ele>
        <time>2017-08-06T09:41:27.000Z</time>
      </trkpt>
      <trkpt lat="46.4242" lon="5.7425">
        <ele>831.40002441406</ele>
        <time>2017-08-06T09:41:34.000Z</time>
      </trkpt>
      <trkpt lat="46.42427" lon="5.74256">
        <ele>832</ele>
        <time>2017-08-06T09:41:40.000Z</time>
      </trkpt>
      <trkpt lat="46.42432" lon="5.74268">
        <ele>831.20001220703</ele>
        <time>2017-08-06T09:41:46.000Z</time>
      </trkpt>
      <trkpt lat="46.42432" lon="5.74277">
        <ele>831.40002441406</ele>
        <time>2017-08-06T09:41:51.000Z</time>
      </trkpt>
      <trkpt lat="46.4243" lon="5.74281">
        <ele>832</ele>
        <time>2017-08-06T09:41:55.000Z</time>
      </trkpt>
      <trkpt lat="46.42427" lon="5.74285">
        <ele>832.59997558594</ele>
        <time>2017-08-06T09:42:24.000Z</time>
      </trkpt>
      <trkpt lat="46.42424" lon="5.74288">
        <ele>832.79998779297</ele>
        <time>2017-08-06T09:42:40.000Z</time>
      </trkpt>
      <trkpt lat="46.42426" lon="5.74284">
        <ele>833</ele>
        <time>2017-08-06T09:42:43.000Z</time>
      </trkpt>
      <trkpt lat="46.42424" lon="5.74283">
        <ele>833.20001220703</ele>
        <time>2017-08-06T09:43:04.000Z</time>
      </trkpt>
      <trkpt lat="46.4242" lon="5.74288">
        <ele>833</ele>
        <time>2017-08-06T09:43:10.000Z</time>
      </trkpt>
      <trkpt lat="46.42419" lon="5.74297">
        <ele>832.79998779297</ele>
        <time>2017-08-06T09:43:16.000Z</time>
      </trkpt>
      <trkpt lat="46.42415" lon="5.74315">
        <ele>832.40002441406</ele>
        <time>2017-08-06T09:43:27.000Z</time>
      </trkpt>
      <trkpt lat="46.42416" lon="5.74333">
        <ele>831.59997558594</ele>
        <time>2017-08-06T09:43:40.000Z</time>
      </trkpt>
      <trkpt lat="46.42416" lon="5.74334">
        <ele>831.40002441406</ele>
        <time>2017-08-06T09:43:41.000Z</time>
      </trkpt>
      <trkpt lat="46.42414" lon="5.74348">
        <ele>830.79998779297</ele>
        <time>2017-08-06T09:43:48.000Z</time>
      </trkpt>
      <trkpt lat="46.42412" lon="5.74354">
        <ele>830.20001220703</ele>
        <time>2017-08-06T09:43:52.000Z</time>
      </trkpt>
      <trkpt lat="46.42405" lon="5.74371">
        <ele>829.79998779297</ele>
        <time>2017-08-06T09:44:01.000Z</time>
      </trkpt>
      <trkpt lat="46.42404" lon="5.74373">
        <ele>829.79998779297</ele>
        <time>2017-08-06T09:44:03.000Z</time>
      </trkpt>
      <trkpt lat="46.42401" lon="5.74378">
        <ele>829.79998779297</ele>
        <time>2017-08-06T09:44:08.000Z</time>
      </trkpt>
      <trkpt lat="46.42399" lon="5.74383">
        <ele>830</ele>
        <time>2017-08-06T09:44:10.000Z</time>
      </trkpt>
      <trkpt lat="46.42398" lon="5.74385">
        <ele>830.20001220703</ele>
        <time>2017-08-06T09:44:12.000Z</time>
      </trkpt>
      <trkpt lat="46.42396" lon="5.74387">
        <ele>830.59997558594</ele>
        <time>2017-08-06T09:44:15.000Z</time>
      </trkpt>
      <trkpt lat="46.42392" lon="5.7439">
        <ele>831.40002441406</ele>
        <time>2017-08-06T09:44:22.000Z</time>
      </trkpt>
      <trkpt lat="46.4239" lon="5.74391">
        <ele>831.79998779297</ele>
        <time>2017-08-06T09:44:24.000Z</time>
      </trkpt>
      <trkpt lat="46.42382" lon="5.74392">
        <ele>832.40002441406</ele>
        <time>2017-08-06T09:44:29.000Z</time>
      </trkpt>
      <trkpt lat="46.42379" lon="5.74394">
        <ele>832.59997558594</ele>
        <time>2017-08-06T09:44:32.000Z</time>
      </trkpt>
      <trkpt lat="46.42376" lon="5.74398">
        <ele>833</ele>
        <time>2017-08-06T09:44:35.000Z</time>
      </trkpt>
      <trkpt lat="46.42375" lon="5.74401">
        <ele>833.40002441406</ele>
        <time>2017-08-06T09:44:37.000Z</time>
      </trkpt>
      <trkpt lat="46.42374" lon="5.74404">
        <ele>833.79998779297</ele>
        <time>2017-08-06T09:44:39.000Z</time>
      </trkpt>
      <trkpt lat="46.42358" lon="5.74416">
        <ele>834.40002441406</ele>
        <time>2017-08-06T09:44:55.000Z</time>
      </trkpt>
      <trkpt lat="46.4235" lon="5.74419">
        <ele>834.40002441406</ele>
        <time>2017-08-06T09:45:01.000Z</time>
      </trkpt>
      <trkpt lat="46.42349" lon="5.7442">
        <ele>834.59997558594</ele>
        <time>2017-08-06T09:45:03.000Z</time>
      </trkpt>
      <trkpt lat="46.42347" lon="5.7442">
        <ele>834.59997558594</ele>
        <time>2017-08-06T09:45:05.000Z</time>
      </trkpt>
      <trkpt lat="46.42344" lon="5.74422">
        <ele>834.40002441406</ele>
        <time>2017-08-06T09:45:08.000Z</time>
      </trkpt>
      <trkpt lat="46.42342" lon="5.74425">
        <ele>834.59997558594</ele>
        <time>2017-08-06T09:45:11.000Z</time>
      </trkpt>
      <trkpt lat="46.42337" lon="5.74429">
        <ele>834.79998779297</ele>
        <time>2017-08-06T09:45:16.000Z</time>
      </trkpt>
      <trkpt lat="46.42336" lon="5.74431">
        <ele>835</ele>
        <time>2017-08-06T09:45:18.000Z</time>
      </trkpt>
      <trkpt lat="46.42334" lon="5.74438">
        <ele>835.40002441406</ele>
        <time>2017-08-06T09:45:23.000Z</time>
      </trkpt>
      <trkpt lat="46.42337" lon="5.74442">
        <ele>836.20001220703</ele>
        <time>2017-08-06T09:45:28.000Z</time>
      </trkpt>
      <trkpt lat="46.42336" lon="5.74446">
        <ele>836.59997558594</ele>
        <time>2017-08-06T09:45:31.000Z</time>
      </trkpt>
      <trkpt lat="46.42337" lon="5.74447">
        <ele>836.59997558594</ele>
        <time>2017-08-06T09:45:32.000Z</time>
      </trkpt>
      <trkpt lat="46.42338" lon="5.74452">
        <ele>837</ele>
        <time>2017-08-06T09:45:35.000Z</time>
      </trkpt>
      <trkpt lat="46.42338" lon="5.7446">
        <ele>837.59997558594</ele>
        <time>2017-08-06T09:45:44.000Z</time>
      </trkpt>
      <trkpt lat="46.42335" lon="5.74474">
        <ele>838.59997558594</ele>
        <time>2017-08-06T09:45:52.000Z</time>
      </trkpt>
      <trkpt lat="46.4233" lon="5.74486">
        <ele>839.79998779297</ele>
        <time>2017-08-06T09:45:59.000Z</time>
      </trkpt>
      <trkpt lat="46.42328" lon="5.74493">
        <ele>840.79998779297</ele>
        <time>2017-08-06T09:46:07.000Z</time>
      </trkpt>
      <trkpt lat="46.42329" lon="5.745">
        <ele>841.79998779297</ele>
        <time>2017-08-06T09:46:15.000Z</time>
      </trkpt>
      <trkpt lat="46.42326" lon="5.74507">
        <ele>842.79998779297</ele>
        <time>2017-08-06T09:46:23.000Z</time>
      </trkpt>
      <trkpt lat="46.42323" lon="5.74517">
        <ele>844</ele>
        <time>2017-08-06T09:46:29.000Z</time>
      </trkpt>
      <trkpt lat="46.42321" lon="5.74528">
        <ele>844.79998779297</ele>
        <time>2017-08-06T09:46:36.000Z</time>
      </trkpt>
      <trkpt lat="46.42321" lon="5.7453">
        <ele>845</ele>
        <time>2017-08-06T09:46:37.000Z</time>
      </trkpt>
      <trkpt lat="46.42321" lon="5.74534">
        <ele>845.79998779297</ele>
        <time>2017-08-06T09:46:41.000Z</time>
      </trkpt>
      <trkpt lat="46.42322" lon="5.74535">
        <ele>846.20001220703</ele>
        <time>2017-08-06T09:46:43.000Z</time>
      </trkpt>
      <trkpt lat="46.42323" lon="5.74534">
        <ele>846.59997558594</ele>
        <time>2017-08-06T09:46:46.000Z</time>
      </trkpt>
      <trkpt lat="46.42324" lon="5.74534">
        <ele>847.20001220703</ele>
        <time>2017-08-06T09:46:49.000Z</time>
      </trkpt>
      <trkpt lat="46.42324" lon="5.7454">
        <ele>848.40002441406</ele>
        <time>2017-08-06T09:46:55.000Z</time>
      </trkpt>
      <trkpt lat="46.42325" lon="5.74542">
        <ele>848.59997558594</ele>
        <time>2017-08-06T09:46:59.000Z</time>
      </trkpt>
      <trkpt lat="46.42325" lon="5.74543">
        <ele>848.79998779297</ele>
        <time>2017-08-06T09:47:00.000Z</time>
      </trkpt>
      <trkpt lat="46.42326" lon="5.74546">
        <ele>849.40002441406</ele>
        <time>2017-08-06T09:47:05.000Z</time>
      </trkpt>
      <trkpt lat="46.42329" lon="5.74551">
        <ele>850</ele>
        <time>2017-08-06T09:47:09.000Z</time>
      </trkpt>
      <trkpt lat="46.42328" lon="5.74555">
        <ele>850.20001220703</ele>
        <time>2017-08-06T09:47:12.000Z</time>
      </trkpt>
      <trkpt lat="46.4233" lon="5.74556">
        <ele>850.40002441406</ele>
        <time>2017-08-06T09:47:14.000Z</time>
      </trkpt>
      <trkpt lat="46.4233" lon="5.74558">
        <ele>850.59997558594</ele>
        <time>2017-08-06T09:47:15.000Z</time>
      </trkpt>
      <trkpt lat="46.42331" lon="5.7456">
        <ele>851.20001220703</ele>
        <time>2017-08-06T09:47:18.000Z</time>
      </trkpt>
      <trkpt lat="46.42332" lon="5.74563">
        <ele>851.59997558594</ele>
        <time>2017-08-06T09:47:20.000Z</time>
      </trkpt>
      <trkpt lat="46.42335" lon="5.74565">
        <ele>852</ele>
        <time>2017-08-06T09:47:24.000Z</time>
      </trkpt>
      <trkpt lat="46.42336" lon="5.74566">
        <ele>852.20001220703</ele>
        <time>2017-08-06T09:47:26.000Z</time>
      </trkpt>
      <trkpt lat="46.42338" lon="5.74568">
        <ele>852.20001220703</ele>
        <time>2017-08-06T09:47:28.000Z</time>
      </trkpt>
      <trkpt lat="46.4234" lon="5.74573">
        <ele>852.59997558594</ele>
        <time>2017-08-06T09:47:32.000Z</time>
      </trkpt>
      <trkpt lat="46.42341" lon="5.74576">
        <ele>852.59997558594</ele>
        <time>2017-08-06T09:47:34.000Z</time>
      </trkpt>
      <trkpt lat="46.42341" lon="5.74577">
        <ele>852.59997558594</ele>
        <time>2017-08-06T09:47:35.000Z</time>
      </trkpt>
      <trkpt lat="46.42343" lon="5.74581">
        <ele>853</ele>
        <time>2017-08-06T09:47:40.000Z</time>
      </trkpt>
      <trkpt lat="46.42346" lon="5.74587">
        <ele>853.59997558594</ele>
        <time>2017-08-06T09:47:48.000Z</time>
      </trkpt>
      <trkpt lat="46.42349" lon="5.74592">
        <ele>854.40002441406</ele>
        <time>2017-08-06T09:47:54.000Z</time>
      </trkpt>
      <trkpt lat="46.42348" lon="5.74594">
        <ele>854.59997558594</ele>
        <time>2017-08-06T09:47:56.000Z</time>
      </trkpt>
      <trkpt lat="46.42349" lon="5.74603">
        <ele>855.79998779297</ele>
        <time>2017-08-06T09:48:04.000Z</time>
      </trkpt>
      <trkpt lat="46.42347" lon="5.7462">
        <ele>856.79998779297</ele>
        <time>2017-08-06T09:48:16.000Z</time>
      </trkpt>
      <trkpt lat="46.42348" lon="5.74629">
        <ele>858</ele>
        <time>2017-08-06T09:48:26.000Z</time>
      </trkpt>
      <trkpt lat="46.42349" lon="5.74636">
        <ele>859</ele>
        <time>2017-08-06T09:48:33.000Z</time>
      </trkpt>
      <trkpt lat="46.42346" lon="5.74644">
        <ele>859.40002441406</ele>
        <time>2017-08-06T09:48:37.000Z</time>
      </trkpt>
      <trkpt lat="46.42345" lon="5.74648">
        <ele>859.59997558594</ele>
        <time>2017-08-06T09:48:39.000Z</time>
      </trkpt>
      <trkpt lat="46.42344" lon="5.74652">
        <ele>860</ele>
        <time>2017-08-06T09:48:43.000Z</time>
      </trkpt>
      <trkpt lat="46.42341" lon="5.74659">
        <ele>861</ele>
        <time>2017-08-06T09:48:52.000Z</time>
      </trkpt>
      <trkpt lat="46.42338" lon="5.7467">
        <ele>861.79998779297</ele>
        <time>2017-08-06T09:48:58.000Z</time>
      </trkpt>
      <trkpt lat="46.42339" lon="5.74672">
        <ele>862.20001220703</ele>
        <time>2017-08-06T09:49:00.000Z</time>
      </trkpt>
      <trkpt lat="46.42338" lon="5.74682">
        <ele>863</ele>
        <time>2017-08-06T09:49:07.000Z</time>
      </trkpt>
      <trkpt lat="46.4234" lon="5.74685">
        <ele>863.20001220703</ele>
        <time>2017-08-06T09:49:09.000Z</time>
      </trkpt>
      <trkpt lat="46.42345" lon="5.74691">
        <ele>864.20001220703</ele>
        <time>2017-08-06T09:49:18.000Z</time>
      </trkpt>
      <trkpt lat="46.42348" lon="5.74695">
        <ele>865</ele>
        <time>2017-08-06T09:49:23.000Z</time>
      </trkpt>
      <trkpt lat="46.42349" lon="5.74696">
        <ele>865.20001220703</ele>
        <time>2017-08-06T09:49:24.000Z</time>
      </trkpt>
      <trkpt lat="46.4235" lon="5.74696">
        <ele>865.40002441406</ele>
        <time>2017-08-06T09:49:25.000Z</time>
      </trkpt>
      <trkpt lat="46.42351" lon="5.74699">
        <ele>865.79998779297</ele>
        <time>2017-08-06T09:49:28.000Z</time>
      </trkpt>
      <trkpt lat="46.42352" lon="5.747">
        <ele>866</ele>
        <time>2017-08-06T09:49:30.000Z</time>
      </trkpt>
      <trkpt lat="46.42353" lon="5.74701">
        <ele>866.20001220703</ele>
        <time>2017-08-06T09:49:32.000Z</time>
      </trkpt>
      <trkpt lat="46.42354" lon="5.74708">
        <ele>867.20001220703</ele>
        <time>2017-08-06T09:49:39.000Z</time>
      </trkpt>
      <trkpt lat="46.42357" lon="5.74711">
        <ele>867.79998779297</ele>
        <time>2017-08-06T09:49:42.000Z</time>
      </trkpt>
      <trkpt lat="46.4236" lon="5.74712">
        <ele>868.20001220703</ele>
        <time>2017-08-06T09:49:45.000Z</time>
      </trkpt>
      <trkpt lat="46.42361" lon="5.74713">
        <ele>868.40002441406</ele>
        <time>2017-08-06T09:49:46.000Z</time>
      </trkpt>
      <trkpt lat="46.42362" lon="5.74715">
        <ele>868.59997558594</ele>
        <time>2017-08-06T09:49:49.000Z</time>
      </trkpt>
      <trkpt lat="46.42363" lon="5.74721">
        <ele>869.40002441406</ele>
        <time>2017-08-06T09:49:57.000Z</time>
      </trkpt>
      <trkpt lat="46.42366" lon="5.74731">
        <ele>870.40002441406</ele>
        <time>2017-08-06T09:50:05.000Z</time>
      </trkpt>
      <trkpt lat="46.42373" lon="5.74738">
        <ele>871.40002441406</ele>
        <time>2017-08-06T09:50:13.000Z</time>
      </trkpt>
      <trkpt lat="46.42375" lon="5.74741">
        <ele>872.40002441406</ele>
        <time>2017-08-06T09:50:19.000Z</time>
      </trkpt>
      <trkpt lat="46.42378" lon="5.74742">
        <ele>872.79998779297</ele>
        <time>2017-08-06T09:50:22.000Z</time>
      </trkpt>
      <trkpt lat="46.42381" lon="5.74745">
        <ele>873.20001220703</ele>
        <time>2017-08-06T09:50:28.000Z</time>
      </trkpt>
      <trkpt lat="46.42384" lon="5.74747">
        <ele>873.79998779297</ele>
        <time>2017-08-06T09:50:31.000Z</time>
      </trkpt>
      <trkpt lat="46.42385" lon="5.74747">
        <ele>874</ele>
        <time>2017-08-06T09:50:32.000Z</time>
      </trkpt>
      <trkpt lat="46.42395" lon="5.74755">
        <ele>874.79998779297</ele>
        <time>2017-08-06T09:50:48.000Z</time>
      </trkpt>
      <trkpt lat="46.424" lon="5.74757">
        <ele>875.79998779297</ele>
        <time>2017-08-06T09:50:56.000Z</time>
      </trkpt>
      <trkpt lat="46.42405" lon="5.74764">
        <ele>877</ele>
        <time>2017-08-06T09:51:10.000Z</time>
      </trkpt>
      <trkpt lat="46.42413" lon="5.74773">
        <ele>878</ele>
        <time>2017-08-06T09:51:20.000Z</time>
      </trkpt>
      <trkpt lat="46.42418" lon="5.74783">
        <ele>879</ele>
        <time>2017-08-06T09:51:45.000Z</time>
      </trkpt>
      <trkpt lat="46.42424" lon="5.74792">
        <ele>880</ele>
        <time>2017-08-06T09:51:54.000Z</time>
      </trkpt>
      <trkpt lat="46.4243" lon="5.74795">
        <ele>881.20001220703</ele>
        <time>2017-08-06T09:52:01.000Z</time>
      </trkpt>
      <trkpt lat="46.42437" lon="5.74802">
        <ele>882.20001220703</ele>
        <time>2017-08-06T09:52:07.000Z</time>
      </trkpt>
      <trkpt lat="46.42437" lon="5.74803">
        <ele>882.20001220703</ele>
        <time>2017-08-06T09:52:08.000Z</time>
      </trkpt>
      <trkpt lat="46.42439" lon="5.74808">
        <ele>882.59997558594</ele>
        <time>2017-08-06T09:52:11.000Z</time>
      </trkpt>
      <trkpt lat="46.42447" lon="5.74818">
        <ele>883.20001220703</ele>
        <time>2017-08-06T09:52:20.000Z</time>
      </trkpt>
      <trkpt lat="46.42448" lon="5.74822">
        <ele>883.79998779297</ele>
        <time>2017-08-06T09:52:23.000Z</time>
      </trkpt>
      <trkpt lat="46.42447" lon="5.74826">
        <ele>884.40002441406</ele>
        <time>2017-08-06T09:52:27.000Z</time>
      </trkpt>
      <trkpt lat="46.42447" lon="5.74827">
        <ele>884.59997558594</ele>
        <time>2017-08-06T09:52:28.000Z</time>
      </trkpt>
      <trkpt lat="46.42449" lon="5.74837">
        <ele>885.40002441406</ele>
        <time>2017-08-06T09:52:39.000Z</time>
      </trkpt>
      <trkpt lat="46.42452" lon="5.74844">
        <ele>886.40002441406</ele>
        <time>2017-08-06T09:52:47.000Z</time>
      </trkpt>
      <trkpt lat="46.42457" lon="5.74851">
        <ele>887.59997558594</ele>
        <time>2017-08-06T09:52:56.000Z</time>
      </trkpt>
      <trkpt lat="46.4246" lon="5.74856">
        <ele>888.20001220703</ele>
        <time>2017-08-06T09:53:01.000Z</time>
      </trkpt>
      <trkpt lat="46.42464" lon="5.74853">
        <ele>888.59997558594</ele>
        <time>2017-08-06T09:53:06.000Z</time>
      </trkpt>
      <trkpt lat="46.42464" lon="5.74856">
        <ele>888.59997558594</ele>
        <time>2017-08-06T09:53:08.000Z</time>
      </trkpt>
      <trkpt lat="46.42469" lon="5.74865">
        <ele>889.79998779297</ele>
        <time>2017-08-06T09:53:18.000Z</time>
      </trkpt>
      <trkpt lat="46.42472" lon="5.74873">
        <ele>890.79998779297</ele>
        <time>2017-08-06T09:53:25.000Z</time>
      </trkpt>
      <trkpt lat="46.42477" lon="5.74879">
        <ele>891.79998779297</ele>
        <time>2017-08-06T09:53:31.000Z</time>
      </trkpt>
      <trkpt lat="46.42479" lon="5.74883">
        <ele>892.79998779297</ele>
        <time>2017-08-06T09:53:36.000Z</time>
      </trkpt>
      <trkpt lat="46.42481" lon="5.74892">
        <ele>893.79998779297</ele>
        <time>2017-08-06T09:53:42.000Z</time>
      </trkpt>
      <trkpt lat="46.42483" lon="5.74899">
        <ele>895</ele>
        <time>2017-08-06T09:53:49.000Z</time>
      </trkpt>
      <trkpt lat="46.42486" lon="5.74903">
        <ele>896</ele>
        <time>2017-08-06T09:53:55.000Z</time>
      </trkpt>
      <trkpt lat="46.42488" lon="5.74916">
        <ele>897</ele>
        <time>2017-08-06T09:54:04.000Z</time>
      </trkpt>
      <trkpt lat="46.42489" lon="5.74917">
        <ele>897.20001220703</ele>
        <time>2017-08-06T09:54:05.000Z</time>
      </trkpt>
      <trkpt lat="46.4249" lon="5.7492">
        <ele>897.40002441406</ele>
        <time>2017-08-06T09:54:07.000Z</time>
      </trkpt>
      <trkpt lat="46.42492" lon="5.74922">
        <ele>898</ele>
        <time>2017-08-06T09:54:09.000Z</time>
      </trkpt>
      <trkpt lat="46.42494" lon="5.74924">
        <ele>898.40002441406</ele>
        <time>2017-08-06T09:54:11.000Z</time>
      </trkpt>
      <trkpt lat="46.42496" lon="5.74925">
        <ele>898.79998779297</ele>
        <time>2017-08-06T09:54:13.000Z</time>
      </trkpt>
      <trkpt lat="46.42497" lon="5.7493">
        <ele>899.40002441406</ele>
        <time>2017-08-06T09:54:17.000Z</time>
      </trkpt>
      <trkpt lat="46.42502" lon="5.74936">
        <ele>900.40002441406</ele>
        <time>2017-08-06T09:54:24.000Z</time>
      </trkpt>
      <trkpt lat="46.42504" lon="5.74938">
        <ele>900.79998779297</ele>
        <time>2017-08-06T09:54:26.000Z</time>
      </trkpt>
      <trkpt lat="46.42504" lon="5.74942">
        <ele>901.20001220703</ele>
        <time>2017-08-06T09:54:29.000Z</time>
      </trkpt>
      <trkpt lat="46.42504" lon="5.74943">
        <ele>901.40002441406</ele>
        <time>2017-08-06T09:54:30.000Z</time>
      </trkpt>
      <trkpt lat="46.42504" lon="5.74947">
        <ele>902.20001220703</ele>
        <time>2017-08-06T09:54:33.000Z</time>
      </trkpt>
      <trkpt lat="46.42505" lon="5.7495">
        <ele>902.59997558594</ele>
        <time>2017-08-06T09:54:35.000Z</time>
      </trkpt>
      <trkpt lat="46.42505" lon="5.74952">
        <ele>902.79998779297</ele>
        <time>2017-08-06T09:54:37.000Z</time>
      </trkpt>
      <trkpt lat="46.42506" lon="5.74957">
        <ele>903.59997558594</ele>
        <time>2017-08-06T09:54:42.000Z</time>
      </trkpt>
      <trkpt lat="46.42507" lon="5.74969">
        <ele>904.79998779297</ele>
        <time>2017-08-06T09:54:54.000Z</time>
      </trkpt>
      <trkpt lat="46.42505" lon="5.74977">
        <ele>905</ele>
        <time>2017-08-06T09:54:58.000Z</time>
      </trkpt>
      <trkpt lat="46.42506" lon="5.74979">
        <ele>905.40002441406</ele>
        <time>2017-08-06T09:55:00.000Z</time>
      </trkpt>
      <trkpt lat="46.42506" lon="5.74982">
        <ele>906</ele>
        <time>2017-08-06T09:55:03.000Z</time>
      </trkpt>
      <trkpt lat="46.42504" lon="5.74986">
        <ele>907</ele>
        <time>2017-08-06T09:55:09.000Z</time>
      </trkpt>
      <trkpt lat="46.42504" lon="5.74987">
        <ele>907.20001220703</ele>
        <time>2017-08-06T09:55:10.000Z</time>
      </trkpt>
      <trkpt lat="46.42505" lon="5.74996">
        <ele>908.20001220703</ele>
        <time>2017-08-06T09:55:16.000Z</time>
      </trkpt>
      <trkpt lat="46.42505" lon="5.75003">
        <ele>909.20001220703</ele>
        <time>2017-08-06T09:55:22.000Z</time>
      </trkpt>
      <trkpt lat="46.42503" lon="5.75006">
        <ele>910.40002441406</ele>
        <time>2017-08-06T09:55:28.000Z</time>
      </trkpt>
      <trkpt lat="46.42502" lon="5.75007">
        <ele>911.40002441406</ele>
        <time>2017-08-06T09:55:33.000Z</time>
      </trkpt>
      <trkpt lat="46.42498" lon="5.75007">
        <ele>912.59997558594</ele>
        <time>2017-08-06T09:55:40.000Z</time>
      </trkpt>
      <trkpt lat="46.42491" lon="5.75007">
        <ele>913.20001220703</ele>
        <time>2017-08-06T09:55:46.000Z</time>
      </trkpt>
      <trkpt lat="46.42489" lon="5.75007">
        <ele>913.59997558594</ele>
        <time>2017-08-06T09:55:49.000Z</time>
      </trkpt>
      <trkpt lat="46.4248" lon="5.75001">
        <ele>914.59997558594</ele>
        <time>2017-08-06T09:55:58.000Z</time>
      </trkpt>
      <trkpt lat="46.42477" lon="5.74999">
        <ele>915</ele>
        <time>2017-08-06T09:56:01.000Z</time>
      </trkpt>
      <trkpt lat="46.42474" lon="5.74997">
        <ele>915.40002441406</ele>
        <time>2017-08-06T09:56:06.000Z</time>
      </trkpt>
      <trkpt lat="46.42473" lon="5.74996">
        <ele>915.79998779297</ele>
        <time>2017-08-06T09:56:08.000Z</time>
      </trkpt>
      <trkpt lat="46.42466" lon="5.74995">
        <ele>916.40002441406</ele>
        <time>2017-08-06T09:56:14.000Z</time>
      </trkpt>
      <trkpt lat="46.42463" lon="5.74995">
        <ele>916.59997558594</ele>
        <time>2017-08-06T09:56:16.000Z</time>
      </trkpt>
      <trkpt lat="46.42462" lon="5.74995">
        <ele>916.79998779297</ele>
        <time>2017-08-06T09:56:17.000Z</time>
      </trkpt>
      <trkpt lat="46.42457" lon="5.74993">
        <ele>917.20001220703</ele>
        <time>2017-08-06T09:56:22.000Z</time>
      </trkpt>
      <trkpt lat="46.42454" lon="5.74984">
        <ele>917.79998779297</ele>
        <time>2017-08-06T09:56:28.000Z</time>
      </trkpt>
      <trkpt lat="46.42453" lon="5.74983">
        <ele>917.79998779297</ele>
        <time>2017-08-06T09:56:29.000Z</time>
      </trkpt>
      <trkpt lat="46.42451" lon="5.74981">
        <ele>917.79998779297</ele>
        <time>2017-08-06T09:56:31.000Z</time>
      </trkpt>
      <trkpt lat="46.4245" lon="5.7498">
        <ele>917.79998779297</ele>
        <time>2017-08-06T09:56:33.000Z</time>
      </trkpt>
      <trkpt lat="46.42436" lon="5.74969">
        <ele>918.79998779297</ele>
        <time>2017-08-06T09:56:48.000Z</time>
      </trkpt>
      <trkpt lat="46.42435" lon="5.74968">
        <ele>919</ele>
        <time>2017-08-06T09:56:50.000Z</time>
      </trkpt>
      <trkpt lat="46.42435" lon="5.74976">
        <ele>919</ele>
        <time>2017-08-06T09:58:02.000Z</time>
      </trkpt>
      <trkpt lat="46.42431" lon="5.74984">
        <ele>920</ele>
        <time>2017-08-06T09:58:18.000Z</time>
      </trkpt>
      <trkpt lat="46.42428" lon="5.74985">
        <ele>921.20001220703</ele>
        <time>2017-08-06T09:58:23.000Z</time>
      </trkpt>
      <trkpt lat="46.42427" lon="5.74987">
        <ele>922.20001220703</ele>
        <time>2017-08-06T09:58:27.000Z</time>
      </trkpt>
      <trkpt lat="46.42425" lon="5.74993">
        <ele>923.20001220703</ele>
        <time>2017-08-06T09:58:32.000Z</time>
      </trkpt>
      <trkpt lat="46.42425" lon="5.74999">
        <ele>924</ele>
        <time>2017-08-06T09:58:37.000Z</time>
      </trkpt>
      <trkpt lat="46.42426" lon="5.75">
        <ele>924.20001220703</ele>
        <time>2017-08-06T09:58:38.000Z</time>
      </trkpt>
      <trkpt lat="46.42427" lon="5.75005">
        <ele>925</ele>
        <time>2017-08-06T09:58:43.000Z</time>
      </trkpt>
      <trkpt lat="46.42426" lon="5.7501">
        <ele>925.40002441406</ele>
        <time>2017-08-06T09:58:47.000Z</time>
      </trkpt>
      <trkpt lat="46.42427" lon="5.75018">
        <ele>926.40002441406</ele>
        <time>2017-08-06T09:58:55.000Z</time>
      </trkpt>
      <trkpt lat="46.42428" lon="5.75019">
        <ele>926.40002441406</ele>
        <time>2017-08-06T09:58:56.000Z</time>
      </trkpt>
      <trkpt lat="46.42425" lon="5.75027">
        <ele>926.79998779297</ele>
        <time>2017-08-06T09:59:03.000Z</time>
      </trkpt>
      <trkpt lat="46.42423" lon="5.75033">
        <ele>927.59997558594</ele>
        <time>2017-08-06T09:59:08.000Z</time>
      </trkpt>
      <trkpt lat="46.42419" lon="5.75035">
        <ele>928.79998779297</ele>
        <time>2017-08-06T09:59:13.000Z</time>
      </trkpt>
      <trkpt lat="46.42417" lon="5.7504">
        <ele>929.79998779297</ele>
        <time>2017-08-06T09:59:18.000Z</time>
      </trkpt>
      <trkpt lat="46.42416" lon="5.75046">
        <ele>930.79998779297</ele>
        <time>2017-08-06T09:59:22.000Z</time>
      </trkpt>
      <trkpt lat="46.42406" lon="5.75058">
        <ele>931.59997558594</ele>
        <time>2017-08-06T09:59:34.000Z</time>
      </trkpt>
      <trkpt lat="46.42402" lon="5.7506">
        <ele>931.40002441406</ele>
        <time>2017-08-06T09:59:38.000Z</time>
      </trkpt>
      <trkpt lat="46.42403" lon="5.75056">
        <ele>931.59997558594</ele>
        <time>2017-08-06T09:59:42.000Z</time>
      </trkpt>
      <trkpt lat="46.42397" lon="5.75057">
        <ele>931.79998779297</ele>
        <time>2017-08-06T09:59:50.000Z</time>
      </trkpt>
      <trkpt lat="46.42393" lon="5.75057">
        <ele>932</ele>
        <time>2017-08-06T09:59:53.000Z</time>
      </trkpt>
      <trkpt lat="46.42385" lon="5.75058">
        <ele>932</ele>
        <time>2017-08-06T09:59:59.000Z</time>
      </trkpt>
      <trkpt lat="46.42379" lon="5.75057">
        <ele>932</ele>
        <time>2017-08-06T10:00:04.000Z</time>
      </trkpt>
      <trkpt lat="46.42376" lon="5.75056">
        <ele>932.20001220703</ele>
        <time>2017-08-06T10:00:06.000Z</time>
      </trkpt>
      <trkpt lat="46.42374" lon="5.75055">
        <ele>932.59997558594</ele>
        <time>2017-08-06T10:00:08.000Z</time>
      </trkpt>
      <trkpt lat="46.4237" lon="5.75054">
        <ele>932.79998779297</ele>
        <time>2017-08-06T10:00:12.000Z</time>
      </trkpt>
      <trkpt lat="46.42368" lon="5.75055">
        <ele>933</ele>
        <time>2017-08-06T10:00:14.000Z</time>
      </trkpt>
      <trkpt lat="46.42365" lon="5.75057">
        <ele>933</ele>
        <time>2017-08-06T10:00:16.000Z</time>
      </trkpt>
      <trkpt lat="46.42361" lon="5.75057">
        <ele>933.20001220703</ele>
        <time>2017-08-06T10:00:20.000Z</time>
      </trkpt>
      <trkpt lat="46.42358" lon="5.75056">
        <ele>933.40002441406</ele>
        <time>2017-08-06T10:00:22.000Z</time>
      </trkpt>
      <trkpt lat="46.42352" lon="5.75055">
        <ele>933.20001220703</ele>
        <time>2017-08-06T10:00:27.000Z</time>
      </trkpt>
      <trkpt lat="46.4235" lon="5.75055">
        <ele>933.20001220703</ele>
        <time>2017-08-06T10:00:29.000Z</time>
      </trkpt>
      <trkpt lat="46.42332" lon="5.75055">
        <ele>934</ele>
        <time>2017-08-06T10:00:40.000Z</time>
      </trkpt>
      <trkpt lat="46.42329" lon="5.75054">
        <ele>934.20001220703</ele>
        <time>2017-08-06T10:00:42.000Z</time>
      </trkpt>
      <trkpt lat="46.42326" lon="5.75054">
        <ele>934.40002441406</ele>
        <time>2017-08-06T10:00:44.000Z</time>
      </trkpt>
      <trkpt lat="46.42314" lon="5.75049">
        <ele>935</ele>
        <time>2017-08-06T10:00:59.000Z</time>
      </trkpt>
      <trkpt lat="46.42312" lon="5.75047">
        <ele>935</ele>
        <time>2017-08-06T10:01:02.000Z</time>
      </trkpt>
      <trkpt lat="46.42307" lon="5.75045">
        <ele>936.20001220703</ele>
        <time>2017-08-06T10:01:10.000Z</time>
      </trkpt>
      <trkpt lat="46.42304" lon="5.75037">
        <ele>937.20001220703</ele>
        <time>2017-08-06T10:01:19.000Z</time>
      </trkpt>
      <trkpt lat="46.42295" lon="5.75034">
        <ele>938</ele>
        <time>2017-08-06T10:01:29.000Z</time>
      </trkpt>
      <trkpt lat="46.42294" lon="5.75032">
        <ele>938.20001220703</ele>
        <time>2017-08-06T10:01:32.000Z</time>
      </trkpt>
      <trkpt lat="46.42286" lon="5.75036">
        <ele>939.40002441406</ele>
        <time>2017-08-06T10:01:42.000Z</time>
      </trkpt>
      <trkpt lat="46.4228" lon="5.75039">
        <ele>940</ele>
        <time>2017-08-06T10:01:48.000Z</time>
      </trkpt>
      <trkpt lat="46.4228" lon="5.7504">
        <ele>940.20001220703</ele>
        <time>2017-08-06T10:01:50.000Z</time>
      </trkpt>
      <trkpt lat="46.42278" lon="5.7504">
        <ele>940.40002441406</ele>
        <time>2017-08-06T10:01:52.000Z</time>
      </trkpt>
      <trkpt lat="46.42273" lon="5.75045">
        <ele>941.40002441406</ele>
        <time>2017-08-06T10:02:01.000Z</time>
      </trkpt>
      <trkpt lat="46.4227" lon="5.75051">
        <ele>941.79998779297</ele>
        <time>2017-08-06T10:02:14.000Z</time>
      </trkpt>
      <trkpt lat="46.42267" lon="5.75053">
        <ele>942.40002441406</ele>
        <time>2017-08-06T10:02:18.000Z</time>
      </trkpt>
      <trkpt lat="46.42256" lon="5.75051">
        <ele>943</ele>
        <time>2017-08-06T10:02:26.000Z</time>
      </trkpt>
      <trkpt lat="46.42253" lon="5.7505">
        <ele>943.40002441406</ele>
        <time>2017-08-06T10:02:29.000Z</time>
      </trkpt>
      <trkpt lat="46.42252" lon="5.75049">
        <ele>943.59997558594</ele>
        <time>2017-08-06T10:02:31.000Z</time>
      </trkpt>
      <trkpt lat="46.4225" lon="5.75048">
        <ele>944.20001220703</ele>
        <time>2017-08-06T10:02:34.000Z</time>
      </trkpt>
      <trkpt lat="46.42247" lon="5.75048">
        <ele>944.40002441406</ele>
        <time>2017-08-06T10:02:36.000Z</time>
      </trkpt>
      <trkpt lat="46.42239" lon="5.75045">
        <ele>945.59997558594</ele>
        <time>2017-08-06T10:02:45.000Z</time>
      </trkpt>
      <trkpt lat="46.42238" lon="5.75043">
        <ele>945.79998779297</ele>
        <time>2017-08-06T10:02:47.000Z</time>
      </trkpt>
      <trkpt lat="46.4223" lon="5.75039">
        <ele>946.59997558594</ele>
        <time>2017-08-06T10:02:55.000Z</time>
      </trkpt>
      <trkpt lat="46.42228" lon="5.7504">
        <ele>946.79998779297</ele>
        <time>2017-08-06T10:02:57.000Z</time>
      </trkpt>
      <trkpt lat="46.42226" lon="5.75037">
        <ele>947.20001220703</ele>
        <time>2017-08-06T10:02:59.000Z</time>
      </trkpt>
      <trkpt lat="46.42224" lon="5.75037">
        <ele>947.59997558594</ele>
        <time>2017-08-06T10:03:01.000Z</time>
      </trkpt>
      <trkpt lat="46.42223" lon="5.75036">
        <ele>947.59997558594</ele>
        <time>2017-08-06T10:03:02.000Z</time>
      </trkpt>
      <trkpt lat="46.42222" lon="5.75037">
        <ele>948</ele>
        <time>2017-08-06T10:03:04.000Z</time>
      </trkpt>
      <trkpt lat="46.42215" lon="5.75033">
        <ele>948.59997558594</ele>
        <time>2017-08-06T10:03:12.000Z</time>
      </trkpt>
      <trkpt lat="46.42214" lon="5.75033">
        <ele>948.79998779297</ele>
        <time>2017-08-06T10:03:13.000Z</time>
      </trkpt>
      <trkpt lat="46.42213" lon="5.75032">
        <ele>948.79998779297</ele>
        <time>2017-08-06T10:03:14.000Z</time>
      </trkpt>
      <trkpt lat="46.4221" lon="5.75031">
        <ele>949.40002441406</ele>
        <time>2017-08-06T10:03:17.000Z</time>
      </trkpt>
      <trkpt lat="46.42207" lon="5.7503">
        <ele>949.59997558594</ele>
        <time>2017-08-06T10:03:19.000Z</time>
      </trkpt>
      <trkpt lat="46.42206" lon="5.75029">
        <ele>949.79998779297</ele>
        <time>2017-08-06T10:03:20.000Z</time>
      </trkpt>
      <trkpt lat="46.42196" lon="5.75025">
        <ele>951</ele>
        <time>2017-08-06T10:03:32.000Z</time>
      </trkpt>
      <trkpt lat="46.42193" lon="5.75024">
        <ele>951.59997558594</ele>
        <time>2017-08-06T10:03:36.000Z</time>
      </trkpt>
      <trkpt lat="46.4219" lon="5.75024">
        <ele>952</ele>
        <time>2017-08-06T10:03:40.000Z</time>
      </trkpt>
      <trkpt lat="46.42185" lon="5.75021">
        <ele>952.59997558594</ele>
        <time>2017-08-06T10:03:44.000Z</time>
      </trkpt>
      <trkpt lat="46.42183" lon="5.75018">
        <ele>953.20001220703</ele>
        <time>2017-08-06T10:03:48.000Z</time>
      </trkpt>
      <trkpt lat="46.4218" lon="5.75015">
        <ele>953.79998779297</ele>
        <time>2017-08-06T10:03:53.000Z</time>
      </trkpt>
      <trkpt lat="46.42179" lon="5.75015">
        <ele>954.20001220703</ele>
        <time>2017-08-06T10:03:56.000Z</time>
      </trkpt>
      <trkpt lat="46.42175" lon="5.75015">
        <ele>954.79998779297</ele>
        <time>2017-08-06T10:04:00.000Z</time>
      </trkpt>
      <trkpt lat="46.42172" lon="5.75014">
        <ele>955.40002441406</ele>
        <time>2017-08-06T10:04:02.000Z</time>
      </trkpt>
      <trkpt lat="46.42167" lon="5.75008">
        <ele>956.59997558594</ele>
        <time>2017-08-06T10:04:07.000Z</time>
      </trkpt>
      <trkpt lat="46.42165" lon="5.75006">
        <ele>957.59997558594</ele>
        <time>2017-08-06T10:04:13.000Z</time>
      </trkpt>
      <trkpt lat="46.42152" lon="5.75005">
        <ele>958.79998779297</ele>
        <time>2017-08-06T10:04:26.000Z</time>
      </trkpt>
      <trkpt lat="46.42145" lon="5.75002">
        <ele>959.79998779297</ele>
        <time>2017-08-06T10:04:32.000Z</time>
      </trkpt>
      <trkpt lat="46.42144" lon="5.75002">
        <ele>960</ele>
        <time>2017-08-06T10:04:33.000Z</time>
      </trkpt>
      <trkpt lat="46.42142" lon="5.75001">
        <ele>960.20001220703</ele>
        <time>2017-08-06T10:04:35.000Z</time>
      </trkpt>
      <trkpt lat="46.42139" lon="5.74997">
        <ele>960.79998779297</ele>
        <time>2017-08-06T10:04:39.000Z</time>
      </trkpt>
      <trkpt lat="46.42137" lon="5.74995">
        <ele>961</ele>
        <time>2017-08-06T10:04:41.000Z</time>
      </trkpt>
      <trkpt lat="46.42135" lon="5.74995">
        <ele>961.59997558594</ele>
        <time>2017-08-06T10:04:44.000Z</time>
      </trkpt>
      <trkpt lat="46.42134" lon="5.74995">
        <ele>961.79998779297</ele>
        <time>2017-08-06T10:04:46.000Z</time>
      </trkpt>
      <trkpt lat="46.42128" lon="5.7499">
        <ele>962.79998779297</ele>
        <time>2017-08-06T10:04:52.000Z</time>
      </trkpt>
      <trkpt lat="46.42127" lon="5.7499">
        <ele>963</ele>
        <time>2017-08-06T10:04:53.000Z</time>
      </trkpt>
      <trkpt lat="46.42126" lon="5.74986">
        <ele>963.59997558594</ele>
        <time>2017-08-06T10:04:57.000Z</time>
      </trkpt>
      <trkpt lat="46.42125" lon="5.74984">
        <ele>963.59997558594</ele>
        <time>2017-08-06T10:04:59.000Z</time>
      </trkpt>
      <trkpt lat="46.42123" lon="5.74981">
        <ele>964</ele>
        <time>2017-08-06T10:05:01.000Z</time>
      </trkpt>
      <trkpt lat="46.42123" lon="5.7498">
        <ele>964.20001220703</ele>
        <time>2017-08-06T10:05:02.000Z</time>
      </trkpt>
      <trkpt lat="46.42123" lon="5.74979">
        <ele>964.40002441406</ele>
        <time>2017-08-06T10:05:04.000Z</time>
      </trkpt>
      <trkpt lat="46.42114" lon="5.74976">
        <ele>965.40002441406</ele>
        <time>2017-08-06T10:05:14.000Z</time>
      </trkpt>
      <trkpt lat="46.42109" lon="5.74975">
        <ele>965.79998779297</ele>
        <time>2017-08-06T10:05:19.000Z</time>
      </trkpt>
      <trkpt lat="46.42106" lon="5.74973">
        <ele>966.40002441406</ele>
        <time>2017-08-06T10:05:22.000Z</time>
      </trkpt>
      <trkpt lat="46.42105" lon="5.74973">
        <ele>966.40002441406</ele>
        <time>2017-08-06T10:05:23.000Z</time>
      </trkpt>
      <trkpt lat="46.42102" lon="5.74969">
        <ele>966.79998779297</ele>
        <time>2017-08-06T10:05:25.000Z</time>
      </trkpt>
      <trkpt lat="46.42099" lon="5.74967">
        <ele>967</ele>
        <time>2017-08-06T10:05:27.000Z</time>
      </trkpt>
      <trkpt lat="46.42096" lon="5.74962">
        <ele>967.40002441406</ele>
        <time>2017-08-06T10:05:30.000Z</time>
      </trkpt>
      <trkpt lat="46.42089" lon="5.7496">
        <ele>967.79998779297</ele>
        <time>2017-08-06T10:05:37.000Z</time>
      </trkpt>
      <trkpt lat="46.42087" lon="5.74957">
        <ele>968</ele>
        <time>2017-08-06T10:05:41.000Z</time>
      </trkpt>
      <trkpt lat="46.42086" lon="5.74957">
        <ele>968</ele>
        <time>2017-08-06T10:05:43.000Z</time>
      </trkpt>
      <trkpt lat="46.42071" lon="5.74955">
        <ele>968.20001220703</ele>
        <time>2017-08-06T10:05:55.000Z</time>
      </trkpt>
      <trkpt lat="46.42068" lon="5.74955">
        <ele>968.20001220703</ele>
        <time>2017-08-06T10:05:57.000Z</time>
      </trkpt>
      <trkpt lat="46.42067" lon="5.74954">
        <ele>968.20001220703</ele>
        <time>2017-08-06T10:05:59.000Z</time>
      </trkpt>
      <trkpt lat="46.42066" lon="5.74955">
        <ele>968</ele>
        <time>2017-08-06T10:06:01.000Z</time>
      </trkpt>
      <trkpt lat="46.42055" lon="5.7494">
        <ele>968</ele>
        <time>2017-08-06T10:06:39.000Z</time>
      </trkpt>
      <trkpt lat="46.42042" lon="5.74946">
        <ele>968</ele>
        <time>2017-08-06T10:06:49.000Z</time>
      </trkpt>
      <trkpt lat="46.42047" lon="5.74944">
        <ele>968.20001220703</ele>
        <time>2017-08-06T10:06:53.000Z</time>
      </trkpt>
      <trkpt lat="46.42046" lon="5.74944">
        <ele>968.40002441406</ele>
        <time>2017-08-06T10:06:56.000Z</time>
      </trkpt>
      <trkpt lat="46.42046" lon="5.74947">
        <ele>968.59997558594</ele>
        <time>2017-08-06T10:06:58.000Z</time>
      </trkpt>
      <trkpt lat="46.42041" lon="5.74948">
        <ele>969</ele>
        <time>2017-08-06T10:07:08.000Z</time>
      </trkpt>
      <trkpt lat="46.42039" lon="5.74946">
        <ele>969</ele>
        <time>2017-08-06T10:07:12.000Z</time>
      </trkpt>
      <trkpt lat="46.42037" lon="5.74946">
        <ele>969</ele>
        <time>2017-08-06T10:07:15.000Z</time>
      </trkpt>
      <trkpt lat="46.42035" lon="5.74946">
        <ele>969</ele>
        <time>2017-08-06T10:07:17.000Z</time>
      </trkpt>
      <trkpt lat="46.42033" lon="5.74945">
        <ele>969.20001220703</ele>
        <time>2017-08-06T10:07:20.000Z</time>
      </trkpt>
      <trkpt lat="46.42032" lon="5.74945">
        <ele>969.20001220703</ele>
        <time>2017-08-06T10:07:22.000Z</time>
      </trkpt>
      <trkpt lat="46.42031" lon="5.74945">
        <ele>969</ele>
        <time>2017-08-06T10:07:24.000Z</time>
      </trkpt>
      <trkpt lat="46.42026" lon="5.74948">
        <ele>969.40002441406</ele>
        <time>2017-08-06T10:07:31.000Z</time>
      </trkpt>
      <trkpt lat="46.42024" lon="5.74947">
        <ele>969.59997558594</ele>
        <time>2017-08-06T10:07:33.000Z</time>
      </trkpt>
      <trkpt lat="46.42023" lon="5.74948">
        <ele>969.59997558594</ele>
        <time>2017-08-06T10:07:35.000Z</time>
      </trkpt>
      <trkpt lat="46.4202" lon="5.74947">
        <ele>970.20001220703</ele>
        <time>2017-08-06T10:07:38.000Z</time>
      </trkpt>
      <trkpt lat="46.42017" lon="5.74948">
        <ele>970.40002441406</ele>
        <time>2017-08-06T10:07:40.000Z</time>
      </trkpt>
      <trkpt lat="46.42015" lon="5.74951">
        <ele>970.59997558594</ele>
        <time>2017-08-06T10:07:43.000Z</time>
      </trkpt>
      <trkpt lat="46.42014" lon="5.74953">
        <ele>970.59997558594</ele>
        <time>2017-08-06T10:07:44.000Z</time>
      </trkpt>
      <trkpt lat="46.42013" lon="5.74955">
        <ele>970.79998779297</ele>
        <time>2017-08-06T10:07:45.000Z</time>
      </trkpt>
      <trkpt lat="46.4201" lon="5.74959">
        <ele>971.59997558594</ele>
        <time>2017-08-06T10:07:56.000Z</time>
      </trkpt>
      <trkpt lat="46.42007" lon="5.74969">
        <ele>972.59997558594</ele>
        <time>2017-08-06T10:08:05.000Z</time>
      </trkpt>
      <trkpt lat="46.42008" lon="5.74977">
        <ele>973.20001220703</ele>
        <time>2017-08-06T10:08:12.000Z</time>
      </trkpt>
      <trkpt lat="46.42008" lon="5.74981">
        <ele>973.59997558594</ele>
        <time>2017-08-06T10:08:15.000Z</time>
      </trkpt>
      <trkpt lat="46.4201" lon="5.74985">
        <ele>974.40002441406</ele>
        <time>2017-08-06T10:08:19.000Z</time>
      </trkpt>
      <trkpt lat="46.4201" lon="5.74986">
        <ele>974.79998779297</ele>
        <time>2017-08-06T10:08:21.000Z</time>
      </trkpt>
      <trkpt lat="46.4201" lon="5.74986">
        <ele>975.20001220703</ele>
        <time>2017-08-06T10:08:22.000Z</time>
      </trkpt>
      <trkpt lat="46.42012" lon="5.74985">
        <ele>975.59997558594</ele>
        <time>2017-08-06T10:08:24.000Z</time>
      </trkpt>
      <trkpt lat="46.42012" lon="5.74983">
        <ele>976</ele>
        <time>2017-08-06T10:08:27.000Z</time>
      </trkpt>
      <trkpt lat="46.42011" lon="5.74989">
        <ele>977</ele>
        <time>2017-08-06T10:08:50.000Z</time>
      </trkpt>
      <trkpt lat="46.42015" lon="5.74997">
        <ele>978</ele>
        <time>2017-08-06T10:08:55.000Z</time>
      </trkpt>
      <trkpt lat="46.42016" lon="5.74998">
        <ele>978</ele>
        <time>2017-08-06T10:08:56.000Z</time>
      </trkpt>
      <trkpt lat="46.42017" lon="5.75001">
        <ele>978.59997558594</ele>
        <time>2017-08-06T10:08:58.000Z</time>
      </trkpt>
      <trkpt lat="46.4202" lon="5.75005">
        <ele>979.20001220703</ele>
        <time>2017-08-06T10:09:00.000Z</time>
      </trkpt>
      <trkpt lat="46.42021" lon="5.75008">
        <ele>980.20001220703</ele>
        <time>2017-08-06T10:09:02.000Z</time>
      </trkpt>
      <trkpt lat="46.42021" lon="5.75009">
        <ele>980.59997558594</ele>
        <time>2017-08-06T10:09:03.000Z</time>
      </trkpt>
      <trkpt lat="46.42021" lon="5.7501">
        <ele>981</ele>
        <time>2017-08-06T10:09:04.000Z</time>
      </trkpt>
      <trkpt lat="46.42022" lon="5.75011">
        <ele>981.40002441406</ele>
        <time>2017-08-06T10:09:06.000Z</time>
      </trkpt>
      <trkpt lat="46.42023" lon="5.75011">
        <ele>981.59997558594</ele>
        <time>2017-08-06T10:09:07.000Z</time>
      </trkpt>
      <trkpt lat="46.42024" lon="5.75012">
        <ele>981.79998779297</ele>
        <time>2017-08-06T10:09:09.000Z</time>
      </trkpt>
      <trkpt lat="46.42026" lon="5.75018">
        <ele>982.79998779297</ele>
        <time>2017-08-06T10:09:15.000Z</time>
      </trkpt>
      <trkpt lat="46.42026" lon="5.75023">
        <ele>983.40002441406</ele>
        <time>2017-08-06T10:09:19.000Z</time>
      </trkpt>
      <trkpt lat="46.42025" lon="5.75025">
        <ele>983.79998779297</ele>
        <time>2017-08-06T10:09:22.000Z</time>
      </trkpt>
      <trkpt lat="46.42026" lon="5.75027">
        <ele>984.20001220703</ele>
        <time>2017-08-06T10:09:25.000Z</time>
      </trkpt>
      <trkpt lat="46.42027" lon="5.75028">
        <ele>984.59997558594</ele>
        <time>2017-08-06T10:09:27.000Z</time>
      </trkpt>
      <trkpt lat="46.42028" lon="5.7503">
        <ele>985</ele>
        <time>2017-08-06T10:09:29.000Z</time>
      </trkpt>
      <trkpt lat="46.42029" lon="5.75037">
        <ele>985.79998779297</ele>
        <time>2017-08-06T10:09:34.000Z</time>
      </trkpt>
      <trkpt lat="46.42029" lon="5.7504">
        <ele>986</ele>
        <time>2017-08-06T10:09:36.000Z</time>
      </trkpt>
      <trkpt lat="46.42029" lon="5.75045">
        <ele>986.79998779297</ele>
        <time>2017-08-06T10:09:40.000Z</time>
      </trkpt>
      <trkpt lat="46.42029" lon="5.75046">
        <ele>987.20001220703</ele>
        <time>2017-08-06T10:09:42.000Z</time>
      </trkpt>
      <trkpt lat="46.42032" lon="5.7505">
        <ele>988.40002441406</ele>
        <time>2017-08-06T10:09:48.000Z</time>
      </trkpt>
      <trkpt lat="46.42037" lon="5.75053">
        <ele>989.40002441406</ele>
        <time>2017-08-06T10:09:54.000Z</time>
      </trkpt>
      <trkpt lat="46.42038" lon="5.75057">
        <ele>990.20001220703</ele>
        <time>2017-08-06T10:09:58.000Z</time>
      </trkpt>
      <trkpt lat="46.42039" lon="5.75059">
        <ele>990.40002441406</ele>
        <time>2017-08-06T10:09:59.000Z</time>
      </trkpt>
      <trkpt lat="46.42041" lon="5.75065">
        <ele>991.40002441406</ele>
        <time>2017-08-06T10:10:05.000Z</time>
      </trkpt>
      <trkpt lat="46.42041" lon="5.75066">
        <ele>991.59997558594</ele>
        <time>2017-08-06T10:10:06.000Z</time>
      </trkpt>
      <trkpt lat="46.42043" lon="5.75072">
        <ele>992</ele>
        <time>2017-08-06T10:10:10.000Z</time>
      </trkpt>
      <trkpt lat="46.42042" lon="5.75081">
        <ele>992.59997558594</ele>
        <time>2017-08-06T10:10:18.000Z</time>
      </trkpt>
      <trkpt lat="46.42044" lon="5.75091">
        <ele>993.59997558594</ele>
        <time>2017-08-06T10:10:26.000Z</time>
      </trkpt>
      <trkpt lat="46.42042" lon="5.75106">
        <ele>994.40002441406</ele>
        <time>2017-08-06T10:10:40.000Z</time>
      </trkpt>
      <trkpt lat="46.42043" lon="5.75107">
        <ele>994.59997558594</ele>
        <time>2017-08-06T10:10:41.000Z</time>
      </trkpt>
      <trkpt lat="46.42045" lon="5.7511">
        <ele>995.40002441406</ele>
        <time>2017-08-06T10:10:44.000Z</time>
      </trkpt>
      <trkpt lat="46.42044" lon="5.75114">
        <ele>995.59997558594</ele>
        <time>2017-08-06T10:10:46.000Z</time>
      </trkpt>
      <trkpt lat="46.42044" lon="5.75115">
        <ele>995.79998779297</ele>
        <time>2017-08-06T10:10:47.000Z</time>
      </trkpt>
      <trkpt lat="46.42045" lon="5.75117">
        <ele>996</ele>
        <time>2017-08-06T10:10:49.000Z</time>
      </trkpt>
      <trkpt lat="46.42046" lon="5.7512">
        <ele>996.79998779297</ele>
        <time>2017-08-06T10:10:53.000Z</time>
      </trkpt>
      <trkpt lat="46.42044" lon="5.75127">
        <ele>998</ele>
        <time>2017-08-06T10:10:59.000Z</time>
      </trkpt>
      <trkpt lat="46.42044" lon="5.75128">
        <ele>998</ele>
        <time>2017-08-06T10:11:00.000Z</time>
      </trkpt>
      <trkpt lat="46.42044" lon="5.7513">
        <ele>998.20001220703</ele>
        <time>2017-08-06T10:11:02.000Z</time>
      </trkpt>
      <trkpt lat="46.42045" lon="5.75139">
        <ele>998.79998779297</ele>
        <time>2017-08-06T10:11:09.000Z</time>
      </trkpt>
      <trkpt lat="46.42045" lon="5.7514">
        <ele>999</ele>
        <time>2017-08-06T10:11:10.000Z</time>
      </trkpt>
      <trkpt lat="46.42041" lon="5.75155">
        <ele>1000</ele>
        <time>2017-08-06T10:11:23.000Z</time>
      </trkpt>
      <trkpt lat="46.42039" lon="5.75163">
        <ele>1001</ele>
        <time>2017-08-06T10:11:30.000Z</time>
      </trkpt>
      <trkpt lat="46.42038" lon="5.75165">
        <ele>1001.5999755859</ele>
        <time>2017-08-06T10:11:33.000Z</time>
      </trkpt>
      <trkpt lat="46.42037" lon="5.75169">
        <ele>1002.200012207</ele>
        <time>2017-08-06T10:11:36.000Z</time>
      </trkpt>
      <trkpt lat="46.42035" lon="5.75176">
        <ele>1003.4000244141</ele>
        <time>2017-08-06T10:11:42.000Z</time>
      </trkpt>
      <trkpt lat="46.42035" lon="5.75177">
        <ele>1003.799987793</ele>
        <time>2017-08-06T10:11:44.000Z</time>
      </trkpt>
      <trkpt lat="46.42032" lon="5.75182">
        <ele>1004.4000244141</ele>
        <time>2017-08-06T10:11:48.000Z</time>
      </trkpt>
      <trkpt lat="46.42031" lon="5.75184">
        <ele>1004.799987793</ele>
        <time>2017-08-06T10:11:50.000Z</time>
      </trkpt>
      <trkpt lat="46.42031" lon="5.75188">
        <ele>1005.5999755859</ele>
        <time>2017-08-06T10:11:56.000Z</time>
      </trkpt>
      <trkpt lat="46.42032" lon="5.75194">
        <ele>1006.5999755859</ele>
        <time>2017-08-06T10:12:15.000Z</time>
      </trkpt>
      <trkpt lat="46.4203" lon="5.75195">
        <ele>1007</ele>
        <time>2017-08-06T10:12:17.000Z</time>
      </trkpt>
      <trkpt lat="46.42027" lon="5.75196">
        <ele>1007.799987793</ele>
        <time>2017-08-06T10:12:21.000Z</time>
      </trkpt>
      <trkpt lat="46.42027" lon="5.75195">
        <ele>1008</ele>
        <time>2017-08-06T10:12:22.000Z</time>
      </trkpt>
      <trkpt lat="46.42022" lon="5.75195">
        <ele>1008.799987793</ele>
        <time>2017-08-06T10:12:27.000Z</time>
      </trkpt>
      <trkpt lat="46.42021" lon="5.75194">
        <ele>1009</ele>
        <time>2017-08-06T10:12:28.000Z</time>
      </trkpt>
      <trkpt lat="46.42006" lon="5.75194">
        <ele>1009.5999755859</ele>
        <time>2017-08-06T10:12:34.000Z</time>
      </trkpt>
      <trkpt lat="46.42002" lon="5.75193">
        <ele>1009.5999755859</ele>
        <time>2017-08-06T10:12:36.000Z</time>
      </trkpt>
      <trkpt lat="46.41994" lon="5.75192">
        <ele>1009.799987793</ele>
        <time>2017-08-06T10:12:42.000Z</time>
      </trkpt>
      <trkpt lat="46.41981" lon="5.7518">
        <ele>1010.4000244141</ele>
        <time>2017-08-06T10:13:03.000Z</time>
      </trkpt>
      <trkpt lat="46.41978" lon="5.75179">
        <ele>1011.200012207</ele>
        <time>2017-08-06T10:13:06.000Z</time>
      </trkpt>
      <trkpt lat="46.41974" lon="5.75175">
        <ele>1012.200012207</ele>
        <time>2017-08-06T10:13:10.000Z</time>
      </trkpt>
      <trkpt lat="46.41971" lon="5.75174">
        <ele>1012.799987793</ele>
        <time>2017-08-06T10:13:13.000Z</time>
      </trkpt>
      <trkpt lat="46.4197" lon="5.75173">
        <ele>1013.4000244141</ele>
        <time>2017-08-06T10:13:15.000Z</time>
      </trkpt>
      <trkpt lat="46.41966" lon="5.75172">
        <ele>1014.4000244141</ele>
        <time>2017-08-06T10:13:19.000Z</time>
      </trkpt>
      <trkpt lat="46.41965" lon="5.7517">
        <ele>1014.799987793</ele>
        <time>2017-08-06T10:13:21.000Z</time>
      </trkpt>
      <trkpt lat="46.41963" lon="5.75167">
        <ele>1015</ele>
        <time>2017-08-06T10:13:24.000Z</time>
      </trkpt>
      <trkpt lat="46.4196" lon="5.75167">
        <ele>1015.5999755859</ele>
        <time>2017-08-06T10:13:27.000Z</time>
      </trkpt>
      <trkpt lat="46.41959" lon="5.75167">
        <ele>1015.5999755859</ele>
        <time>2017-08-06T10:13:28.000Z</time>
      </trkpt>
      <trkpt lat="46.41948" lon="5.75157">
        <ele>1015.799987793</ele>
        <time>2017-08-06T10:13:40.000Z</time>
      </trkpt>
      <trkpt lat="46.41947" lon="5.75155">
        <ele>1016</ele>
        <time>2017-08-06T10:13:42.000Z</time>
      </trkpt>
      <trkpt lat="46.41943" lon="5.75152">
        <ele>1016.4000244141</ele>
        <time>2017-08-06T10:13:47.000Z</time>
      </trkpt>
      <trkpt lat="46.41942" lon="5.75151">
        <ele>1016.5999755859</ele>
        <time>2017-08-06T10:13:48.000Z</time>
      </trkpt>
      <trkpt lat="46.41941" lon="5.75151">
        <ele>1016.5999755859</ele>
        <time>2017-08-06T10:13:50.000Z</time>
      </trkpt>
      <trkpt lat="46.41928" lon="5.75138">
        <ele>1017</ele>
        <time>2017-08-06T10:14:08.000Z</time>
      </trkpt>
      <trkpt lat="46.41925" lon="5.75132">
        <ele>1016.799987793</ele>
        <time>2017-08-06T10:14:11.000Z</time>
      </trkpt>
      <trkpt lat="46.4192" lon="5.75124">
        <ele>1016.4000244141</ele>
        <time>2017-08-06T10:14:18.000Z</time>
      </trkpt>
      <trkpt lat="46.41918" lon="5.75121">
        <ele>1016.4000244141</ele>
        <time>2017-08-06T10:14:22.000Z</time>
      </trkpt>
      <trkpt lat="46.41917" lon="5.75119">
        <ele>1016.4000244141</ele>
        <time>2017-08-06T10:14:24.000Z</time>
      </trkpt>
      <trkpt lat="46.41916" lon="5.75118">
        <ele>1016.200012207</ele>
        <time>2017-08-06T10:14:26.000Z</time>
      </trkpt>
      <trkpt lat="46.41916" lon="5.75117">
        <ele>1016.200012207</ele>
        <time>2017-08-06T10:14:28.000Z</time>
      </trkpt>
      <trkpt lat="46.41915" lon="5.75115">
        <ele>1016.4000244141</ele>
        <time>2017-08-06T10:14:30.000Z</time>
      </trkpt>
      <trkpt lat="46.41913" lon="5.75116">
        <ele>1016.5999755859</ele>
        <time>2017-08-06T10:14:33.000Z</time>
      </trkpt>
      <trkpt lat="46.41906" lon="5.75113">
        <ele>1016.799987793</ele>
        <time>2017-08-06T10:14:40.000Z</time>
      </trkpt>
      <trkpt lat="46.419" lon="5.7511">
        <ele>1017.200012207</ele>
        <time>2017-08-06T10:14:44.000Z</time>
      </trkpt>
      <trkpt lat="46.41897" lon="5.7511">
        <ele>1017</ele>
        <time>2017-08-06T10:14:46.000Z</time>
      </trkpt>
      <trkpt lat="46.41895" lon="5.75106">
        <ele>1017</ele>
        <time>2017-08-06T10:14:48.000Z</time>
      </trkpt>
      <trkpt lat="46.41892" lon="5.75104">
        <ele>1017</ele>
        <time>2017-08-06T10:14:51.000Z</time>
      </trkpt>
      <trkpt lat="46.41884" lon="5.751">
        <ele>1017.5999755859</ele>
        <time>2017-08-06T10:15:00.000Z</time>
      </trkpt>
      <trkpt lat="46.41883" lon="5.751">
        <ele>1017.5999755859</ele>
        <time>2017-08-06T10:15:01.000Z</time>
      </trkpt>
      <trkpt lat="46.41876" lon="5.75097">
        <ele>1018.5999755859</ele>
        <time>2017-08-06T10:15:11.000Z</time>
      </trkpt>
      <trkpt lat="46.41864" lon="5.75094">
        <ele>1018.5999755859</ele>
        <time>2017-08-06T10:15:23.000Z</time>
      </trkpt>
      <trkpt lat="46.41863" lon="5.75092">
        <ele>1018.4000244141</ele>
        <time>2017-08-06T10:15:25.000Z</time>
      </trkpt>
      <trkpt lat="46.4186" lon="5.75087">
        <ele>1018</ele>
        <time>2017-08-06T10:15:28.000Z</time>
      </trkpt>
      <trkpt lat="46.41859" lon="5.75085">
        <ele>1017.799987793</ele>
        <time>2017-08-06T10:15:30.000Z</time>
      </trkpt>
      <trkpt lat="46.41857" lon="5.75084">
        <ele>1017.5999755859</ele>
        <time>2017-08-06T10:15:32.000Z</time>
      </trkpt>
      <trkpt lat="46.41856" lon="5.75083">
        <ele>1017.5999755859</ele>
        <time>2017-08-06T10:15:33.000Z</time>
      </trkpt>
      <trkpt lat="46.41855" lon="5.75083">
        <ele>1017.4000244141</ele>
        <time>2017-08-06T10:15:34.000Z</time>
      </trkpt>
      <trkpt lat="46.41852" lon="5.75084">
        <ele>1017.4000244141</ele>
        <time>2017-08-06T10:15:39.000Z</time>
      </trkpt>
      <trkpt lat="46.41846" lon="5.75076">
        <ele>1017.200012207</ele>
        <time>2017-08-06T10:15:43.000Z</time>
      </trkpt>
      <trkpt lat="46.41844" lon="5.75074">
        <ele>1017.5999755859</ele>
        <time>2017-08-06T10:15:46.000Z</time>
      </trkpt>
      <trkpt lat="46.41841" lon="5.75075">
        <ele>1018.5999755859</ele>
        <time>2017-08-06T10:15:50.000Z</time>
      </trkpt>
      <trkpt lat="46.41839" lon="5.75074">
        <ele>1018.799987793</ele>
        <time>2017-08-06T10:15:51.000Z</time>
      </trkpt>
      <trkpt lat="46.41838" lon="5.75074">
        <ele>1019.200012207</ele>
        <time>2017-08-06T10:15:53.000Z</time>
      </trkpt>
      <trkpt lat="46.41836" lon="5.75074">
        <ele>1019.799987793</ele>
        <time>2017-08-06T10:15:56.000Z</time>
      </trkpt>
      <trkpt lat="46.41836" lon="5.75078">
        <ele>1021</ele>
        <time>2017-08-06T10:16:01.000Z</time>
      </trkpt>
      <trkpt lat="46.41833" lon="5.75081">
        <ele>1022.200012207</ele>
        <time>2017-08-06T10:16:06.000Z</time>
      </trkpt>
      <trkpt lat="46.41831" lon="5.75084">
        <ele>1023.200012207</ele>
        <time>2017-08-06T10:16:12.000Z</time>
      </trkpt>
      <trkpt lat="46.41828" lon="5.75089">
        <ele>1024.4000244141</ele>
        <time>2017-08-06T10:16:16.000Z</time>
      </trkpt>
      <trkpt lat="46.41827" lon="5.75092">
        <ele>1025.4000244141</ele>
        <time>2017-08-06T10:16:20.000Z</time>
      </trkpt>
      <trkpt lat="46.41824" lon="5.75096">
        <ele>1026.5999755859</ele>
        <time>2017-08-06T10:16:26.000Z</time>
      </trkpt>
      <trkpt lat="46.41819" lon="5.751">
        <ele>1027.8000488281</ele>
        <time>2017-08-06T10:16:31.000Z</time>
      </trkpt>
      <trkpt lat="46.41816" lon="5.75103">
        <ele>1028.8000488281</ele>
        <time>2017-08-06T10:16:37.000Z</time>
      </trkpt>
      <trkpt lat="46.41814" lon="5.75111">
        <ele>1029</ele>
        <time>2017-08-06T10:16:45.000Z</time>
      </trkpt>
      <trkpt lat="46.41814" lon="5.75116">
        <ele>1029.1999511719</ele>
        <time>2017-08-06T10:16:49.000Z</time>
      </trkpt>
      <trkpt lat="46.41813" lon="5.75117">
        <ele>1029.4000244141</ele>
        <time>2017-08-06T10:16:52.000Z</time>
      </trkpt>
      <trkpt lat="46.41814" lon="5.75121">
        <ele>1029.8000488281</ele>
        <time>2017-08-06T10:16:55.000Z</time>
      </trkpt>
      <trkpt lat="46.41814" lon="5.75121">
        <ele>1030</ele>
        <time>2017-08-06T10:16:56.000Z</time>
      </trkpt>
      <trkpt lat="46.41815" lon="5.75125">
        <ele>1031</ele>
        <time>2017-08-06T10:17:01.000Z</time>
      </trkpt>
      <trkpt lat="46.41814" lon="5.75129">
        <ele>1032</ele>
        <time>2017-08-06T10:17:05.000Z</time>
      </trkpt>
      <trkpt lat="46.4181" lon="5.75131">
        <ele>1033</ele>
        <time>2017-08-06T10:17:15.000Z</time>
      </trkpt>
      <trkpt lat="46.41805" lon="5.75135">
        <ele>1034</ele>
        <time>2017-08-06T10:17:22.000Z</time>
      </trkpt>
      <trkpt lat="46.41802" lon="5.75138">
        <ele>1035.1999511719</ele>
        <time>2017-08-06T10:17:26.000Z</time>
      </trkpt>
      <trkpt lat="46.41802" lon="5.75141">
        <ele>1036.1999511719</ele>
        <time>2017-08-06T10:17:30.000Z</time>
      </trkpt>
      <trkpt lat="46.41802" lon="5.75142">
        <ele>1036.4000244141</ele>
        <time>2017-08-06T10:17:31.000Z</time>
      </trkpt>
      <trkpt lat="46.418" lon="5.75144">
        <ele>1037.1999511719</ele>
        <time>2017-08-06T10:17:34.000Z</time>
      </trkpt>
      <trkpt lat="46.418" lon="5.75145">
        <ele>1037.4000244141</ele>
        <time>2017-08-06T10:17:35.000Z</time>
      </trkpt>
      <trkpt lat="46.41799" lon="5.75147">
        <ele>1038.4000244141</ele>
        <time>2017-08-06T10:17:40.000Z</time>
      </trkpt>
      <trkpt lat="46.41797" lon="5.75149">
        <ele>1039.5999755859</ele>
        <time>2017-08-06T10:17:45.000Z</time>
      </trkpt>
      <trkpt lat="46.41796" lon="5.75152">
        <ele>1040.8000488281</ele>
        <time>2017-08-06T10:17:50.000Z</time>
      </trkpt>
      <trkpt lat="46.41795" lon="5.75155">
        <ele>1042</ele>
        <time>2017-08-06T10:17:55.000Z</time>
      </trkpt>
      <trkpt lat="46.41795" lon="5.75155">
        <ele>1043</ele>
        <time>2017-08-06T10:18:00.000Z</time>
      </trkpt>
      <trkpt lat="46.41788" lon="5.75155">
        <ele>1044.1999511719</ele>
        <time>2017-08-06T10:18:09.000Z</time>
      </trkpt>
      <trkpt lat="46.41784" lon="5.75156">
        <ele>1045.1999511719</ele>
        <time>2017-08-06T10:18:14.000Z</time>
      </trkpt>
      <trkpt lat="46.41784" lon="5.75155">
        <ele>1045.4000244141</ele>
        <time>2017-08-06T10:18:15.000Z</time>
      </trkpt>
      <trkpt lat="46.41777" lon="5.75152">
        <ele>1046.1999511719</ele>
        <time>2017-08-06T10:18:20.000Z</time>
      </trkpt>
      <trkpt lat="46.41777" lon="5.75153">
        <ele>1046.4000244141</ele>
        <time>2017-08-06T10:18:21.000Z</time>
      </trkpt>
      <trkpt lat="46.41777" lon="5.75155">
        <ele>1046.5999755859</ele>
        <time>2017-08-06T10:18:22.000Z</time>
      </trkpt>
      <trkpt lat="46.41777" lon="5.75156">
        <ele>1047</ele>
        <time>2017-08-06T10:18:24.000Z</time>
      </trkpt>
      <trkpt lat="46.41776" lon="5.75157">
        <ele>1047.4000244141</ele>
        <time>2017-08-06T10:18:26.000Z</time>
      </trkpt>
      <trkpt lat="46.4178" lon="5.75169">
        <ele>1048.4000244141</ele>
        <time>2017-08-06T10:18:38.000Z</time>
      </trkpt>
      <trkpt lat="46.41781" lon="5.75173">
        <ele>1049.1999511719</ele>
        <time>2017-08-06T10:18:41.000Z</time>
      </trkpt>
      <trkpt lat="46.41781" lon="5.75174">
        <ele>1049.5999755859</ele>
        <time>2017-08-06T10:18:43.000Z</time>
      </trkpt>
      <trkpt lat="46.41783" lon="5.75179">
        <ele>1050.8000488281</ele>
        <time>2017-08-06T10:18:48.000Z</time>
      </trkpt>
      <trkpt lat="46.41782" lon="5.75183">
        <ele>1051.8000488281</ele>
        <time>2017-08-06T10:18:53.000Z</time>
      </trkpt>
      <trkpt lat="46.4178" lon="5.75187">
        <ele>1052.8000488281</ele>
        <time>2017-08-06T10:18:58.000Z</time>
      </trkpt>
      <trkpt lat="46.41783" lon="5.75194">
        <ele>1054</ele>
        <time>2017-08-06T10:19:04.000Z</time>
      </trkpt>
      <trkpt lat="46.41783" lon="5.75199">
        <ele>1054.5999755859</ele>
        <time>2017-08-06T10:19:07.000Z</time>
      </trkpt>
      <trkpt lat="46.41782" lon="5.75201">
        <ele>1055</ele>
        <time>2017-08-06T10:19:09.000Z</time>
      </trkpt>
      <trkpt lat="46.41781" lon="5.75201">
        <ele>1055.5999755859</ele>
        <time>2017-08-06T10:19:11.000Z</time>
      </trkpt>
      <trkpt lat="46.41779" lon="5.752">
        <ele>1056.1999511719</ele>
        <time>2017-08-06T10:19:13.000Z</time>
      </trkpt>
      <trkpt lat="46.41772" lon="5.752">
        <ele>1057</ele>
        <time>2017-08-06T10:19:42.000Z</time>
      </trkpt>
      <trkpt lat="46.418" lon="5.75255">
        <ele>1064</ele>
        <time>2017-08-06T10:36:04.000Z</time>
      </trkpt>
      <trkpt lat="46.41805" lon="5.75259">
        <ele>1063.5999755859</ele>
        <time>2017-08-06T10:36:05.000Z</time>
      </trkpt>
      <trkpt lat="46.41805" lon="5.7526">
        <ele>1063.4000244141</ele>
        <time>2017-08-06T10:36:08.000Z</time>
      </trkpt>
      <trkpt lat="46.41803" lon="5.75262">
        <ele>1063</ele>
        <time>2017-08-06T10:36:10.000Z</time>
      </trkpt>
      <trkpt lat="46.41804" lon="5.75263">
        <ele>1062.8000488281</ele>
        <time>2017-08-06T10:36:12.000Z</time>
      </trkpt>
      <trkpt lat="46.41806" lon="5.75264">
        <ele>1062.5999755859</ele>
        <time>2017-08-06T10:36:14.000Z</time>
      </trkpt>
      <trkpt lat="46.41807" lon="5.75266">
        <ele>1062.5999755859</ele>
        <time>2017-08-06T10:36:16.000Z</time>
      </trkpt>
      <trkpt lat="46.41809" lon="5.75267">
        <ele>1062.5999755859</ele>
        <time>2017-08-06T10:36:18.000Z</time>
      </trkpt>
      <trkpt lat="46.4181" lon="5.75268">
        <ele>1062.1999511719</ele>
        <time>2017-08-06T10:36:20.000Z</time>
      </trkpt>
      <trkpt lat="46.4181" lon="5.7527">
        <ele>1061.8000488281</ele>
        <time>2017-08-06T10:36:22.000Z</time>
      </trkpt>
      <trkpt lat="46.41811" lon="5.75271">
        <ele>1061.8000488281</ele>
        <time>2017-08-06T10:36:23.000Z</time>
      </trkpt>
      <trkpt lat="46.41812" lon="5.75273">
        <ele>1061.5999755859</ele>
        <time>2017-08-06T10:36:25.000Z</time>
      </trkpt>
      <trkpt lat="46.41813" lon="5.75276">
        <ele>1061.4000244141</ele>
        <time>2017-08-06T10:36:28.000Z</time>
      </trkpt>
      <trkpt lat="46.41815" lon="5.75281">
        <ele>1060.5999755859</ele>
        <time>2017-08-06T10:36:32.000Z</time>
      </trkpt>
      <trkpt lat="46.41817" lon="5.75283">
        <ele>1060.5999755859</ele>
        <time>2017-08-06T10:36:34.000Z</time>
      </trkpt>
      <trkpt lat="46.41819" lon="5.75286">
        <ele>1060.5999755859</ele>
        <time>2017-08-06T10:36:37.000Z</time>
      </trkpt>
      <trkpt lat="46.4182" lon="5.75288">
        <ele>1061</ele>
        <time>2017-08-06T10:36:39.000Z</time>
      </trkpt>
      <trkpt lat="46.41822" lon="5.7529">
        <ele>1061.8000488281</ele>
        <time>2017-08-06T10:36:42.000Z</time>
      </trkpt>
      <trkpt lat="46.41824" lon="5.75293">
        <ele>1062.1999511719</ele>
        <time>2017-08-06T10:36:45.000Z</time>
      </trkpt>
      <trkpt lat="46.41826" lon="5.75296">
        <ele>1062.5999755859</ele>
        <time>2017-08-06T10:36:48.000Z</time>
      </trkpt>
      <trkpt lat="46.41828" lon="5.75298">
        <ele>1062.5999755859</ele>
        <time>2017-08-06T10:36:50.000Z</time>
      </trkpt>
      <trkpt lat="46.41829" lon="5.75299">
        <ele>1062.8000488281</ele>
        <time>2017-08-06T10:36:52.000Z</time>
      </trkpt>
      <trkpt lat="46.41829" lon="5.75301">
        <ele>1062.8000488281</ele>
        <time>2017-08-06T10:36:54.000Z</time>
      </trkpt>
      <trkpt lat="46.41835" lon="5.75305">
        <ele>1062.5999755859</ele>
        <time>2017-08-06T10:37:00.000Z</time>
      </trkpt>
      <trkpt lat="46.41836" lon="5.75307">
        <ele>1062.4000244141</ele>
        <time>2017-08-06T10:37:02.000Z</time>
      </trkpt>
      <trkpt lat="46.41838" lon="5.7531">
        <ele>1062.4000244141</ele>
        <time>2017-08-06T10:37:04.000Z</time>
      </trkpt>
      <trkpt lat="46.4184" lon="5.75313">
        <ele>1062.4000244141</ele>
        <time>2017-08-06T10:37:06.000Z</time>
      </trkpt>
      <trkpt lat="46.4184" lon="5.75318">
        <ele>1062.1999511719</ele>
        <time>2017-08-06T10:37:09.000Z</time>
      </trkpt>
      <trkpt lat="46.41839" lon="5.75322">
        <ele>1062</ele>
        <time>2017-08-06T10:37:11.000Z</time>
      </trkpt>
      <trkpt lat="46.41838" lon="5.75324">
        <ele>1061.5999755859</ele>
        <time>2017-08-06T10:37:13.000Z</time>
      </trkpt>
      <trkpt lat="46.41836" lon="5.75328">
        <ele>1060.8000488281</ele>
        <time>2017-08-06T10:37:15.000Z</time>
      </trkpt>
      <trkpt lat="46.41835" lon="5.7533">
        <ele>1060.5999755859</ele>
        <time>2017-08-06T10:37:16.000Z</time>
      </trkpt>
      <trkpt lat="46.41832" lon="5.75336">
        <ele>1060</ele>
        <time>2017-08-06T10:37:20.000Z</time>
      </trkpt>
      <trkpt lat="46.41832" lon="5.75338">
        <ele>1060</ele>
        <time>2017-08-06T10:37:22.000Z</time>
      </trkpt>
      <trkpt lat="46.41832" lon="5.75342">
        <ele>1060</ele>
        <time>2017-08-06T10:37:25.000Z</time>
      </trkpt>
      <trkpt lat="46.41833" lon="5.75344">
        <ele>1060.1999511719</ele>
        <time>2017-08-06T10:37:27.000Z</time>
      </trkpt>
      <trkpt lat="46.41833" lon="5.75348">
        <ele>1060.1999511719</ele>
        <time>2017-08-06T10:37:29.000Z</time>
      </trkpt>
      <trkpt lat="46.41837" lon="5.75355">
        <ele>1060.1999511719</ele>
        <time>2017-08-06T10:37:36.000Z</time>
      </trkpt>
      <trkpt lat="46.41837" lon="5.75356">
        <ele>1060.1999511719</ele>
        <time>2017-08-06T10:37:37.000Z</time>
      </trkpt>
      <trkpt lat="46.41838" lon="5.75358">
        <ele>1060.1999511719</ele>
        <time>2017-08-06T10:37:39.000Z</time>
      </trkpt>
      <trkpt lat="46.41839" lon="5.75358">
        <ele>1060.1999511719</ele>
        <time>2017-08-06T10:37:40.000Z</time>
      </trkpt>
      <trkpt lat="46.4184" lon="5.75357">
        <ele>1060.4000244141</ele>
        <time>2017-08-06T10:37:41.000Z</time>
      </trkpt>
      <trkpt lat="46.41841" lon="5.75357">
        <ele>1060.5999755859</ele>
        <time>2017-08-06T10:37:43.000Z</time>
      </trkpt>
      <trkpt lat="46.41844" lon="5.75354">
        <ele>1060.4000244141</ele>
        <time>2017-08-06T10:37:47.000Z</time>
      </trkpt>
      <trkpt lat="46.41845" lon="5.75354">
        <ele>1060.4000244141</ele>
        <time>2017-08-06T10:37:49.000Z</time>
      </trkpt>
      <trkpt lat="46.41847" lon="5.75354">
        <ele>1060.1999511719</ele>
        <time>2017-08-06T10:37:52.000Z</time>
      </trkpt>
      <trkpt lat="46.41849" lon="5.75355">
        <ele>1060</ele>
        <time>2017-08-06T10:37:54.000Z</time>
      </trkpt>
      <trkpt lat="46.4185" lon="5.75355">
        <ele>1059.4000244141</ele>
        <time>2017-08-06T10:37:56.000Z</time>
      </trkpt>
      <trkpt lat="46.41852" lon="5.75355">
        <ele>1058.8000488281</ele>
        <time>2017-08-06T10:37:58.000Z</time>
      </trkpt>
      <trkpt lat="46.41854" lon="5.75355">
        <ele>1058.1999511719</ele>
        <time>2017-08-06T10:38:00.000Z</time>
      </trkpt>
      <trkpt lat="46.41855" lon="5.75354">
        <ele>1058</ele>
        <time>2017-08-06T10:38:02.000Z</time>
      </trkpt>
      <trkpt lat="46.41857" lon="5.75352">
        <ele>1057.8000488281</ele>
        <time>2017-08-06T10:38:04.000Z</time>
      </trkpt>
      <trkpt lat="46.41859" lon="5.75352">
        <ele>1057.1999511719</ele>
        <time>2017-08-06T10:38:06.000Z</time>
      </trkpt>
      <trkpt lat="46.41861" lon="5.75352">
        <ele>1056.5999755859</ele>
        <time>2017-08-06T10:38:08.000Z</time>
      </trkpt>
      <trkpt lat="46.41864" lon="5.75351">
        <ele>1056</ele>
        <time>2017-08-06T10:38:11.000Z</time>
      </trkpt>
      <trkpt lat="46.41866" lon="5.75351">
        <ele>1055.4000244141</ele>
        <time>2017-08-06T10:38:13.000Z</time>
      </trkpt>
      <trkpt lat="46.41868" lon="5.7535">
        <ele>1054.8000488281</ele>
        <time>2017-08-06T10:38:15.000Z</time>
      </trkpt>
      <trkpt lat="46.41869" lon="5.75349">
        <ele>1054.4000244141</ele>
        <time>2017-08-06T10:38:16.000Z</time>
      </trkpt>
      <trkpt lat="46.4187" lon="5.75349">
        <ele>1053.5999755859</ele>
        <time>2017-08-06T10:38:18.000Z</time>
      </trkpt>
      <trkpt lat="46.41873" lon="5.75348">
        <ele>1052.8000488281</ele>
        <time>2017-08-06T10:38:21.000Z</time>
      </trkpt>
      <trkpt lat="46.41874" lon="5.75348">
        <ele>1052.5999755859</ele>
        <time>2017-08-06T10:38:22.000Z</time>
      </trkpt>
      <trkpt lat="46.41875" lon="5.75348">
        <ele>1052.4000244141</ele>
        <time>2017-08-06T10:38:23.000Z</time>
      </trkpt>
      <trkpt lat="46.41876" lon="5.75347">
        <ele>1051.8000488281</ele>
        <time>2017-08-06T10:38:25.000Z</time>
      </trkpt>
      <trkpt lat="46.41877" lon="5.75346">
        <ele>1051.4000244141</ele>
        <time>2017-08-06T10:38:27.000Z</time>
      </trkpt>
      <trkpt lat="46.41881" lon="5.75349">
        <ele>1051.1999511719</ele>
        <time>2017-08-06T10:38:30.000Z</time>
      </trkpt>
      <trkpt lat="46.41882" lon="5.7535">
        <ele>1050.8000488281</ele>
        <time>2017-08-06T10:38:33.000Z</time>
      </trkpt>
      <trkpt lat="46.41884" lon="5.75349">
        <ele>1050.1999511719</ele>
        <time>2017-08-06T10:38:35.000Z</time>
      </trkpt>
      <trkpt lat="46.41885" lon="5.75348">
        <ele>1049.8000488281</ele>
        <time>2017-08-06T10:38:37.000Z</time>
      </trkpt>
      <trkpt lat="46.41886" lon="5.75347">
        <ele>1049.4000244141</ele>
        <time>2017-08-06T10:38:39.000Z</time>
      </trkpt>
      <trkpt lat="46.41887" lon="5.75348">
        <ele>1049.1999511719</ele>
        <time>2017-08-06T10:38:40.000Z</time>
      </trkpt>
      <trkpt lat="46.41886" lon="5.75347">
        <ele>1049.1999511719</ele>
        <time>2017-08-06T10:38:42.000Z</time>
      </trkpt>
      <trkpt lat="46.41887" lon="5.7535">
        <ele>1049.1999511719</ele>
        <time>2017-08-06T10:38:45.000Z</time>
      </trkpt>
      <trkpt lat="46.41888" lon="5.75351">
        <ele>1049.1999511719</ele>
        <time>2017-08-06T10:38:48.000Z</time>
      </trkpt>
      <trkpt lat="46.41888" lon="5.75352">
        <ele>1049.1999511719</ele>
        <time>2017-08-06T10:38:50.000Z</time>
      </trkpt>
      <trkpt lat="46.4189" lon="5.75354">
        <ele>1049.1999511719</ele>
        <time>2017-08-06T10:38:52.000Z</time>
      </trkpt>
      <trkpt lat="46.41896" lon="5.75364">
        <ele>1048.8000488281</ele>
        <time>2017-08-06T10:39:07.000Z</time>
      </trkpt>
      <trkpt lat="46.41896" lon="5.75364">
        <ele>1048.8000488281</ele>
        <time>2017-08-06T10:39:08.000Z</time>
      </trkpt>
      <trkpt lat="46.41898" lon="5.75363">
        <ele>1048.8000488281</ele>
        <time>2017-08-06T10:39:11.000Z</time>
      </trkpt>
      <trkpt lat="46.41901" lon="5.75361">
        <ele>1048.8000488281</ele>
        <time>2017-08-06T10:39:13.000Z</time>
      </trkpt>
      <trkpt lat="46.41904" lon="5.75359">
        <ele>1048.5999755859</ele>
        <time>2017-08-06T10:39:15.000Z</time>
      </trkpt>
      <trkpt lat="46.41906" lon="5.75357">
        <ele>1048.5999755859</ele>
        <time>2017-08-06T10:39:17.000Z</time>
      </trkpt>
      <trkpt lat="46.41909" lon="5.75351">
        <ele>1048.1999511719</ele>
        <time>2017-08-06T10:39:20.000Z</time>
      </trkpt>
      <trkpt lat="46.41912" lon="5.75348">
        <ele>1048.1999511719</ele>
        <time>2017-08-06T10:39:23.000Z</time>
      </trkpt>
      <trkpt lat="46.41913" lon="5.75345">
        <ele>1047.5999755859</ele>
        <time>2017-08-06T10:39:25.000Z</time>
      </trkpt>
      <trkpt lat="46.41915" lon="5.75344">
        <ele>1047</ele>
        <time>2017-08-06T10:39:27.000Z</time>
      </trkpt>
      <trkpt lat="46.41914" lon="5.75345">
        <ele>1046.5999755859</ele>
        <time>2017-08-06T10:39:30.000Z</time>
      </trkpt>
      <trkpt lat="46.41914" lon="5.75346">
        <ele>1046.4000244141</ele>
        <time>2017-08-06T10:39:32.000Z</time>
      </trkpt>
      <trkpt lat="46.41913" lon="5.75346">
        <ele>1048.1999511719</ele>
        <time>2017-08-06T10:39:34.000Z</time>
      </trkpt>
      <trkpt lat="46.41914" lon="5.75347">
        <ele>1048.1999511719</ele>
        <time>2017-08-06T10:39:37.000Z</time>
      </trkpt>
      <trkpt lat="46.41917" lon="5.75346">
        <ele>1048.1999511719</ele>
        <time>2017-08-06T10:39:42.000Z</time>
      </trkpt>
      <trkpt lat="46.41917" lon="5.75346">
        <ele>1048.1999511719</ele>
        <time>2017-08-06T10:39:44.000Z</time>
      </trkpt>
      <trkpt lat="46.41917" lon="5.75344">
        <ele>1048.1999511719</ele>
        <time>2017-08-06T10:39:46.000Z</time>
      </trkpt>
      <trkpt lat="46.41917" lon="5.75344">
        <ele>1048</ele>
        <time>2017-08-06T10:39:49.000Z</time>
      </trkpt>
      <trkpt lat="46.41917" lon="5.75344">
        <ele>1048</ele>
        <time>2017-08-06T10:39:51.000Z</time>
      </trkpt>
      <trkpt lat="46.41917" lon="5.75344">
        <ele>1048.1999511719</ele>
        <time>2017-08-06T10:39:53.000Z</time>
      </trkpt>
      <trkpt lat="46.41918" lon="5.75346">
        <ele>1048.1999511719</ele>
        <time>2017-08-06T10:39:58.000Z</time>
      </trkpt>
      <trkpt lat="46.4192" lon="5.75343">
        <ele>1048</ele>
        <time>2017-08-06T10:40:05.000Z</time>
      </trkpt>
      <trkpt lat="46.41923" lon="5.75346">
        <ele>1048</ele>
        <time>2017-08-06T10:40:10.000Z</time>
      </trkpt>
      <trkpt lat="46.41922" lon="5.7535">
        <ele>1048</ele>
        <time>2017-08-06T10:40:14.000Z</time>
      </trkpt>
      <trkpt lat="46.41922" lon="5.75351">
        <ele>1048</ele>
        <time>2017-08-06T10:40:16.000Z</time>
      </trkpt>
      <trkpt lat="46.41916" lon="5.75352">
        <ele>1048.4000244141</ele>
        <time>2017-08-06T10:40:20.000Z</time>
      </trkpt>
      <trkpt lat="46.41915" lon="5.75352">
        <ele>1048.8000488281</ele>
        <time>2017-08-06T10:40:23.000Z</time>
      </trkpt>
      <trkpt lat="46.41912" lon="5.75353">
        <ele>1048.8000488281</ele>
        <time>2017-08-06T10:40:25.000Z</time>
      </trkpt>
      <trkpt lat="46.41906" lon="5.75328">
        <ele>1048</ele>
        <time>2017-08-06T10:40:52.000Z</time>
      </trkpt>
      <trkpt lat="46.41906" lon="5.75323">
        <ele>1047.8000488281</ele>
        <time>2017-08-06T10:40:53.000Z</time>
      </trkpt>
      <trkpt lat="46.41906" lon="5.75317">
        <ele>1047.1999511719</ele>
        <time>2017-08-06T10:40:55.000Z</time>
      </trkpt>
      <trkpt lat="46.41906" lon="5.75316">
        <ele>1046.8000488281</ele>
        <time>2017-08-06T10:40:56.000Z</time>
      </trkpt>
      <trkpt lat="46.41907" lon="5.75313">
        <ele>1046.5999755859</ele>
        <time>2017-08-06T10:40:57.000Z</time>
      </trkpt>
      <trkpt lat="46.41909" lon="5.75308">
        <ele>1045.8000488281</ele>
        <time>2017-08-06T10:41:00.000Z</time>
      </trkpt>
      <trkpt lat="46.41912" lon="5.75304">
        <ele>1044.8000488281</ele>
        <time>2017-08-06T10:41:03.000Z</time>
      </trkpt>
      <trkpt lat="46.41912" lon="5.75302">
        <ele>1044.5999755859</ele>
        <time>2017-08-06T10:41:04.000Z</time>
      </trkpt>
      <trkpt lat="46.41914" lon="5.75301">
        <ele>1044</ele>
        <time>2017-08-06T10:41:06.000Z</time>
      </trkpt>
      <trkpt lat="46.41918" lon="5.75303">
        <ele>1043.1999511719</ele>
        <time>2017-08-06T10:41:09.000Z</time>
      </trkpt>
      <trkpt lat="46.41919" lon="5.75303">
        <ele>1043</ele>
        <time>2017-08-06T10:41:10.000Z</time>
      </trkpt>
      <trkpt lat="46.41922" lon="5.75303">
        <ele>1042.5999755859</ele>
        <time>2017-08-06T10:41:12.000Z</time>
      </trkpt>
      <trkpt lat="46.41925" lon="5.75303">
        <ele>1042.1999511719</ele>
        <time>2017-08-06T10:41:14.000Z</time>
      </trkpt>
      <trkpt lat="46.41928" lon="5.75301">
        <ele>1041.5999755859</ele>
        <time>2017-08-06T10:41:18.000Z</time>
      </trkpt>
      <trkpt lat="46.41929" lon="5.75299">
        <ele>1041.1999511719</ele>
        <time>2017-08-06T10:41:20.000Z</time>
      </trkpt>
      <trkpt lat="46.41933" lon="5.75299">
        <ele>1040.8000488281</ele>
        <time>2017-08-06T10:41:23.000Z</time>
      </trkpt>
      <trkpt lat="46.4193" lon="5.75296">
        <ele>1040.1999511719</ele>
        <time>2017-08-06T10:41:29.000Z</time>
      </trkpt>
      <trkpt lat="46.41931" lon="5.75296">
        <ele>1040</ele>
        <time>2017-08-06T10:41:30.000Z</time>
      </trkpt>
      <trkpt lat="46.41931" lon="5.75295">
        <ele>1040</ele>
        <time>2017-08-06T10:41:31.000Z</time>
      </trkpt>
      <trkpt lat="46.41932" lon="5.75293">
        <ele>1040</ele>
        <time>2017-08-06T10:41:33.000Z</time>
      </trkpt>
      <trkpt lat="46.41933" lon="5.75287">
        <ele>1039.5999755859</ele>
        <time>2017-08-06T10:41:38.000Z</time>
      </trkpt>
      <trkpt lat="46.41934" lon="5.75284">
        <ele>1039.4000244141</ele>
        <time>2017-08-06T10:41:40.000Z</time>
      </trkpt>
      <trkpt lat="46.41935" lon="5.75283">
        <ele>1039.1999511719</ele>
        <time>2017-08-06T10:41:41.000Z</time>
      </trkpt>
      <trkpt lat="46.41939" lon="5.75279">
        <ele>1038.4000244141</ele>
        <time>2017-08-06T10:41:46.000Z</time>
      </trkpt>
      <trkpt lat="46.41944" lon="5.75275">
        <ele>1038.1999511719</ele>
        <time>2017-08-06T10:41:50.000Z</time>
      </trkpt>
      <trkpt lat="46.41945" lon="5.75275">
        <ele>1038.1999511719</ele>
        <time>2017-08-06T10:41:51.000Z</time>
      </trkpt>
      <trkpt lat="46.41943" lon="5.75282">
        <ele>1037.5999755859</ele>
        <time>2017-08-06T10:41:58.000Z</time>
      </trkpt>
      <trkpt lat="46.41945" lon="5.7528">
        <ele>1037.8000488281</ele>
        <time>2017-08-06T10:42:00.000Z</time>
      </trkpt>
      <trkpt lat="46.41953" lon="5.75273">
        <ele>1037.8000488281</ele>
        <time>2017-08-06T10:42:07.000Z</time>
      </trkpt>
      <trkpt lat="46.41956" lon="5.7527">
        <ele>1037</ele>
        <time>2017-08-06T10:42:12.000Z</time>
      </trkpt>
      <trkpt lat="46.41958" lon="5.75268">
        <ele>1036</ele>
        <time>2017-08-06T10:42:17.000Z</time>
      </trkpt>
      <trkpt lat="46.41955" lon="5.75267">
        <ele>1036</ele>
        <time>2017-08-06T10:42:20.000Z</time>
      </trkpt>
      <trkpt lat="46.41958" lon="5.75264">
        <ele>1035.4000244141</ele>
        <time>2017-08-06T10:42:27.000Z</time>
      </trkpt>
      <trkpt lat="46.4196" lon="5.75262">
        <ele>1035</ele>
        <time>2017-08-06T10:42:29.000Z</time>
      </trkpt>
      <trkpt lat="46.41961" lon="5.7526">
        <ele>1034.1999511719</ele>
        <time>2017-08-06T10:42:31.000Z</time>
      </trkpt>
      <trkpt lat="46.41962" lon="5.75259">
        <ele>1033.8000488281</ele>
        <time>2017-08-06T10:42:33.000Z</time>
      </trkpt>
      <trkpt lat="46.41965" lon="5.75261">
        <ele>1032.5999755859</ele>
        <time>2017-08-06T10:42:37.000Z</time>
      </trkpt>
      <trkpt lat="46.4197" lon="5.75263">
        <ele>1031.4000244141</ele>
        <time>2017-08-06T10:42:41.000Z</time>
      </trkpt>
      <trkpt lat="46.4198" lon="5.75263">
        <ele>1030.1999511719</ele>
        <time>2017-08-06T10:42:47.000Z</time>
      </trkpt>
      <trkpt lat="46.41988" lon="5.75264">
        <ele>1029.1999511719</ele>
        <time>2017-08-06T10:42:54.000Z</time>
      </trkpt>
      <trkpt lat="46.41994" lon="5.75264">
        <ele>1028</ele>
        <time>2017-08-06T10:42:59.000Z</time>
      </trkpt>
      <trkpt lat="46.41999" lon="5.75264">
        <ele>1026.8000488281</ele>
        <time>2017-08-06T10:43:05.000Z</time>
      </trkpt>
      <trkpt lat="46.42005" lon="5.75264">
        <ele>1026</ele>
        <time>2017-08-06T10:43:09.000Z</time>
      </trkpt>
      <trkpt lat="46.42006" lon="5.75263">
        <ele>1025.8000488281</ele>
        <time>2017-08-06T10:43:10.000Z</time>
      </trkpt>
      <trkpt lat="46.42009" lon="5.75263">
        <ele>1025.4000244141</ele>
        <time>2017-08-06T10:43:13.000Z</time>
      </trkpt>
      <trkpt lat="46.42016" lon="5.75262">
        <ele>1024.8000488281</ele>
        <time>2017-08-06T10:43:18.000Z</time>
      </trkpt>
      <trkpt lat="46.42018" lon="5.75261">
        <ele>1024.5999755859</ele>
        <time>2017-08-06T10:43:20.000Z</time>
      </trkpt>
      <trkpt lat="46.4202" lon="5.75259">
        <ele>1024</ele>
        <time>2017-08-06T10:43:23.000Z</time>
      </trkpt>
      <trkpt lat="46.42021" lon="5.75258">
        <ele>1023.5999755859</ele>
        <time>2017-08-06T10:43:25.000Z</time>
      </trkpt>
      <trkpt lat="46.42023" lon="5.75258">
        <ele>1022.799987793</ele>
        <time>2017-08-06T10:43:27.000Z</time>
      </trkpt>
      <trkpt lat="46.42025" lon="5.75257">
        <ele>1022.4000244141</ele>
        <time>2017-08-06T10:43:29.000Z</time>
      </trkpt>
      <trkpt lat="46.42025" lon="5.75257">
        <ele>1022</ele>
        <time>2017-08-06T10:43:30.000Z</time>
      </trkpt>
      <trkpt lat="46.42026" lon="5.75258">
        <ele>1021.200012207</ele>
        <time>2017-08-06T10:43:33.000Z</time>
      </trkpt>
      <trkpt lat="46.42025" lon="5.75259">
        <ele>1020.799987793</ele>
        <time>2017-08-06T10:43:35.000Z</time>
      </trkpt>
      <trkpt lat="46.42025" lon="5.7526">
        <ele>1020.200012207</ele>
        <time>2017-08-06T10:43:38.000Z</time>
      </trkpt>
      <trkpt lat="46.42027" lon="5.75258">
        <ele>1020</ele>
        <time>2017-08-06T10:43:40.000Z</time>
      </trkpt>
      <trkpt lat="46.42029" lon="5.75257">
        <ele>1019.799987793</ele>
        <time>2017-08-06T10:43:42.000Z</time>
      </trkpt>
      <trkpt lat="46.42032" lon="5.75253">
        <ele>1019.200012207</ele>
        <time>2017-08-06T10:43:45.000Z</time>
      </trkpt>
      <trkpt lat="46.42033" lon="5.75253">
        <ele>1018.799987793</ele>
        <time>2017-08-06T10:43:46.000Z</time>
      </trkpt>
      <trkpt lat="46.42036" lon="5.7525">
        <ele>1018</ele>
        <time>2017-08-06T10:43:49.000Z</time>
      </trkpt>
      <trkpt lat="46.42038" lon="5.75249">
        <ele>1017.799987793</ele>
        <time>2017-08-06T10:43:50.000Z</time>
      </trkpt>
      <trkpt lat="46.4204" lon="5.75247">
        <ele>1016.799987793</ele>
        <time>2017-08-06T10:43:53.000Z</time>
      </trkpt>
      <trkpt lat="46.42041" lon="5.75244">
        <ele>1016.4000244141</ele>
        <time>2017-08-06T10:43:55.000Z</time>
      </trkpt>
      <trkpt lat="46.42042" lon="5.75242">
        <ele>1015.5999755859</ele>
        <time>2017-08-06T10:43:57.000Z</time>
      </trkpt>
      <trkpt lat="46.42043" lon="5.75241">
        <ele>1015.4000244141</ele>
        <time>2017-08-06T10:43:58.000Z</time>
      </trkpt>
      <trkpt lat="46.42046" lon="5.75237">
        <ele>1014.4000244141</ele>
        <time>2017-08-06T10:44:01.000Z</time>
      </trkpt>
      <trkpt lat="46.42047" lon="5.75235">
        <ele>1014.200012207</ele>
        <time>2017-08-06T10:44:03.000Z</time>
      </trkpt>
      <trkpt lat="46.42065" lon="5.75249">
        <ele>1014.200012207</ele>
        <time>2017-08-06T10:45:01.000Z</time>
      </trkpt>
      <trkpt lat="46.42049" lon="5.75255">
        <ele>1014</ele>
        <time>2017-08-06T10:45:25.000Z</time>
      </trkpt>
      <trkpt lat="46.42053" lon="5.75258">
        <ele>1014.200012207</ele>
        <time>2017-08-06T10:46:04.000Z</time>
      </trkpt>
      <trkpt lat="46.4206" lon="5.75261">
        <ele>1014.5999755859</ele>
        <time>2017-08-06T10:46:31.000Z</time>
      </trkpt>
      <trkpt lat="46.42062" lon="5.75249">
        <ele>1014.5999755859</ele>
        <time>2017-08-06T10:47:14.000Z</time>
      </trkpt>
      <trkpt lat="46.42075" lon="5.75256">
        <ele>1014.799987793</ele>
        <time>2017-08-06T10:47:35.000Z</time>
      </trkpt>
      <trkpt lat="46.42073" lon="5.75252">
        <ele>1015</ele>
        <time>2017-08-06T10:47:42.000Z</time>
      </trkpt>
      <trkpt lat="46.42067" lon="5.75249">
        <ele>1014.799987793</ele>
        <time>2017-08-06T10:47:48.000Z</time>
      </trkpt>
      <trkpt lat="46.42066" lon="5.7525">
        <ele>1014.799987793</ele>
        <time>2017-08-06T10:47:49.000Z</time>
      </trkpt>
      <trkpt lat="46.42066" lon="5.75243">
        <ele>1018</ele>
        <time>2017-08-06T11:06:56.000Z</time>
      </trkpt>
      <trkpt lat="46.42059" lon="5.75241">
        <ele>1017.799987793</ele>
        <time>2017-08-06T11:07:32.000Z</time>
      </trkpt>
      <trkpt lat="46.42053" lon="5.75228">
        <ele>1017</ele>
        <time>2017-08-06T11:07:49.000Z</time>
      </trkpt>
      <trkpt lat="46.42052" lon="5.75225">
        <ele>1016.799987793</ele>
        <time>2017-08-06T11:07:51.000Z</time>
      </trkpt>
      <trkpt lat="46.4205" lon="5.75221">
        <ele>1016.5999755859</ele>
        <time>2017-08-06T11:07:54.000Z</time>
      </trkpt>
      <trkpt lat="46.42048" lon="5.75218">
        <ele>1016.4000244141</ele>
        <time>2017-08-06T11:07:57.000Z</time>
      </trkpt>
      <trkpt lat="46.42046" lon="5.75215">
        <ele>1016.200012207</ele>
        <time>2017-08-06T11:07:59.000Z</time>
      </trkpt>
      <trkpt lat="46.42045" lon="5.75211">
        <ele>1015.799987793</ele>
        <time>2017-08-06T11:08:02.000Z</time>
      </trkpt>
      <trkpt lat="46.42044" lon="5.75208">
        <ele>1015.5999755859</ele>
        <time>2017-08-06T11:08:04.000Z</time>
      </trkpt>
      <trkpt lat="46.42041" lon="5.75201">
        <ele>1014.799987793</ele>
        <time>2017-08-06T11:08:08.000Z</time>
      </trkpt>
      <trkpt lat="46.4204" lon="5.752">
        <ele>1014.799987793</ele>
        <time>2017-08-06T11:08:09.000Z</time>
      </trkpt>
      <trkpt lat="46.4204" lon="5.75188">
        <ele>1013.5999755859</ele>
        <time>2017-08-06T11:08:17.000Z</time>
      </trkpt>
      <trkpt lat="46.42038" lon="5.75182">
        <ele>1012.5999755859</ele>
        <time>2017-08-06T11:08:21.000Z</time>
      </trkpt>
      <trkpt lat="46.42036" lon="5.75177">
        <ele>1011.5999755859</ele>
        <time>2017-08-06T11:08:25.000Z</time>
      </trkpt>
      <trkpt lat="46.42034" lon="5.75171">
        <ele>1010.4000244141</ele>
        <time>2017-08-06T11:08:29.000Z</time>
      </trkpt>
      <trkpt lat="46.42035" lon="5.75171">
        <ele>1009.799987793</ele>
        <time>2017-08-06T11:08:32.000Z</time>
      </trkpt>
      <trkpt lat="46.42037" lon="5.75168">
        <ele>1009.200012207</ele>
        <time>2017-08-06T11:08:35.000Z</time>
      </trkpt>
      <trkpt lat="46.42039" lon="5.75164">
        <ele>1008.4000244141</ele>
        <time>2017-08-06T11:08:39.000Z</time>
      </trkpt>
      <trkpt lat="46.4204" lon="5.75163">
        <ele>1008.200012207</ele>
        <time>2017-08-06T11:08:40.000Z</time>
      </trkpt>
      <trkpt lat="46.42042" lon="5.7516">
        <ele>1007.799987793</ele>
        <time>2017-08-06T11:08:42.000Z</time>
      </trkpt>
      <trkpt lat="46.42043" lon="5.75158">
        <ele>1007.4000244141</ele>
        <time>2017-08-06T11:08:44.000Z</time>
      </trkpt>
      <trkpt lat="46.42044" lon="5.75151">
        <ele>1007.200012207</ele>
        <time>2017-08-06T11:08:48.000Z</time>
      </trkpt>
      <trkpt lat="46.42044" lon="5.75148">
        <ele>1007</ele>
        <time>2017-08-06T11:08:49.000Z</time>
      </trkpt>
      <trkpt lat="46.42043" lon="5.75131">
        <ele>1006</ele>
        <time>2017-08-06T11:08:56.000Z</time>
      </trkpt>
      <trkpt lat="46.42044" lon="5.75126">
        <ele>1005.200012207</ele>
        <time>2017-08-06T11:09:00.000Z</time>
      </trkpt>
      <trkpt lat="46.42044" lon="5.75125">
        <ele>1005</ele>
        <time>2017-08-06T11:09:01.000Z</time>
      </trkpt>
      <trkpt lat="46.42043" lon="5.75125">
        <ele>1004.799987793</ele>
        <time>2017-08-06T11:09:02.000Z</time>
      </trkpt>
      <trkpt lat="46.42047" lon="5.75126">
        <ele>1004.4000244141</ele>
        <time>2017-08-06T11:09:06.000Z</time>
      </trkpt>
      <trkpt lat="46.42045" lon="5.75123">
        <ele>1004</ele>
        <time>2017-08-06T11:09:11.000Z</time>
      </trkpt>
      <trkpt lat="46.42041" lon="5.75108">
        <ele>1003.200012207</ele>
        <time>2017-08-06T11:09:29.000Z</time>
      </trkpt>
      <trkpt lat="46.42039" lon="5.75107">
        <ele>1003</ele>
        <time>2017-08-06T11:09:31.000Z</time>
      </trkpt>
      <trkpt lat="46.42039" lon="5.75106">
        <ele>1002.799987793</ele>
        <time>2017-08-06T11:09:32.000Z</time>
      </trkpt>
      <trkpt lat="46.4204" lon="5.751">
        <ele>1001.799987793</ele>
        <time>2017-08-06T11:09:39.000Z</time>
      </trkpt>
      <trkpt lat="46.42037" lon="5.75095">
        <ele>1000.799987793</ele>
        <time>2017-08-06T11:09:45.000Z</time>
      </trkpt>
      <trkpt lat="46.42036" lon="5.75094">
        <ele>1000.5999755859</ele>
        <time>2017-08-06T11:09:46.000Z</time>
      </trkpt>
      <trkpt lat="46.42035" lon="5.75092">
        <ele>1000.4000244141</ele>
        <time>2017-08-06T11:09:48.000Z</time>
      </trkpt>
      <trkpt lat="46.42035" lon="5.7509">
        <ele>999.79998779297</ele>
        <time>2017-08-06T11:09:52.000Z</time>
      </trkpt>
      <trkpt lat="46.42038" lon="5.75086">
        <ele>999.79998779297</ele>
        <time>2017-08-06T11:09:56.000Z</time>
      </trkpt>
      <trkpt lat="46.42039" lon="5.75083">
        <ele>999.79998779297</ele>
        <time>2017-08-06T11:09:59.000Z</time>
      </trkpt>
      <trkpt lat="46.4204" lon="5.7508">
        <ele>999.59997558594</ele>
        <time>2017-08-06T11:10:01.000Z</time>
      </trkpt>
      <trkpt lat="46.42041" lon="5.75069">
        <ele>998.59997558594</ele>
        <time>2017-08-06T11:10:07.000Z</time>
      </trkpt>
      <trkpt lat="46.42037" lon="5.75059">
        <ele>997.59997558594</ele>
        <time>2017-08-06T11:10:14.000Z</time>
      </trkpt>
      <trkpt lat="46.42035" lon="5.75056">
        <ele>997.20001220703</ele>
        <time>2017-08-06T11:10:18.000Z</time>
      </trkpt>
      <trkpt lat="46.42034" lon="5.75051">
        <ele>996.40002441406</ele>
        <time>2017-08-06T11:10:23.000Z</time>
      </trkpt>
      <trkpt lat="46.42034" lon="5.75049">
        <ele>995.79998779297</ele>
        <time>2017-08-06T11:10:26.000Z</time>
      </trkpt>
      <trkpt lat="46.42033" lon="5.75048">
        <ele>995.40002441406</ele>
        <time>2017-08-06T11:10:28.000Z</time>
      </trkpt>
      <trkpt lat="46.4203" lon="5.75045">
        <ele>994.59997558594</ele>
        <time>2017-08-06T11:10:32.000Z</time>
      </trkpt>
      <trkpt lat="46.4203" lon="5.75044">
        <ele>994.40002441406</ele>
        <time>2017-08-06T11:10:33.000Z</time>
      </trkpt>
      <trkpt lat="46.4203" lon="5.75046">
        <ele>993.20001220703</ele>
        <time>2017-08-06T11:10:38.000Z</time>
      </trkpt>
      <trkpt lat="46.42032" lon="5.75044">
        <ele>992.20001220703</ele>
        <time>2017-08-06T11:10:45.000Z</time>
      </trkpt>
      <trkpt lat="46.42028" lon="5.75033">
        <ele>991.59997558594</ele>
        <time>2017-08-06T11:10:52.000Z</time>
      </trkpt>
      <trkpt lat="46.42027" lon="5.7503">
        <ele>991</ele>
        <time>2017-08-06T11:10:54.000Z</time>
      </trkpt>
      <trkpt lat="46.42024" lon="5.75025">
        <ele>990.20001220703</ele>
        <time>2017-08-06T11:10:58.000Z</time>
      </trkpt>
      <trkpt lat="46.42024" lon="5.75023">
        <ele>990</ele>
        <time>2017-08-06T11:10:59.000Z</time>
      </trkpt>
      <trkpt lat="46.42019" lon="5.75019">
        <ele>989</ele>
        <time>2017-08-06T11:11:05.000Z</time>
      </trkpt>
      <trkpt lat="46.42016" lon="5.75015">
        <ele>987.59997558594</ele>
        <time>2017-08-06T11:11:09.000Z</time>
      </trkpt>
      <trkpt lat="46.42016" lon="5.75013">
        <ele>986.59997558594</ele>
        <time>2017-08-06T11:11:13.000Z</time>
      </trkpt>
      <trkpt lat="46.42011" lon="5.75008">
        <ele>985.40002441406</ele>
        <time>2017-08-06T11:11:18.000Z</time>
      </trkpt>
      <trkpt lat="46.42008" lon="5.75">
        <ele>984.20001220703</ele>
        <time>2017-08-06T11:11:23.000Z</time>
      </trkpt>
      <trkpt lat="46.42005" lon="5.74997">
        <ele>983.20001220703</ele>
        <time>2017-08-06T11:11:27.000Z</time>
      </trkpt>
      <trkpt lat="46.42002" lon="5.74993">
        <ele>982</ele>
        <time>2017-08-06T11:11:32.000Z</time>
      </trkpt>
      <trkpt lat="46.41998" lon="5.74989">
        <ele>981</ele>
        <time>2017-08-06T11:11:36.000Z</time>
      </trkpt>
      <trkpt lat="46.41999" lon="5.7498">
        <ele>980.20001220703</ele>
        <time>2017-08-06T11:11:39.000Z</time>
      </trkpt>
      <trkpt lat="46.42001" lon="5.74975">
        <ele>979.79998779297</ele>
        <time>2017-08-06T11:11:41.000Z</time>
      </trkpt>
      <trkpt lat="46.42002" lon="5.74973">
        <ele>979.40002441406</ele>
        <time>2017-08-06T11:11:43.000Z</time>
      </trkpt>
      <trkpt lat="46.42006" lon="5.74967">
        <ele>978.59997558594</ele>
        <time>2017-08-06T11:11:47.000Z</time>
      </trkpt>
      <trkpt lat="46.42008" lon="5.74966">
        <ele>978.59997558594</ele>
        <time>2017-08-06T11:11:48.000Z</time>
      </trkpt>
      <trkpt lat="46.42007" lon="5.74962">
        <ele>978</ele>
        <time>2017-08-06T11:11:52.000Z</time>
      </trkpt>
      <trkpt lat="46.42004" lon="5.74963">
        <ele>978</ele>
        <time>2017-08-06T11:11:55.000Z</time>
      </trkpt>
      <trkpt lat="46.42005" lon="5.74964">
        <ele>977.59997558594</ele>
        <time>2017-08-06T11:12:19.000Z</time>
      </trkpt>
      <trkpt lat="46.42003" lon="5.74964">
        <ele>976.40002441406</ele>
        <time>2017-08-06T11:12:23.000Z</time>
      </trkpt>
      <trkpt lat="46.42006" lon="5.74962">
        <ele>975.40002441406</ele>
        <time>2017-08-06T11:12:32.000Z</time>
      </trkpt>
      <trkpt lat="46.42002" lon="5.74956">
        <ele>974.20001220703</ele>
        <time>2017-08-06T11:12:47.000Z</time>
      </trkpt>
      <trkpt lat="46.42003" lon="5.74957">
        <ele>972.40002441406</ele>
        <time>2017-08-06T11:12:52.000Z</time>
      </trkpt>
      <trkpt lat="46.42002" lon="5.74954">
        <ele>971.20001220703</ele>
        <time>2017-08-06T11:12:53.000Z</time>
      </trkpt>
      <trkpt lat="46.42001" lon="5.74951">
        <ele>970.20001220703</ele>
        <time>2017-08-06T11:12:55.000Z</time>
      </trkpt>
      <trkpt lat="46.4202" lon="5.7495">
        <ele>969.59997558594</ele>
        <time>2017-08-06T11:13:22.000Z</time>
      </trkpt>
      <trkpt lat="46.42018" lon="5.74955">
        <ele>968.79998779297</ele>
        <time>2017-08-06T11:13:41.000Z</time>
      </trkpt>
      <trkpt lat="46.42012" lon="5.7495">
        <ele>968</ele>
        <time>2017-08-06T11:13:45.000Z</time>
      </trkpt>
      <trkpt lat="46.42011" lon="5.74948">
        <ele>967.79998779297</ele>
        <time>2017-08-06T11:13:47.000Z</time>
      </trkpt>
      <trkpt lat="46.4201" lon="5.74946">
        <ele>967.59997558594</ele>
        <time>2017-08-06T11:13:48.000Z</time>
      </trkpt>
      <trkpt lat="46.42009" lon="5.74942">
        <ele>969.59997558594</ele>
        <time>2017-08-06T11:13:49.000Z</time>
      </trkpt>
      <trkpt lat="46.42008" lon="5.74939">
        <ele>968.79998779297</ele>
        <time>2017-08-06T11:13:51.000Z</time>
      </trkpt>
      <trkpt lat="46.42008" lon="5.74938">
        <ele>968.40002441406</ele>
        <time>2017-08-06T11:13:53.000Z</time>
      </trkpt>
      <trkpt lat="46.42" lon="5.7493">
        <ele>967.40002441406</ele>
        <time>2017-08-06T11:13:59.000Z</time>
      </trkpt>
      <trkpt lat="46.41999" lon="5.74928">
        <ele>967.20001220703</ele>
        <time>2017-08-06T11:14:00.000Z</time>
      </trkpt>
      <trkpt lat="46.41996" lon="5.74924">
        <ele>966.20001220703</ele>
        <time>2017-08-06T11:14:05.000Z</time>
      </trkpt>
      <trkpt lat="46.41995" lon="5.74921">
        <ele>965.40002441406</ele>
        <time>2017-08-06T11:14:07.000Z</time>
      </trkpt>
      <trkpt lat="46.41993" lon="5.74918">
        <ele>965</ele>
        <time>2017-08-06T11:14:08.000Z</time>
      </trkpt>
      <trkpt lat="46.42001" lon="5.74929">
        <ele>964.20001220703</ele>
        <time>2017-08-06T11:15:19.000Z</time>
      </trkpt>
      <trkpt lat="46.41997" lon="5.74928">
        <ele>964.79998779297</ele>
        <time>2017-08-06T11:15:25.000Z</time>
      </trkpt>
      <trkpt lat="46.41994" lon="5.74926">
        <ele>964.59997558594</ele>
        <time>2017-08-06T11:15:27.000Z</time>
      </trkpt>
      <trkpt lat="46.4199" lon="5.74926">
        <ele>964</ele>
        <time>2017-08-06T11:15:30.000Z</time>
      </trkpt>
      <trkpt lat="46.41986" lon="5.74928">
        <ele>963.40002441406</ele>
        <time>2017-08-06T11:15:33.000Z</time>
      </trkpt>
      <trkpt lat="46.41981" lon="5.74927">
        <ele>962.79998779297</ele>
        <time>2017-08-06T11:15:37.000Z</time>
      </trkpt>
      <trkpt lat="46.41979" lon="5.74928">
        <ele>962.79998779297</ele>
        <time>2017-08-06T11:15:38.000Z</time>
      </trkpt>
      <trkpt lat="46.41972" lon="5.74926">
        <ele>962</ele>
        <time>2017-08-06T11:15:45.000Z</time>
      </trkpt>
      <trkpt lat="46.41971" lon="5.74925">
        <ele>961.79998779297</ele>
        <time>2017-08-06T11:15:46.000Z</time>
      </trkpt>
      <trkpt lat="46.41969" lon="5.74924">
        <ele>961.40002441406</ele>
        <time>2017-08-06T11:15:49.000Z</time>
      </trkpt>
      <trkpt lat="46.41964" lon="5.74921">
        <ele>961</ele>
        <time>2017-08-06T11:15:55.000Z</time>
      </trkpt>
      <trkpt lat="46.41963" lon="5.74921">
        <ele>961</ele>
        <time>2017-08-06T11:15:57.000Z</time>
      </trkpt>
      <trkpt lat="46.41962" lon="5.74921">
        <ele>960.79998779297</ele>
        <time>2017-08-06T11:15:58.000Z</time>
      </trkpt>
      <trkpt lat="46.41959" lon="5.74918">
        <ele>960.59997558594</ele>
        <time>2017-08-06T11:16:00.000Z</time>
      </trkpt>
      <trkpt lat="46.41956" lon="5.74913">
        <ele>960.20001220703</ele>
        <time>2017-08-06T11:16:04.000Z</time>
      </trkpt>
      <trkpt lat="46.41954" lon="5.7491">
        <ele>959.79998779297</ele>
        <time>2017-08-06T11:16:07.000Z</time>
      </trkpt>
      <trkpt lat="46.41952" lon="5.74907">
        <ele>959.40002441406</ele>
        <time>2017-08-06T11:16:10.000Z</time>
      </trkpt>
      <trkpt lat="46.41951" lon="5.74904">
        <ele>959</ele>
        <time>2017-08-06T11:16:14.000Z</time>
      </trkpt>
      <trkpt lat="46.41953" lon="5.74901">
        <ele>958.79998779297</ele>
        <time>2017-08-06T11:16:18.000Z</time>
      </trkpt>
      <trkpt lat="46.41956" lon="5.749">
        <ele>958.20001220703</ele>
        <time>2017-08-06T11:16:22.000Z</time>
      </trkpt>
      <trkpt lat="46.41955" lon="5.74897">
        <ele>957.79998779297</ele>
        <time>2017-08-06T11:16:24.000Z</time>
      </trkpt>
      <trkpt lat="46.4195" lon="5.74881">
        <ele>956.59997558594</ele>
        <time>2017-08-06T11:16:28.000Z</time>
      </trkpt>
      <trkpt lat="46.41952" lon="5.7488">
        <ele>956.20001220703</ele>
        <time>2017-08-06T11:16:30.000Z</time>
      </trkpt>
      <trkpt lat="46.41955" lon="5.74878">
        <ele>955.40002441406</ele>
        <time>2017-08-06T11:16:33.000Z</time>
      </trkpt>
      <trkpt lat="46.4198" lon="5.74887">
        <ele>955.59997558594</ele>
        <time>2017-08-06T11:16:58.000Z</time>
      </trkpt>
      <trkpt lat="46.4196" lon="5.74881">
        <ele>955.40002441406</ele>
        <time>2017-08-06T11:17:31.000Z</time>
      </trkpt>
      <trkpt lat="46.41943" lon="5.74873">
        <ele>956.59997558594</ele>
        <time>2017-08-06T11:17:45.000Z</time>
      </trkpt>
      <trkpt lat="46.41936" lon="5.74877">
        <ele>957.40002441406</ele>
        <time>2017-08-06T11:17:49.000Z</time>
      </trkpt>
      <trkpt lat="46.41934" lon="5.74877">
        <ele>957.59997558594</ele>
        <time>2017-08-06T11:17:52.000Z</time>
      </trkpt>
      <trkpt lat="46.41933" lon="5.74878">
        <ele>957.59997558594</ele>
        <time>2017-08-06T11:17:53.000Z</time>
      </trkpt>
      <trkpt lat="46.41931" lon="5.74879">
        <ele>957.79998779297</ele>
        <time>2017-08-06T11:17:56.000Z</time>
      </trkpt>
      <trkpt lat="46.4193" lon="5.74877">
        <ele>957.79998779297</ele>
        <time>2017-08-06T11:17:58.000Z</time>
      </trkpt>
      <trkpt lat="46.41926" lon="5.74878">
        <ele>957.59997558594</ele>
        <time>2017-08-06T11:18:01.000Z</time>
      </trkpt>
      <trkpt lat="46.41925" lon="5.74878">
        <ele>957.20001220703</ele>
        <time>2017-08-06T11:18:03.000Z</time>
      </trkpt>
      <trkpt lat="46.41919" lon="5.7488">
        <ele>956.59997558594</ele>
        <time>2017-08-06T11:18:08.000Z</time>
      </trkpt>
      <trkpt lat="46.41914" lon="5.7488">
        <ele>956</ele>
        <time>2017-08-06T11:18:12.000Z</time>
      </trkpt>
      <trkpt lat="46.41911" lon="5.7488">
        <ele>955.79998779297</ele>
        <time>2017-08-06T11:18:14.000Z</time>
      </trkpt>
      <trkpt lat="46.4191" lon="5.7488">
        <ele>955.59997558594</ele>
        <time>2017-08-06T11:18:15.000Z</time>
      </trkpt>
      <trkpt lat="46.41907" lon="5.74878">
        <ele>955</ele>
        <time>2017-08-06T11:18:17.000Z</time>
      </trkpt>
      <trkpt lat="46.41902" lon="5.74877">
        <ele>954.40002441406</ele>
        <time>2017-08-06T11:18:21.000Z</time>
      </trkpt>
      <trkpt lat="46.41891" lon="5.74873">
        <ele>953.40002441406</ele>
        <time>2017-08-06T11:18:27.000Z</time>
      </trkpt>
      <trkpt lat="46.4189" lon="5.74873">
        <ele>953.20001220703</ele>
        <time>2017-08-06T11:18:28.000Z</time>
      </trkpt>
      <trkpt lat="46.41879" lon="5.74869">
        <ele>952.20001220703</ele>
        <time>2017-08-06T11:18:34.000Z</time>
      </trkpt>
      <trkpt lat="46.41869" lon="5.74866">
        <ele>951</ele>
        <time>2017-08-06T11:18:38.000Z</time>
      </trkpt>
      <trkpt lat="46.41861" lon="5.74864">
        <ele>950</ele>
        <time>2017-08-06T11:18:41.000Z</time>
      </trkpt>
      <trkpt lat="46.4185" lon="5.74862">
        <ele>949</ele>
        <time>2017-08-06T11:18:45.000Z</time>
      </trkpt>
      <trkpt lat="46.41838" lon="5.74863">
        <ele>947.79998779297</ele>
        <time>2017-08-06T11:18:49.000Z</time>
      </trkpt>
      <trkpt lat="46.41827" lon="5.7486">
        <ele>946.59997558594</ele>
        <time>2017-08-06T11:18:53.000Z</time>
      </trkpt>
      <trkpt lat="46.41809" lon="5.7485">
        <ele>945.79998779297</ele>
        <time>2017-08-06T11:18:59.000Z</time>
      </trkpt>
      <trkpt lat="46.41794" lon="5.74842">
        <ele>945.59997558594</ele>
        <time>2017-08-06T11:19:05.000Z</time>
      </trkpt>
      <trkpt lat="46.41777" lon="5.74831">
        <ele>945.20001220703</ele>
        <time>2017-08-06T11:19:17.000Z</time>
      </trkpt>
      <trkpt lat="46.41761" lon="5.74818">
        <ele>944.79998779297</ele>
        <time>2017-08-06T11:19:25.000Z</time>
      </trkpt>
      <trkpt lat="46.41757" lon="5.74815">
        <ele>944.79998779297</ele>
        <time>2017-08-06T11:19:27.000Z</time>
      </trkpt>
      <trkpt lat="46.41749" lon="5.7481">
        <ele>944.40002441406</ele>
        <time>2017-08-06T11:19:33.000Z</time>
      </trkpt>
      <trkpt lat="46.41733" lon="5.74797">
        <ele>943.40002441406</ele>
        <time>2017-08-06T11:19:48.000Z</time>
      </trkpt>
      <trkpt lat="46.41716" lon="5.74785">
        <ele>943.40002441406</ele>
        <time>2017-08-06T11:20:04.000Z</time>
      </trkpt>
      <trkpt lat="46.41704" lon="5.74774">
        <ele>943.20001220703</ele>
        <time>2017-08-06T11:20:14.000Z</time>
      </trkpt>
      <trkpt lat="46.41702" lon="5.74772">
        <ele>943</ele>
        <time>2017-08-06T11:20:16.000Z</time>
      </trkpt>
      <trkpt lat="46.41698" lon="5.74768">
        <ele>942.79998779297</ele>
        <time>2017-08-06T11:20:20.000Z</time>
      </trkpt>
      <trkpt lat="46.41691" lon="5.74763">
        <ele>942.40002441406</ele>
        <time>2017-08-06T11:20:25.000Z</time>
      </trkpt>
      <trkpt lat="46.4169" lon="5.74761">
        <ele>942.40002441406</ele>
        <time>2017-08-06T11:20:26.000Z</time>
      </trkpt>
      <trkpt lat="46.41689" lon="5.74761">
        <ele>942.20001220703</ele>
        <time>2017-08-06T11:20:27.000Z</time>
      </trkpt>
      <trkpt lat="46.41682" lon="5.74754">
        <ele>941.20001220703</ele>
        <time>2017-08-06T11:20:34.000Z</time>
      </trkpt>
      <trkpt lat="46.41682" lon="5.74753">
        <ele>941</ele>
        <time>2017-08-06T11:20:35.000Z</time>
      </trkpt>
      <trkpt lat="46.41681" lon="5.74752">
        <ele>940.79998779297</ele>
        <time>2017-08-06T11:20:37.000Z</time>
      </trkpt>
      <trkpt lat="46.41675" lon="5.74747">
        <ele>940.59997558594</ele>
        <time>2017-08-06T11:20:42.000Z</time>
      </trkpt>
      <trkpt lat="46.41674" lon="5.74746">
        <ele>940.40002441406</ele>
        <time>2017-08-06T11:20:44.000Z</time>
      </trkpt>
      <trkpt lat="46.41672" lon="5.74743">
        <ele>940.20001220703</ele>
        <time>2017-08-06T11:20:47.000Z</time>
      </trkpt>
      <trkpt lat="46.41666" lon="5.74736">
        <ele>940</ele>
        <time>2017-08-06T11:20:51.000Z</time>
      </trkpt>
      <trkpt lat="46.41655" lon="5.74724">
        <ele>939</ele>
        <time>2017-08-06T11:21:00.000Z</time>
      </trkpt>
      <trkpt lat="46.41653" lon="5.74721">
        <ele>939</ele>
        <time>2017-08-06T11:21:02.000Z</time>
      </trkpt>
      <trkpt lat="46.41645" lon="5.74711">
        <ele>938</ele>
        <time>2017-08-06T11:21:10.000Z</time>
      </trkpt>
      <trkpt lat="46.41637" lon="5.74705">
        <ele>937</ele>
        <time>2017-08-06T11:21:18.000Z</time>
      </trkpt>
      <trkpt lat="46.41628" lon="5.74702">
        <ele>935.79998779297</ele>
        <time>2017-08-06T11:21:26.000Z</time>
      </trkpt>
      <trkpt lat="46.41626" lon="5.74706">
        <ele>935.59997558594</ele>
        <time>2017-08-06T11:21:29.000Z</time>
      </trkpt>
      <trkpt lat="46.41626" lon="5.7471">
        <ele>935.20001220703</ele>
        <time>2017-08-06T11:21:32.000Z</time>
      </trkpt>
      <trkpt lat="46.41625" lon="5.74714">
        <ele>935</ele>
        <time>2017-08-06T11:21:34.000Z</time>
      </trkpt>
      <trkpt lat="46.41625" lon="5.7472">
        <ele>935</ele>
        <time>2017-08-06T11:21:38.000Z</time>
      </trkpt>
      <trkpt lat="46.41625" lon="5.74721">
        <ele>934.79998779297</ele>
        <time>2017-08-06T11:21:40.000Z</time>
      </trkpt>
      <trkpt lat="46.41624" lon="5.74723">
        <ele>934.79998779297</ele>
        <time>2017-08-06T11:21:41.000Z</time>
      </trkpt>
      <trkpt lat="46.41623" lon="5.74727">
        <ele>934.40002441406</ele>
        <time>2017-08-06T11:21:44.000Z</time>
      </trkpt>
      <trkpt lat="46.41619" lon="5.74735">
        <ele>933.59997558594</ele>
        <time>2017-08-06T11:21:50.000Z</time>
      </trkpt>
      <trkpt lat="46.41616" lon="5.74741">
        <ele>932.79998779297</ele>
        <time>2017-08-06T11:21:55.000Z</time>
      </trkpt>
      <trkpt lat="46.41614" lon="5.74742">
        <ele>932.59997558594</ele>
        <time>2017-08-06T11:21:57.000Z</time>
      </trkpt>
      <trkpt lat="46.41614" lon="5.74744">
        <ele>932</ele>
        <time>2017-08-06T11:21:59.000Z</time>
      </trkpt>
      <trkpt lat="46.41612" lon="5.74746">
        <ele>931.59997558594</ele>
        <time>2017-08-06T11:22:02.000Z</time>
      </trkpt>
      <trkpt lat="46.41611" lon="5.74746">
        <ele>931.40002441406</ele>
        <time>2017-08-06T11:22:03.000Z</time>
      </trkpt>
      <trkpt lat="46.4161" lon="5.74749">
        <ele>931.20001220703</ele>
        <time>2017-08-06T11:22:05.000Z</time>
      </trkpt>
      <trkpt lat="46.41606" lon="5.74751">
        <ele>931</ele>
        <time>2017-08-06T11:22:08.000Z</time>
      </trkpt>
      <trkpt lat="46.41604" lon="5.74755">
        <ele>930.40002441406</ele>
        <time>2017-08-06T11:22:12.000Z</time>
      </trkpt>
      <trkpt lat="46.41603" lon="5.74755">
        <ele>930.20001220703</ele>
        <time>2017-08-06T11:22:13.000Z</time>
      </trkpt>
      <trkpt lat="46.41603" lon="5.74757">
        <ele>930</ele>
        <time>2017-08-06T11:22:15.000Z</time>
      </trkpt>
      <trkpt lat="46.416" lon="5.74762">
        <ele>929.20001220703</ele>
        <time>2017-08-06T11:22:19.000Z</time>
      </trkpt>
      <trkpt lat="46.41602" lon="5.74761">
        <ele>928.20001220703</ele>
        <time>2017-08-06T11:22:24.000Z</time>
      </trkpt>
      <trkpt lat="46.41602" lon="5.74761">
        <ele>928.20001220703</ele>
        <time>2017-08-06T11:22:25.000Z</time>
      </trkpt>
      <trkpt lat="46.41603" lon="5.74762">
        <ele>928.20001220703</ele>
        <time>2017-08-06T11:22:32.000Z</time>
      </trkpt>
      <trkpt lat="46.41603" lon="5.74763">
        <ele>928.20001220703</ele>
        <time>2017-08-06T11:22:33.000Z</time>
      </trkpt>
      <trkpt lat="46.41591" lon="5.74763">
        <ele>928.59997558594</ele>
        <time>2017-08-06T11:22:46.000Z</time>
      </trkpt>
      <trkpt lat="46.41614" lon="5.74762">
        <ele>928</ele>
        <time>2017-08-06T11:23:40.000Z</time>
      </trkpt>
      <trkpt lat="46.41602" lon="5.7476">
        <ele>928.20001220703</ele>
        <time>2017-08-06T11:23:44.000Z</time>
      </trkpt>
      <trkpt lat="46.41599" lon="5.74758">
        <ele>927.79998779297</ele>
        <time>2017-08-06T11:24:12.000Z</time>
      </trkpt>
      <trkpt lat="46.41603" lon="5.7477">
        <ele>927.79998779297</ele>
        <time>2017-08-06T11:24:30.000Z</time>
      </trkpt>
      <trkpt lat="46.41602" lon="5.74776">
        <ele>927.79998779297</ele>
        <time>2017-08-06T11:24:59.000Z</time>
      </trkpt>
      <trkpt lat="46.41605" lon="5.74781">
        <ele>927.79998779297</ele>
        <time>2017-08-06T11:25:02.000Z</time>
      </trkpt>
      <trkpt lat="46.41608" lon="5.74783">
        <ele>927.59997558594</ele>
        <time>2017-08-06T11:25:05.000Z</time>
      </trkpt>
      <trkpt lat="46.4161" lon="5.74785">
        <ele>927.59997558594</ele>
        <time>2017-08-06T11:25:08.000Z</time>
      </trkpt>
      <trkpt lat="46.41613" lon="5.74785">
        <ele>927.40002441406</ele>
        <time>2017-08-06T11:25:10.000Z</time>
      </trkpt>
      <trkpt lat="46.41616" lon="5.74786">
        <ele>927.40002441406</ele>
        <time>2017-08-06T11:25:13.000Z</time>
      </trkpt>
      <trkpt lat="46.41616" lon="5.74786">
        <ele>927.20001220703</ele>
        <time>2017-08-06T11:25:14.000Z</time>
      </trkpt>
      <trkpt lat="46.41618" lon="5.74787">
        <ele>927</ele>
        <time>2017-08-06T11:25:16.000Z</time>
      </trkpt>
      <trkpt lat="46.4162" lon="5.74788">
        <ele>926.59997558594</ele>
        <time>2017-08-06T11:25:19.000Z</time>
      </trkpt>
      <trkpt lat="46.41623" lon="5.74788">
        <ele>926.20001220703</ele>
        <time>2017-08-06T11:25:22.000Z</time>
      </trkpt>
      <trkpt lat="46.41623" lon="5.74788">
        <ele>926</ele>
        <time>2017-08-06T11:25:23.000Z</time>
      </trkpt>
      <trkpt lat="46.41626" lon="5.74789">
        <ele>925.40002441406</ele>
        <time>2017-08-06T11:25:28.000Z</time>
      </trkpt>
      <trkpt lat="46.41629" lon="5.74788">
        <ele>925.40002441406</ele>
        <time>2017-08-06T11:25:31.000Z</time>
      </trkpt>
      <trkpt lat="46.4163" lon="5.74788">
        <ele>925.20001220703</ele>
        <time>2017-08-06T11:25:33.000Z</time>
      </trkpt>
      <trkpt lat="46.41634" lon="5.74787">
        <ele>924.40002441406</ele>
        <time>2017-08-06T11:25:37.000Z</time>
      </trkpt>
      <trkpt lat="46.41636" lon="5.74789">
        <ele>924.20001220703</ele>
        <time>2017-08-06T11:25:42.000Z</time>
      </trkpt>
      <trkpt lat="46.41638" lon="5.74792">
        <ele>924.20001220703</ele>
        <time>2017-08-06T11:25:46.000Z</time>
      </trkpt>
      <trkpt lat="46.41639" lon="5.74792">
        <ele>924.20001220703</ele>
        <time>2017-08-06T11:25:47.000Z</time>
      </trkpt>
      <trkpt lat="46.41642" lon="5.74797">
        <ele>923.79998779297</ele>
        <time>2017-08-06T11:25:53.000Z</time>
      </trkpt>
      <trkpt lat="46.41644" lon="5.74798">
        <ele>923.79998779297</ele>
        <time>2017-08-06T11:25:55.000Z</time>
      </trkpt>
      <trkpt lat="46.41647" lon="5.74799">
        <ele>923.79998779297</ele>
        <time>2017-08-06T11:25:57.000Z</time>
      </trkpt>
      <trkpt lat="46.41652" lon="5.748">
        <ele>923.79998779297</ele>
        <time>2017-08-06T11:26:00.000Z</time>
      </trkpt>
      <trkpt lat="46.41655" lon="5.74802">
        <ele>923.59997558594</ele>
        <time>2017-08-06T11:26:02.000Z</time>
      </trkpt>
      <trkpt lat="46.41659" lon="5.74804">
        <ele>923.40002441406</ele>
        <time>2017-08-06T11:26:05.000Z</time>
      </trkpt>
      <trkpt lat="46.41662" lon="5.74808">
        <ele>923</ele>
        <time>2017-08-06T11:26:10.000Z</time>
      </trkpt>
      <trkpt lat="46.41663" lon="5.74808">
        <ele>923</ele>
        <time>2017-08-06T11:26:11.000Z</time>
      </trkpt>
      <trkpt lat="46.41665" lon="5.74808">
        <ele>922.79998779297</ele>
        <time>2017-08-06T11:26:13.000Z</time>
      </trkpt>
      <trkpt lat="46.41666" lon="5.74808">
        <ele>922.59997558594</ele>
        <time>2017-08-06T11:26:15.000Z</time>
      </trkpt>
      <trkpt lat="46.41668" lon="5.74808">
        <ele>922.40002441406</ele>
        <time>2017-08-06T11:26:18.000Z</time>
      </trkpt>
      <trkpt lat="46.41669" lon="5.74809">
        <ele>922.20001220703</ele>
        <time>2017-08-06T11:26:21.000Z</time>
      </trkpt>
      <trkpt lat="46.41672" lon="5.74813">
        <ele>922</ele>
        <time>2017-08-06T11:26:24.000Z</time>
      </trkpt>
      <trkpt lat="46.41674" lon="5.74814">
        <ele>922</ele>
        <time>2017-08-06T11:26:25.000Z</time>
      </trkpt>
      <trkpt lat="46.41676" lon="5.74816">
        <ele>921.79998779297</ele>
        <time>2017-08-06T11:26:27.000Z</time>
      </trkpt>
      <trkpt lat="46.41678" lon="5.74819">
        <ele>921.59997558594</ele>
        <time>2017-08-06T11:26:30.000Z</time>
      </trkpt>
      <trkpt lat="46.41684" lon="5.74824">
        <ele>921.20001220703</ele>
        <time>2017-08-06T11:26:34.000Z</time>
      </trkpt>
      <trkpt lat="46.41693" lon="5.74831">
        <ele>921</ele>
        <time>2017-08-06T11:26:37.000Z</time>
      </trkpt>
      <trkpt lat="46.41694" lon="5.74832">
        <ele>921</ele>
        <time>2017-08-06T11:26:38.000Z</time>
      </trkpt>
      <trkpt lat="46.41694" lon="5.74833">
        <ele>921</ele>
        <time>2017-08-06T11:26:39.000Z</time>
      </trkpt>
      <trkpt lat="46.41696" lon="5.74835">
        <ele>920.79998779297</ele>
        <time>2017-08-06T11:26:42.000Z</time>
      </trkpt>
      <trkpt lat="46.41697" lon="5.74837">
        <ele>920.59997558594</ele>
        <time>2017-08-06T11:26:44.000Z</time>
      </trkpt>
      <trkpt lat="46.41697" lon="5.74838">
        <ele>920.59997558594</ele>
        <time>2017-08-06T11:26:47.000Z</time>
      </trkpt>
      <trkpt lat="46.41698" lon="5.74847">
        <ele>920.79998779297</ele>
        <time>2017-08-06T11:26:53.000Z</time>
      </trkpt>
      <trkpt lat="46.41703" lon="5.74863">
        <ele>920.79998779297</ele>
        <time>2017-08-06T11:27:00.000Z</time>
      </trkpt>
      <trkpt lat="46.41703" lon="5.74869">
        <ele>921</ele>
        <time>2017-08-06T11:27:03.000Z</time>
      </trkpt>
      <trkpt lat="46.41703" lon="5.74873">
        <ele>921</ele>
        <time>2017-08-06T11:27:05.000Z</time>
      </trkpt>
      <trkpt lat="46.41701" lon="5.74879">
        <ele>921.20001220703</ele>
        <time>2017-08-06T11:27:08.000Z</time>
      </trkpt>
      <trkpt lat="46.41693" lon="5.74895">
        <ele>921.79998779297</ele>
        <time>2017-08-06T11:27:19.000Z</time>
      </trkpt>
      <trkpt lat="46.41693" lon="5.74897">
        <ele>922</ele>
        <time>2017-08-06T11:27:21.000Z</time>
      </trkpt>
      <trkpt lat="46.41691" lon="5.74902">
        <ele>922.20001220703</ele>
        <time>2017-08-06T11:27:24.000Z</time>
      </trkpt>
      <trkpt lat="46.4169" lon="5.74906">
        <ele>922.20001220703</ele>
        <time>2017-08-06T11:27:27.000Z</time>
      </trkpt>
      <trkpt lat="46.41688" lon="5.74914">
        <ele>922.40002441406</ele>
        <time>2017-08-06T11:27:34.000Z</time>
      </trkpt>
      <trkpt lat="46.41686" lon="5.74917">
        <ele>922.20001220703</ele>
        <time>2017-08-06T11:27:37.000Z</time>
      </trkpt>
      <trkpt lat="46.41684" lon="5.74922">
        <ele>922.20001220703</ele>
        <time>2017-08-06T11:27:41.000Z</time>
      </trkpt>
      <trkpt lat="46.41682" lon="5.74925">
        <ele>922.20001220703</ele>
        <time>2017-08-06T11:27:44.000Z</time>
      </trkpt>
      <trkpt lat="46.4168" lon="5.7493">
        <ele>922</ele>
        <time>2017-08-06T11:27:47.000Z</time>
      </trkpt>
      <trkpt lat="46.4168" lon="5.74932">
        <ele>922</ele>
        <time>2017-08-06T11:27:49.000Z</time>
      </trkpt>
      <trkpt lat="46.41678" lon="5.7494">
        <ele>922.20001220703</ele>
        <time>2017-08-06T11:27:53.000Z</time>
      </trkpt>
      <trkpt lat="46.41669" lon="5.74955">
        <ele>922.59997558594</ele>
        <time>2017-08-06T11:28:04.000Z</time>
      </trkpt>
      <trkpt lat="46.41666" lon="5.74965">
        <ele>922.79998779297</ele>
        <time>2017-08-06T11:28:10.000Z</time>
      </trkpt>
      <trkpt lat="46.4166" lon="5.74988">
        <ele>922.20001220703</ele>
        <time>2017-08-06T11:28:24.000Z</time>
      </trkpt>
      <trkpt lat="46.41659" lon="5.74994">
        <ele>922.40002441406</ele>
        <time>2017-08-06T11:28:28.000Z</time>
      </trkpt>
      <trkpt lat="46.41659" lon="5.74998">
        <ele>922.40002441406</ele>
        <time>2017-08-06T11:28:30.000Z</time>
      </trkpt>
      <trkpt lat="46.41656" lon="5.75008">
        <ele>922.79998779297</ele>
        <time>2017-08-06T11:28:38.000Z</time>
      </trkpt>
      <trkpt lat="46.41653" lon="5.75017">
        <ele>923</ele>
        <time>2017-08-06T11:28:44.000Z</time>
      </trkpt>
      <trkpt lat="46.41653" lon="5.75018">
        <ele>923</ele>
        <time>2017-08-06T11:28:45.000Z</time>
      </trkpt>
      <trkpt lat="46.41646" lon="5.75035">
        <ele>923</ele>
        <time>2017-08-06T11:28:56.000Z</time>
      </trkpt>
      <trkpt lat="46.41643" lon="5.75041">
        <ele>922.79998779297</ele>
        <time>2017-08-06T11:29:00.000Z</time>
      </trkpt>
      <trkpt lat="46.41642" lon="5.75045">
        <ele>922.79998779297</ele>
        <time>2017-08-06T11:29:02.000Z</time>
      </trkpt>
      <trkpt lat="46.41641" lon="5.75062">
        <ele>922.59997558594</ele>
        <time>2017-08-06T11:29:14.000Z</time>
      </trkpt>
      <trkpt lat="46.4164" lon="5.75065">
        <ele>922.59997558594</ele>
        <time>2017-08-06T11:29:17.000Z</time>
      </trkpt>
      <trkpt lat="46.41639" lon="5.75069">
        <ele>922.40002441406</ele>
        <time>2017-08-06T11:29:19.000Z</time>
      </trkpt>
      <trkpt lat="46.41639" lon="5.75072">
        <ele>922.59997558594</ele>
        <time>2017-08-06T11:29:22.000Z</time>
      </trkpt>
      <trkpt lat="46.41637" lon="5.75077">
        <ele>922.59997558594</ele>
        <time>2017-08-06T11:29:25.000Z</time>
      </trkpt>
      <trkpt lat="46.41635" lon="5.75079">
        <ele>922.59997558594</ele>
        <time>2017-08-06T11:29:27.000Z</time>
      </trkpt>
      <trkpt lat="46.41633" lon="5.75083">
        <ele>922.59997558594</ele>
        <time>2017-08-06T11:29:30.000Z</time>
      </trkpt>
      <trkpt lat="46.41633" lon="5.75087">
        <ele>922.59997558594</ele>
        <time>2017-08-06T11:29:32.000Z</time>
      </trkpt>
      <trkpt lat="46.41635" lon="5.75096">
        <ele>922.79998779297</ele>
        <time>2017-08-06T11:29:36.000Z</time>
      </trkpt>
      <trkpt lat="46.41634" lon="5.75102">
        <ele>923.20001220703</ele>
        <time>2017-08-06T11:29:40.000Z</time>
      </trkpt>
      <trkpt lat="46.41633" lon="5.75107">
        <ele>923.20001220703</ele>
        <time>2017-08-06T11:29:43.000Z</time>
      </trkpt>
      <trkpt lat="46.41631" lon="5.75109">
        <ele>923</ele>
        <time>2017-08-06T11:29:45.000Z</time>
      </trkpt>
      <trkpt lat="46.41625" lon="5.7513">
        <ele>922.40002441406</ele>
        <time>2017-08-06T11:29:58.000Z</time>
      </trkpt>
      <trkpt lat="46.41621" lon="5.75135">
        <ele>922.40002441406</ele>
        <time>2017-08-06T11:30:02.000Z</time>
      </trkpt>
      <trkpt lat="46.41621" lon="5.75139">
        <ele>922.20001220703</ele>
        <time>2017-08-06T11:30:05.000Z</time>
      </trkpt>
      <trkpt lat="46.4162" lon="5.75144">
        <ele>922</ele>
        <time>2017-08-06T11:30:09.000Z</time>
      </trkpt>
      <trkpt lat="46.41617" lon="5.75148">
        <ele>921.79998779297</ele>
        <time>2017-08-06T11:30:12.000Z</time>
      </trkpt>
      <trkpt lat="46.41616" lon="5.7515">
        <ele>922</ele>
        <time>2017-08-06T11:30:14.000Z</time>
      </trkpt>
      <trkpt lat="46.41615" lon="5.75173">
        <ele>921.79998779297</ele>
        <time>2017-08-06T11:30:29.000Z</time>
      </trkpt>
      <trkpt lat="46.41616" lon="5.75185">
        <ele>921.40002441406</ele>
        <time>2017-08-06T11:30:36.000Z</time>
      </trkpt>
      <trkpt lat="46.41614" lon="5.7519">
        <ele>921.20001220703</ele>
        <time>2017-08-06T11:30:39.000Z</time>
      </trkpt>
      <trkpt lat="46.41613" lon="5.75193">
        <ele>921.20001220703</ele>
        <time>2017-08-06T11:30:41.000Z</time>
      </trkpt>
      <trkpt lat="46.41608" lon="5.7521">
        <ele>921</ele>
        <time>2017-08-06T11:30:50.000Z</time>
      </trkpt>
      <trkpt lat="46.41608" lon="5.75215">
        <ele>921</ele>
        <time>2017-08-06T11:30:54.000Z</time>
      </trkpt>
      <trkpt lat="46.41608" lon="5.75217">
        <ele>921</ele>
        <time>2017-08-06T11:30:55.000Z</time>
      </trkpt>
      <trkpt lat="46.41608" lon="5.75219">
        <ele>921</ele>
        <time>2017-08-06T11:30:56.000Z</time>
      </trkpt>
      <trkpt lat="46.41608" lon="5.75222">
        <ele>920.79998779297</ele>
        <time>2017-08-06T11:30:58.000Z</time>
      </trkpt>
      <trkpt lat="46.41604" lon="5.75231">
        <ele>920.79998779297</ele>
        <time>2017-08-06T11:31:04.000Z</time>
      </trkpt>
      <trkpt lat="46.41603" lon="5.75235">
        <ele>920.79998779297</ele>
        <time>2017-08-06T11:31:07.000Z</time>
      </trkpt>
      <trkpt lat="46.41593" lon="5.75259">
        <ele>920.40002441406</ele>
        <time>2017-08-06T11:31:21.000Z</time>
      </trkpt>
      <trkpt lat="46.41588" lon="5.75285">
        <ele>920</ele>
        <time>2017-08-06T11:31:38.000Z</time>
      </trkpt>
      <trkpt lat="46.4158" lon="5.75301">
        <ele>920</ele>
        <time>2017-08-06T11:31:49.000Z</time>
      </trkpt>
      <trkpt lat="46.4158" lon="5.75301">
        <ele>920</ele>
        <time>2017-08-06T11:31:51.000Z</time>
      </trkpt>
      <trkpt lat="46.41573" lon="5.75304">
        <ele>920</ele>
        <time>2017-08-06T11:32:07.000Z</time>
      </trkpt>
      <trkpt lat="46.41559" lon="5.7532">
        <ele>919.40002441406</ele>
        <time>2017-08-06T11:32:20.000Z</time>
      </trkpt>
      <trkpt lat="46.41544" lon="5.75329">
        <ele>918.79998779297</ele>
        <time>2017-08-06T11:32:35.000Z</time>
      </trkpt>
      <trkpt lat="46.41525" lon="5.75336">
        <ele>917.79998779297</ele>
        <time>2017-08-06T11:32:51.000Z</time>
      </trkpt>
      <trkpt lat="46.41524" lon="5.75336">
        <ele>917.59997558594</ele>
        <time>2017-08-06T11:32:52.000Z</time>
      </trkpt>
      <trkpt lat="46.4152" lon="5.75336">
        <ele>916.79998779297</ele>
        <time>2017-08-06T11:32:56.000Z</time>
      </trkpt>
      <trkpt lat="46.41519" lon="5.75337">
        <ele>916.59997558594</ele>
        <time>2017-08-06T11:32:58.000Z</time>
      </trkpt>
      <trkpt lat="46.41517" lon="5.75339">
        <ele>916.40002441406</ele>
        <time>2017-08-06T11:33:00.000Z</time>
      </trkpt>
      <trkpt lat="46.41516" lon="5.75341">
        <ele>916.40002441406</ele>
        <time>2017-08-06T11:33:02.000Z</time>
      </trkpt>
      <trkpt lat="46.41516" lon="5.75346">
        <ele>916.20001220703</ele>
        <time>2017-08-06T11:33:05.000Z</time>
      </trkpt>
      <trkpt lat="46.4152" lon="5.75349">
        <ele>916.20001220703</ele>
        <time>2017-08-06T11:33:13.000Z</time>
      </trkpt>
      <trkpt lat="46.4152" lon="5.75349">
        <ele>916.40002441406</ele>
        <time>2017-08-06T11:33:15.000Z</time>
      </trkpt>
      <trkpt lat="46.41513" lon="5.75339">
        <ele>916.40002441406</ele>
        <time>2017-08-06T11:33:44.000Z</time>
      </trkpt>
      <trkpt lat="46.41508" lon="5.75336">
        <ele>916.40002441406</ele>
        <time>2017-08-06T11:33:47.000Z</time>
      </trkpt>
      <trkpt lat="46.41499" lon="5.75333">
        <ele>916.20001220703</ele>
        <time>2017-08-06T11:33:56.000Z</time>
      </trkpt>
      <trkpt lat="46.41499" lon="5.75333">
        <ele>916.20001220703</ele>
        <time>2017-08-06T11:33:58.000Z</time>
      </trkpt>
      <trkpt lat="46.415" lon="5.75334">
        <ele>916</ele>
        <time>2017-08-06T11:34:01.000Z</time>
      </trkpt>
      <trkpt lat="46.41503" lon="5.75335">
        <ele>916</ele>
        <time>2017-08-06T11:34:09.000Z</time>
      </trkpt>
      <trkpt lat="46.41501" lon="5.7535">
        <ele>916.20001220703</ele>
        <time>2017-08-06T11:34:43.000Z</time>
      </trkpt>
      <trkpt lat="46.41501" lon="5.75351">
        <ele>916.20001220703</ele>
        <time>2017-08-06T11:34:44.000Z</time>
      </trkpt>
      <trkpt lat="46.41498" lon="5.75355">
        <ele>916</ele>
        <time>2017-08-06T11:34:47.000Z</time>
      </trkpt>
      <trkpt lat="46.41496" lon="5.75357">
        <ele>915.79998779297</ele>
        <time>2017-08-06T11:34:49.000Z</time>
      </trkpt>
      <trkpt lat="46.41492" lon="5.75363">
        <ele>915.59997558594</ele>
        <time>2017-08-06T11:34:54.000Z</time>
      </trkpt>
      <trkpt lat="46.41492" lon="5.75364">
        <ele>915.59997558594</ele>
        <time>2017-08-06T11:34:55.000Z</time>
      </trkpt>
      <trkpt lat="46.41486" lon="5.75368">
        <ele>914.59997558594</ele>
        <time>2017-08-06T11:35:03.000Z</time>
      </trkpt>
      <trkpt lat="46.41484" lon="5.7537">
        <ele>914.40002441406</ele>
        <time>2017-08-06T11:35:06.000Z</time>
      </trkpt>
      <trkpt lat="46.41481" lon="5.75373">
        <ele>914.40002441406</ele>
        <time>2017-08-06T11:35:09.000Z</time>
      </trkpt>
      <trkpt lat="46.41479" lon="5.75373">
        <ele>914.59997558594</ele>
        <time>2017-08-06T11:35:11.000Z</time>
      </trkpt>
      <trkpt lat="46.41478" lon="5.75379">
        <ele>914.59997558594</ele>
        <time>2017-08-06T11:35:15.000Z</time>
      </trkpt>
      <trkpt lat="46.41477" lon="5.7538">
        <ele>914.59997558594</ele>
        <time>2017-08-06T11:35:17.000Z</time>
      </trkpt>
      <trkpt lat="46.41476" lon="5.75381">
        <ele>914.59997558594</ele>
        <time>2017-08-06T11:35:19.000Z</time>
      </trkpt>
      <trkpt lat="46.41473" lon="5.75382">
        <ele>914.40002441406</ele>
        <time>2017-08-06T11:35:23.000Z</time>
      </trkpt>
      <trkpt lat="46.4147" lon="5.75383">
        <ele>914.20001220703</ele>
        <time>2017-08-06T11:35:25.000Z</time>
      </trkpt>
      <trkpt lat="46.41464" lon="5.75385">
        <ele>914.20001220703</ele>
        <time>2017-08-06T11:35:29.000Z</time>
      </trkpt>
      <trkpt lat="46.41462" lon="5.75385">
        <ele>914</ele>
        <time>2017-08-06T11:35:31.000Z</time>
      </trkpt>
      <trkpt lat="46.41459" lon="5.75384">
        <ele>914</ele>
        <time>2017-08-06T11:35:35.000Z</time>
      </trkpt>
      <trkpt lat="46.41456" lon="5.75383">
        <ele>913.79998779297</ele>
        <time>2017-08-06T11:35:37.000Z</time>
      </trkpt>
      <trkpt lat="46.41451" lon="5.75383">
        <ele>913.79998779297</ele>
        <time>2017-08-06T11:35:41.000Z</time>
      </trkpt>
      <trkpt lat="46.41448" lon="5.75383">
        <ele>913.79998779297</ele>
        <time>2017-08-06T11:35:45.000Z</time>
      </trkpt>
      <trkpt lat="46.41447" lon="5.75385">
        <ele>913.79998779297</ele>
        <time>2017-08-06T11:35:48.000Z</time>
      </trkpt>
      <trkpt lat="46.41444" lon="5.75385">
        <ele>913.79998779297</ele>
        <time>2017-08-06T11:35:52.000Z</time>
      </trkpt>
      <trkpt lat="46.41444" lon="5.75386">
        <ele>913.79998779297</ele>
        <time>2017-08-06T11:35:55.000Z</time>
      </trkpt>
      <trkpt lat="46.41447" lon="5.75384">
        <ele>913.79998779297</ele>
        <time>2017-08-06T11:35:59.000Z</time>
      </trkpt>
      <trkpt lat="46.41446" lon="5.75383">
        <ele>913.59997558594</ele>
        <time>2017-08-06T11:36:02.000Z</time>
      </trkpt>
      <trkpt lat="46.41445" lon="5.75382">
        <ele>913.59997558594</ele>
        <time>2017-08-06T11:36:04.000Z</time>
      </trkpt>
      <trkpt lat="46.41451" lon="5.75382">
        <ele>914</ele>
        <time>2017-08-06T11:36:08.000Z</time>
      </trkpt>
      <trkpt lat="46.41451" lon="5.7538">
        <ele>914.20001220703</ele>
        <time>2017-08-06T11:36:10.000Z</time>
      </trkpt>
      <trkpt lat="46.4145" lon="5.75377">
        <ele>914</ele>
        <time>2017-08-06T11:36:12.000Z</time>
      </trkpt>
      <trkpt lat="46.41448" lon="5.75367">
        <ele>914</ele>
        <time>2017-08-06T11:36:18.000Z</time>
      </trkpt>
      <trkpt lat="46.41447" lon="5.75364">
        <ele>914</ele>
        <time>2017-08-06T11:36:20.000Z</time>
      </trkpt>
      <trkpt lat="46.41446" lon="5.75362">
        <ele>914</ele>
        <time>2017-08-06T11:36:23.000Z</time>
      </trkpt>
      <trkpt lat="46.41452" lon="5.75362">
        <ele>914</ele>
        <time>2017-08-06T11:36:35.000Z</time>
      </trkpt>
      <trkpt lat="46.4145" lon="5.75369">
        <ele>913.59997558594</ele>
        <time>2017-08-06T11:36:44.000Z</time>
      </trkpt>
      <trkpt lat="46.41446" lon="5.75369">
        <ele>913.59997558594</ele>
        <time>2017-08-06T11:36:48.000Z</time>
      </trkpt>
      <trkpt lat="46.41446" lon="5.75369">
        <ele>913.79998779297</ele>
        <time>2017-08-06T11:36:50.000Z</time>
      </trkpt>
      <trkpt lat="46.41446" lon="5.75368">
        <ele>913.40002441406</ele>
        <time>2017-08-06T11:36:55.000Z</time>
      </trkpt>
      <trkpt lat="46.41446" lon="5.7537">
        <ele>914</ele>
        <time>2017-08-06T11:37:19.000Z</time>
      </trkpt>
      <trkpt lat="46.41444" lon="5.75368">
        <ele>913.59997558594</ele>
        <time>2017-08-06T11:37:21.000Z</time>
      </trkpt>
      <trkpt lat="46.41438" lon="5.75373">
        <ele>914.40002441406</ele>
        <time>2017-08-06T11:37:39.000Z</time>
      </trkpt>
      <trkpt lat="46.41445" lon="5.75372">
        <ele>914.59997558594</ele>
        <time>2017-08-06T11:37:48.000Z</time>
      </trkpt>
      <trkpt lat="46.41448" lon="5.7537">
        <ele>913.40002441406</ele>
        <time>2017-08-06T11:37:52.000Z</time>
      </trkpt>
      <trkpt lat="46.41449" lon="5.75371">
        <ele>913</ele>
        <time>2017-08-06T11:38:41.000Z</time>
      </trkpt>
      <trkpt lat="46.41435" lon="5.75371">
        <ele>914.40002441406</ele>
        <time>2017-08-06T11:39:09.000Z</time>
      </trkpt>
      <trkpt lat="46.41428" lon="5.75374">
        <ele>914.40002441406</ele>
        <time>2017-08-06T11:39:13.000Z</time>
      </trkpt>
      <trkpt lat="46.41425" lon="5.75375">
        <ele>914.40002441406</ele>
        <time>2017-08-06T11:39:15.000Z</time>
      </trkpt>
      <trkpt lat="46.41424" lon="5.75375">
        <ele>914.40002441406</ele>
        <time>2017-08-06T11:39:16.000Z</time>
      </trkpt>
      <trkpt lat="46.41422" lon="5.75378">
        <ele>914.40002441406</ele>
        <time>2017-08-06T11:39:19.000Z</time>
      </trkpt>
      <trkpt lat="46.41414" lon="5.7538">
        <ele>914.79998779297</ele>
        <time>2017-08-06T11:39:29.000Z</time>
      </trkpt>
      <trkpt lat="46.41408" lon="5.75379">
        <ele>914.59997558594</ele>
        <time>2017-08-06T11:39:33.000Z</time>
      </trkpt>
      <trkpt lat="46.41406" lon="5.75378">
        <ele>914.59997558594</ele>
        <time>2017-08-06T11:39:36.000Z</time>
      </trkpt>
      <trkpt lat="46.41402" lon="5.75383">
        <ele>914.40002441406</ele>
        <time>2017-08-06T11:39:41.000Z</time>
      </trkpt>
      <trkpt lat="46.414" lon="5.75386">
        <ele>914</ele>
        <time>2017-08-06T11:39:46.000Z</time>
      </trkpt>
      <trkpt lat="46.41399" lon="5.75387">
        <ele>913.79998779297</ele>
        <time>2017-08-06T11:39:50.000Z</time>
      </trkpt>
      <trkpt lat="46.41397" lon="5.75385">
        <ele>913.79998779297</ele>
        <time>2017-08-06T11:39:52.000Z</time>
      </trkpt>
      <trkpt lat="46.4139" lon="5.75382">
        <ele>913.40002441406</ele>
        <time>2017-08-06T11:39:56.000Z</time>
      </trkpt>
      <trkpt lat="46.41389" lon="5.75381">
        <ele>913.20001220703</ele>
        <time>2017-08-06T11:39:58.000Z</time>
      </trkpt>
      <trkpt lat="46.41387" lon="5.7538">
        <ele>913.20001220703</ele>
        <time>2017-08-06T11:40:00.000Z</time>
      </trkpt>
      <trkpt lat="46.41378" lon="5.75372">
        <ele>912.79998779297</ele>
        <time>2017-08-06T11:40:05.000Z</time>
      </trkpt>
      <trkpt lat="46.41376" lon="5.75368">
        <ele>912.59997558594</ele>
        <time>2017-08-06T11:40:09.000Z</time>
      </trkpt>
      <trkpt lat="46.41376" lon="5.75365">
        <ele>912.40002441406</ele>
        <time>2017-08-06T11:40:11.000Z</time>
      </trkpt>
      <trkpt lat="46.41372" lon="5.75364">
        <ele>912.59997558594</ele>
        <time>2017-08-06T11:40:16.000Z</time>
      </trkpt>
      <trkpt lat="46.41369" lon="5.75363">
        <ele>912.79998779297</ele>
        <time>2017-08-06T11:40:18.000Z</time>
      </trkpt>
      <trkpt lat="46.41363" lon="5.75357">
        <ele>913</ele>
        <time>2017-08-06T11:40:23.000Z</time>
      </trkpt>
      <trkpt lat="46.41359" lon="5.75354">
        <ele>913.20001220703</ele>
        <time>2017-08-06T11:40:26.000Z</time>
      </trkpt>
      <trkpt lat="46.41358" lon="5.75353">
        <ele>913.40002441406</ele>
        <time>2017-08-06T11:40:27.000Z</time>
      </trkpt>
      <trkpt lat="46.41353" lon="5.75348">
        <ele>913</ele>
        <time>2017-08-06T11:40:33.000Z</time>
      </trkpt>
      <trkpt lat="46.41352" lon="5.75346">
        <ele>912.40002441406</ele>
        <time>2017-08-06T11:40:36.000Z</time>
      </trkpt>
      <trkpt lat="46.41347" lon="5.75325">
        <ele>911.40002441406</ele>
        <time>2017-08-06T11:40:52.000Z</time>
      </trkpt>
      <trkpt lat="46.41343" lon="5.75322">
        <ele>911.40002441406</ele>
        <time>2017-08-06T11:40:55.000Z</time>
      </trkpt>
      <trkpt lat="46.41342" lon="5.7532">
        <ele>911.40002441406</ele>
        <time>2017-08-06T11:40:57.000Z</time>
      </trkpt>
      <trkpt lat="46.41342" lon="5.75318">
        <ele>911.20001220703</ele>
        <time>2017-08-06T11:40:59.000Z</time>
      </trkpt>
      <trkpt lat="46.41339" lon="5.75313">
        <ele>911</ele>
        <time>2017-08-06T11:41:04.000Z</time>
      </trkpt>
      <trkpt lat="46.41332" lon="5.75305">
        <ele>910.20001220703</ele>
        <time>2017-08-06T11:41:16.000Z</time>
      </trkpt>
      <trkpt lat="46.41328" lon="5.75299">
        <ele>910</ele>
        <time>2017-08-06T11:41:23.000Z</time>
      </trkpt>
      <trkpt lat="46.41317" lon="5.75292">
        <ele>910.59997558594</ele>
        <time>2017-08-06T11:41:31.000Z</time>
      </trkpt>
      <trkpt lat="46.41316" lon="5.75289">
        <ele>910.59997558594</ele>
        <time>2017-08-06T11:41:33.000Z</time>
      </trkpt>
      <trkpt lat="46.41312" lon="5.75278">
        <ele>910.40002441406</ele>
        <time>2017-08-06T11:41:39.000Z</time>
      </trkpt>
      <trkpt lat="46.41303" lon="5.75268">
        <ele>910.59997558594</ele>
        <time>2017-08-06T11:41:49.000Z</time>
      </trkpt>
      <trkpt lat="46.41301" lon="5.75263">
        <ele>910.40002441406</ele>
        <time>2017-08-06T11:41:53.000Z</time>
      </trkpt>
      <trkpt lat="46.41299" lon="5.7526">
        <ele>910.40002441406</ele>
        <time>2017-08-06T11:41:56.000Z</time>
      </trkpt>
      <trkpt lat="46.41297" lon="5.75259">
        <ele>910.40002441406</ele>
        <time>2017-08-06T11:41:58.000Z</time>
      </trkpt>
      <trkpt lat="46.41293" lon="5.75257">
        <ele>910.40002441406</ele>
        <time>2017-08-06T11:42:02.000Z</time>
      </trkpt>
      <trkpt lat="46.41292" lon="5.75256">
        <ele>910.40002441406</ele>
        <time>2017-08-06T11:42:04.000Z</time>
      </trkpt>
      <trkpt lat="46.41288" lon="5.75253">
        <ele>910.40002441406</ele>
        <time>2017-08-06T11:42:09.000Z</time>
      </trkpt>
      <trkpt lat="46.41284" lon="5.7525">
        <ele>910.40002441406</ele>
        <time>2017-08-06T11:42:12.000Z</time>
      </trkpt>
      <trkpt lat="46.41282" lon="5.75243">
        <ele>910.40002441406</ele>
        <time>2017-08-06T11:42:16.000Z</time>
      </trkpt>
      <trkpt lat="46.41281" lon="5.75236">
        <ele>910.59997558594</ele>
        <time>2017-08-06T11:42:20.000Z</time>
      </trkpt>
      <trkpt lat="46.41277" lon="5.75218">
        <ele>910.59997558594</ele>
        <time>2017-08-06T11:42:30.000Z</time>
      </trkpt>
      <trkpt lat="46.41271" lon="5.75208">
        <ele>910.59997558594</ele>
        <time>2017-08-06T11:42:40.000Z</time>
      </trkpt>
      <trkpt lat="46.41269" lon="5.75204">
        <ele>910.59997558594</ele>
        <time>2017-08-06T11:42:42.000Z</time>
      </trkpt>
      <trkpt lat="46.41266" lon="5.75202">
        <ele>910.79998779297</ele>
        <time>2017-08-06T11:42:44.000Z</time>
      </trkpt>
      <trkpt lat="46.4126" lon="5.75197">
        <ele>911.20001220703</ele>
        <time>2017-08-06T11:42:51.000Z</time>
      </trkpt>
      <trkpt lat="46.41257" lon="5.75193">
        <ele>911.20001220703</ele>
        <time>2017-08-06T11:42:59.000Z</time>
      </trkpt>
      <trkpt lat="46.41254" lon="5.75187">
        <ele>911.40002441406</ele>
        <time>2017-08-06T11:43:03.000Z</time>
      </trkpt>
      <trkpt lat="46.41246" lon="5.75177">
        <ele>911.79998779297</ele>
        <time>2017-08-06T11:43:10.000Z</time>
      </trkpt>
      <trkpt lat="46.41245" lon="5.75173">
        <ele>912.20001220703</ele>
        <time>2017-08-06T11:43:13.000Z</time>
      </trkpt>
      <trkpt lat="46.41245" lon="5.7517">
        <ele>912.59997558594</ele>
        <time>2017-08-06T11:43:15.000Z</time>
      </trkpt>
      <trkpt lat="46.41245" lon="5.75168">
        <ele>912.59997558594</ele>
        <time>2017-08-06T11:43:17.000Z</time>
      </trkpt>
      <trkpt lat="46.41235" lon="5.75163">
        <ele>912</ele>
        <time>2017-08-06T11:43:26.000Z</time>
      </trkpt>
      <trkpt lat="46.41231" lon="5.75158">
        <ele>911.20001220703</ele>
        <time>2017-08-06T11:43:30.000Z</time>
      </trkpt>
      <trkpt lat="46.41229" lon="5.75154">
        <ele>910.79998779297</ele>
        <time>2017-08-06T11:43:34.000Z</time>
      </trkpt>
      <trkpt lat="46.41226" lon="5.75155">
        <ele>910.79998779297</ele>
        <time>2017-08-06T11:43:38.000Z</time>
      </trkpt>
      <trkpt lat="46.41229" lon="5.75138">
        <ele>910.79998779297</ele>
        <time>2017-08-06T11:43:42.000Z</time>
      </trkpt>
      <trkpt lat="46.41226" lon="5.75138">
        <ele>910.79998779297</ele>
        <time>2017-08-06T11:43:44.000Z</time>
      </trkpt>
      <trkpt lat="46.4122" lon="5.75123">
        <ele>911.79998779297</ele>
        <time>2017-08-06T11:44:03.000Z</time>
      </trkpt>
      <trkpt lat="46.41213" lon="5.75117">
        <ele>911.79998779297</ele>
        <time>2017-08-06T11:44:10.000Z</time>
      </trkpt>
      <trkpt lat="46.41209" lon="5.75113">
        <ele>912</ele>
        <time>2017-08-06T11:44:13.000Z</time>
      </trkpt>
      <trkpt lat="46.41208" lon="5.7511">
        <ele>912</ele>
        <time>2017-08-06T11:44:15.000Z</time>
      </trkpt>
      <trkpt lat="46.41208" lon="5.75085">
        <ele>911.79998779297</ele>
        <time>2017-08-06T11:44:29.000Z</time>
      </trkpt>
      <trkpt lat="46.41207" lon="5.75079">
        <ele>911.79998779297</ele>
        <time>2017-08-06T11:44:32.000Z</time>
      </trkpt>
      <trkpt lat="46.41208" lon="5.75073">
        <ele>911.59997558594</ele>
        <time>2017-08-06T11:44:36.000Z</time>
      </trkpt>
      <trkpt lat="46.41208" lon="5.75064">
        <ele>911</ele>
        <time>2017-08-06T11:44:44.000Z</time>
      </trkpt>
      <trkpt lat="46.41198" lon="5.75044">
        <ele>911</ele>
        <time>2017-08-06T11:44:47.000Z</time>
      </trkpt>
      <trkpt lat="46.41198" lon="5.75037">
        <ele>910.79998779297</ele>
        <time>2017-08-06T11:44:50.000Z</time>
      </trkpt>
      <trkpt lat="46.41201" lon="5.75033">
        <ele>910.59997558594</ele>
        <time>2017-08-06T11:44:53.000Z</time>
      </trkpt>
      <trkpt lat="46.41203" lon="5.75025">
        <ele>910.59997558594</ele>
        <time>2017-08-06T11:45:00.000Z</time>
      </trkpt>
      <trkpt lat="46.41205" lon="5.75022">
        <ele>910.59997558594</ele>
        <time>2017-08-06T11:45:02.000Z</time>
      </trkpt>
      <trkpt lat="46.41204" lon="5.75018">
        <ele>910.59997558594</ele>
        <time>2017-08-06T11:45:05.000Z</time>
      </trkpt>
      <trkpt lat="46.41203" lon="5.75013">
        <ele>910.59997558594</ele>
        <time>2017-08-06T11:45:09.000Z</time>
      </trkpt>
      <trkpt lat="46.41207" lon="5.75016">
        <ele>910.59997558594</ele>
        <time>2017-08-06T11:45:20.000Z</time>
      </trkpt>
      <trkpt lat="46.41208" lon="5.75017">
        <ele>910.59997558594</ele>
        <time>2017-08-06T11:45:22.000Z</time>
      </trkpt>
      <trkpt lat="46.41213" lon="5.75006">
        <ele>910.59997558594</ele>
        <time>2017-08-06T11:45:32.000Z</time>
      </trkpt>
      <trkpt lat="46.4122" lon="5.74991">
        <ele>910.79998779297</ele>
        <time>2017-08-06T11:45:42.000Z</time>
      </trkpt>
      <trkpt lat="46.41225" lon="5.74986">
        <ele>910.79998779297</ele>
        <time>2017-08-06T11:45:46.000Z</time>
      </trkpt>
      <trkpt lat="46.41227" lon="5.74981">
        <ele>910.79998779297</ele>
        <time>2017-08-06T11:45:50.000Z</time>
      </trkpt>
      <trkpt lat="46.4123" lon="5.74966">
        <ele>911</ele>
        <time>2017-08-06T11:46:00.000Z</time>
      </trkpt>
      <trkpt lat="46.41233" lon="5.74963">
        <ele>910.79998779297</ele>
        <time>2017-08-06T11:46:04.000Z</time>
      </trkpt>
      <trkpt lat="46.41235" lon="5.74963">
        <ele>910.59997558594</ele>
        <time>2017-08-06T11:46:10.000Z</time>
      </trkpt>
      <trkpt lat="46.41251" lon="5.74947">
        <ele>911.59997558594</ele>
        <time>2017-08-06T11:46:33.000Z</time>
      </trkpt>
      <trkpt lat="46.41259" lon="5.7494">
        <ele>911.79998779297</ele>
        <time>2017-08-06T11:46:41.000Z</time>
      </trkpt>
      <trkpt lat="46.41265" lon="5.74932">
        <ele>911.40002441406</ele>
        <time>2017-08-06T11:46:59.000Z</time>
      </trkpt>
      <trkpt lat="46.41267" lon="5.74932">
        <ele>911.20001220703</ele>
        <time>2017-08-06T11:47:02.000Z</time>
      </trkpt>
      <trkpt lat="46.41274" lon="5.74928">
        <ele>910.59997558594</ele>
        <time>2017-08-06T11:47:13.000Z</time>
      </trkpt>
      <trkpt lat="46.41274" lon="5.74926">
        <ele>910.79998779297</ele>
        <time>2017-08-06T11:47:15.000Z</time>
      </trkpt>
      <trkpt lat="46.41276" lon="5.74924">
        <ele>910.59997558594</ele>
        <time>2017-08-06T11:47:19.000Z</time>
      </trkpt>
      <trkpt lat="46.41279" lon="5.74922">
        <ele>910.20001220703</ele>
        <time>2017-08-06T11:47:23.000Z</time>
      </trkpt>
      <trkpt lat="46.41279" lon="5.74922">
        <ele>910</ele>
        <time>2017-08-06T11:47:24.000Z</time>
      </trkpt>
      <trkpt lat="46.41282" lon="5.74923">
        <ele>909</ele>
        <time>2017-08-06T11:47:29.000Z</time>
      </trkpt>
      <trkpt lat="46.41284" lon="5.7492">
        <ele>908.40002441406</ele>
        <time>2017-08-06T11:47:34.000Z</time>
      </trkpt>
      <trkpt lat="46.41288" lon="5.7491">
        <ele>909</ele>
        <time>2017-08-06T11:47:46.000Z</time>
      </trkpt>
      <trkpt lat="46.41293" lon="5.74914">
        <ele>908</ele>
        <time>2017-08-06T11:48:00.000Z</time>
      </trkpt>
      <trkpt lat="46.41294" lon="5.74916">
        <ele>906.79998779297</ele>
        <time>2017-08-06T11:48:05.000Z</time>
      </trkpt>
      <trkpt lat="46.41289" lon="5.74917">
        <ele>907.79998779297</ele>
        <time>2017-08-06T11:48:53.000Z</time>
      </trkpt>
      <trkpt lat="46.41292" lon="5.74907">
        <ele>908.79998779297</ele>
        <time>2017-08-06T11:49:06.000Z</time>
      </trkpt>
      <trkpt lat="46.41297" lon="5.74892">
        <ele>910</ele>
        <time>2017-08-06T11:49:36.000Z</time>
      </trkpt>
      <trkpt lat="46.413" lon="5.7489">
        <ele>910.20001220703</ele>
        <time>2017-08-06T11:49:39.000Z</time>
      </trkpt>
      <trkpt lat="46.41304" lon="5.74887">
        <ele>911.20001220703</ele>
        <time>2017-08-06T11:49:45.000Z</time>
      </trkpt>
      <trkpt lat="46.41306" lon="5.74882">
        <ele>911.79998779297</ele>
        <time>2017-08-06T11:49:52.000Z</time>
      </trkpt>
      <trkpt lat="46.41306" lon="5.7488">
        <ele>911.79998779297</ele>
        <time>2017-08-06T11:49:56.000Z</time>
      </trkpt>
      <trkpt lat="46.41307" lon="5.74879">
        <ele>912</ele>
        <time>2017-08-06T11:49:58.000Z</time>
      </trkpt>
      <trkpt lat="46.4131" lon="5.74876">
        <ele>912.20001220703</ele>
        <time>2017-08-06T11:50:06.000Z</time>
      </trkpt>
      <trkpt lat="46.41314" lon="5.74872">
        <ele>913.20001220703</ele>
        <time>2017-08-06T11:50:24.000Z</time>
      </trkpt>
      <trkpt lat="46.41319" lon="5.74861">
        <ele>912.79998779297</ele>
        <time>2017-08-06T11:50:41.000Z</time>
      </trkpt>
      <trkpt lat="46.41321" lon="5.74857">
        <ele>912.79998779297</ele>
        <time>2017-08-06T11:50:45.000Z</time>
      </trkpt>
      <trkpt lat="46.41337" lon="5.7484">
        <ele>912.79998779297</ele>
        <time>2017-08-06T11:51:17.000Z</time>
      </trkpt>
      <trkpt lat="46.41343" lon="5.74837">
        <ele>912.79998779297</ele>
        <time>2017-08-06T11:51:24.000Z</time>
      </trkpt>
      <trkpt lat="46.4134" lon="5.7484">
        <ele>912.20001220703</ele>
        <time>2017-08-06T11:51:29.000Z</time>
      </trkpt>
      <trkpt lat="46.41338" lon="5.74848">
        <ele>911.20001220703</ele>
        <time>2017-08-06T11:52:23.000Z</time>
      </trkpt>
      <trkpt lat="46.41338" lon="5.74848">
        <ele>911</ele>
        <time>2017-08-06T11:52:24.000Z</time>
      </trkpt>
      <trkpt lat="46.41338" lon="5.74853">
        <ele>910</ele>
        <time>2017-08-06T11:52:42.000Z</time>
      </trkpt>
      <trkpt lat="46.41345" lon="5.7485">
        <ele>909</ele>
        <time>2017-08-06T11:52:51.000Z</time>
      </trkpt>
      <trkpt lat="46.41345" lon="5.74843">
        <ele>908</ele>
        <time>2017-08-06T11:53:07.000Z</time>
      </trkpt>
      <trkpt lat="46.41345" lon="5.74842">
        <ele>907.79998779297</ele>
        <time>2017-08-06T11:53:12.000Z</time>
      </trkpt>
      <trkpt lat="46.41333" lon="5.74865">
        <ele>908</ele>
        <time>2017-08-06T11:55:28.000Z</time>
      </trkpt>
      <trkpt lat="46.41332" lon="5.74864">
        <ele>909.40002441406</ele>
        <time>2017-08-06T11:55:30.000Z</time>
      </trkpt>
      <trkpt lat="46.41334" lon="5.74855">
        <ele>910.40002441406</ele>
        <time>2017-08-06T11:55:33.000Z</time>
      </trkpt>
      <trkpt lat="46.41334" lon="5.74854">
        <ele>910.40002441406</ele>
        <time>2017-08-06T11:55:34.000Z</time>
      </trkpt>
      <trkpt lat="46.41334" lon="5.74852">
        <ele>910.59997558594</ele>
        <time>2017-08-06T11:55:36.000Z</time>
      </trkpt>
      <trkpt lat="46.41335" lon="5.74849">
        <ele>911.59997558594</ele>
        <time>2017-08-06T11:55:41.000Z</time>
      </trkpt>
      <trkpt lat="46.41339" lon="5.74842">
        <ele>912.59997558594</ele>
        <time>2017-08-06T11:55:59.000Z</time>
      </trkpt>
      <trkpt lat="46.41342" lon="5.74835">
        <ele>913.59997558594</ele>
        <time>2017-08-06T11:56:07.000Z</time>
      </trkpt>
      <trkpt lat="46.41343" lon="5.74824">
        <ele>914.59997558594</ele>
        <time>2017-08-06T11:56:18.000Z</time>
      </trkpt>
      <trkpt lat="46.41343" lon="5.7482">
        <ele>915.79998779297</ele>
        <time>2017-08-06T11:56:25.000Z</time>
      </trkpt>
      <trkpt lat="46.41349" lon="5.74802">
        <ele>916.79998779297</ele>
        <time>2017-08-06T11:56:51.000Z</time>
      </trkpt>
      <trkpt lat="46.41366" lon="5.74799">
        <ele>915.59997558594</ele>
        <time>2017-08-06T11:57:09.000Z</time>
      </trkpt>
      <trkpt lat="46.41368" lon="5.74798">
        <ele>914.59997558594</ele>
        <time>2017-08-06T11:57:14.000Z</time>
      </trkpt>
      <trkpt lat="46.41373" lon="5.74798">
        <ele>913.59997558594</ele>
        <time>2017-08-06T11:57:20.000Z</time>
      </trkpt>
      <trkpt lat="46.41377" lon="5.74799">
        <ele>912.59997558594</ele>
        <time>2017-08-06T11:57:30.000Z</time>
      </trkpt>
      <trkpt lat="46.41395" lon="5.74791">
        <ele>911.79998779297</ele>
        <time>2017-08-06T11:57:53.000Z</time>
      </trkpt>
      <trkpt lat="46.41397" lon="5.74787">
        <ele>911.59997558594</ele>
        <time>2017-08-06T11:57:58.000Z</time>
      </trkpt>
      <trkpt lat="46.414" lon="5.74785">
        <ele>911.40002441406</ele>
        <time>2017-08-06T11:58:10.000Z</time>
      </trkpt>
      <trkpt lat="46.41406" lon="5.74779">
        <ele>910.40002441406</ele>
        <time>2017-08-06T11:58:20.000Z</time>
      </trkpt>
      <trkpt lat="46.4141" lon="5.74775">
        <ele>910.59997558594</ele>
        <time>2017-08-06T11:58:25.000Z</time>
      </trkpt>
      <trkpt lat="46.41411" lon="5.74774">
        <ele>910.79998779297</ele>
        <time>2017-08-06T11:58:27.000Z</time>
      </trkpt>
      <trkpt lat="46.41412" lon="5.74773">
        <ele>910.79998779297</ele>
        <time>2017-08-06T11:58:29.000Z</time>
      </trkpt>
      <trkpt lat="46.41423" lon="5.74763">
        <ele>911</ele>
        <time>2017-08-06T11:58:40.000Z</time>
      </trkpt>
      <trkpt lat="46.41428" lon="5.74753">
        <ele>911.40002441406</ele>
        <time>2017-08-06T11:58:51.000Z</time>
      </trkpt>
      <trkpt lat="46.41428" lon="5.74749">
        <ele>911.40002441406</ele>
        <time>2017-08-06T11:58:56.000Z</time>
      </trkpt>
      <trkpt lat="46.41436" lon="5.74744">
        <ele>911.40002441406</ele>
        <time>2017-08-06T11:59:07.000Z</time>
      </trkpt>
      <trkpt lat="46.41439" lon="5.7474">
        <ele>911.59997558594</ele>
        <time>2017-08-06T11:59:11.000Z</time>
      </trkpt>
      <trkpt lat="46.41449" lon="5.74737">
        <ele>910.40002441406</ele>
        <time>2017-08-06T11:59:29.000Z</time>
      </trkpt>
      <trkpt lat="46.41457" lon="5.74741">
        <ele>909.40002441406</ele>
        <time>2017-08-06T11:59:40.000Z</time>
      </trkpt>
      <trkpt lat="46.41461" lon="5.7474">
        <ele>909</ele>
        <time>2017-08-06T11:59:43.000Z</time>
      </trkpt>
      <trkpt lat="46.41469" lon="5.74742">
        <ele>908.40002441406</ele>
        <time>2017-08-06T11:59:51.000Z</time>
      </trkpt>
      <trkpt lat="46.41467" lon="5.74745">
        <ele>908.20001220703</ele>
        <time>2017-08-06T12:00:05.000Z</time>
      </trkpt>
      <trkpt lat="46.41457" lon="5.74741">
        <ele>907.79998779297</ele>
        <time>2017-08-06T12:48:50.000Z</time>
      </trkpt>
      <trkpt lat="46.41468" lon="5.74737">
        <ele>907.79998779297</ele>
        <time>2017-08-06T12:49:05.000Z</time>
      </trkpt>
      <trkpt lat="46.41472" lon="5.74734">
        <ele>907.40002441406</ele>
        <time>2017-08-06T12:49:28.000Z</time>
      </trkpt>
      <trkpt lat="46.41471" lon="5.74732">
        <ele>907.20001220703</ele>
        <time>2017-08-06T12:49:29.000Z</time>
      </trkpt>
      <trkpt lat="46.41466" lon="5.74718">
        <ele>907</ele>
        <time>2017-08-06T12:49:34.000Z</time>
      </trkpt>
      <trkpt lat="46.41465" lon="5.74721">
        <ele>907.59997558594</ele>
        <time>2017-08-06T12:49:38.000Z</time>
      </trkpt>
      <trkpt lat="46.41471" lon="5.7473">
        <ele>907.20001220703</ele>
        <time>2017-08-06T12:49:42.000Z</time>
      </trkpt>
      <trkpt lat="46.41473" lon="5.74736">
        <ele>907.59997558594</ele>
        <time>2017-08-06T12:49:45.000Z</time>
      </trkpt>
      <trkpt lat="46.41471" lon="5.74741">
        <ele>907.20001220703</ele>
        <time>2017-08-06T12:49:49.000Z</time>
      </trkpt>
      <trkpt lat="46.41475" lon="5.74746">
        <ele>907.20001220703</ele>
        <time>2017-08-06T12:49:57.000Z</time>
      </trkpt>
      <trkpt lat="46.41476" lon="5.74747">
        <ele>907.40002441406</ele>
        <time>2017-08-06T12:49:59.000Z</time>
      </trkpt>
      <trkpt lat="46.41482" lon="5.74749">
        <ele>908.40002441406</ele>
        <time>2017-08-06T12:50:06.000Z</time>
      </trkpt>
      <trkpt lat="46.41483" lon="5.74749">
        <ele>908.59997558594</ele>
        <time>2017-08-06T12:50:08.000Z</time>
      </trkpt>
      <trkpt lat="46.41502" lon="5.74744">
        <ele>909.20001220703</ele>
        <time>2017-08-06T12:50:29.000Z</time>
      </trkpt>
      <trkpt lat="46.41502" lon="5.74743">
        <ele>909.40002441406</ele>
        <time>2017-08-06T12:50:30.000Z</time>
      </trkpt>
      <trkpt lat="46.41503" lon="5.74743">
        <ele>909.40002441406</ele>
        <time>2017-08-06T12:50:31.000Z</time>
      </trkpt>
      <trkpt lat="46.41503" lon="5.74743">
        <ele>909.59997558594</ele>
        <time>2017-08-06T12:50:32.000Z</time>
      </trkpt>
      <trkpt lat="46.41519" lon="5.74742">
        <ele>910.20001220703</ele>
        <time>2017-08-06T12:50:54.000Z</time>
      </trkpt>
      <trkpt lat="46.4152" lon="5.74741">
        <ele>910.59997558594</ele>
        <time>2017-08-06T12:50:57.000Z</time>
      </trkpt>
      <trkpt lat="46.41521" lon="5.74739">
        <ele>911.59997558594</ele>
        <time>2017-08-06T12:51:02.000Z</time>
      </trkpt>
      <trkpt lat="46.41524" lon="5.74739">
        <ele>912.79998779297</ele>
        <time>2017-08-06T12:51:07.000Z</time>
      </trkpt>
      <trkpt lat="46.41529" lon="5.74739">
        <ele>914</ele>
        <time>2017-08-06T12:51:12.000Z</time>
      </trkpt>
      <trkpt lat="46.41534" lon="5.74743">
        <ele>915.20001220703</ele>
        <time>2017-08-06T12:51:19.000Z</time>
      </trkpt>
      <trkpt lat="46.41535" lon="5.74746">
        <ele>915.20001220703</ele>
        <time>2017-08-06T12:51:21.000Z</time>
      </trkpt>
      <trkpt lat="46.41533" lon="5.74751">
        <ele>915.20001220703</ele>
        <time>2017-08-06T12:51:26.000Z</time>
      </trkpt>
      <trkpt lat="46.41534" lon="5.74754">
        <ele>915.79998779297</ele>
        <time>2017-08-06T12:52:58.000Z</time>
      </trkpt>
      <trkpt lat="46.41539" lon="5.74747">
        <ele>916.20001220703</ele>
        <time>2017-08-06T12:53:04.000Z</time>
      </trkpt>
      <trkpt lat="46.4154" lon="5.74746">
        <ele>916.40002441406</ele>
        <time>2017-08-06T12:53:05.000Z</time>
      </trkpt>
      <trkpt lat="46.41543" lon="5.74744">
        <ele>916.79998779297</ele>
        <time>2017-08-06T12:53:08.000Z</time>
      </trkpt>
      <trkpt lat="46.41547" lon="5.74744">
        <ele>917.20001220703</ele>
        <time>2017-08-06T12:53:13.000Z</time>
      </trkpt>
      <trkpt lat="46.41549" lon="5.74744">
        <ele>917.40002441406</ele>
        <time>2017-08-06T12:53:14.000Z</time>
      </trkpt>
      <trkpt lat="46.41551" lon="5.74745">
        <ele>917.59997558594</ele>
        <time>2017-08-06T12:53:16.000Z</time>
      </trkpt>
      <trkpt lat="46.41558" lon="5.74748">
        <ele>918.20001220703</ele>
        <time>2017-08-06T12:53:22.000Z</time>
      </trkpt>
      <trkpt lat="46.41562" lon="5.74751">
        <ele>919</ele>
        <time>2017-08-06T12:53:26.000Z</time>
      </trkpt>
      <trkpt lat="46.41562" lon="5.74753">
        <ele>919.40002441406</ele>
        <time>2017-08-06T12:53:28.000Z</time>
      </trkpt>
      <trkpt lat="46.41563" lon="5.74753">
        <ele>919.59997558594</ele>
        <time>2017-08-06T12:53:29.000Z</time>
      </trkpt>
      <trkpt lat="46.41565" lon="5.74756">
        <ele>920</ele>
        <time>2017-08-06T12:53:31.000Z</time>
      </trkpt>
      <trkpt lat="46.41566" lon="5.74758">
        <ele>920.59997558594</ele>
        <time>2017-08-06T12:53:33.000Z</time>
      </trkpt>
      <trkpt lat="46.41567" lon="5.74759">
        <ele>920.79998779297</ele>
        <time>2017-08-06T12:53:34.000Z</time>
      </trkpt>
      <trkpt lat="46.4157" lon="5.74763">
        <ele>921.79998779297</ele>
        <time>2017-08-06T12:53:39.000Z</time>
      </trkpt>
      <trkpt lat="46.41574" lon="5.74764">
        <ele>922.59997558594</ele>
        <time>2017-08-06T12:53:43.000Z</time>
      </trkpt>
      <trkpt lat="46.41576" lon="5.74764">
        <ele>922.79998779297</ele>
        <time>2017-08-06T12:53:44.000Z</time>
      </trkpt>
      <trkpt lat="46.41576" lon="5.74765">
        <ele>923</ele>
        <time>2017-08-06T12:53:45.000Z</time>
      </trkpt>
      <trkpt lat="46.41577" lon="5.74765">
        <ele>923.20001220703</ele>
        <time>2017-08-06T12:53:47.000Z</time>
      </trkpt>
      <trkpt lat="46.41581" lon="5.74764">
        <ele>923.79998779297</ele>
        <time>2017-08-06T12:53:51.000Z</time>
      </trkpt>
      <trkpt lat="46.41586" lon="5.74762">
        <ele>924</ele>
        <time>2017-08-06T12:53:55.000Z</time>
      </trkpt>
      <trkpt lat="46.4159" lon="5.74759">
        <ele>924.20001220703</ele>
        <time>2017-08-06T12:54:00.000Z</time>
      </trkpt>
      <trkpt lat="46.4159" lon="5.74756">
        <ele>924.59997558594</ele>
        <time>2017-08-06T12:54:02.000Z</time>
      </trkpt>
      <trkpt lat="46.41591" lon="5.74753">
        <ele>924.79998779297</ele>
        <time>2017-08-06T12:54:04.000Z</time>
      </trkpt>
      <trkpt lat="46.41591" lon="5.7475">
        <ele>925</ele>
        <time>2017-08-06T12:54:05.000Z</time>
      </trkpt>
      <trkpt lat="46.4159" lon="5.7475">
        <ele>925.79998779297</ele>
        <time>2017-08-06T12:54:10.000Z</time>
      </trkpt>
      <trkpt lat="46.41585" lon="5.74735">
        <ele>925.20001220703</ele>
        <time>2017-08-06T12:54:33.000Z</time>
      </trkpt>
      <trkpt lat="46.41581" lon="5.74724">
        <ele>925</ele>
        <time>2017-08-06T12:54:39.000Z</time>
      </trkpt>
      <trkpt lat="46.41578" lon="5.74718">
        <ele>924.59997558594</ele>
        <time>2017-08-06T12:54:43.000Z</time>
      </trkpt>
      <trkpt lat="46.41575" lon="5.74711">
        <ele>924.40002441406</ele>
        <time>2017-08-06T12:54:48.000Z</time>
      </trkpt>
      <trkpt lat="46.41569" lon="5.74688">
        <ele>924.59997558594</ele>
        <time>2017-08-06T12:55:02.000Z</time>
      </trkpt>
      <trkpt lat="46.41569" lon="5.74684">
        <ele>924.59997558594</ele>
        <time>2017-08-06T12:55:12.000Z</time>
      </trkpt>
      <trkpt lat="46.41569" lon="5.74672">
        <ele>924.79998779297</ele>
        <time>2017-08-06T12:55:54.000Z</time>
      </trkpt>
      <trkpt lat="46.41571" lon="5.74671">
        <ele>925</ele>
        <time>2017-08-06T12:55:56.000Z</time>
      </trkpt>
      <trkpt lat="46.41573" lon="5.74666">
        <ele>925</ele>
        <time>2017-08-06T12:56:02.000Z</time>
      </trkpt>
      <trkpt lat="46.41574" lon="5.74652">
        <ele>924.40002441406</ele>
        <time>2017-08-06T12:56:10.000Z</time>
      </trkpt>
      <trkpt lat="46.41574" lon="5.74649">
        <ele>924.20001220703</ele>
        <time>2017-08-06T12:56:13.000Z</time>
      </trkpt>
      <trkpt lat="46.41573" lon="5.74646">
        <ele>924</ele>
        <time>2017-08-06T12:56:15.000Z</time>
      </trkpt>
      <trkpt lat="46.41573" lon="5.74646">
        <ele>924</ele>
        <time>2017-08-06T12:56:16.000Z</time>
      </trkpt>
      <trkpt lat="46.41574" lon="5.74646">
        <ele>923.79998779297</ele>
        <time>2017-08-06T12:56:17.000Z</time>
      </trkpt>
      <trkpt lat="46.41574" lon="5.74648">
        <ele>923.79998779297</ele>
        <time>2017-08-06T12:56:22.000Z</time>
      </trkpt>
      <trkpt lat="46.41574" lon="5.74648">
        <ele>923.79998779297</ele>
        <time>2017-08-06T12:56:24.000Z</time>
      </trkpt>
      <trkpt lat="46.41576" lon="5.74646">
        <ele>923.59997558594</ele>
        <time>2017-08-06T12:56:29.000Z</time>
      </trkpt>
      <trkpt lat="46.41576" lon="5.74646">
        <ele>922.79998779297</ele>
        <time>2017-08-06T12:56:32.000Z</time>
      </trkpt>
      <trkpt lat="46.41574" lon="5.74648">
        <ele>923.79998779297</ele>
        <time>2017-08-06T12:56:37.000Z</time>
      </trkpt>
      <trkpt lat="46.41572" lon="5.7465">
        <ele>922.79998779297</ele>
        <time>2017-08-06T12:57:04.000Z</time>
      </trkpt>
      <trkpt lat="46.41572" lon="5.74647">
        <ele>924.20001220703</ele>
        <time>2017-08-06T12:57:07.000Z</time>
      </trkpt>
      <trkpt lat="46.41572" lon="5.74646">
        <ele>923.20001220703</ele>
        <time>2017-08-06T12:57:08.000Z</time>
      </trkpt>
      <trkpt lat="46.41572" lon="5.74645">
        <ele>922</ele>
        <time>2017-08-06T12:57:10.000Z</time>
      </trkpt>
      <trkpt lat="46.41574" lon="5.74643">
        <ele>921.20001220703</ele>
        <time>2017-08-06T12:57:12.000Z</time>
      </trkpt>
      <trkpt lat="46.41574" lon="5.74642">
        <ele>921.20001220703</ele>
        <time>2017-08-06T12:57:15.000Z</time>
      </trkpt>
      <trkpt lat="46.41575" lon="5.74642">
        <ele>921</ele>
        <time>2017-08-06T12:57:17.000Z</time>
      </trkpt>
      <trkpt lat="46.41573" lon="5.74641">
        <ele>920</ele>
        <time>2017-08-06T12:57:23.000Z</time>
      </trkpt>
      <trkpt lat="46.41571" lon="5.74625">
        <ele>918.79998779297</ele>
        <time>2017-08-06T12:57:33.000Z</time>
      </trkpt>
      <trkpt lat="46.4157" lon="5.74622">
        <ele>918</ele>
        <time>2017-08-06T12:57:35.000Z</time>
      </trkpt>
      <trkpt lat="46.4157" lon="5.74621">
        <ele>917.40002441406</ele>
        <time>2017-08-06T12:57:37.000Z</time>
      </trkpt>
      <trkpt lat="46.4157" lon="5.7462">
        <ele>917.20001220703</ele>
        <time>2017-08-06T12:57:38.000Z</time>
      </trkpt>
      <trkpt lat="46.4157" lon="5.74617">
        <ele>916.40002441406</ele>
        <time>2017-08-06T12:57:41.000Z</time>
      </trkpt>
      <trkpt lat="46.41571" lon="5.74615">
        <ele>914.79998779297</ele>
        <time>2017-08-06T12:58:00.000Z</time>
      </trkpt>
      <trkpt lat="46.41577" lon="5.74617">
        <ele>913.59997558594</ele>
        <time>2017-08-06T12:58:02.000Z</time>
      </trkpt>
      <trkpt lat="46.41588" lon="5.74617">
        <ele>912.59997558594</ele>
        <time>2017-08-06T12:58:09.000Z</time>
      </trkpt>
      <trkpt lat="46.41589" lon="5.74617">
        <ele>912.40002441406</ele>
        <time>2017-08-06T12:58:10.000Z</time>
      </trkpt>
      <trkpt lat="46.41591" lon="5.74617">
        <ele>911.79998779297</ele>
        <time>2017-08-06T12:58:13.000Z</time>
      </trkpt>
      <trkpt lat="46.41591" lon="5.74617">
        <ele>911.59997558594</ele>
        <time>2017-08-06T12:58:14.000Z</time>
      </trkpt>
      <trkpt lat="46.41593" lon="5.74617">
        <ele>910.59997558594</ele>
        <time>2017-08-06T12:58:17.000Z</time>
      </trkpt>
      <trkpt lat="46.41594" lon="5.74617">
        <ele>910.20001220703</ele>
        <time>2017-08-06T12:58:18.000Z</time>
      </trkpt>
      <trkpt lat="46.41597" lon="5.74613">
        <ele>909.79998779297</ele>
        <time>2017-08-06T12:58:21.000Z</time>
      </trkpt>
      <trkpt lat="46.41598" lon="5.7461">
        <ele>909.40002441406</ele>
        <time>2017-08-06T12:58:24.000Z</time>
      </trkpt>
      <trkpt lat="46.41599" lon="5.74605">
        <ele>909.20001220703</ele>
        <time>2017-08-06T12:58:26.000Z</time>
      </trkpt>
      <trkpt lat="46.41601" lon="5.74601">
        <ele>908.20001220703</ele>
        <time>2017-08-06T12:58:30.000Z</time>
      </trkpt>
      <trkpt lat="46.41601" lon="5.74598">
        <ele>907.59997558594</ele>
        <time>2017-08-06T12:58:33.000Z</time>
      </trkpt>
      <trkpt lat="46.41602" lon="5.74596">
        <ele>907</ele>
        <time>2017-08-06T12:58:35.000Z</time>
      </trkpt>
      <trkpt lat="46.41604" lon="5.74595">
        <ele>906.40002441406</ele>
        <time>2017-08-06T12:58:37.000Z</time>
      </trkpt>
      <trkpt lat="46.41605" lon="5.74595">
        <ele>906</ele>
        <time>2017-08-06T12:58:39.000Z</time>
      </trkpt>
      <trkpt lat="46.41608" lon="5.74593">
        <ele>905</ele>
        <time>2017-08-06T12:58:43.000Z</time>
      </trkpt>
      <trkpt lat="46.41613" lon="5.7459">
        <ele>904</ele>
        <time>2017-08-06T12:58:47.000Z</time>
      </trkpt>
      <trkpt lat="46.41614" lon="5.7459">
        <ele>903.59997558594</ele>
        <time>2017-08-06T12:58:48.000Z</time>
      </trkpt>
      <trkpt lat="46.41615" lon="5.74589">
        <ele>903.40002441406</ele>
        <time>2017-08-06T12:58:49.000Z</time>
      </trkpt>
      <trkpt lat="46.41616" lon="5.74583">
        <ele>902.40002441406</ele>
        <time>2017-08-06T12:58:52.000Z</time>
      </trkpt>
      <trkpt lat="46.41617" lon="5.74581">
        <ele>902</ele>
        <time>2017-08-06T12:58:53.000Z</time>
      </trkpt>
      <trkpt lat="46.4162" lon="5.74578">
        <ele>901.20001220703</ele>
        <time>2017-08-06T12:58:56.000Z</time>
      </trkpt>
      <trkpt lat="46.41621" lon="5.74576">
        <ele>900.59997558594</ele>
        <time>2017-08-06T12:58:58.000Z</time>
      </trkpt>
      <trkpt lat="46.41622" lon="5.7457">
        <ele>900</ele>
        <time>2017-08-06T12:59:01.000Z</time>
      </trkpt>
      <trkpt lat="46.41622" lon="5.74566">
        <ele>899.40002441406</ele>
        <time>2017-08-06T12:59:03.000Z</time>
      </trkpt>
      <trkpt lat="46.41622" lon="5.74564">
        <ele>898.79998779297</ele>
        <time>2017-08-06T12:59:05.000Z</time>
      </trkpt>
      <trkpt lat="46.41623" lon="5.74561">
        <ele>897.59997558594</ele>
        <time>2017-08-06T12:59:09.000Z</time>
      </trkpt>
      <trkpt lat="46.41624" lon="5.74559">
        <ele>897.59997558594</ele>
        <time>2017-08-06T12:59:10.000Z</time>
      </trkpt>
      <trkpt lat="46.41624" lon="5.74554">
        <ele>897.40002441406</ele>
        <time>2017-08-06T12:59:12.000Z</time>
      </trkpt>
      <trkpt lat="46.41624" lon="5.74551">
        <ele>897.20001220703</ele>
        <time>2017-08-06T12:59:14.000Z</time>
      </trkpt>
      <trkpt lat="46.41623" lon="5.74545">
        <ele>896.59997558594</ele>
        <time>2017-08-06T12:59:18.000Z</time>
      </trkpt>
      <trkpt lat="46.41623" lon="5.74543">
        <ele>896.40002441406</ele>
        <time>2017-08-06T12:59:19.000Z</time>
      </trkpt>
      <trkpt lat="46.41624" lon="5.7454">
        <ele>896</ele>
        <time>2017-08-06T12:59:21.000Z</time>
      </trkpt>
      <trkpt lat="46.41625" lon="5.74538">
        <ele>895.59997558594</ele>
        <time>2017-08-06T12:59:23.000Z</time>
      </trkpt>
      <trkpt lat="46.41627" lon="5.74534">
        <ele>894.59997558594</ele>
        <time>2017-08-06T12:59:27.000Z</time>
      </trkpt>
      <trkpt lat="46.41628" lon="5.74532">
        <ele>894.40002441406</ele>
        <time>2017-08-06T12:59:28.000Z</time>
      </trkpt>
      <trkpt lat="46.41628" lon="5.74531">
        <ele>894.20001220703</ele>
        <time>2017-08-06T12:59:29.000Z</time>
      </trkpt>
      <trkpt lat="46.4163" lon="5.74529">
        <ele>893.79998779297</ele>
        <time>2017-08-06T12:59:31.000Z</time>
      </trkpt>
      <trkpt lat="46.41631" lon="5.74527">
        <ele>893.40002441406</ele>
        <time>2017-08-06T12:59:33.000Z</time>
      </trkpt>
      <trkpt lat="46.41631" lon="5.74524">
        <ele>892.79998779297</ele>
        <time>2017-08-06T12:59:35.000Z</time>
      </trkpt>
      <trkpt lat="46.41632" lon="5.74521">
        <ele>892.20001220703</ele>
        <time>2017-08-06T12:59:37.000Z</time>
      </trkpt>
      <trkpt lat="46.41637" lon="5.74515">
        <ele>891</ele>
        <time>2017-08-06T12:59:43.000Z</time>
      </trkpt>
      <trkpt lat="46.41637" lon="5.7451">
        <ele>890</ele>
        <time>2017-08-06T12:59:48.000Z</time>
      </trkpt>
      <trkpt lat="46.4164" lon="5.74502">
        <ele>889.40002441406</ele>
        <time>2017-08-06T12:59:53.000Z</time>
      </trkpt>
      <trkpt lat="46.41645" lon="5.74495">
        <ele>889</ele>
        <time>2017-08-06T12:59:59.000Z</time>
      </trkpt>
      <trkpt lat="46.41646" lon="5.74494">
        <ele>889</ele>
        <time>2017-08-06T13:00:00.000Z</time>
      </trkpt>
      <trkpt lat="46.41653" lon="5.74488">
        <ele>888.40002441406</ele>
        <time>2017-08-06T13:00:07.000Z</time>
      </trkpt>
      <trkpt lat="46.41654" lon="5.74487">
        <ele>888</ele>
        <time>2017-08-06T13:00:09.000Z</time>
      </trkpt>
      <trkpt lat="46.41655" lon="5.74485">
        <ele>887.59997558594</ele>
        <time>2017-08-06T13:00:10.000Z</time>
      </trkpt>
      <trkpt lat="46.41659" lon="5.7448">
        <ele>887</ele>
        <time>2017-08-06T13:00:14.000Z</time>
      </trkpt>
      <trkpt lat="46.4166" lon="5.74479">
        <ele>886.79998779297</ele>
        <time>2017-08-06T13:00:15.000Z</time>
      </trkpt>
      <trkpt lat="46.41661" lon="5.74478">
        <ele>886.59997558594</ele>
        <time>2017-08-06T13:00:16.000Z</time>
      </trkpt>
      <trkpt lat="46.41664" lon="5.74474">
        <ele>885.79998779297</ele>
        <time>2017-08-06T13:00:20.000Z</time>
      </trkpt>
      <trkpt lat="46.41662" lon="5.74472">
        <ele>885.20001220703</ele>
        <time>2017-08-06T13:00:33.000Z</time>
      </trkpt>
      <trkpt lat="46.41663" lon="5.74472">
        <ele>885.20001220703</ele>
        <time>2017-08-06T13:00:38.000Z</time>
      </trkpt>
      <trkpt lat="46.41669" lon="5.74469">
        <ele>884.79998779297</ele>
        <time>2017-08-06T13:00:59.000Z</time>
      </trkpt>
      <trkpt lat="46.41671" lon="5.74468">
        <ele>884.20001220703</ele>
        <time>2017-08-06T13:01:02.000Z</time>
      </trkpt>
      <trkpt lat="46.41672" lon="5.74466">
        <ele>883.59997558594</ele>
        <time>2017-08-06T13:01:04.000Z</time>
      </trkpt>
      <trkpt lat="46.41674" lon="5.74464">
        <ele>883.40002441406</ele>
        <time>2017-08-06T13:01:06.000Z</time>
      </trkpt>
      <trkpt lat="46.41677" lon="5.74461">
        <ele>882.40002441406</ele>
        <time>2017-08-06T13:01:10.000Z</time>
      </trkpt>
      <trkpt lat="46.41679" lon="5.74459">
        <ele>882.20001220703</ele>
        <time>2017-08-06T13:01:12.000Z</time>
      </trkpt>
      <trkpt lat="46.41681" lon="5.74457">
        <ele>881.79998779297</ele>
        <time>2017-08-06T13:01:14.000Z</time>
      </trkpt>
      <trkpt lat="46.41682" lon="5.74455">
        <ele>881.40002441406</ele>
        <time>2017-08-06T13:01:16.000Z</time>
      </trkpt>
      <trkpt lat="46.41684" lon="5.74454">
        <ele>881</ele>
        <time>2017-08-06T13:01:18.000Z</time>
      </trkpt>
      <trkpt lat="46.41686" lon="5.74453">
        <ele>880.59997558594</ele>
        <time>2017-08-06T13:01:20.000Z</time>
      </trkpt>
      <trkpt lat="46.41687" lon="5.74452">
        <ele>880.20001220703</ele>
        <time>2017-08-06T13:01:21.000Z</time>
      </trkpt>
      <trkpt lat="46.4169" lon="5.74451">
        <ele>879.79998779297</ele>
        <time>2017-08-06T13:01:23.000Z</time>
      </trkpt>
      <trkpt lat="46.41692" lon="5.74446">
        <ele>879.20001220703</ele>
        <time>2017-08-06T13:01:26.000Z</time>
      </trkpt>
      <trkpt lat="46.41695" lon="5.74443">
        <ele>878.40002441406</ele>
        <time>2017-08-06T13:01:29.000Z</time>
      </trkpt>
      <trkpt lat="46.41696" lon="5.7444">
        <ele>878</ele>
        <time>2017-08-06T13:01:31.000Z</time>
      </trkpt>
      <trkpt lat="46.41699" lon="5.74437">
        <ele>877.40002441406</ele>
        <time>2017-08-06T13:01:35.000Z</time>
      </trkpt>
      <trkpt lat="46.417" lon="5.74433">
        <ele>877.20001220703</ele>
        <time>2017-08-06T13:01:37.000Z</time>
      </trkpt>
      <trkpt lat="46.417" lon="5.74432">
        <ele>876.79998779297</ele>
        <time>2017-08-06T13:01:38.000Z</time>
      </trkpt>
      <trkpt lat="46.41702" lon="5.74424">
        <ele>876.20001220703</ele>
        <time>2017-08-06T13:01:43.000Z</time>
      </trkpt>
      <trkpt lat="46.41703" lon="5.74422">
        <ele>876.20001220703</ele>
        <time>2017-08-06T13:01:45.000Z</time>
      </trkpt>
      <trkpt lat="46.41704" lon="5.74417">
        <ele>876</ele>
        <time>2017-08-06T13:01:48.000Z</time>
      </trkpt>
      <trkpt lat="46.41705" lon="5.74416">
        <ele>875.79998779297</ele>
        <time>2017-08-06T13:01:49.000Z</time>
      </trkpt>
      <trkpt lat="46.41706" lon="5.74414">
        <ele>875.40002441406</ele>
        <time>2017-08-06T13:01:51.000Z</time>
      </trkpt>
      <trkpt lat="46.41707" lon="5.74411">
        <ele>874.79998779297</ele>
        <time>2017-08-06T13:01:53.000Z</time>
      </trkpt>
      <trkpt lat="46.41708" lon="5.7441">
        <ele>874.79998779297</ele>
        <time>2017-08-06T13:01:54.000Z</time>
      </trkpt>
      <trkpt lat="46.4171" lon="5.74407">
        <ele>874.40002441406</ele>
        <time>2017-08-06T13:01:56.000Z</time>
      </trkpt>
      <trkpt lat="46.41713" lon="5.74405">
        <ele>874</ele>
        <time>2017-08-06T13:01:59.000Z</time>
      </trkpt>
      <trkpt lat="46.41714" lon="5.74404">
        <ele>873.59997558594</ele>
        <time>2017-08-06T13:02:01.000Z</time>
      </trkpt>
      <trkpt lat="46.41716" lon="5.74401">
        <ele>873.20001220703</ele>
        <time>2017-08-06T13:02:04.000Z</time>
      </trkpt>
      <trkpt lat="46.41715" lon="5.74388">
        <ele>872.40002441406</ele>
        <time>2017-08-06T13:02:09.000Z</time>
      </trkpt>
      <trkpt lat="46.41713" lon="5.74383">
        <ele>872</ele>
        <time>2017-08-06T13:02:12.000Z</time>
      </trkpt>
      <trkpt lat="46.41716" lon="5.74379">
        <ele>871.40002441406</ele>
        <time>2017-08-06T13:02:16.000Z</time>
      </trkpt>
      <trkpt lat="46.41721" lon="5.7438">
        <ele>871</ele>
        <time>2017-08-06T13:02:20.000Z</time>
      </trkpt>
      <trkpt lat="46.41725" lon="5.7438">
        <ele>870.59997558594</ele>
        <time>2017-08-06T13:02:24.000Z</time>
      </trkpt>
      <trkpt lat="46.41729" lon="5.74379">
        <ele>870.40002441406</ele>
        <time>2017-08-06T13:02:28.000Z</time>
      </trkpt>
      <trkpt lat="46.41738" lon="5.74387">
        <ele>869.40002441406</ele>
        <time>2017-08-06T13:03:15.000Z</time>
      </trkpt>
      <trkpt lat="46.41739" lon="5.74379">
        <ele>870</ele>
        <time>2017-08-06T13:05:09.000Z</time>
      </trkpt>
      <trkpt lat="46.41749" lon="5.74381">
        <ele>870</ele>
        <time>2017-08-06T13:05:31.000Z</time>
      </trkpt>
      <trkpt lat="46.41755" lon="5.74379">
        <ele>869</ele>
        <time>2017-08-06T13:05:37.000Z</time>
      </trkpt>
      <trkpt lat="46.41756" lon="5.74377">
        <ele>869</ele>
        <time>2017-08-06T13:05:39.000Z</time>
      </trkpt>
      <trkpt lat="46.4176" lon="5.74377">
        <ele>868.79998779297</ele>
        <time>2017-08-06T13:05:42.000Z</time>
      </trkpt>
      <trkpt lat="46.41765" lon="5.74375">
        <ele>868.59997558594</ele>
        <time>2017-08-06T13:05:46.000Z</time>
      </trkpt>
      <trkpt lat="46.41771" lon="5.74373">
        <ele>868.40002441406</ele>
        <time>2017-08-06T13:05:51.000Z</time>
      </trkpt>
      <trkpt lat="46.41771" lon="5.74372">
        <ele>868.20001220703</ele>
        <time>2017-08-06T13:05:52.000Z</time>
      </trkpt>
      <trkpt lat="46.41774" lon="5.74371">
        <ele>868.20001220703</ele>
        <time>2017-08-06T13:05:55.000Z</time>
      </trkpt>
      <trkpt lat="46.41778" lon="5.7437">
        <ele>867.79998779297</ele>
        <time>2017-08-06T13:06:00.000Z</time>
      </trkpt>
      <trkpt lat="46.41781" lon="5.74368">
        <ele>867.79998779297</ele>
        <time>2017-08-06T13:06:02.000Z</time>
      </trkpt>
      <trkpt lat="46.41782" lon="5.74366">
        <ele>867.59997558594</ele>
        <time>2017-08-06T13:06:05.000Z</time>
      </trkpt>
      <trkpt lat="46.41786" lon="5.74362">
        <ele>867.40002441406</ele>
        <time>2017-08-06T13:06:10.000Z</time>
      </trkpt>
      <trkpt lat="46.41786" lon="5.74362">
        <ele>867.40002441406</ele>
        <time>2017-08-06T13:06:11.000Z</time>
      </trkpt>
      <trkpt lat="46.41787" lon="5.74362">
        <ele>867.20001220703</ele>
        <time>2017-08-06T13:06:12.000Z</time>
      </trkpt>
      <trkpt lat="46.41788" lon="5.74361">
        <ele>867.20001220703</ele>
        <time>2017-08-06T13:06:14.000Z</time>
      </trkpt>
      <trkpt lat="46.41792" lon="5.74357">
        <ele>866.59997558594</ele>
        <time>2017-08-06T13:06:21.000Z</time>
      </trkpt>
      <trkpt lat="46.41793" lon="5.74355">
        <ele>866.40002441406</ele>
        <time>2017-08-06T13:06:23.000Z</time>
      </trkpt>
      <trkpt lat="46.41793" lon="5.74352">
        <ele>866.20001220703</ele>
        <time>2017-08-06T13:06:25.000Z</time>
      </trkpt>
      <trkpt lat="46.41792" lon="5.74352">
        <ele>865.59997558594</ele>
        <time>2017-08-06T13:06:28.000Z</time>
      </trkpt>
      <trkpt lat="46.41792" lon="5.74352">
        <ele>865</ele>
        <time>2017-08-06T13:06:31.000Z</time>
      </trkpt>
      <trkpt lat="46.41792" lon="5.74352">
        <ele>865</ele>
        <time>2017-08-06T13:06:32.000Z</time>
      </trkpt>
      <trkpt lat="46.4179" lon="5.74347">
        <ele>864.40002441406</ele>
        <time>2017-08-06T13:06:41.000Z</time>
      </trkpt>
      <trkpt lat="46.4179" lon="5.74344">
        <ele>864</ele>
        <time>2017-08-06T13:06:44.000Z</time>
      </trkpt>
      <trkpt lat="46.4179" lon="5.74343">
        <ele>863.59997558594</ele>
        <time>2017-08-06T13:06:45.000Z</time>
      </trkpt>
      <trkpt lat="46.41787" lon="5.74339">
        <ele>863</ele>
        <time>2017-08-06T13:06:56.000Z</time>
      </trkpt>
      <trkpt lat="46.41785" lon="5.74333">
        <ele>861.79998779297</ele>
        <time>2017-08-06T13:07:05.000Z</time>
      </trkpt>
      <trkpt lat="46.41786" lon="5.74329">
        <ele>860.79998779297</ele>
        <time>2017-08-06T13:07:09.000Z</time>
      </trkpt>
      <trkpt lat="46.41787" lon="5.74325">
        <ele>859.40002441406</ele>
        <time>2017-08-06T13:07:14.000Z</time>
      </trkpt>
      <trkpt lat="46.41787" lon="5.74318">
        <ele>858.40002441406</ele>
        <time>2017-08-06T13:07:18.000Z</time>
      </trkpt>
      <trkpt lat="46.41786" lon="5.74311">
        <ele>857.40002441406</ele>
        <time>2017-08-06T13:07:23.000Z</time>
      </trkpt>
      <trkpt lat="46.41786" lon="5.7431">
        <ele>857</ele>
        <time>2017-08-06T13:07:24.000Z</time>
      </trkpt>
      <trkpt lat="46.41785" lon="5.74307">
        <ele>856.40002441406</ele>
        <time>2017-08-06T13:07:26.000Z</time>
      </trkpt>
      <trkpt lat="46.41784" lon="5.74306">
        <ele>855.79998779297</ele>
        <time>2017-08-06T13:07:28.000Z</time>
      </trkpt>
      <trkpt lat="46.41783" lon="5.74302">
        <ele>855.20001220703</ele>
        <time>2017-08-06T13:07:31.000Z</time>
      </trkpt>
      <trkpt lat="46.4178" lon="5.74296">
        <ele>854.40002441406</ele>
        <time>2017-08-06T13:07:34.000Z</time>
      </trkpt>
      <trkpt lat="46.41778" lon="5.74294">
        <ele>854.20001220703</ele>
        <time>2017-08-06T13:07:36.000Z</time>
      </trkpt>
      <trkpt lat="46.41776" lon="5.74291">
        <ele>853.59997558594</ele>
        <time>2017-08-06T13:07:39.000Z</time>
      </trkpt>
      <trkpt lat="46.41772" lon="5.74285">
        <ele>853.20001220703</ele>
        <time>2017-08-06T13:07:42.000Z</time>
      </trkpt>
      <trkpt lat="46.41768" lon="5.74278">
        <ele>852.20001220703</ele>
        <time>2017-08-06T13:07:47.000Z</time>
      </trkpt>
      <trkpt lat="46.41766" lon="5.74277">
        <ele>851.79998779297</ele>
        <time>2017-08-06T13:07:48.000Z</time>
      </trkpt>
      <trkpt lat="46.41763" lon="5.74274">
        <ele>851</ele>
        <time>2017-08-06T13:07:51.000Z</time>
      </trkpt>
      <trkpt lat="46.41762" lon="5.74268">
        <ele>850.59997558594</ele>
        <time>2017-08-06T13:07:56.000Z</time>
      </trkpt>
      <trkpt lat="46.41761" lon="5.74266">
        <ele>850</ele>
        <time>2017-08-06T13:07:58.000Z</time>
      </trkpt>
      <trkpt lat="46.41761" lon="5.74263">
        <ele>849.59997558594</ele>
        <time>2017-08-06T13:08:00.000Z</time>
      </trkpt>
      <trkpt lat="46.4176" lon="5.74261">
        <ele>849</ele>
        <time>2017-08-06T13:08:02.000Z</time>
      </trkpt>
      <trkpt lat="46.41759" lon="5.74261">
        <ele>848.79998779297</ele>
        <time>2017-08-06T13:08:03.000Z</time>
      </trkpt>
      <trkpt lat="46.41758" lon="5.74256">
        <ele>847.79998779297</ele>
        <time>2017-08-06T13:08:08.000Z</time>
      </trkpt>
      <trkpt lat="46.41756" lon="5.74253">
        <ele>846.59997558594</ele>
        <time>2017-08-06T13:08:13.000Z</time>
      </trkpt>
      <trkpt lat="46.41755" lon="5.74247">
        <ele>846</ele>
        <time>2017-08-06T13:08:17.000Z</time>
      </trkpt>
      <trkpt lat="46.41754" lon="5.74244">
        <ele>845.59997558594</ele>
        <time>2017-08-06T13:08:19.000Z</time>
      </trkpt>
      <trkpt lat="46.41754" lon="5.74239">
        <ele>844.79998779297</ele>
        <time>2017-08-06T13:08:22.000Z</time>
      </trkpt>
      <trkpt lat="46.41754" lon="5.74235">
        <ele>844.40002441406</ele>
        <time>2017-08-06T13:08:24.000Z</time>
      </trkpt>
      <trkpt lat="46.41753" lon="5.74233">
        <ele>844.20001220703</ele>
        <time>2017-08-06T13:08:25.000Z</time>
      </trkpt>
      <trkpt lat="46.41755" lon="5.74228">
        <ele>843.40002441406</ele>
        <time>2017-08-06T13:08:28.000Z</time>
      </trkpt>
      <trkpt lat="46.41757" lon="5.74227">
        <ele>843</ele>
        <time>2017-08-06T13:08:30.000Z</time>
      </trkpt>
      <trkpt lat="46.41759" lon="5.74223">
        <ele>842.40002441406</ele>
        <time>2017-08-06T13:08:33.000Z</time>
      </trkpt>
      <trkpt lat="46.41759" lon="5.74222">
        <ele>842.20001220703</ele>
        <time>2017-08-06T13:08:34.000Z</time>
      </trkpt>
      <trkpt lat="46.41763" lon="5.74216">
        <ele>841.59997558594</ele>
        <time>2017-08-06T13:08:39.000Z</time>
      </trkpt>
      <trkpt lat="46.41768" lon="5.74214">
        <ele>841.40002441406</ele>
        <time>2017-08-06T13:08:42.000Z</time>
      </trkpt>
      <trkpt lat="46.41769" lon="5.74214">
        <ele>841.40002441406</ele>
        <time>2017-08-06T13:08:43.000Z</time>
      </trkpt>
      <trkpt lat="46.41772" lon="5.74212">
        <ele>840.79998779297</ele>
        <time>2017-08-06T13:08:46.000Z</time>
      </trkpt>
      <trkpt lat="46.41776" lon="5.74208">
        <ele>840.59997558594</ele>
        <time>2017-08-06T13:08:52.000Z</time>
      </trkpt>
      <trkpt lat="46.41777" lon="5.74207">
        <ele>840.20001220703</ele>
        <time>2017-08-06T13:08:54.000Z</time>
      </trkpt>
      <trkpt lat="46.41778" lon="5.74204">
        <ele>839</ele>
        <time>2017-08-06T13:08:59.000Z</time>
      </trkpt>
      <trkpt lat="46.41782" lon="5.742">
        <ele>838</ele>
        <time>2017-08-06T13:09:06.000Z</time>
      </trkpt>
      <trkpt lat="46.41789" lon="5.74199">
        <ele>836.79998779297</ele>
        <time>2017-08-06T13:09:13.000Z</time>
      </trkpt>
      <trkpt lat="46.4179" lon="5.74199">
        <ele>836.59997558594</ele>
        <time>2017-08-06T13:09:14.000Z</time>
      </trkpt>
      <trkpt lat="46.41792" lon="5.74197">
        <ele>836.40002441406</ele>
        <time>2017-08-06T13:09:16.000Z</time>
      </trkpt>
      <trkpt lat="46.41794" lon="5.74196">
        <ele>835.59997558594</ele>
        <time>2017-08-06T13:09:19.000Z</time>
      </trkpt>
      <trkpt lat="46.41796" lon="5.74196">
        <ele>835.40002441406</ele>
        <time>2017-08-06T13:09:21.000Z</time>
      </trkpt>
      <trkpt lat="46.418" lon="5.74196">
        <ele>834.59997558594</ele>
        <time>2017-08-06T13:09:25.000Z</time>
      </trkpt>
      <trkpt lat="46.41802" lon="5.74196">
        <ele>834.40002441406</ele>
        <time>2017-08-06T13:09:26.000Z</time>
      </trkpt>
      <trkpt lat="46.41804" lon="5.74195">
        <ele>833.59997558594</ele>
        <time>2017-08-06T13:09:29.000Z</time>
      </trkpt>
      <trkpt lat="46.41805" lon="5.74195">
        <ele>833.40002441406</ele>
        <time>2017-08-06T13:09:30.000Z</time>
      </trkpt>
      <trkpt lat="46.41811" lon="5.74193">
        <ele>832.20001220703</ele>
        <time>2017-08-06T13:09:34.000Z</time>
      </trkpt>
      <trkpt lat="46.41814" lon="5.74187">
        <ele>831.20001220703</ele>
        <time>2017-08-06T13:09:39.000Z</time>
      </trkpt>
      <trkpt lat="46.41812" lon="5.74183">
        <ele>830.79998779297</ele>
        <time>2017-08-06T13:09:45.000Z</time>
      </trkpt>
      <trkpt lat="46.41812" lon="5.74181">
        <ele>830.59997558594</ele>
        <time>2017-08-06T13:09:47.000Z</time>
      </trkpt>
      <trkpt lat="46.41812" lon="5.74174">
        <ele>830</ele>
        <time>2017-08-06T13:09:53.000Z</time>
      </trkpt>
      <trkpt lat="46.41812" lon="5.74172">
        <ele>829</ele>
        <time>2017-08-06T13:09:58.000Z</time>
      </trkpt>
      <trkpt lat="46.41807" lon="5.74151">
        <ele>827.79998779297</ele>
        <time>2017-08-06T13:10:21.000Z</time>
      </trkpt>
      <trkpt lat="46.41806" lon="5.74149">
        <ele>827.40002441406</ele>
        <time>2017-08-06T13:10:23.000Z</time>
      </trkpt>
      <trkpt lat="46.41805" lon="5.74144">
        <ele>827</ele>
        <time>2017-08-06T13:10:27.000Z</time>
      </trkpt>
      <trkpt lat="46.41803" lon="5.7414">
        <ele>826.79998779297</ele>
        <time>2017-08-06T13:10:31.000Z</time>
      </trkpt>
      <trkpt lat="46.41802" lon="5.7414">
        <ele>826</ele>
        <time>2017-08-06T13:10:34.000Z</time>
      </trkpt>
      <trkpt lat="46.41802" lon="5.74139">
        <ele>825.59997558594</ele>
        <time>2017-08-06T13:10:36.000Z</time>
      </trkpt>
      <trkpt lat="46.418" lon="5.74139">
        <ele>826.20001220703</ele>
        <time>2017-08-06T13:11:13.000Z</time>
      </trkpt>
      <trkpt lat="46.41799" lon="5.74137">
        <ele>825.59997558594</ele>
        <time>2017-08-06T13:11:15.000Z</time>
      </trkpt>
      <trkpt lat="46.41798" lon="5.74132">
        <ele>825.40002441406</ele>
        <time>2017-08-06T13:11:19.000Z</time>
      </trkpt>
      <trkpt lat="46.41795" lon="5.74127">
        <ele>824.79998779297</ele>
        <time>2017-08-06T13:11:24.000Z</time>
      </trkpt>
      <trkpt lat="46.41795" lon="5.74125">
        <ele>824.59997558594</ele>
        <time>2017-08-06T13:11:25.000Z</time>
      </trkpt>
      <trkpt lat="46.41795" lon="5.74124">
        <ele>824.40002441406</ele>
        <time>2017-08-06T13:11:26.000Z</time>
      </trkpt>
      <trkpt lat="46.41794" lon="5.74118">
        <ele>823.59997558594</ele>
        <time>2017-08-06T13:11:29.000Z</time>
      </trkpt>
      <trkpt lat="46.41794" lon="5.74117">
        <ele>823.40002441406</ele>
        <time>2017-08-06T13:11:30.000Z</time>
      </trkpt>
      <trkpt lat="46.41793" lon="5.74115">
        <ele>823.20001220703</ele>
        <time>2017-08-06T13:11:32.000Z</time>
      </trkpt>
      <trkpt lat="46.41792" lon="5.74112">
        <ele>822.59997558594</ele>
        <time>2017-08-06T13:11:34.000Z</time>
      </trkpt>
      <trkpt lat="46.41791" lon="5.74109">
        <ele>822.40002441406</ele>
        <time>2017-08-06T13:11:36.000Z</time>
      </trkpt>
      <trkpt lat="46.4179" lon="5.74106">
        <ele>822</ele>
        <time>2017-08-06T13:11:38.000Z</time>
      </trkpt>
      <trkpt lat="46.41789" lon="5.741">
        <ele>821.40002441406</ele>
        <time>2017-08-06T13:11:42.000Z</time>
      </trkpt>
      <trkpt lat="46.41788" lon="5.74099">
        <ele>821.20001220703</ele>
        <time>2017-08-06T13:11:43.000Z</time>
      </trkpt>
      <trkpt lat="46.41786" lon="5.74095">
        <ele>820.59997558594</ele>
        <time>2017-08-06T13:11:46.000Z</time>
      </trkpt>
      <trkpt lat="46.41785" lon="5.74091">
        <ele>820.20001220703</ele>
        <time>2017-08-06T13:11:48.000Z</time>
      </trkpt>
      <trkpt lat="46.41785" lon="5.74089">
        <ele>820</ele>
        <time>2017-08-06T13:11:49.000Z</time>
      </trkpt>
      <trkpt lat="46.41784" lon="5.74084">
        <ele>819</ele>
        <time>2017-08-06T13:11:53.000Z</time>
      </trkpt>
      <trkpt lat="46.41785" lon="5.74077">
        <ele>818.20001220703</ele>
        <time>2017-08-06T13:11:57.000Z</time>
      </trkpt>
      <trkpt lat="46.41785" lon="5.74076">
        <ele>818</ele>
        <time>2017-08-06T13:11:58.000Z</time>
      </trkpt>
      <trkpt lat="46.41786" lon="5.74069">
        <ele>817</ele>
        <time>2017-08-06T13:12:02.000Z</time>
      </trkpt>
      <trkpt lat="46.41787" lon="5.74068">
        <ele>816.59997558594</ele>
        <time>2017-08-06T13:12:03.000Z</time>
      </trkpt>
      <trkpt lat="46.41789" lon="5.74054">
        <ele>815.59997558594</ele>
        <time>2017-08-06T13:12:10.000Z</time>
      </trkpt>
      <trkpt lat="46.41797" lon="5.74036">
        <ele>814.59997558594</ele>
        <time>2017-08-06T13:12:25.000Z</time>
      </trkpt>
      <trkpt lat="46.41804" lon="5.74024">
        <ele>813.59997558594</ele>
        <time>2017-08-06T13:12:34.000Z</time>
      </trkpt>
      <trkpt lat="46.41805" lon="5.74019">
        <ele>813.40002441406</ele>
        <time>2017-08-06T13:12:36.000Z</time>
      </trkpt>
      <trkpt lat="46.41807" lon="5.74007">
        <ele>812.79998779297</ele>
        <time>2017-08-06T13:12:42.000Z</time>
      </trkpt>
      <trkpt lat="46.41808" lon="5.74002">
        <ele>812.59997558594</ele>
        <time>2017-08-06T13:12:44.000Z</time>
      </trkpt>
      <trkpt lat="46.41808" lon="5.74001">
        <ele>812.59997558594</ele>
        <time>2017-08-06T13:12:45.000Z</time>
      </trkpt>
      <trkpt lat="46.41809" lon="5.73999">
        <ele>812.40002441406</ele>
        <time>2017-08-06T13:12:46.000Z</time>
      </trkpt>
      <trkpt lat="46.41811" lon="5.73993">
        <ele>811.79998779297</ele>
        <time>2017-08-06T13:12:49.000Z</time>
      </trkpt>
      <trkpt lat="46.41811" lon="5.7399">
        <ele>811.40002441406</ele>
        <time>2017-08-06T13:12:51.000Z</time>
      </trkpt>
      <trkpt lat="46.41811" lon="5.73987">
        <ele>811</ele>
        <time>2017-08-06T13:12:54.000Z</time>
      </trkpt>
      <trkpt lat="46.41811" lon="5.73987">
        <ele>810.40002441406</ele>
        <time>2017-08-06T13:12:57.000Z</time>
      </trkpt>
      <trkpt lat="46.41809" lon="5.73983">
        <ele>809.79998779297</ele>
        <time>2017-08-06T13:13:38.000Z</time>
      </trkpt>
      <trkpt lat="46.41813" lon="5.73974">
        <ele>810</ele>
        <time>2017-08-06T13:13:50.000Z</time>
      </trkpt>
      <trkpt lat="46.41817" lon="5.73971">
        <ele>809.79998779297</ele>
        <time>2017-08-06T13:13:54.000Z</time>
      </trkpt>
      <trkpt lat="46.41819" lon="5.73968">
        <ele>809.59997558594</ele>
        <time>2017-08-06T13:13:57.000Z</time>
      </trkpt>
      <trkpt lat="46.41821" lon="5.73964">
        <ele>809.59997558594</ele>
        <time>2017-08-06T13:13:59.000Z</time>
      </trkpt>
      <trkpt lat="46.41825" lon="5.73959">
        <ele>809.40002441406</ele>
        <time>2017-08-06T13:14:04.000Z</time>
      </trkpt>
      <trkpt lat="46.41826" lon="5.73958">
        <ele>809.20001220703</ele>
        <time>2017-08-06T13:14:05.000Z</time>
      </trkpt>
      <trkpt lat="46.41829" lon="5.73955">
        <ele>808.79998779297</ele>
        <time>2017-08-06T13:14:08.000Z</time>
      </trkpt>
      <trkpt lat="46.41831" lon="5.73948">
        <ele>808.79998779297</ele>
        <time>2017-08-06T13:14:12.000Z</time>
      </trkpt>
      <trkpt lat="46.4183" lon="5.73937">
        <ele>808.20001220703</ele>
        <time>2017-08-06T13:14:20.000Z</time>
      </trkpt>
      <trkpt lat="46.41826" lon="5.73925">
        <ele>807.20001220703</ele>
        <time>2017-08-06T13:14:31.000Z</time>
      </trkpt>
      <trkpt lat="46.41826" lon="5.73922">
        <ele>807.20001220703</ele>
        <time>2017-08-06T13:14:33.000Z</time>
      </trkpt>
      <trkpt lat="46.41825" lon="5.73912">
        <ele>806.79998779297</ele>
        <time>2017-08-06T13:14:37.000Z</time>
      </trkpt>
      <trkpt lat="46.41823" lon="5.73904">
        <ele>806.20001220703</ele>
        <time>2017-08-06T13:14:42.000Z</time>
      </trkpt>
      <trkpt lat="46.41823" lon="5.73901">
        <ele>806</ele>
        <time>2017-08-06T13:14:43.000Z</time>
      </trkpt>
      <trkpt lat="46.41821" lon="5.73895">
        <ele>805</ele>
        <time>2017-08-06T13:14:48.000Z</time>
      </trkpt>
      <trkpt lat="46.41821" lon="5.73892">
        <ele>804.59997558594</ele>
        <time>2017-08-06T13:14:50.000Z</time>
      </trkpt>
      <trkpt lat="46.41821" lon="5.7389">
        <ele>804</ele>
        <time>2017-08-06T13:14:54.000Z</time>
      </trkpt>
      <trkpt lat="46.41818" lon="5.73881">
        <ele>803.79998779297</ele>
        <time>2017-08-06T13:15:12.000Z</time>
      </trkpt>
      <trkpt lat="46.41817" lon="5.73878">
        <ele>803.40002441406</ele>
        <time>2017-08-06T13:15:15.000Z</time>
      </trkpt>
      <trkpt lat="46.41815" lon="5.73874">
        <ele>802.79998779297</ele>
        <time>2017-08-06T13:15:18.000Z</time>
      </trkpt>
      <trkpt lat="46.41812" lon="5.73863">
        <ele>801.79998779297</ele>
        <time>2017-08-06T13:15:24.000Z</time>
      </trkpt>
      <trkpt lat="46.41811" lon="5.73858">
        <ele>801</ele>
        <time>2017-08-06T13:15:28.000Z</time>
      </trkpt>
      <trkpt lat="46.41811" lon="5.73857">
        <ele>800.79998779297</ele>
        <time>2017-08-06T13:15:29.000Z</time>
      </trkpt>
      <trkpt lat="46.41809" lon="5.73854">
        <ele>800.20001220703</ele>
        <time>2017-08-06T13:15:31.000Z</time>
      </trkpt>
      <trkpt lat="46.41808" lon="5.73848">
        <ele>799.59997558594</ele>
        <time>2017-08-06T13:15:34.000Z</time>
      </trkpt>
      <trkpt lat="46.41807" lon="5.73841">
        <ele>799</ele>
        <time>2017-08-06T13:15:37.000Z</time>
      </trkpt>
      <trkpt lat="46.41806" lon="5.73836">
        <ele>798.59997558594</ele>
        <time>2017-08-06T13:15:39.000Z</time>
      </trkpt>
      <trkpt lat="46.41803" lon="5.73828">
        <ele>798</ele>
        <time>2017-08-06T13:15:42.000Z</time>
      </trkpt>
      <trkpt lat="46.41802" lon="5.73824">
        <ele>797.59997558594</ele>
        <time>2017-08-06T13:15:45.000Z</time>
      </trkpt>
      <trkpt lat="46.41801" lon="5.73822">
        <ele>797.40002441406</ele>
        <time>2017-08-06T13:15:47.000Z</time>
      </trkpt>
      <trkpt lat="46.41801" lon="5.7382">
        <ele>797</ele>
        <time>2017-08-06T13:15:49.000Z</time>
      </trkpt>
      <trkpt lat="46.41801" lon="5.73819">
        <ele>796.59997558594</ele>
        <time>2017-08-06T13:15:53.000Z</time>
      </trkpt>
      <trkpt lat="46.418" lon="5.7381">
        <ele>796.40002441406</ele>
        <time>2017-08-06T13:16:04.000Z</time>
      </trkpt>
      <trkpt lat="46.41799" lon="5.73807">
        <ele>796</ele>
        <time>2017-08-06T13:16:07.000Z</time>
      </trkpt>
      <trkpt lat="46.418" lon="5.73806">
        <ele>795.59997558594</ele>
        <time>2017-08-06T13:16:11.000Z</time>
      </trkpt>
      <trkpt lat="46.41799" lon="5.73801">
        <ele>795.20001220703</ele>
        <time>2017-08-06T13:16:16.000Z</time>
      </trkpt>
      <trkpt lat="46.41798" lon="5.73797">
        <ele>794.79998779297</ele>
        <time>2017-08-06T13:16:19.000Z</time>
      </trkpt>
      <trkpt lat="46.41798" lon="5.73796">
        <ele>794.40002441406</ele>
        <time>2017-08-06T13:16:21.000Z</time>
      </trkpt>
      <trkpt lat="46.41797" lon="5.73795">
        <ele>794</ele>
        <time>2017-08-06T13:16:23.000Z</time>
      </trkpt>
      <trkpt lat="46.41797" lon="5.73793">
        <ele>793.59997558594</ele>
        <time>2017-08-06T13:16:25.000Z</time>
      </trkpt>
      <trkpt lat="46.41796" lon="5.7379">
        <ele>793.40002441406</ele>
        <time>2017-08-06T13:16:26.000Z</time>
      </trkpt>
      <trkpt lat="46.41795" lon="5.73782">
        <ele>792.20001220703</ele>
        <time>2017-08-06T13:16:31.000Z</time>
      </trkpt>
      <trkpt lat="46.41796" lon="5.73777">
        <ele>791.40002441406</ele>
        <time>2017-08-06T13:16:34.000Z</time>
      </trkpt>
      <trkpt lat="46.41797" lon="5.73776">
        <ele>791.20001220703</ele>
        <time>2017-08-06T13:16:35.000Z</time>
      </trkpt>
      <trkpt lat="46.41798" lon="5.73771">
        <ele>790.40002441406</ele>
        <time>2017-08-06T13:16:39.000Z</time>
      </trkpt>
      <trkpt lat="46.41799" lon="5.73769">
        <ele>790</ele>
        <time>2017-08-06T13:16:41.000Z</time>
      </trkpt>
      <trkpt lat="46.41799" lon="5.73759">
        <ele>789</ele>
        <time>2017-08-06T13:16:46.000Z</time>
      </trkpt>
      <trkpt lat="46.41799" lon="5.73758">
        <ele>789</ele>
        <time>2017-08-06T13:16:47.000Z</time>
      </trkpt>
      <trkpt lat="46.41799" lon="5.73756">
        <ele>788.79998779297</ele>
        <time>2017-08-06T13:16:49.000Z</time>
      </trkpt>
      <trkpt lat="46.41798" lon="5.73751">
        <ele>788.59997558594</ele>
        <time>2017-08-06T13:16:52.000Z</time>
      </trkpt>
      <trkpt lat="46.41796" lon="5.73745">
        <ele>788</ele>
        <time>2017-08-06T13:16:58.000Z</time>
      </trkpt>
      <trkpt lat="46.41793" lon="5.73742">
        <ele>787.59997558594</ele>
        <time>2017-08-06T13:17:04.000Z</time>
      </trkpt>
      <trkpt lat="46.41793" lon="5.73738">
        <ele>787.40002441406</ele>
        <time>2017-08-06T13:17:09.000Z</time>
      </trkpt>
      <trkpt lat="46.41793" lon="5.73736">
        <ele>787.40002441406</ele>
        <time>2017-08-06T13:17:11.000Z</time>
      </trkpt>
      <trkpt lat="46.41794" lon="5.73727">
        <ele>786.79998779297</ele>
        <time>2017-08-06T13:17:18.000Z</time>
      </trkpt>
      <trkpt lat="46.41798" lon="5.73696">
        <ele>786.20001220703</ele>
        <time>2017-08-06T13:17:35.000Z</time>
      </trkpt>
      <trkpt lat="46.41798" lon="5.7369">
        <ele>786</ele>
        <time>2017-08-06T13:17:40.000Z</time>
      </trkpt>
      <trkpt lat="46.41798" lon="5.73686">
        <ele>786</ele>
        <time>2017-08-06T13:17:44.000Z</time>
      </trkpt>
      <trkpt lat="46.41797" lon="5.73682">
        <ele>785.79998779297</ele>
        <time>2017-08-06T13:17:47.000Z</time>
      </trkpt>
      <trkpt lat="46.41797" lon="5.73681">
        <ele>785.79998779297</ele>
        <time>2017-08-06T13:17:48.000Z</time>
      </trkpt>
      <trkpt lat="46.41797" lon="5.7368">
        <ele>785.59997558594</ele>
        <time>2017-08-06T13:17:50.000Z</time>
      </trkpt>
      <trkpt lat="46.41796" lon="5.73678">
        <ele>785.40002441406</ele>
        <time>2017-08-06T13:17:52.000Z</time>
      </trkpt>
      <trkpt lat="46.41795" lon="5.73672">
        <ele>784.79998779297</ele>
        <time>2017-08-06T13:18:12.000Z</time>
      </trkpt>
      <trkpt lat="46.41793" lon="5.73666">
        <ele>784.20001220703</ele>
        <time>2017-08-06T13:18:18.000Z</time>
      </trkpt>
      <trkpt lat="46.41792" lon="5.73663">
        <ele>783.79998779297</ele>
        <time>2017-08-06T13:18:21.000Z</time>
      </trkpt>
      <trkpt lat="46.41791" lon="5.73661">
        <ele>783.59997558594</ele>
        <time>2017-08-06T13:18:22.000Z</time>
      </trkpt>
      <trkpt lat="46.41791" lon="5.7366">
        <ele>783.40002441406</ele>
        <time>2017-08-06T13:18:23.000Z</time>
      </trkpt>
      <trkpt lat="46.4179" lon="5.73658">
        <ele>783.20001220703</ele>
        <time>2017-08-06T13:18:25.000Z</time>
      </trkpt>
      <trkpt lat="46.41791" lon="5.73656">
        <ele>782.79998779297</ele>
        <time>2017-08-06T13:18:28.000Z</time>
      </trkpt>
      <trkpt lat="46.41792" lon="5.73653">
        <ele>782.59997558594</ele>
        <time>2017-08-06T13:18:30.000Z</time>
      </trkpt>
      <trkpt lat="46.41794" lon="5.73649">
        <ele>782</ele>
        <time>2017-08-06T13:18:33.000Z</time>
      </trkpt>
      <trkpt lat="46.41796" lon="5.73644">
        <ele>781.59997558594</ele>
        <time>2017-08-06T13:18:36.000Z</time>
      </trkpt>
      <trkpt lat="46.41796" lon="5.73643">
        <ele>781.40002441406</ele>
        <time>2017-08-06T13:18:38.000Z</time>
      </trkpt>
      <trkpt lat="46.41796" lon="5.73642">
        <ele>781.20001220703</ele>
        <time>2017-08-06T13:18:39.000Z</time>
      </trkpt>
      <trkpt lat="46.41798" lon="5.73639">
        <ele>781</ele>
        <time>2017-08-06T13:18:43.000Z</time>
      </trkpt>
      <trkpt lat="46.41798" lon="5.73634">
        <ele>780.40002441406</ele>
        <time>2017-08-06T13:18:46.000Z</time>
      </trkpt>
      <trkpt lat="46.41798" lon="5.7363">
        <ele>780.20001220703</ele>
        <time>2017-08-06T13:18:49.000Z</time>
      </trkpt>
      <trkpt lat="46.41798" lon="5.73627">
        <ele>780</ele>
        <time>2017-08-06T13:18:51.000Z</time>
      </trkpt>
      <trkpt lat="46.41797" lon="5.73625">
        <ele>779.79998779297</ele>
        <time>2017-08-06T13:18:53.000Z</time>
      </trkpt>
      <trkpt lat="46.41798" lon="5.73622">
        <ele>779.40002441406</ele>
        <time>2017-08-06T13:18:55.000Z</time>
      </trkpt>
      <trkpt lat="46.41798" lon="5.7362">
        <ele>779.20001220703</ele>
        <time>2017-08-06T13:18:56.000Z</time>
      </trkpt>
      <trkpt lat="46.41799" lon="5.73617">
        <ele>779</ele>
        <time>2017-08-06T13:18:58.000Z</time>
      </trkpt>
      <trkpt lat="46.41799" lon="5.73614">
        <ele>778.59997558594</ele>
        <time>2017-08-06T13:19:00.000Z</time>
      </trkpt>
      <trkpt lat="46.41799" lon="5.73612">
        <ele>778.40002441406</ele>
        <time>2017-08-06T13:19:02.000Z</time>
      </trkpt>
      <trkpt lat="46.418" lon="5.7361">
        <ele>778.20001220703</ele>
        <time>2017-08-06T13:19:03.000Z</time>
      </trkpt>
      <trkpt lat="46.41801" lon="5.73605">
        <ele>777.79998779297</ele>
        <time>2017-08-06T13:19:07.000Z</time>
      </trkpt>
      <trkpt lat="46.41801" lon="5.73601">
        <ele>777.40002441406</ele>
        <time>2017-08-06T13:19:09.000Z</time>
      </trkpt>
      <trkpt lat="46.41802" lon="5.73598">
        <ele>777.20001220703</ele>
        <time>2017-08-06T13:19:11.000Z</time>
      </trkpt>
      <trkpt lat="46.41803" lon="5.73594">
        <ele>776.20001220703</ele>
        <time>2017-08-06T13:19:15.000Z</time>
      </trkpt>
      <trkpt lat="46.41803" lon="5.73587">
        <ele>775.20001220703</ele>
        <time>2017-08-06T13:19:19.000Z</time>
      </trkpt>
      <trkpt lat="46.41804" lon="5.73582">
        <ele>774.79998779297</ele>
        <time>2017-08-06T13:19:21.000Z</time>
      </trkpt>
      <trkpt lat="46.41805" lon="5.73579">
        <ele>774.20001220703</ele>
        <time>2017-08-06T13:19:25.000Z</time>
      </trkpt>
      <trkpt lat="46.41807" lon="5.73578">
        <ele>774</ele>
        <time>2017-08-06T13:19:27.000Z</time>
      </trkpt>
      <trkpt lat="46.41808" lon="5.73577">
        <ele>773.40002441406</ele>
        <time>2017-08-06T13:19:32.000Z</time>
      </trkpt>
      <trkpt lat="46.41808" lon="5.73575">
        <ele>773.59997558594</ele>
        <time>2017-08-06T13:19:39.000Z</time>
      </trkpt>
      <trkpt lat="46.41809" lon="5.73567">
        <ele>773</ele>
        <time>2017-08-06T13:19:57.000Z</time>
      </trkpt>
      <trkpt lat="46.41816" lon="5.73569">
        <ele>772</ele>
        <time>2017-08-06T13:20:20.000Z</time>
      </trkpt>
      <trkpt lat="46.41818" lon="5.73565">
        <ele>770.79998779297</ele>
        <time>2017-08-06T13:20:26.000Z</time>
      </trkpt>
      <trkpt lat="46.41822" lon="5.7356">
        <ele>769.59997558594</ele>
        <time>2017-08-06T13:20:34.000Z</time>
      </trkpt>
      <trkpt lat="46.41827" lon="5.73559">
        <ele>768.59997558594</ele>
        <time>2017-08-06T13:20:40.000Z</time>
      </trkpt>
      <trkpt lat="46.41834" lon="5.73559">
        <ele>767.40002441406</ele>
        <time>2017-08-06T13:20:46.000Z</time>
      </trkpt>
      <trkpt lat="46.41842" lon="5.73558">
        <ele>766.40002441406</ele>
        <time>2017-08-06T13:20:53.000Z</time>
      </trkpt>
      <trkpt lat="46.41843" lon="5.73558">
        <ele>766.20001220703</ele>
        <time>2017-08-06T13:20:54.000Z</time>
      </trkpt>
      <trkpt lat="46.41845" lon="5.73559">
        <ele>766</ele>
        <time>2017-08-06T13:20:55.000Z</time>
      </trkpt>
      <trkpt lat="46.41849" lon="5.73558">
        <ele>765</ele>
        <time>2017-08-06T13:20:58.000Z</time>
      </trkpt>
      <trkpt lat="46.41852" lon="5.73557">
        <ele>764</ele>
        <time>2017-08-06T13:21:01.000Z</time>
      </trkpt>
      <trkpt lat="46.41855" lon="5.73557">
        <ele>762.79998779297</ele>
        <time>2017-08-06T13:21:04.000Z</time>
      </trkpt>
      <trkpt lat="46.41856" lon="5.73557">
        <ele>762.59997558594</ele>
        <time>2017-08-06T13:21:05.000Z</time>
      </trkpt>
      <trkpt lat="46.4186" lon="5.73557">
        <ele>761.79998779297</ele>
        <time>2017-08-06T13:21:09.000Z</time>
      </trkpt>
      <trkpt lat="46.41863" lon="5.73562">
        <ele>761.79998779297</ele>
        <time>2017-08-06T13:21:13.000Z</time>
      </trkpt>
      <trkpt lat="46.41871" lon="5.73563">
        <ele>762.79998779297</ele>
        <time>2017-08-06T13:21:52.000Z</time>
      </trkpt>
      <trkpt lat="46.41868" lon="5.73565">
        <ele>763</ele>
        <time>2017-08-06T13:21:55.000Z</time>
      </trkpt>
      <trkpt lat="46.41869" lon="5.73567">
        <ele>763.20001220703</ele>
        <time>2017-08-06T13:21:56.000Z</time>
      </trkpt>
      <trkpt lat="46.41871" lon="5.7357">
        <ele>763.40002441406</ele>
        <time>2017-08-06T13:21:58.000Z</time>
      </trkpt>
      <trkpt lat="46.41871" lon="5.73575">
        <ele>764</ele>
        <time>2017-08-06T13:22:01.000Z</time>
      </trkpt>
      <trkpt lat="46.41876" lon="5.73588">
        <ele>765.20001220703</ele>
        <time>2017-08-06T13:22:07.000Z</time>
      </trkpt>
      <trkpt lat="46.41877" lon="5.73593">
        <ele>766</ele>
        <time>2017-08-06T13:22:10.000Z</time>
      </trkpt>
      <trkpt lat="46.41879" lon="5.73597">
        <ele>766.40002441406</ele>
        <time>2017-08-06T13:22:12.000Z</time>
      </trkpt>
      <trkpt lat="46.41879" lon="5.73598">
        <ele>766.59997558594</ele>
        <time>2017-08-06T13:22:13.000Z</time>
      </trkpt>
      <trkpt lat="46.41884" lon="5.73606">
        <ele>767.40002441406</ele>
        <time>2017-08-06T13:22:18.000Z</time>
      </trkpt>
      <trkpt lat="46.41885" lon="5.73608">
        <ele>767.79998779297</ele>
        <time>2017-08-06T13:22:20.000Z</time>
      </trkpt>
      <trkpt lat="46.41887" lon="5.7361">
        <ele>768.20001220703</ele>
        <time>2017-08-06T13:22:23.000Z</time>
      </trkpt>
      <trkpt lat="46.41889" lon="5.73613">
        <ele>768.59997558594</ele>
        <time>2017-08-06T13:22:26.000Z</time>
      </trkpt>
      <trkpt lat="46.41891" lon="5.73616">
        <ele>769</ele>
        <time>2017-08-06T13:22:29.000Z</time>
      </trkpt>
      <trkpt lat="46.41895" lon="5.73623">
        <ele>769.59997558594</ele>
        <time>2017-08-06T13:22:37.000Z</time>
      </trkpt>
      <trkpt lat="46.41896" lon="5.73622">
        <ele>769.79998779297</ele>
        <time>2017-08-06T13:22:38.000Z</time>
      </trkpt>
      <trkpt lat="46.41897" lon="5.73625">
        <ele>770.79998779297</ele>
        <time>2017-08-06T13:22:44.000Z</time>
      </trkpt>
      <trkpt lat="46.41898" lon="5.73626">
        <ele>771</ele>
        <time>2017-08-06T13:22:45.000Z</time>
      </trkpt>
      <trkpt lat="46.41903" lon="5.73628">
        <ele>771.40002441406</ele>
        <time>2017-08-06T13:22:47.000Z</time>
      </trkpt>
      <trkpt lat="46.4191" lon="5.73634">
        <ele>771.79998779297</ele>
        <time>2017-08-06T13:22:52.000Z</time>
      </trkpt>
      <trkpt lat="46.41937" lon="5.7364">
        <ele>771.79998779297</ele>
        <time>2017-08-06T13:23:14.000Z</time>
      </trkpt>
      <trkpt lat="46.41939" lon="5.73642">
        <ele>771.59997558594</ele>
        <time>2017-08-06T13:23:39.000Z</time>
      </trkpt>
      <trkpt lat="46.41922" lon="5.73644">
        <ele>772</ele>
        <time>2017-08-06T13:23:56.000Z</time>
      </trkpt>
      <trkpt lat="46.4192" lon="5.7365">
        <ele>772.40002441406</ele>
        <time>2017-08-06T13:23:59.000Z</time>
      </trkpt>
      <trkpt lat="46.41919" lon="5.73656">
        <ele>773</ele>
        <time>2017-08-06T13:24:01.000Z</time>
      </trkpt>
      <trkpt lat="46.41918" lon="5.73658">
        <ele>773.40002441406</ele>
        <time>2017-08-06T13:24:02.000Z</time>
      </trkpt>
      <trkpt lat="46.41916" lon="5.73662">
        <ele>774</ele>
        <time>2017-08-06T13:24:04.000Z</time>
      </trkpt>
      <trkpt lat="46.41915" lon="5.73664">
        <ele>774.20001220703</ele>
        <time>2017-08-06T13:24:05.000Z</time>
      </trkpt>
      <trkpt lat="46.41909" lon="5.73674">
        <ele>775.20001220703</ele>
        <time>2017-08-06T13:24:10.000Z</time>
      </trkpt>
      <trkpt lat="46.41908" lon="5.73677">
        <ele>776</ele>
        <time>2017-08-06T13:24:13.000Z</time>
      </trkpt>
      <trkpt lat="46.41907" lon="5.73677">
        <ele>776.20001220703</ele>
        <time>2017-08-06T13:24:16.000Z</time>
      </trkpt>
      <trkpt lat="46.41914" lon="5.73674">
        <ele>776.40002441406</ele>
        <time>2017-08-06T13:24:56.000Z</time>
      </trkpt>
      <trkpt lat="46.4191" lon="5.7368">
        <ele>775.20001220703</ele>
        <time>2017-08-06T13:26:15.000Z</time>
      </trkpt>
      <trkpt lat="46.4191" lon="5.73678">
        <ele>776.59997558594</ele>
        <time>2017-08-06T13:26:37.000Z</time>
      </trkpt>
      <trkpt lat="46.41909" lon="5.73678">
        <ele>777.59997558594</ele>
        <time>2017-08-06T13:26:58.000Z</time>
      </trkpt>
      <trkpt lat="46.41907" lon="5.73676">
        <ele>776.40002441406</ele>
        <time>2017-08-06T13:27:20.000Z</time>
      </trkpt>
      <trkpt lat="46.41908" lon="5.73677">
        <ele>776.59997558594</ele>
        <time>2017-08-06T13:27:51.000Z</time>
      </trkpt>
      <trkpt lat="46.4191" lon="5.73677">
        <ele>776.79998779297</ele>
        <time>2017-08-06T13:29:03.000Z</time>
      </trkpt>
      <trkpt lat="46.41909" lon="5.73677">
        <ele>777</ele>
        <time>2017-08-06T13:29:50.000Z</time>
      </trkpt>
      <trkpt lat="46.41903" lon="5.73666">
        <ele>776</ele>
        <time>2017-08-06T13:30:25.000Z</time>
      </trkpt>
      <trkpt lat="46.419" lon="5.73656">
        <ele>775.59997558594</ele>
        <time>2017-08-06T13:30:30.000Z</time>
      </trkpt>
      <trkpt lat="46.41897" lon="5.73653">
        <ele>775.59997558594</ele>
        <time>2017-08-06T13:30:33.000Z</time>
      </trkpt>
      <trkpt lat="46.41897" lon="5.73649">
        <ele>775.79998779297</ele>
        <time>2017-08-06T13:30:36.000Z</time>
      </trkpt>
      <trkpt lat="46.41896" lon="5.7365">
        <ele>776</ele>
        <time>2017-08-06T13:30:42.000Z</time>
      </trkpt>
      <trkpt lat="46.41902" lon="5.7363">
        <ele>776.20001220703</ele>
        <time>2017-08-06T13:31:08.000Z</time>
      </trkpt>
      <trkpt lat="46.41913" lon="5.73608">
        <ele>776</ele>
        <time>2017-08-06T13:31:21.000Z</time>
      </trkpt>
      <trkpt lat="46.41913" lon="5.73604">
        <ele>776</ele>
        <time>2017-08-06T13:31:25.000Z</time>
      </trkpt>
      <trkpt lat="46.41914" lon="5.73597">
        <ele>776</ele>
        <time>2017-08-06T13:31:29.000Z</time>
      </trkpt>
      <trkpt lat="46.41915" lon="5.73575">
        <ele>775.59997558594</ele>
        <time>2017-08-06T13:31:41.000Z</time>
      </trkpt>
      <trkpt lat="46.41918" lon="5.73563">
        <ele>775.40002441406</ele>
        <time>2017-08-06T13:31:49.000Z</time>
      </trkpt>
      <trkpt lat="46.4192" lon="5.73558">
        <ele>775.20001220703</ele>
        <time>2017-08-06T13:31:52.000Z</time>
      </trkpt>
      <trkpt lat="46.41935" lon="5.73551">
        <ele>775.79998779297</ele>
        <time>2017-08-06T13:32:05.000Z</time>
      </trkpt>
      <trkpt lat="46.41937" lon="5.73551">
        <ele>776</ele>
        <time>2017-08-06T13:32:07.000Z</time>
      </trkpt>
      <trkpt lat="46.41938" lon="5.7355">
        <ele>775.79998779297</ele>
        <time>2017-08-06T13:32:09.000Z</time>
      </trkpt>
      <trkpt lat="46.41943" lon="5.7355">
        <ele>776</ele>
        <time>2017-08-06T13:32:12.000Z</time>
      </trkpt>
      <trkpt lat="46.41944" lon="5.7355">
        <ele>776.40002441406</ele>
        <time>2017-08-06T13:32:13.000Z</time>
      </trkpt>
      <trkpt lat="46.41949" lon="5.73551">
        <ele>777.59997558594</ele>
        <time>2017-08-06T13:32:17.000Z</time>
      </trkpt>
      <trkpt lat="46.41958" lon="5.73544">
        <ele>778.59997558594</ele>
        <time>2017-08-06T13:32:26.000Z</time>
      </trkpt>
      <trkpt lat="46.41957" lon="5.73529">
        <ele>780</ele>
        <time>2017-08-06T13:32:32.000Z</time>
      </trkpt>
      <trkpt lat="46.4196" lon="5.73522">
        <ele>781</ele>
        <time>2017-08-06T13:32:37.000Z</time>
      </trkpt>
      <trkpt lat="46.41961" lon="5.73522">
        <ele>781</ele>
        <time>2017-08-06T13:32:38.000Z</time>
      </trkpt>
      <trkpt lat="46.41971" lon="5.73526">
        <ele>782.20001220703</ele>
        <time>2017-08-06T13:32:45.000Z</time>
      </trkpt>
      <trkpt lat="46.41974" lon="5.73529">
        <ele>782.59997558594</ele>
        <time>2017-08-06T13:32:47.000Z</time>
      </trkpt>
      <trkpt lat="46.41984" lon="5.7355">
        <ele>783</ele>
        <time>2017-08-06T13:32:57.000Z</time>
      </trkpt>
      <trkpt lat="46.41989" lon="5.73562">
        <ele>783</ele>
        <time>2017-08-06T13:33:04.000Z</time>
      </trkpt>
      <trkpt lat="46.41988" lon="5.73564">
        <ele>783</ele>
        <time>2017-08-06T13:33:08.000Z</time>
      </trkpt>
      <trkpt lat="46.41991" lon="5.73568">
        <ele>783.20001220703</ele>
        <time>2017-08-06T13:33:27.000Z</time>
      </trkpt>
      <trkpt lat="46.41995" lon="5.73575">
        <ele>783.20001220703</ele>
        <time>2017-08-06T13:33:33.000Z</time>
      </trkpt>
      <trkpt lat="46.42003" lon="5.73592">
        <ele>783.40002441406</ele>
        <time>2017-08-06T13:33:45.000Z</time>
      </trkpt>
      <trkpt lat="46.42004" lon="5.73598">
        <ele>783</ele>
        <time>2017-08-06T13:33:50.000Z</time>
      </trkpt>
      <trkpt lat="46.42006" lon="5.73599">
        <ele>782.79998779297</ele>
        <time>2017-08-06T13:33:53.000Z</time>
      </trkpt>
      <trkpt lat="46.42008" lon="5.73599">
        <ele>783</ele>
        <time>2017-08-06T13:33:55.000Z</time>
      </trkpt>
      <trkpt lat="46.42013" lon="5.736">
        <ele>783.20001220703</ele>
        <time>2017-08-06T13:34:00.000Z</time>
      </trkpt>
      <trkpt lat="46.42029" lon="5.7361">
        <ele>783.40002441406</ele>
        <time>2017-08-06T13:34:15.000Z</time>
      </trkpt>
      <trkpt lat="46.42037" lon="5.73616">
        <ele>783.79998779297</ele>
        <time>2017-08-06T13:34:30.000Z</time>
      </trkpt>
      <trkpt lat="46.42052" lon="5.73624">
        <ele>784.20001220703</ele>
        <time>2017-08-06T13:34:42.000Z</time>
      </trkpt>
      <trkpt lat="46.42069" lon="5.73633">
        <ele>784.59997558594</ele>
        <time>2017-08-06T13:34:56.000Z</time>
      </trkpt>
      <trkpt lat="46.42079" lon="5.73636">
        <ele>785.40002441406</ele>
        <time>2017-08-06T13:35:03.000Z</time>
      </trkpt>
      <trkpt lat="46.4208" lon="5.73637">
        <ele>785.40002441406</ele>
        <time>2017-08-06T13:35:04.000Z</time>
      </trkpt>
      <trkpt lat="46.42095" lon="5.73646">
        <ele>786</ele>
        <time>2017-08-06T13:35:19.000Z</time>
      </trkpt>
      <trkpt lat="46.42098" lon="5.73647">
        <ele>786.20001220703</ele>
        <time>2017-08-06T13:35:22.000Z</time>
      </trkpt>
      <trkpt lat="46.42101" lon="5.73649">
        <ele>786.20001220703</ele>
        <time>2017-08-06T13:35:24.000Z</time>
      </trkpt>
      <trkpt lat="46.42109" lon="5.73653">
        <ele>786.20001220703</ele>
        <time>2017-08-06T13:35:28.000Z</time>
      </trkpt>
      <trkpt lat="46.42115" lon="5.73656">
        <ele>786.40002441406</ele>
        <time>2017-08-06T13:35:33.000Z</time>
      </trkpt>
      <trkpt lat="46.42118" lon="5.73654">
        <ele>786.59997558594</ele>
        <time>2017-08-06T13:35:40.000Z</time>
      </trkpt>
      <trkpt lat="46.42126" lon="5.73661">
        <ele>786.59997558594</ele>
        <time>2017-08-06T13:35:47.000Z</time>
      </trkpt>
      <trkpt lat="46.4213" lon="5.73662">
        <ele>786.59997558594</ele>
        <time>2017-08-06T13:35:50.000Z</time>
      </trkpt>
      <trkpt lat="46.42134" lon="5.73665">
        <ele>787.40002441406</ele>
        <time>2017-08-06T13:35:55.000Z</time>
      </trkpt>
      <trkpt lat="46.42138" lon="5.73669">
        <ele>788</ele>
        <time>2017-08-06T13:36:00.000Z</time>
      </trkpt>
      <trkpt lat="46.4214" lon="5.7367">
        <ele>788.40002441406</ele>
        <time>2017-08-06T13:36:02.000Z</time>
      </trkpt>
      <trkpt lat="46.42142" lon="5.73671">
        <ele>788.79998779297</ele>
        <time>2017-08-06T13:36:05.000Z</time>
      </trkpt>
      <trkpt lat="46.42145" lon="5.73678">
        <ele>789.79998779297</ele>
        <time>2017-08-06T13:36:14.000Z</time>
      </trkpt>
      <trkpt lat="46.42146" lon="5.73678">
        <ele>790</ele>
        <time>2017-08-06T13:36:15.000Z</time>
      </trkpt>
      <trkpt lat="46.42148" lon="5.73681">
        <ele>790.59997558594</ele>
        <time>2017-08-06T13:36:18.000Z</time>
      </trkpt>
      <trkpt lat="46.42149" lon="5.73682">
        <ele>790.79998779297</ele>
        <time>2017-08-06T13:36:19.000Z</time>
      </trkpt>
      <trkpt lat="46.42153" lon="5.7369">
        <ele>791.79998779297</ele>
        <time>2017-08-06T13:36:27.000Z</time>
      </trkpt>
      <trkpt lat="46.42153" lon="5.7369">
        <ele>792.20001220703</ele>
        <time>2017-08-06T13:36:28.000Z</time>
      </trkpt>
      <trkpt lat="46.42155" lon="5.73694">
        <ele>792.79998779297</ele>
        <time>2017-08-06T13:36:32.000Z</time>
      </trkpt>
      <trkpt lat="46.42153" lon="5.73697">
        <ele>794</ele>
        <time>2017-08-06T13:36:40.000Z</time>
      </trkpt>
      <trkpt lat="46.42157" lon="5.73694">
        <ele>795.20001220703</ele>
        <time>2017-08-06T13:36:45.000Z</time>
      </trkpt>
      <trkpt lat="46.42163" lon="5.73689">
        <ele>796.20001220703</ele>
        <time>2017-08-06T13:36:51.000Z</time>
      </trkpt>
      <trkpt lat="46.42172" lon="5.73686">
        <ele>797.20001220703</ele>
        <time>2017-08-06T13:36:58.000Z</time>
      </trkpt>
      <trkpt lat="46.42179" lon="5.73684">
        <ele>798.40002441406</ele>
        <time>2017-08-06T13:37:05.000Z</time>
      </trkpt>
      <trkpt lat="46.42187" lon="5.73684">
        <ele>799.40002441406</ele>
        <time>2017-08-06T13:37:11.000Z</time>
      </trkpt>
      <trkpt lat="46.42189" lon="5.73684">
        <ele>799.59997558594</ele>
        <time>2017-08-06T13:37:12.000Z</time>
      </trkpt>
      <trkpt lat="46.4219" lon="5.73683">
        <ele>799.79998779297</ele>
        <time>2017-08-06T13:37:14.000Z</time>
      </trkpt>
      <trkpt lat="46.4219" lon="5.73683">
        <ele>800.20001220703</ele>
        <time>2017-08-06T13:37:17.000Z</time>
      </trkpt>
      <trkpt lat="46.42194" lon="5.73682">
        <ele>800.59997558594</ele>
        <time>2017-08-06T13:37:21.000Z</time>
      </trkpt>
      <trkpt lat="46.42198" lon="5.73678">
        <ele>801</ele>
        <time>2017-08-06T13:37:25.000Z</time>
      </trkpt>
      <trkpt lat="46.422" lon="5.73675">
        <ele>801.40002441406</ele>
        <time>2017-08-06T13:37:27.000Z</time>
      </trkpt>
      <trkpt lat="46.42197" lon="5.73661">
        <ele>801.20001220703</ele>
        <time>2017-08-06T13:37:37.000Z</time>
      </trkpt>
      <trkpt lat="46.42196" lon="5.73658">
        <ele>801</ele>
        <time>2017-08-06T13:37:39.000Z</time>
      </trkpt>
      <trkpt lat="46.42189" lon="5.73642">
        <ele>799.40002441406</ele>
        <time>2017-08-06T13:37:49.000Z</time>
      </trkpt>
      <trkpt lat="46.42189" lon="5.73641">
        <ele>799.40002441406</ele>
        <time>2017-08-06T13:37:51.000Z</time>
      </trkpt>
      <trkpt lat="46.4219" lon="5.73641">
        <ele>799.20001220703</ele>
        <time>2017-08-06T13:37:53.000Z</time>
      </trkpt>
      <trkpt lat="46.42185" lon="5.73635">
        <ele>799</ele>
        <time>2017-08-06T13:37:58.000Z</time>
      </trkpt>
      <trkpt lat="46.42183" lon="5.73632">
        <ele>798.59997558594</ele>
        <time>2017-08-06T13:38:00.000Z</time>
      </trkpt>
      <trkpt lat="46.42182" lon="5.7363">
        <ele>798.40002441406</ele>
        <time>2017-08-06T13:38:02.000Z</time>
      </trkpt>
      <trkpt lat="46.42179" lon="5.73618">
        <ele>798</ele>
        <time>2017-08-06T13:38:10.000Z</time>
      </trkpt>
      <trkpt lat="46.42175" lon="5.73615">
        <ele>798</ele>
        <time>2017-08-06T13:38:13.000Z</time>
      </trkpt>
      <trkpt lat="46.42168" lon="5.73596">
        <ele>797.40002441406</ele>
        <time>2017-08-06T13:38:26.000Z</time>
      </trkpt>
      <trkpt lat="46.42171" lon="5.73599">
        <ele>797.59997558594</ele>
        <time>2017-08-06T13:38:30.000Z</time>
      </trkpt>
      <trkpt lat="46.42174" lon="5.73608">
        <ele>797.40002441406</ele>
        <time>2017-08-06T13:38:35.000Z</time>
      </trkpt>
      <trkpt lat="46.42176" lon="5.73611">
        <ele>797.59997558594</ele>
        <time>2017-08-06T13:38:37.000Z</time>
      </trkpt>
      <trkpt lat="46.42189" lon="5.73633">
        <ele>798</ele>
        <time>2017-08-06T13:38:51.000Z</time>
      </trkpt>
      <trkpt lat="46.42196" lon="5.73646">
        <ele>799</ele>
        <time>2017-08-06T13:39:00.000Z</time>
      </trkpt>
      <trkpt lat="46.42197" lon="5.7365">
        <ele>799.20001220703</ele>
        <time>2017-08-06T13:39:02.000Z</time>
      </trkpt>
      <trkpt lat="46.42198" lon="5.73652">
        <ele>799.40002441406</ele>
        <time>2017-08-06T13:39:03.000Z</time>
      </trkpt>
      <trkpt lat="46.42198" lon="5.73653">
        <ele>799.59997558594</ele>
        <time>2017-08-06T13:39:04.000Z</time>
      </trkpt>
      <trkpt lat="46.42198" lon="5.73655">
        <ele>799.79998779297</ele>
        <time>2017-08-06T13:39:06.000Z</time>
      </trkpt>
      <trkpt lat="46.422" lon="5.73661">
        <ele>800</ele>
        <time>2017-08-06T13:39:10.000Z</time>
      </trkpt>
      <trkpt lat="46.42201" lon="5.73666">
        <ele>800.59997558594</ele>
        <time>2017-08-06T13:39:14.000Z</time>
      </trkpt>
      <trkpt lat="46.42206" lon="5.73673">
        <ele>801.59997558594</ele>
        <time>2017-08-06T13:39:21.000Z</time>
      </trkpt>
      <trkpt lat="46.42206" lon="5.73672">
        <ele>801.59997558594</ele>
        <time>2017-08-06T13:39:27.000Z</time>
      </trkpt>
      <trkpt lat="46.42211" lon="5.73674">
        <ele>802.79998779297</ele>
        <time>2017-08-06T13:39:36.000Z</time>
      </trkpt>
      <trkpt lat="46.42215" lon="5.73674">
        <ele>803.79998779297</ele>
        <time>2017-08-06T13:39:40.000Z</time>
      </trkpt>
      <trkpt lat="46.42215" lon="5.73674">
        <ele>804</ele>
        <time>2017-08-06T13:39:41.000Z</time>
      </trkpt>
      <trkpt lat="46.42216" lon="5.7367">
        <ele>804.79998779297</ele>
        <time>2017-08-06T13:39:45.000Z</time>
      </trkpt>
      <trkpt lat="46.42216" lon="5.7367">
        <ele>805</ele>
        <time>2017-08-06T13:39:46.000Z</time>
      </trkpt>
      <trkpt lat="46.4222" lon="5.73665">
        <ele>806</ele>
        <time>2017-08-06T13:39:52.000Z</time>
      </trkpt>
      <trkpt lat="46.42227" lon="5.73659">
        <ele>807.20001220703</ele>
        <time>2017-08-06T13:40:02.000Z</time>
      </trkpt>
      <trkpt lat="46.42232" lon="5.73653">
        <ele>808.20001220703</ele>
        <time>2017-08-06T13:40:10.000Z</time>
      </trkpt>
      <trkpt lat="46.42233" lon="5.73651">
        <ele>808.40002441406</ele>
        <time>2017-08-06T13:40:12.000Z</time>
      </trkpt>
      <trkpt lat="46.42235" lon="5.73645">
        <ele>809</ele>
        <time>2017-08-06T13:40:17.000Z</time>
      </trkpt>
      <trkpt lat="46.42235" lon="5.73644">
        <ele>809.20001220703</ele>
        <time>2017-08-06T13:40:19.000Z</time>
      </trkpt>
      <trkpt lat="46.42239" lon="5.73639">
        <ele>810.40002441406</ele>
        <time>2017-08-06T13:40:25.000Z</time>
      </trkpt>
      <trkpt lat="46.42244" lon="5.73638">
        <ele>811.40002441406</ele>
        <time>2017-08-06T13:40:31.000Z</time>
      </trkpt>
      <trkpt lat="46.42245" lon="5.73634">
        <ele>811.79998779297</ele>
        <time>2017-08-06T13:40:34.000Z</time>
      </trkpt>
      <trkpt lat="46.42247" lon="5.73633">
        <ele>812</ele>
        <time>2017-08-06T13:40:36.000Z</time>
      </trkpt>
      <trkpt lat="46.42249" lon="5.73631">
        <ele>812.59997558594</ele>
        <time>2017-08-06T13:40:39.000Z</time>
      </trkpt>
      <trkpt lat="46.4225" lon="5.73631">
        <ele>812.59997558594</ele>
        <time>2017-08-06T13:40:40.000Z</time>
      </trkpt>
      <trkpt lat="46.42254" lon="5.73631">
        <ele>813.40002441406</ele>
        <time>2017-08-06T13:40:44.000Z</time>
      </trkpt>
      <trkpt lat="46.42255" lon="5.73631">
        <ele>813.59997558594</ele>
        <time>2017-08-06T13:40:45.000Z</time>
      </trkpt>
      <trkpt lat="46.42256" lon="5.73632">
        <ele>813.79998779297</ele>
        <time>2017-08-06T13:40:46.000Z</time>
      </trkpt>
      <trkpt lat="46.42258" lon="5.73633">
        <ele>814</ele>
        <time>2017-08-06T13:40:48.000Z</time>
      </trkpt>
      <trkpt lat="46.4226" lon="5.73634">
        <ele>814.40002441406</ele>
        <time>2017-08-06T13:40:51.000Z</time>
      </trkpt>
      <trkpt lat="46.42261" lon="5.73634">
        <ele>814.59997558594</ele>
        <time>2017-08-06T13:40:53.000Z</time>
      </trkpt>
      <trkpt lat="46.42278" lon="5.73639">
        <ele>815.20001220703</ele>
        <time>2017-08-06T13:41:15.000Z</time>
      </trkpt>
      <trkpt lat="46.4228" lon="5.73643">
        <ele>815.59997558594</ele>
        <time>2017-08-06T13:41:17.000Z</time>
      </trkpt>
      <trkpt lat="46.42281" lon="5.73644">
        <ele>816</ele>
        <time>2017-08-06T13:41:19.000Z</time>
      </trkpt>
      <trkpt lat="46.42282" lon="5.73645">
        <ele>816.79998779297</ele>
        <time>2017-08-06T13:41:22.000Z</time>
      </trkpt>
      <trkpt lat="46.42284" lon="5.73648">
        <ele>817.79998779297</ele>
        <time>2017-08-06T13:41:28.000Z</time>
      </trkpt>
      <trkpt lat="46.42285" lon="5.73649">
        <ele>819</ele>
        <time>2017-08-06T13:41:34.000Z</time>
      </trkpt>
      <trkpt lat="46.42286" lon="5.73645">
        <ele>820</ele>
        <time>2017-08-06T13:41:38.000Z</time>
      </trkpt>
      <trkpt lat="46.42287" lon="5.73643">
        <ele>821</ele>
        <time>2017-08-06T13:41:43.000Z</time>
      </trkpt>
      <trkpt lat="46.42288" lon="5.7364">
        <ele>822</ele>
        <time>2017-08-06T13:41:50.000Z</time>
      </trkpt>
      <trkpt lat="46.42285" lon="5.73652">
        <ele>821</ele>
        <time>2017-08-06T13:42:03.000Z</time>
      </trkpt>
      <trkpt lat="46.42284" lon="5.73653">
        <ele>820.59997558594</ele>
        <time>2017-08-06T13:42:04.000Z</time>
      </trkpt>
      <trkpt lat="46.42283" lon="5.73657">
        <ele>819.40002441406</ele>
        <time>2017-08-06T13:42:07.000Z</time>
      </trkpt>
      <trkpt lat="46.42282" lon="5.73659">
        <ele>819</ele>
        <time>2017-08-06T13:42:09.000Z</time>
      </trkpt>
      <trkpt lat="46.42281" lon="5.73661">
        <ele>818.79998779297</ele>
        <time>2017-08-06T13:42:11.000Z</time>
      </trkpt>
      <trkpt lat="46.4228" lon="5.73665">
        <ele>818.59997558594</ele>
        <time>2017-08-06T13:42:14.000Z</time>
      </trkpt>
      <trkpt lat="46.4228" lon="5.73672">
        <ele>819.59997558594</ele>
        <time>2017-08-06T13:42:20.000Z</time>
      </trkpt>
      <trkpt lat="46.42278" lon="5.73675">
        <ele>820</ele>
        <time>2017-08-06T13:42:22.000Z</time>
      </trkpt>
      <trkpt lat="46.42278" lon="5.73677">
        <ele>820.59997558594</ele>
        <time>2017-08-06T13:42:24.000Z</time>
      </trkpt>
      <trkpt lat="46.42276" lon="5.73688">
        <ele>821.40002441406</ele>
        <time>2017-08-06T13:42:32.000Z</time>
      </trkpt>
      <trkpt lat="46.42276" lon="5.73689">
        <ele>821.40002441406</ele>
        <time>2017-08-06T13:42:33.000Z</time>
      </trkpt>
      <trkpt lat="46.42273" lon="5.73696">
        <ele>821.40002441406</ele>
        <time>2017-08-06T13:42:36.000Z</time>
      </trkpt>
      <trkpt lat="46.42274" lon="5.73698">
        <ele>821</ele>
        <time>2017-08-06T13:42:38.000Z</time>
      </trkpt>
      <trkpt lat="46.42274" lon="5.737">
        <ele>820.79998779297</ele>
        <time>2017-08-06T13:42:40.000Z</time>
      </trkpt>
      <trkpt lat="46.42272" lon="5.73708">
        <ele>820</ele>
        <time>2017-08-06T13:42:45.000Z</time>
      </trkpt>
      <trkpt lat="46.42272" lon="5.7371">
        <ele>819.59997558594</ele>
        <time>2017-08-06T13:42:47.000Z</time>
      </trkpt>
      <trkpt lat="46.42271" lon="5.73717">
        <ele>818.40002441406</ele>
        <time>2017-08-06T13:42:52.000Z</time>
      </trkpt>
      <trkpt lat="46.42273" lon="5.73722">
        <ele>818</ele>
        <time>2017-08-06T13:42:58.000Z</time>
      </trkpt>
      <trkpt lat="46.42274" lon="5.73724">
        <ele>818.20001220703</ele>
        <time>2017-08-06T13:43:02.000Z</time>
      </trkpt>
      <trkpt lat="46.42276" lon="5.73724">
        <ele>818.20001220703</ele>
        <time>2017-08-06T13:43:07.000Z</time>
      </trkpt>
      <trkpt lat="46.42276" lon="5.73735">
        <ele>819.20001220703</ele>
        <time>2017-08-06T13:43:20.000Z</time>
      </trkpt>
      <trkpt lat="46.4227" lon="5.73743">
        <ele>818.79998779297</ele>
        <time>2017-08-06T13:43:27.000Z</time>
      </trkpt>
      <trkpt lat="46.42265" lon="5.73747">
        <ele>818</ele>
        <time>2017-08-06T13:43:32.000Z</time>
      </trkpt>
      <trkpt lat="46.42266" lon="5.73745">
        <ele>817.79998779297</ele>
        <time>2017-08-06T13:43:35.000Z</time>
      </trkpt>
      <trkpt lat="46.42272" lon="5.7374">
        <ele>818</ele>
        <time>2017-08-06T13:43:40.000Z</time>
      </trkpt>
      <trkpt lat="46.42278" lon="5.73731">
        <ele>819.20001220703</ele>
        <time>2017-08-06T13:43:49.000Z</time>
      </trkpt>
      <trkpt lat="46.4228" lon="5.73727">
        <ele>819.40002441406</ele>
        <time>2017-08-06T13:43:53.000Z</time>
      </trkpt>
      <trkpt lat="46.42281" lon="5.73722">
        <ele>819.79998779297</ele>
        <time>2017-08-06T13:43:57.000Z</time>
      </trkpt>
      <trkpt lat="46.42282" lon="5.73721">
        <ele>820</ele>
        <time>2017-08-06T13:44:00.000Z</time>
      </trkpt>
      <trkpt lat="46.42283" lon="5.7372">
        <ele>820</ele>
        <time>2017-08-06T13:44:03.000Z</time>
      </trkpt>
      <trkpt lat="46.42287" lon="5.73719">
        <ele>820.20001220703</ele>
        <time>2017-08-06T13:44:27.000Z</time>
      </trkpt>
      <trkpt lat="46.42289" lon="5.73717">
        <ele>820.40002441406</ele>
        <time>2017-08-06T13:44:29.000Z</time>
      </trkpt>
      <trkpt lat="46.4229" lon="5.73715">
        <ele>820.40002441406</ele>
        <time>2017-08-06T13:44:30.000Z</time>
      </trkpt>
      <trkpt lat="46.4229" lon="5.73713">
        <ele>820.59997558594</ele>
        <time>2017-08-06T13:44:31.000Z</time>
      </trkpt>
      <trkpt lat="46.42291" lon="5.73708">
        <ele>820.59997558594</ele>
        <time>2017-08-06T13:44:34.000Z</time>
      </trkpt>
      <trkpt lat="46.42293" lon="5.73703">
        <ele>821</ele>
        <time>2017-08-06T13:44:38.000Z</time>
      </trkpt>
      <trkpt lat="46.42295" lon="5.73702">
        <ele>821.59997558594</ele>
        <time>2017-08-06T13:44:44.000Z</time>
      </trkpt>
      <trkpt lat="46.42304" lon="5.73692">
        <ele>822.59997558594</ele>
        <time>2017-08-06T13:45:01.000Z</time>
      </trkpt>
      <trkpt lat="46.42306" lon="5.7369">
        <ele>823.79998779297</ele>
        <time>2017-08-06T13:45:06.000Z</time>
      </trkpt>
      <trkpt lat="46.42308" lon="5.73687">
        <ele>825</ele>
        <time>2017-08-06T13:45:12.000Z</time>
      </trkpt>
      <trkpt lat="46.42312" lon="5.73685">
        <ele>826.20001220703</ele>
        <time>2017-08-06T13:45:18.000Z</time>
      </trkpt>
      <trkpt lat="46.42315" lon="5.73685">
        <ele>827.20001220703</ele>
        <time>2017-08-06T13:45:23.000Z</time>
      </trkpt>
      <trkpt lat="46.42317" lon="5.73683">
        <ele>828.20001220703</ele>
        <time>2017-08-06T13:45:28.000Z</time>
      </trkpt>
      <trkpt lat="46.4232" lon="5.73679">
        <ele>829.40002441406</ele>
        <time>2017-08-06T13:45:33.000Z</time>
      </trkpt>
      <trkpt lat="46.42324" lon="5.73679">
        <ele>830.40002441406</ele>
        <time>2017-08-06T13:45:38.000Z</time>
      </trkpt>
      <trkpt lat="46.42326" lon="5.73676">
        <ele>831.59997558594</ele>
        <time>2017-08-06T13:45:44.000Z</time>
      </trkpt>
      <trkpt lat="46.42328" lon="5.73671">
        <ele>832.59997558594</ele>
        <time>2017-08-06T13:45:49.000Z</time>
      </trkpt>
      <trkpt lat="46.42326" lon="5.73669">
        <ele>833.79998779297</ele>
        <time>2017-08-06T13:45:54.000Z</time>
      </trkpt>
      <trkpt lat="46.42326" lon="5.73666">
        <ele>834.79998779297</ele>
        <time>2017-08-06T13:46:00.000Z</time>
      </trkpt>
      <trkpt lat="46.4233" lon="5.73662">
        <ele>836</ele>
        <time>2017-08-06T13:46:07.000Z</time>
      </trkpt>
      <trkpt lat="46.42334" lon="5.73656">
        <ele>837</ele>
        <time>2017-08-06T13:46:14.000Z</time>
      </trkpt>
      <trkpt lat="46.42338" lon="5.73651">
        <ele>838.20001220703</ele>
        <time>2017-08-06T13:46:19.000Z</time>
      </trkpt>
      <trkpt lat="46.4234" lon="5.73647">
        <ele>839.20001220703</ele>
        <time>2017-08-06T13:46:26.000Z</time>
      </trkpt>
      <trkpt lat="46.42346" lon="5.73642">
        <ele>839.59997558594</ele>
        <time>2017-08-06T13:47:15.000Z</time>
      </trkpt>
      <trkpt lat="46.42349" lon="5.73645">
        <ele>840.20001220703</ele>
        <time>2017-08-06T13:47:38.000Z</time>
      </trkpt>
      <trkpt lat="46.4235" lon="5.73644">
        <ele>841.40002441406</ele>
        <time>2017-08-06T13:47:44.000Z</time>
      </trkpt>
      <trkpt lat="46.42355" lon="5.73644">
        <ele>842.40002441406</ele>
        <time>2017-08-06T13:47:52.000Z</time>
      </trkpt>
      <trkpt lat="46.42357" lon="5.73642">
        <ele>842.40002441406</ele>
        <time>2017-08-06T13:47:54.000Z</time>
      </trkpt>
      <trkpt lat="46.42359" lon="5.7364">
        <ele>843.20001220703</ele>
        <time>2017-08-06T13:47:58.000Z</time>
      </trkpt>
      <trkpt lat="46.4236" lon="5.73638">
        <ele>843.59997558594</ele>
        <time>2017-08-06T13:48:01.000Z</time>
      </trkpt>
      <trkpt lat="46.42361" lon="5.73639">
        <ele>843.59997558594</ele>
        <time>2017-08-06T13:48:03.000Z</time>
      </trkpt>
      <trkpt lat="46.42361" lon="5.7364">
        <ele>844.59997558594</ele>
        <time>2017-08-06T13:48:09.000Z</time>
      </trkpt>
      <trkpt lat="46.42361" lon="5.73644">
        <ele>845.79998779297</ele>
        <time>2017-08-06T13:48:14.000Z</time>
      </trkpt>
      <trkpt lat="46.42367" lon="5.73651">
        <ele>846.79998779297</ele>
        <time>2017-08-06T13:48:28.000Z</time>
      </trkpt>
      <trkpt lat="46.42367" lon="5.73652">
        <ele>848</ele>
        <time>2017-08-06T13:48:34.000Z</time>
      </trkpt>
      <trkpt lat="46.42367" lon="5.7366">
        <ele>847.40002441406</ele>
        <time>2017-08-06T13:49:20.000Z</time>
      </trkpt>
      <trkpt lat="46.42366" lon="5.7366">
        <ele>847</ele>
        <time>2017-08-06T13:49:25.000Z</time>
      </trkpt>
      <trkpt lat="46.42362" lon="5.73657">
        <ele>845.79998779297</ele>
        <time>2017-08-06T13:49:29.000Z</time>
      </trkpt>
      <trkpt lat="46.42357" lon="5.73652">
        <ele>844.59997558594</ele>
        <time>2017-08-06T13:49:36.000Z</time>
      </trkpt>
      <trkpt lat="46.42356" lon="5.73651">
        <ele>843.59997558594</ele>
        <time>2017-08-06T13:49:40.000Z</time>
      </trkpt>
      <trkpt lat="46.42356" lon="5.73655">
        <ele>842.59997558594</ele>
        <time>2017-08-06T13:49:48.000Z</time>
      </trkpt>
      <trkpt lat="46.42353" lon="5.73654">
        <ele>841.59997558594</ele>
        <time>2017-08-06T13:49:53.000Z</time>
      </trkpt>
      <trkpt lat="46.4235" lon="5.73654">
        <ele>840.40002441406</ele>
        <time>2017-08-06T13:49:56.000Z</time>
      </trkpt>
      <trkpt lat="46.42346" lon="5.73655">
        <ele>839.40002441406</ele>
        <time>2017-08-06T13:50:01.000Z</time>
      </trkpt>
      <trkpt lat="46.42341" lon="5.73657">
        <ele>838.20001220703</ele>
        <time>2017-08-06T13:50:09.000Z</time>
      </trkpt>
      <trkpt lat="46.42339" lon="5.73657">
        <ele>838</ele>
        <time>2017-08-06T13:50:14.000Z</time>
      </trkpt>
      <trkpt lat="46.42341" lon="5.73647">
        <ele>839.59997558594</ele>
        <time>2017-08-06T13:50:27.000Z</time>
      </trkpt>
      <trkpt lat="46.42344" lon="5.73643">
        <ele>839.79998779297</ele>
        <time>2017-08-06T13:50:31.000Z</time>
      </trkpt>
      <trkpt lat="46.42346" lon="5.7364">
        <ele>840.40002441406</ele>
        <time>2017-08-06T13:50:34.000Z</time>
      </trkpt>
      <trkpt lat="46.42346" lon="5.7364">
        <ele>840.59997558594</ele>
        <time>2017-08-06T13:50:35.000Z</time>
      </trkpt>
      <trkpt lat="46.42348" lon="5.73637">
        <ele>841.79998779297</ele>
        <time>2017-08-06T13:50:41.000Z</time>
      </trkpt>
      <trkpt lat="46.42353" lon="5.73637">
        <ele>842.79998779297</ele>
        <time>2017-08-06T13:50:46.000Z</time>
      </trkpt>
      <trkpt lat="46.4236" lon="5.73629">
        <ele>842.20001220703</ele>
        <time>2017-08-06T13:51:56.000Z</time>
      </trkpt>
      <trkpt lat="46.42353" lon="5.73628">
        <ele>843.79998779297</ele>
        <time>2017-08-06T13:52:21.000Z</time>
      </trkpt>
      <trkpt lat="46.42358" lon="5.73626">
        <ele>844.40002441406</ele>
        <time>2017-08-06T13:52:26.000Z</time>
      </trkpt>
      <trkpt lat="46.42362" lon="5.73624">
        <ele>845</ele>
        <time>2017-08-06T13:52:30.000Z</time>
      </trkpt>
      <trkpt lat="46.42365" lon="5.73621">
        <ele>846</ele>
        <time>2017-08-06T13:52:35.000Z</time>
      </trkpt>
      <trkpt lat="46.4237" lon="5.73614">
        <ele>847</ele>
        <time>2017-08-06T13:52:49.000Z</time>
      </trkpt>
      <trkpt lat="46.4237" lon="5.73615">
        <ele>848.20001220703</ele>
        <time>2017-08-06T13:52:53.000Z</time>
      </trkpt>
      <trkpt lat="46.4237" lon="5.73616">
        <ele>849.20001220703</ele>
        <time>2017-08-06T13:53:00.000Z</time>
      </trkpt>
      <trkpt lat="46.42373" lon="5.73615">
        <ele>850.40002441406</ele>
        <time>2017-08-06T13:53:05.000Z</time>
      </trkpt>
      <trkpt lat="46.42374" lon="5.73614">
        <ele>851.40002441406</ele>
        <time>2017-08-06T13:53:11.000Z</time>
      </trkpt>
      <trkpt lat="46.42376" lon="5.73609">
        <ele>852.40002441406</ele>
        <time>2017-08-06T13:53:19.000Z</time>
      </trkpt>
      <trkpt lat="46.42378" lon="5.7361">
        <ele>853.59997558594</ele>
        <time>2017-08-06T13:53:23.000Z</time>
      </trkpt>
      <trkpt lat="46.42383" lon="5.73608">
        <ele>854.79998779297</ele>
        <time>2017-08-06T13:53:30.000Z</time>
      </trkpt>
      <trkpt lat="46.42386" lon="5.73604">
        <ele>855.79998779297</ele>
        <time>2017-08-06T13:53:35.000Z</time>
      </trkpt>
      <trkpt lat="46.42389" lon="5.73604">
        <ele>856.79998779297</ele>
        <time>2017-08-06T13:53:41.000Z</time>
      </trkpt>
      <trkpt lat="46.42391" lon="5.73604">
        <ele>857.79998779297</ele>
        <time>2017-08-06T13:53:55.000Z</time>
      </trkpt>
      <trkpt lat="46.42395" lon="5.736">
        <ele>858.79998779297</ele>
        <time>2017-08-06T13:54:04.000Z</time>
      </trkpt>
      <trkpt lat="46.42396" lon="5.73598">
        <ele>860</ele>
        <time>2017-08-06T13:54:08.000Z</time>
      </trkpt>
      <trkpt lat="46.42397" lon="5.73592">
        <ele>861.20001220703</ele>
        <time>2017-08-06T13:54:12.000Z</time>
      </trkpt>
      <trkpt lat="46.42397" lon="5.7359">
        <ele>861.59997558594</ele>
        <time>2017-08-06T13:54:14.000Z</time>
      </trkpt>
      <trkpt lat="46.42398" lon="5.73589">
        <ele>862.40002441406</ele>
        <time>2017-08-06T13:54:17.000Z</time>
      </trkpt>
      <trkpt lat="46.42398" lon="5.73587">
        <ele>863.40002441406</ele>
        <time>2017-08-06T13:54:22.000Z</time>
      </trkpt>
      <trkpt lat="46.42398" lon="5.73587">
        <ele>863.59997558594</ele>
        <time>2017-08-06T13:54:24.000Z</time>
      </trkpt>
      <trkpt lat="46.42398" lon="5.73587">
        <ele>863.59997558594</ele>
        <time>2017-08-06T13:54:27.000Z</time>
      </trkpt>
      <trkpt lat="46.42402" lon="5.73587">
        <ele>863.79998779297</ele>
        <time>2017-08-06T13:54:48.000Z</time>
      </trkpt>
      <trkpt lat="46.42405" lon="5.73585">
        <ele>864.40002441406</ele>
        <time>2017-08-06T13:54:53.000Z</time>
      </trkpt>
      <trkpt lat="46.42404" lon="5.73585">
        <ele>864.40002441406</ele>
        <time>2017-08-06T13:54:54.000Z</time>
      </trkpt>
      <trkpt lat="46.42404" lon="5.73584">
        <ele>864.59997558594</ele>
        <time>2017-08-06T13:54:55.000Z</time>
      </trkpt>
      <trkpt lat="46.42407" lon="5.73581">
        <ele>865.40002441406</ele>
        <time>2017-08-06T13:55:12.000Z</time>
      </trkpt>
      <trkpt lat="46.42407" lon="5.73581">
        <ele>865.59997558594</ele>
        <time>2017-08-06T13:55:13.000Z</time>
      </trkpt>
      <trkpt lat="46.42409" lon="5.7358">
        <ele>866.59997558594</ele>
        <time>2017-08-06T13:55:17.000Z</time>
      </trkpt>
      <trkpt lat="46.42417" lon="5.73579">
        <ele>867.59997558594</ele>
        <time>2017-08-06T13:55:25.000Z</time>
      </trkpt>
      <trkpt lat="46.42419" lon="5.73581">
        <ele>868.20001220703</ele>
        <time>2017-08-06T13:55:28.000Z</time>
      </trkpt>
      <trkpt lat="46.4242" lon="5.73581">
        <ele>868.59997558594</ele>
        <time>2017-08-06T13:55:30.000Z</time>
      </trkpt>
      <trkpt lat="46.42421" lon="5.73581">
        <ele>868.79998779297</ele>
        <time>2017-08-06T13:55:31.000Z</time>
      </trkpt>
      <trkpt lat="46.42419" lon="5.7358">
        <ele>869</ele>
        <time>2017-08-06T13:55:33.000Z</time>
      </trkpt>
      <trkpt lat="46.42422" lon="5.73579">
        <ele>869.79998779297</ele>
        <time>2017-08-06T13:55:39.000Z</time>
      </trkpt>
      <trkpt lat="46.42427" lon="5.73569">
        <ele>870.59997558594</ele>
        <time>2017-08-06T13:55:56.000Z</time>
      </trkpt>
      <trkpt lat="46.42427" lon="5.73568">
        <ele>871</ele>
        <time>2017-08-06T13:55:58.000Z</time>
      </trkpt>
      <trkpt lat="46.42431" lon="5.73568">
        <ele>872</ele>
        <time>2017-08-06T13:56:07.000Z</time>
      </trkpt>
      <trkpt lat="46.42442" lon="5.73562">
        <ele>873.20001220703</ele>
        <time>2017-08-06T13:56:29.000Z</time>
      </trkpt>
      <trkpt lat="46.4244" lon="5.73559">
        <ele>874.40002441406</ele>
        <time>2017-08-06T13:56:35.000Z</time>
      </trkpt>
      <trkpt lat="46.4244" lon="5.73556">
        <ele>875.40002441406</ele>
        <time>2017-08-06T13:56:41.000Z</time>
      </trkpt>
      <trkpt lat="46.42442" lon="5.7355">
        <ele>876.59997558594</ele>
        <time>2017-08-06T13:56:46.000Z</time>
      </trkpt>
      <trkpt lat="46.42446" lon="5.73544">
        <ele>877.59997558594</ele>
        <time>2017-08-06T13:56:54.000Z</time>
      </trkpt>
      <trkpt lat="46.42445" lon="5.73542">
        <ele>878.59997558594</ele>
        <time>2017-08-06T13:57:03.000Z</time>
      </trkpt>
      <trkpt lat="46.42448" lon="5.73543">
        <ele>877.59997558594</ele>
        <time>2017-08-06T13:57:23.000Z</time>
      </trkpt>
      <trkpt lat="46.42446" lon="5.73548">
        <ele>877.79998779297</ele>
        <time>2017-08-06T13:57:50.000Z</time>
      </trkpt>
      <trkpt lat="46.4244" lon="5.73546">
        <ele>878.20001220703</ele>
        <time>2017-08-06T13:58:07.000Z</time>
      </trkpt>
      <trkpt lat="46.42444" lon="5.73547">
        <ele>878</ele>
        <time>2017-08-06T13:59:13.000Z</time>
      </trkpt>
      <trkpt lat="46.4245" lon="5.73529">
        <ele>878</ele>
        <time>2017-08-06T14:00:14.000Z</time>
      </trkpt>
      <trkpt lat="46.42451" lon="5.73529">
        <ele>883.20001220703</ele>
        <time>2017-08-06T14:00:15.000Z</time>
      </trkpt>
      <trkpt lat="46.42455" lon="5.73527">
        <ele>884.40002441406</ele>
        <time>2017-08-06T14:00:31.000Z</time>
      </trkpt>
      <trkpt lat="46.4246" lon="5.73521">
        <ele>885.40002441406</ele>
        <time>2017-08-06T14:00:44.000Z</time>
      </trkpt>
      <trkpt lat="46.42464" lon="5.73517">
        <ele>886.40002441406</ele>
        <time>2017-08-06T14:01:46.000Z</time>
      </trkpt>
      <trkpt lat="46.42462" lon="5.73521">
        <ele>885.40002441406</ele>
        <time>2017-08-06T14:02:07.000Z</time>
      </trkpt>
      <trkpt lat="46.42462" lon="5.73526">
        <ele>884.20001220703</ele>
        <time>2017-08-06T14:02:13.000Z</time>
      </trkpt>
      <trkpt lat="46.42462" lon="5.73529">
        <ele>883.40002441406</ele>
        <time>2017-08-06T14:02:53.000Z</time>
      </trkpt>
      <trkpt lat="46.4246" lon="5.73532">
        <ele>883.20001220703</ele>
        <time>2017-08-06T14:02:58.000Z</time>
      </trkpt>
      <trkpt lat="46.4247" lon="5.7354">
        <ele>883.59997558594</ele>
        <time>2017-08-06T14:03:51.000Z</time>
      </trkpt>
      <trkpt lat="46.4247" lon="5.73538">
        <ele>884.20001220703</ele>
        <time>2017-08-06T14:03:56.000Z</time>
      </trkpt>
      <trkpt lat="46.42478" lon="5.7354">
        <ele>883.20001220703</ele>
        <time>2017-08-06T14:04:21.000Z</time>
      </trkpt>
      <trkpt lat="46.42479" lon="5.73541">
        <ele>882.59997558594</ele>
        <time>2017-08-06T14:04:24.000Z</time>
      </trkpt>
      <trkpt lat="46.4248" lon="5.73542">
        <ele>882.20001220703</ele>
        <time>2017-08-06T14:04:28.000Z</time>
      </trkpt>
      <trkpt lat="46.42483" lon="5.73549">
        <ele>881.20001220703</ele>
        <time>2017-08-06T14:04:37.000Z</time>
      </trkpt>
      <trkpt lat="46.42483" lon="5.73549">
        <ele>881</ele>
        <time>2017-08-06T14:04:38.000Z</time>
      </trkpt>
      <trkpt lat="46.42478" lon="5.73552">
        <ele>879.79998779297</ele>
        <time>2017-08-06T14:05:00.000Z</time>
      </trkpt>
      <trkpt lat="46.42476" lon="5.73555">
        <ele>878.79998779297</ele>
        <time>2017-08-06T14:05:04.000Z</time>
      </trkpt>
      <trkpt lat="46.42469" lon="5.7357">
        <ele>877.79998779297</ele>
        <time>2017-08-06T14:05:41.000Z</time>
      </trkpt>
      <trkpt lat="46.42473" lon="5.73561">
        <ele>878.79998779297</ele>
        <time>2017-08-06T14:06:13.000Z</time>
      </trkpt>
      <trkpt lat="46.4248" lon="5.7356">
        <ele>878.79998779297</ele>
        <time>2017-08-06T14:06:32.000Z</time>
      </trkpt>
      <trkpt lat="46.42482" lon="5.7356">
        <ele>878.59997558594</ele>
        <time>2017-08-06T14:06:35.000Z</time>
      </trkpt>
      <trkpt lat="46.42483" lon="5.73561">
        <ele>878.59997558594</ele>
        <time>2017-08-06T14:06:37.000Z</time>
      </trkpt>
      <trkpt lat="46.42486" lon="5.73564">
        <ele>878.40002441406</ele>
        <time>2017-08-06T14:07:08.000Z</time>
      </trkpt>
      <trkpt lat="46.42492" lon="5.73561">
        <ele>879.40002441406</ele>
        <time>2017-08-06T14:07:14.000Z</time>
      </trkpt>
      <trkpt lat="46.42492" lon="5.7356">
        <ele>879.59997558594</ele>
        <time>2017-08-06T14:07:15.000Z</time>
      </trkpt>
      <trkpt lat="46.42493" lon="5.73559">
        <ele>879.79998779297</ele>
        <time>2017-08-06T14:07:16.000Z</time>
      </trkpt>
      <trkpt lat="46.42494" lon="5.73556">
        <ele>880</ele>
        <time>2017-08-06T14:07:20.000Z</time>
      </trkpt>
      <trkpt lat="46.42495" lon="5.73556">
        <ele>879.79998779297</ele>
        <time>2017-08-06T14:07:24.000Z</time>
      </trkpt>
      <trkpt lat="46.42494" lon="5.73557">
        <ele>880</ele>
        <time>2017-08-06T14:07:31.000Z</time>
      </trkpt>
      <trkpt lat="46.42491" lon="5.73556">
        <ele>880</ele>
        <time>2017-08-06T14:07:35.000Z</time>
      </trkpt>
      <trkpt lat="46.42489" lon="5.73556">
        <ele>880</ele>
        <time>2017-08-06T14:07:36.000Z</time>
      </trkpt>
      <trkpt lat="46.42487" lon="5.73555">
        <ele>880.40002441406</ele>
        <time>2017-08-06T14:07:40.000Z</time>
      </trkpt>
      <trkpt lat="46.4249" lon="5.73554">
        <ele>880.59997558594</ele>
        <time>2017-08-06T14:07:42.000Z</time>
      </trkpt>
      <trkpt lat="46.42491" lon="5.73553">
        <ele>880.59997558594</ele>
        <time>2017-08-06T14:07:44.000Z</time>
      </trkpt>
      <trkpt lat="46.42491" lon="5.73553">
        <ele>880.40002441406</ele>
        <time>2017-08-06T14:07:46.000Z</time>
      </trkpt>
      <trkpt lat="46.4249" lon="5.73557">
        <ele>880.20001220703</ele>
        <time>2017-08-06T14:07:51.000Z</time>
      </trkpt>
      <trkpt lat="46.42491" lon="5.73558">
        <ele>880</ele>
        <time>2017-08-06T14:07:57.000Z</time>
      </trkpt>
      <trkpt lat="46.42487" lon="5.73545">
        <ele>880.59997558594</ele>
        <time>2017-08-06T14:08:37.000Z</time>
      </trkpt>
      <trkpt lat="46.42489" lon="5.73536">
        <ele>880.79998779297</ele>
        <time>2017-08-06T14:08:43.000Z</time>
      </trkpt>
      <trkpt lat="46.42491" lon="5.73531">
        <ele>881</ele>
        <time>2017-08-06T14:08:46.000Z</time>
      </trkpt>
      <trkpt lat="46.42491" lon="5.73526">
        <ele>881.20001220703</ele>
        <time>2017-08-06T14:08:49.000Z</time>
      </trkpt>
      <trkpt lat="46.42495" lon="5.73524">
        <ele>881.40002441406</ele>
        <time>2017-08-06T14:08:53.000Z</time>
      </trkpt>
      <trkpt lat="46.42495" lon="5.73519">
        <ele>881.79998779297</ele>
        <time>2017-08-06T14:08:57.000Z</time>
      </trkpt>
      <trkpt lat="46.42495" lon="5.73518">
        <ele>882</ele>
        <time>2017-08-06T14:08:58.000Z</time>
      </trkpt>
      <trkpt lat="46.42495" lon="5.73517">
        <ele>882.20001220703</ele>
        <time>2017-08-06T14:08:59.000Z</time>
      </trkpt>
      <trkpt lat="46.42497" lon="5.73515">
        <ele>882.40002441406</ele>
        <time>2017-08-06T14:09:03.000Z</time>
      </trkpt>
      <trkpt lat="46.42497" lon="5.7351">
        <ele>882.20001220703</ele>
        <time>2017-08-06T14:09:08.000Z</time>
      </trkpt>
      <trkpt lat="46.42495" lon="5.73502">
        <ele>882.40002441406</ele>
        <time>2017-08-06T14:09:12.000Z</time>
      </trkpt>
      <trkpt lat="46.42501" lon="5.73497">
        <ele>882.40002441406</ele>
        <time>2017-08-06T14:09:29.000Z</time>
      </trkpt>
      <trkpt lat="46.42501" lon="5.73498">
        <ele>882.40002441406</ele>
        <time>2017-08-06T14:09:33.000Z</time>
      </trkpt>
      <trkpt lat="46.42501" lon="5.73497">
        <ele>882.59997558594</ele>
        <time>2017-08-06T14:09:35.000Z</time>
      </trkpt>
      <trkpt lat="46.42498" lon="5.73497">
        <ele>883</ele>
        <time>2017-08-06T14:09:44.000Z</time>
      </trkpt>
      <trkpt lat="46.42501" lon="5.73492">
        <ele>883</ele>
        <time>2017-08-06T14:09:52.000Z</time>
      </trkpt>
      <trkpt lat="46.42502" lon="5.73492">
        <ele>883.20001220703</ele>
        <time>2017-08-06T14:09:54.000Z</time>
      </trkpt>
      <trkpt lat="46.42504" lon="5.7349">
        <ele>884</ele>
        <time>2017-08-06T14:09:59.000Z</time>
      </trkpt>
      <trkpt lat="46.42513" lon="5.7349">
        <ele>885</ele>
        <time>2017-08-06T14:10:27.000Z</time>
      </trkpt>
      <trkpt lat="46.42513" lon="5.73489">
        <ele>885.20001220703</ele>
        <time>2017-08-06T14:10:28.000Z</time>
      </trkpt>
      <trkpt lat="46.42523" lon="5.73477">
        <ele>886.20001220703</ele>
        <time>2017-08-06T14:10:38.000Z</time>
      </trkpt>
      <trkpt lat="46.42528" lon="5.73476">
        <ele>887.20001220703</ele>
        <time>2017-08-06T14:10:43.000Z</time>
      </trkpt>
      <trkpt lat="46.42529" lon="5.73476">
        <ele>887.40002441406</ele>
        <time>2017-08-06T14:10:44.000Z</time>
      </trkpt>
      <trkpt lat="46.42533" lon="5.73474">
        <ele>887.79998779297</ele>
        <time>2017-08-06T14:10:48.000Z</time>
      </trkpt>
      <trkpt lat="46.4254" lon="5.73473">
        <ele>888</ele>
        <time>2017-08-06T14:10:53.000Z</time>
      </trkpt>
      <trkpt lat="46.42542" lon="5.73472">
        <ele>888.40002441406</ele>
        <time>2017-08-06T14:10:58.000Z</time>
      </trkpt>
      <trkpt lat="46.42545" lon="5.73474">
        <ele>888.79998779297</ele>
        <time>2017-08-06T14:11:01.000Z</time>
      </trkpt>
      <trkpt lat="46.42551" lon="5.73475">
        <ele>889.40002441406</ele>
        <time>2017-08-06T14:11:07.000Z</time>
      </trkpt>
      <trkpt lat="46.42551" lon="5.73475">
        <ele>889.40002441406</ele>
        <time>2017-08-06T14:11:08.000Z</time>
      </trkpt>
      <trkpt lat="46.42552" lon="5.73477">
        <ele>889.79998779297</ele>
        <time>2017-08-06T14:11:12.000Z</time>
      </trkpt>
      <trkpt lat="46.42555" lon="5.73473">
        <ele>890.20001220703</ele>
        <time>2017-08-06T14:11:15.000Z</time>
      </trkpt>
      <trkpt lat="46.42557" lon="5.73474">
        <ele>890.20001220703</ele>
        <time>2017-08-06T14:11:17.000Z</time>
      </trkpt>
      <trkpt lat="46.42561" lon="5.73474">
        <ele>890.59997558594</ele>
        <time>2017-08-06T14:11:19.000Z</time>
      </trkpt>
      <trkpt lat="46.42562" lon="5.73475">
        <ele>890.79998779297</ele>
        <time>2017-08-06T14:11:21.000Z</time>
      </trkpt>
      <trkpt lat="46.42567" lon="5.73471">
        <ele>891.20001220703</ele>
        <time>2017-08-06T14:11:28.000Z</time>
      </trkpt>
      <trkpt lat="46.4257" lon="5.7347">
        <ele>891.59997558594</ele>
        <time>2017-08-06T14:11:30.000Z</time>
      </trkpt>
      <trkpt lat="46.42571" lon="5.7347">
        <ele>891.59997558594</ele>
        <time>2017-08-06T14:11:31.000Z</time>
      </trkpt>
      <trkpt lat="46.42572" lon="5.7347">
        <ele>891.59997558594</ele>
        <time>2017-08-06T14:11:32.000Z</time>
      </trkpt>
      <trkpt lat="46.42574" lon="5.73472">
        <ele>892.20001220703</ele>
        <time>2017-08-06T14:11:36.000Z</time>
      </trkpt>
      <trkpt lat="46.42577" lon="5.73473">
        <ele>892.59997558594</ele>
        <time>2017-08-06T14:11:39.000Z</time>
      </trkpt>
      <trkpt lat="46.4258" lon="5.73473">
        <ele>893.40002441406</ele>
        <time>2017-08-06T14:11:43.000Z</time>
      </trkpt>
      <trkpt lat="46.42581" lon="5.73473">
        <ele>893.79998779297</ele>
        <time>2017-08-06T14:11:44.000Z</time>
      </trkpt>
      <trkpt lat="46.42581" lon="5.73474">
        <ele>894</ele>
        <time>2017-08-06T14:11:45.000Z</time>
      </trkpt>
      <trkpt lat="46.42584" lon="5.73475">
        <ele>895</ele>
        <time>2017-08-06T14:11:48.000Z</time>
      </trkpt>
      <trkpt lat="46.42589" lon="5.73477">
        <ele>896</ele>
        <time>2017-08-06T14:11:52.000Z</time>
      </trkpt>
      <trkpt lat="46.42592" lon="5.73479">
        <ele>897.20001220703</ele>
        <time>2017-08-06T14:11:56.000Z</time>
      </trkpt>
      <trkpt lat="46.42594" lon="5.7348">
        <ele>897.59997558594</ele>
        <time>2017-08-06T14:11:58.000Z</time>
      </trkpt>
      <trkpt lat="46.42598" lon="5.73476">
        <ele>898.20001220703</ele>
        <time>2017-08-06T14:12:06.000Z</time>
      </trkpt>
      <trkpt lat="46.426" lon="5.73474">
        <ele>898.20001220703</ele>
        <time>2017-08-06T14:12:09.000Z</time>
      </trkpt>
      <trkpt lat="46.42605" lon="5.7347">
        <ele>898.59997558594</ele>
        <time>2017-08-06T14:12:15.000Z</time>
      </trkpt>
      <trkpt lat="46.42606" lon="5.73468">
        <ele>898.59997558594</ele>
        <time>2017-08-06T14:12:17.000Z</time>
      </trkpt>
      <trkpt lat="46.42607" lon="5.73466">
        <ele>898.79998779297</ele>
        <time>2017-08-06T14:12:19.000Z</time>
      </trkpt>
      <trkpt lat="46.42605" lon="5.73462">
        <ele>899</ele>
        <time>2017-08-06T14:12:21.000Z</time>
      </trkpt>
      <trkpt lat="46.42606" lon="5.73462">
        <ele>899</ele>
        <time>2017-08-06T14:12:25.000Z</time>
      </trkpt>
      <trkpt lat="46.42607" lon="5.73458">
        <ele>899</ele>
        <time>2017-08-06T14:12:29.000Z</time>
      </trkpt>
      <trkpt lat="46.42607" lon="5.73456">
        <ele>899.40002441406</ele>
        <time>2017-08-06T14:12:32.000Z</time>
      </trkpt>
      <trkpt lat="46.42609" lon="5.73455">
        <ele>899.40002441406</ele>
        <time>2017-08-06T14:12:34.000Z</time>
      </trkpt>
      <trkpt lat="46.42613" lon="5.73451">
        <ele>900</ele>
        <time>2017-08-06T14:12:39.000Z</time>
      </trkpt>
      <trkpt lat="46.42616" lon="5.7345">
        <ele>900.40002441406</ele>
        <time>2017-08-06T14:12:41.000Z</time>
      </trkpt>
      <trkpt lat="46.42621" lon="5.73451">
        <ele>901.40002441406</ele>
        <time>2017-08-06T14:12:47.000Z</time>
      </trkpt>
      <trkpt lat="46.42624" lon="5.73449">
        <ele>901.59997558594</ele>
        <time>2017-08-06T14:12:49.000Z</time>
      </trkpt>
      <trkpt lat="46.42629" lon="5.73446">
        <ele>901.59997558594</ele>
        <time>2017-08-06T14:12:53.000Z</time>
      </trkpt>
      <trkpt lat="46.42631" lon="5.73443">
        <ele>902</ele>
        <time>2017-08-06T14:12:56.000Z</time>
      </trkpt>
      <trkpt lat="46.42633" lon="5.7344">
        <ele>902.40002441406</ele>
        <time>2017-08-06T14:12:59.000Z</time>
      </trkpt>
      <trkpt lat="46.42634" lon="5.73438">
        <ele>903</ele>
        <time>2017-08-06T14:13:01.000Z</time>
      </trkpt>
      <trkpt lat="46.42635" lon="5.73436">
        <ele>903.40002441406</ele>
        <time>2017-08-06T14:13:03.000Z</time>
      </trkpt>
      <trkpt lat="46.42635" lon="5.73434">
        <ele>903.79998779297</ele>
        <time>2017-08-06T14:13:05.000Z</time>
      </trkpt>
      <trkpt lat="46.42639" lon="5.73431">
        <ele>904.40002441406</ele>
        <time>2017-08-06T14:13:11.000Z</time>
      </trkpt>
      <trkpt lat="46.4264" lon="5.73429">
        <ele>904.40002441406</ele>
        <time>2017-08-06T14:13:12.000Z</time>
      </trkpt>
      <trkpt lat="46.42641" lon="5.73428">
        <ele>904.59997558594</ele>
        <time>2017-08-06T14:13:13.000Z</time>
      </trkpt>
      <trkpt lat="46.42641" lon="5.73422">
        <ele>905.40002441406</ele>
        <time>2017-08-06T14:13:16.000Z</time>
      </trkpt>
      <trkpt lat="46.4264" lon="5.73419">
        <ele>905.59997558594</ele>
        <time>2017-08-06T14:13:17.000Z</time>
      </trkpt>
      <trkpt lat="46.42645" lon="5.73418">
        <ele>906</ele>
        <time>2017-08-06T14:13:19.000Z</time>
      </trkpt>
      <trkpt lat="46.42648" lon="5.73417">
        <ele>906.40002441406</ele>
        <time>2017-08-06T14:13:21.000Z</time>
      </trkpt>
      <trkpt lat="46.42649" lon="5.73418">
        <ele>906.59997558594</ele>
        <time>2017-08-06T14:13:22.000Z</time>
      </trkpt>
      <trkpt lat="46.4265" lon="5.73418">
        <ele>907</ele>
        <time>2017-08-06T14:13:23.000Z</time>
      </trkpt>
      <trkpt lat="46.4265" lon="5.73419">
        <ele>907.79998779297</ele>
        <time>2017-08-06T14:13:26.000Z</time>
      </trkpt>
      <trkpt lat="46.42654" lon="5.73421">
        <ele>908.79998779297</ele>
        <time>2017-08-06T14:13:31.000Z</time>
      </trkpt>
      <trkpt lat="46.42654" lon="5.73422">
        <ele>909.20001220703</ele>
        <time>2017-08-06T14:13:32.000Z</time>
      </trkpt>
      <trkpt lat="46.42655" lon="5.73423">
        <ele>909.79998779297</ele>
        <time>2017-08-06T14:13:35.000Z</time>
      </trkpt>
      <trkpt lat="46.42656" lon="5.73424">
        <ele>910.20001220703</ele>
        <time>2017-08-06T14:13:36.000Z</time>
      </trkpt>
      <trkpt lat="46.4266" lon="5.73424">
        <ele>911.20001220703</ele>
        <time>2017-08-06T14:13:40.000Z</time>
      </trkpt>
      <trkpt lat="46.42661" lon="5.73424">
        <ele>911.79998779297</ele>
        <time>2017-08-06T14:13:42.000Z</time>
      </trkpt>
      <trkpt lat="46.42663" lon="5.73426">
        <ele>912.40002441406</ele>
        <time>2017-08-06T14:13:44.000Z</time>
      </trkpt>
      <trkpt lat="46.42664" lon="5.73426">
        <ele>912.79998779297</ele>
        <time>2017-08-06T14:13:45.000Z</time>
      </trkpt>
      <trkpt lat="46.42666" lon="5.73428">
        <ele>913.59997558594</ele>
        <time>2017-08-06T14:13:48.000Z</time>
      </trkpt>
      <trkpt lat="46.42665" lon="5.73429">
        <ele>914</ele>
        <time>2017-08-06T14:13:50.000Z</time>
      </trkpt>
      <trkpt lat="46.42667" lon="5.7343">
        <ele>914.59997558594</ele>
        <time>2017-08-06T14:13:52.000Z</time>
      </trkpt>
      <trkpt lat="46.42668" lon="5.7343">
        <ele>915.20001220703</ele>
        <time>2017-08-06T14:13:54.000Z</time>
      </trkpt>
      <trkpt lat="46.4267" lon="5.73431">
        <ele>915.79998779297</ele>
        <time>2017-08-06T14:13:56.000Z</time>
      </trkpt>
      <trkpt lat="46.42672" lon="5.73433">
        <ele>916.20001220703</ele>
        <time>2017-08-06T14:13:58.000Z</time>
      </trkpt>
      <trkpt lat="46.42676" lon="5.73435">
        <ele>916.79998779297</ele>
        <time>2017-08-06T14:14:11.000Z</time>
      </trkpt>
      <trkpt lat="46.42678" lon="5.73436">
        <ele>918</ele>
        <time>2017-08-06T14:14:16.000Z</time>
      </trkpt>
      <trkpt lat="46.4268" lon="5.7344">
        <ele>919.20001220703</ele>
        <time>2017-08-06T14:14:20.000Z</time>
      </trkpt>
      <trkpt lat="46.42686" lon="5.73447">
        <ele>920.20001220703</ele>
        <time>2017-08-06T14:14:28.000Z</time>
      </trkpt>
      <trkpt lat="46.42693" lon="5.73461">
        <ele>921.20001220703</ele>
        <time>2017-08-06T14:14:38.000Z</time>
      </trkpt>
      <trkpt lat="46.42693" lon="5.73464">
        <ele>921.59997558594</ele>
        <time>2017-08-06T14:14:40.000Z</time>
      </trkpt>
      <trkpt lat="46.42693" lon="5.73467">
        <ele>922</ele>
        <time>2017-08-06T14:14:43.000Z</time>
      </trkpt>
      <trkpt lat="46.42692" lon="5.7347">
        <ele>921.79998779297</ele>
        <time>2017-08-06T14:14:47.000Z</time>
      </trkpt>
      <trkpt lat="46.42691" lon="5.73471">
        <ele>921.79998779297</ele>
        <time>2017-08-06T14:14:48.000Z</time>
      </trkpt>
      <trkpt lat="46.42689" lon="5.73477">
        <ele>921.59997558594</ele>
        <time>2017-08-06T14:14:52.000Z</time>
      </trkpt>
      <trkpt lat="46.42688" lon="5.73482">
        <ele>921.40002441406</ele>
        <time>2017-08-06T14:14:56.000Z</time>
      </trkpt>
      <trkpt lat="46.42689" lon="5.73486">
        <ele>921.40002441406</ele>
        <time>2017-08-06T14:14:59.000Z</time>
      </trkpt>
      <trkpt lat="46.4269" lon="5.7349">
        <ele>921.20001220703</ele>
        <time>2017-08-06T14:15:02.000Z</time>
      </trkpt>
      <trkpt lat="46.42691" lon="5.73492">
        <ele>921.40002441406</ele>
        <time>2017-08-06T14:15:04.000Z</time>
      </trkpt>
      <trkpt lat="46.42694" lon="5.73495">
        <ele>922</ele>
        <time>2017-08-06T14:15:09.000Z</time>
      </trkpt>
      <trkpt lat="46.42697" lon="5.73494">
        <ele>922.20001220703</ele>
        <time>2017-08-06T14:15:11.000Z</time>
      </trkpt>
      <trkpt lat="46.42698" lon="5.73493">
        <ele>922.40002441406</ele>
        <time>2017-08-06T14:15:12.000Z</time>
      </trkpt>
      <trkpt lat="46.42699" lon="5.73492">
        <ele>922.79998779297</ele>
        <time>2017-08-06T14:15:14.000Z</time>
      </trkpt>
      <trkpt lat="46.42701" lon="5.73492">
        <ele>923.20001220703</ele>
        <time>2017-08-06T14:15:17.000Z</time>
      </trkpt>
      <trkpt lat="46.42702" lon="5.73492">
        <ele>923.40002441406</ele>
        <time>2017-08-06T14:15:18.000Z</time>
      </trkpt>
      <trkpt lat="46.42704" lon="5.7349">
        <ele>923.79998779297</ele>
        <time>2017-08-06T14:15:20.000Z</time>
      </trkpt>
      <trkpt lat="46.42704" lon="5.73488">
        <ele>924</ele>
        <time>2017-08-06T14:15:22.000Z</time>
      </trkpt>
      <trkpt lat="46.42706" lon="5.73487">
        <ele>924.59997558594</ele>
        <time>2017-08-06T14:15:25.000Z</time>
      </trkpt>
      <trkpt lat="46.42706" lon="5.73486">
        <ele>924.79998779297</ele>
        <time>2017-08-06T14:15:26.000Z</time>
      </trkpt>
      <trkpt lat="46.4271" lon="5.73481">
        <ele>925.40002441406</ele>
        <time>2017-08-06T14:15:31.000Z</time>
      </trkpt>
      <trkpt lat="46.4271" lon="5.73477">
        <ele>925.59997558594</ele>
        <time>2017-08-06T14:15:33.000Z</time>
      </trkpt>
      <trkpt lat="46.42712" lon="5.73471">
        <ele>925.40002441406</ele>
        <time>2017-08-06T14:15:39.000Z</time>
      </trkpt>
      <trkpt lat="46.42716" lon="5.73469">
        <ele>925.20001220703</ele>
        <time>2017-08-06T14:15:45.000Z</time>
      </trkpt>
      <trkpt lat="46.42717" lon="5.73468">
        <ele>925.20001220703</ele>
        <time>2017-08-06T14:15:46.000Z</time>
      </trkpt>
      <trkpt lat="46.42719" lon="5.73467">
        <ele>925</ele>
        <time>2017-08-06T14:15:50.000Z</time>
      </trkpt>
      <trkpt lat="46.42719" lon="5.73464">
        <ele>925</ele>
        <time>2017-08-06T14:16:47.000Z</time>
      </trkpt>
      <trkpt lat="46.42724" lon="5.73471">
        <ele>925.40002441406</ele>
        <time>2017-08-06T14:17:24.000Z</time>
      </trkpt>
      <trkpt lat="46.42726" lon="5.73473">
        <ele>925.20001220703</ele>
        <time>2017-08-06T14:17:26.000Z</time>
      </trkpt>
      <trkpt lat="46.42728" lon="5.73474">
        <ele>924.79998779297</ele>
        <time>2017-08-06T14:17:28.000Z</time>
      </trkpt>
      <trkpt lat="46.4273" lon="5.73473">
        <ele>924.59997558594</ele>
        <time>2017-08-06T14:17:35.000Z</time>
      </trkpt>
      <trkpt lat="46.42737" lon="5.73462">
        <ele>925.20001220703</ele>
        <time>2017-08-06T14:18:04.000Z</time>
      </trkpt>
      <trkpt lat="46.42738" lon="5.7346">
        <ele>925.59997558594</ele>
        <time>2017-08-06T14:18:06.000Z</time>
      </trkpt>
      <trkpt lat="46.42739" lon="5.73459">
        <ele>925.59997558594</ele>
        <time>2017-08-06T14:18:07.000Z</time>
      </trkpt>
      <trkpt lat="46.42739" lon="5.73458">
        <ele>925.79998779297</ele>
        <time>2017-08-06T14:18:08.000Z</time>
      </trkpt>
      <trkpt lat="46.42741" lon="5.73455">
        <ele>926</ele>
        <time>2017-08-06T14:18:11.000Z</time>
      </trkpt>
      <trkpt lat="46.42741" lon="5.73452">
        <ele>926.59997558594</ele>
        <time>2017-08-06T14:18:14.000Z</time>
      </trkpt>
      <trkpt lat="46.4274" lon="5.73451">
        <ele>926.79998779297</ele>
        <time>2017-08-06T14:18:15.000Z</time>
      </trkpt>
      <trkpt lat="46.4274" lon="5.73449">
        <ele>927.40002441406</ele>
        <time>2017-08-06T14:18:18.000Z</time>
      </trkpt>
      <trkpt lat="46.42741" lon="5.7344">
        <ele>927.79998779297</ele>
        <time>2017-08-06T14:18:23.000Z</time>
      </trkpt>
      <trkpt lat="46.42741" lon="5.73438">
        <ele>927.79998779297</ele>
        <time>2017-08-06T14:18:24.000Z</time>
      </trkpt>
      <trkpt lat="46.42738" lon="5.73421">
        <ele>926.79998779297</ele>
        <time>2017-08-06T14:18:38.000Z</time>
      </trkpt>
      <trkpt lat="46.42736" lon="5.73419">
        <ele>926.59997558594</ele>
        <time>2017-08-06T14:18:40.000Z</time>
      </trkpt>
      <trkpt lat="46.42735" lon="5.73415">
        <ele>926.40002441406</ele>
        <time>2017-08-06T14:18:42.000Z</time>
      </trkpt>
      <trkpt lat="46.42735" lon="5.73412">
        <ele>926.79998779297</ele>
        <time>2017-08-06T14:18:45.000Z</time>
      </trkpt>
      <trkpt lat="46.42736" lon="5.73409">
        <ele>928</ele>
        <time>2017-08-06T14:18:48.000Z</time>
      </trkpt>
      <trkpt lat="46.42736" lon="5.73401">
        <ele>929</ele>
        <time>2017-08-06T14:18:52.000Z</time>
      </trkpt>
      <trkpt lat="46.42737" lon="5.73399">
        <ele>929.59997558594</ele>
        <time>2017-08-06T14:18:55.000Z</time>
      </trkpt>
      <trkpt lat="46.42738" lon="5.73397">
        <ele>930</ele>
        <time>2017-08-06T14:18:57.000Z</time>
      </trkpt>
      <trkpt lat="46.4274" lon="5.73394">
        <ele>930.40002441406</ele>
        <time>2017-08-06T14:19:00.000Z</time>
      </trkpt>
      <trkpt lat="46.42743" lon="5.73389">
        <ele>930.59997558594</ele>
        <time>2017-08-06T14:19:03.000Z</time>
      </trkpt>
      <trkpt lat="46.42745" lon="5.73384">
        <ele>930.79998779297</ele>
        <time>2017-08-06T14:19:09.000Z</time>
      </trkpt>
      <trkpt lat="46.42746" lon="5.73382">
        <ele>930.79998779297</ele>
        <time>2017-08-06T14:19:11.000Z</time>
      </trkpt>
      <trkpt lat="46.42749" lon="5.73381">
        <ele>930.59997558594</ele>
        <time>2017-08-06T14:19:14.000Z</time>
      </trkpt>
      <trkpt lat="46.42751" lon="5.73381">
        <ele>930.20001220703</ele>
        <time>2017-08-06T14:19:17.000Z</time>
      </trkpt>
      <trkpt lat="46.42756" lon="5.73374">
        <ele>929</ele>
        <time>2017-08-06T14:19:32.000Z</time>
      </trkpt>
      <trkpt lat="46.42756" lon="5.73374">
        <ele>928.79998779297</ele>
        <time>2017-08-06T14:19:33.000Z</time>
      </trkpt>
      <trkpt lat="46.42766" lon="5.7337">
        <ele>928</ele>
        <time>2017-08-06T14:19:37.000Z</time>
      </trkpt>
      <trkpt lat="46.42766" lon="5.7337">
        <ele>927.79998779297</ele>
        <time>2017-08-06T14:19:38.000Z</time>
      </trkpt>
      <trkpt lat="46.42768" lon="5.73366">
        <ele>926.79998779297</ele>
        <time>2017-08-06T14:19:47.000Z</time>
      </trkpt>
      <trkpt lat="46.4277" lon="5.73366">
        <ele>925.79998779297</ele>
        <time>2017-08-06T14:19:52.000Z</time>
      </trkpt>
      <trkpt lat="46.42779" lon="5.73366">
        <ele>926</ele>
        <time>2017-08-06T14:21:53.000Z</time>
      </trkpt>
      <trkpt lat="46.42782" lon="5.73363">
        <ele>926</ele>
        <time>2017-08-06T14:23:09.000Z</time>
      </trkpt>
      <trkpt lat="46.42782" lon="5.73374">
        <ele>926</ele>
        <time>2017-08-06T14:23:46.000Z</time>
      </trkpt>
      <trkpt lat="46.42784" lon="5.73376">
        <ele>927</ele>
        <time>2017-08-06T14:23:50.000Z</time>
      </trkpt>
      <trkpt lat="46.42784" lon="5.73387">
        <ele>928</ele>
        <time>2017-08-06T14:23:59.000Z</time>
      </trkpt>
      <trkpt lat="46.42782" lon="5.73389">
        <ele>928.40002441406</ele>
        <time>2017-08-06T14:24:02.000Z</time>
      </trkpt>
      <trkpt lat="46.42781" lon="5.73391">
        <ele>928.59997558594</ele>
        <time>2017-08-06T14:24:04.000Z</time>
      </trkpt>
      <trkpt lat="46.42782" lon="5.73392">
        <ele>928.79998779297</ele>
        <time>2017-08-06T14:24:08.000Z</time>
      </trkpt>
      <trkpt lat="46.42779" lon="5.73383">
        <ele>927</ele>
        <time>2017-08-06T14:24:22.000Z</time>
      </trkpt>
      <trkpt lat="46.42775" lon="5.7337">
        <ele>926.20001220703</ele>
        <time>2017-08-06T14:24:43.000Z</time>
      </trkpt>
      <trkpt lat="46.42771" lon="5.73377">
        <ele>928</ele>
        <time>2017-08-06T14:24:58.000Z</time>
      </trkpt>
      <trkpt lat="46.42769" lon="5.73377">
        <ele>929</ele>
        <time>2017-08-06T14:25:02.000Z</time>
      </trkpt>
      <trkpt lat="46.42762" lon="5.7338">
        <ele>930</ele>
        <time>2017-08-06T14:25:10.000Z</time>
      </trkpt>
      <trkpt lat="46.42761" lon="5.73379">
        <ele>930.40002441406</ele>
        <time>2017-08-06T14:25:12.000Z</time>
      </trkpt>
      <trkpt lat="46.42758" lon="5.73381">
        <ele>930.40002441406</ele>
        <time>2017-08-06T14:25:15.000Z</time>
      </trkpt>
      <trkpt lat="46.42755" lon="5.73382">
        <ele>930.79998779297</ele>
        <time>2017-08-06T14:25:18.000Z</time>
      </trkpt>
      <trkpt lat="46.42753" lon="5.73384">
        <ele>931</ele>
        <time>2017-08-06T14:25:20.000Z</time>
      </trkpt>
      <trkpt lat="46.42752" lon="5.73384">
        <ele>931.20001220703</ele>
        <time>2017-08-06T14:25:21.000Z</time>
      </trkpt>
      <trkpt lat="46.42751" lon="5.73384">
        <ele>931.20001220703</ele>
        <time>2017-08-06T14:25:22.000Z</time>
      </trkpt>
      <trkpt lat="46.42746" lon="5.73388">
        <ele>930.79998779297</ele>
        <time>2017-08-06T14:25:33.000Z</time>
      </trkpt>
      <trkpt lat="46.42746" lon="5.73389">
        <ele>930.79998779297</ele>
        <time>2017-08-06T14:25:35.000Z</time>
      </trkpt>
      <trkpt lat="46.42743" lon="5.73392">
        <ele>930.59997558594</ele>
        <time>2017-08-06T14:25:39.000Z</time>
      </trkpt>
      <trkpt lat="46.4274" lon="5.73395">
        <ele>930</ele>
        <time>2017-08-06T14:25:45.000Z</time>
      </trkpt>
      <trkpt lat="46.42737" lon="5.73398">
        <ele>928.79998779297</ele>
        <time>2017-08-06T14:25:50.000Z</time>
      </trkpt>
      <trkpt lat="46.42735" lon="5.73401">
        <ele>928.20001220703</ele>
        <time>2017-08-06T14:25:53.000Z</time>
      </trkpt>
      <trkpt lat="46.42735" lon="5.73403">
        <ele>927.79998779297</ele>
        <time>2017-08-06T14:25:55.000Z</time>
      </trkpt>
      <trkpt lat="46.42735" lon="5.73405">
        <ele>927.59997558594</ele>
        <time>2017-08-06T14:25:57.000Z</time>
      </trkpt>
      <trkpt lat="46.42737" lon="5.73422">
        <ele>928.40002441406</ele>
        <time>2017-08-06T14:26:09.000Z</time>
      </trkpt>
      <trkpt lat="46.42737" lon="5.73431">
        <ele>928.79998779297</ele>
        <time>2017-08-06T14:26:15.000Z</time>
      </trkpt>
      <trkpt lat="46.42737" lon="5.73437">
        <ele>928.79998779297</ele>
        <time>2017-08-06T14:26:20.000Z</time>
      </trkpt>
      <trkpt lat="46.42739" lon="5.73442">
        <ele>928.40002441406</ele>
        <time>2017-08-06T14:26:23.000Z</time>
      </trkpt>
      <trkpt lat="46.42739" lon="5.73443">
        <ele>928</ele>
        <time>2017-08-06T14:26:25.000Z</time>
      </trkpt>
      <trkpt lat="46.42741" lon="5.73446">
        <ele>927.40002441406</ele>
        <time>2017-08-06T14:26:28.000Z</time>
      </trkpt>
      <trkpt lat="46.4274" lon="5.73454">
        <ele>927</ele>
        <time>2017-08-06T14:26:32.000Z</time>
      </trkpt>
      <trkpt lat="46.4274" lon="5.73455">
        <ele>926.79998779297</ele>
        <time>2017-08-06T14:26:33.000Z</time>
      </trkpt>
      <trkpt lat="46.4274" lon="5.73461">
        <ele>926</ele>
        <time>2017-08-06T14:26:37.000Z</time>
      </trkpt>
      <trkpt lat="46.42737" lon="5.73467">
        <ele>925.79998779297</ele>
        <time>2017-08-06T14:26:41.000Z</time>
      </trkpt>
      <trkpt lat="46.42737" lon="5.73469">
        <ele>925.79998779297</ele>
        <time>2017-08-06T14:26:43.000Z</time>
      </trkpt>
      <trkpt lat="46.42736" lon="5.7347">
        <ele>925.59997558594</ele>
        <time>2017-08-06T14:26:44.000Z</time>
      </trkpt>
      <trkpt lat="46.42737" lon="5.73472">
        <ele>925.59997558594</ele>
        <time>2017-08-06T14:26:45.000Z</time>
      </trkpt>
      <trkpt lat="46.42738" lon="5.73476">
        <ele>925.59997558594</ele>
        <time>2017-08-06T14:26:48.000Z</time>
      </trkpt>
      <trkpt lat="46.42741" lon="5.73479">
        <ele>925.59997558594</ele>
        <time>2017-08-06T14:26:52.000Z</time>
      </trkpt>
      <trkpt lat="46.42742" lon="5.73486">
        <ele>924.40002441406</ele>
        <time>2017-08-06T14:26:58.000Z</time>
      </trkpt>
      <trkpt lat="46.42743" lon="5.73487">
        <ele>924.20001220703</ele>
        <time>2017-08-06T14:26:59.000Z</time>
      </trkpt>
      <trkpt lat="46.42742" lon="5.73492">
        <ele>923.79998779297</ele>
        <time>2017-08-06T14:27:01.000Z</time>
      </trkpt>
      <trkpt lat="46.42743" lon="5.73493">
        <ele>923.40002441406</ele>
        <time>2017-08-06T14:27:02.000Z</time>
      </trkpt>
      <trkpt lat="46.42743" lon="5.73494">
        <ele>922.79998779297</ele>
        <time>2017-08-06T14:27:04.000Z</time>
      </trkpt>
      <trkpt lat="46.42744" lon="5.73496">
        <ele>922.20001220703</ele>
        <time>2017-08-06T14:27:06.000Z</time>
      </trkpt>
      <trkpt lat="46.42745" lon="5.73501">
        <ele>921.20001220703</ele>
        <time>2017-08-06T14:27:10.000Z</time>
      </trkpt>
      <trkpt lat="46.42745" lon="5.73502">
        <ele>920.79998779297</ele>
        <time>2017-08-06T14:27:11.000Z</time>
      </trkpt>
      <trkpt lat="46.42745" lon="5.73504">
        <ele>920</ele>
        <time>2017-08-06T14:27:13.000Z</time>
      </trkpt>
      <trkpt lat="46.42745" lon="5.73506">
        <ele>919.79998779297</ele>
        <time>2017-08-06T14:27:14.000Z</time>
      </trkpt>
      <trkpt lat="46.42745" lon="5.73509">
        <ele>919</ele>
        <time>2017-08-06T14:27:17.000Z</time>
      </trkpt>
      <trkpt lat="46.42744" lon="5.73511">
        <ele>918.79998779297</ele>
        <time>2017-08-06T14:27:18.000Z</time>
      </trkpt>
      <trkpt lat="46.42743" lon="5.73513">
        <ele>918.20001220703</ele>
        <time>2017-08-06T14:27:21.000Z</time>
      </trkpt>
      <trkpt lat="46.42742" lon="5.73513">
        <ele>918</ele>
        <time>2017-08-06T14:27:22.000Z</time>
      </trkpt>
      <trkpt lat="46.42742" lon="5.73514">
        <ele>917.79998779297</ele>
        <time>2017-08-06T14:27:24.000Z</time>
      </trkpt>
      <trkpt lat="46.42743" lon="5.73514">
        <ele>917.59997558594</ele>
        <time>2017-08-06T14:27:26.000Z</time>
      </trkpt>
      <trkpt lat="46.42742" lon="5.73513">
        <ele>917.59997558594</ele>
        <time>2017-08-06T14:27:29.000Z</time>
      </trkpt>
      <trkpt lat="46.42742" lon="5.73513">
        <ele>917.79998779297</ele>
        <time>2017-08-06T14:27:31.000Z</time>
      </trkpt>
      <trkpt lat="46.42754" lon="5.7352">
        <ele>916.79998779297</ele>
        <time>2017-08-06T14:27:55.000Z</time>
      </trkpt>
      <trkpt lat="46.42755" lon="5.73519">
        <ele>916.40002441406</ele>
        <time>2017-08-06T14:27:56.000Z</time>
      </trkpt>
      <trkpt lat="46.42757" lon="5.73519">
        <ele>916</ele>
        <time>2017-08-06T14:27:58.000Z</time>
      </trkpt>
      <trkpt lat="46.42762" lon="5.73518">
        <ele>915.59997558594</ele>
        <time>2017-08-06T14:28:01.000Z</time>
      </trkpt>
      <trkpt lat="46.42765" lon="5.73518">
        <ele>915.40002441406</ele>
        <time>2017-08-06T14:28:03.000Z</time>
      </trkpt>
      <trkpt lat="46.42768" lon="5.73517">
        <ele>915.40002441406</ele>
        <time>2017-08-06T14:28:06.000Z</time>
      </trkpt>
      <trkpt lat="46.4277" lon="5.73517">
        <ele>915.20001220703</ele>
        <time>2017-08-06T14:28:09.000Z</time>
      </trkpt>
      <trkpt lat="46.42775" lon="5.73515">
        <ele>914.79998779297</ele>
        <time>2017-08-06T14:28:13.000Z</time>
      </trkpt>
      <trkpt lat="46.42777" lon="5.73514">
        <ele>914.59997558594</ele>
        <time>2017-08-06T14:28:15.000Z</time>
      </trkpt>
      <trkpt lat="46.42777" lon="5.73513">
        <ele>914.40002441406</ele>
        <time>2017-08-06T14:28:16.000Z</time>
      </trkpt>
      <trkpt lat="46.42782" lon="5.73509">
        <ele>913.59997558594</ele>
        <time>2017-08-06T14:28:20.000Z</time>
      </trkpt>
      <trkpt lat="46.4278" lon="5.73507">
        <ele>913.40002441406</ele>
        <time>2017-08-06T14:28:21.000Z</time>
      </trkpt>
      <trkpt lat="46.4278" lon="5.73508">
        <ele>913.40002441406</ele>
        <time>2017-08-06T14:28:23.000Z</time>
      </trkpt>
      <trkpt lat="46.42779" lon="5.73509">
        <ele>913.40002441406</ele>
        <time>2017-08-06T14:28:25.000Z</time>
      </trkpt>
      <trkpt lat="46.42777" lon="5.73511">
        <ele>913.40002441406</ele>
        <time>2017-08-06T14:28:27.000Z</time>
      </trkpt>
      <trkpt lat="46.42775" lon="5.73513">
        <ele>913.59997558594</ele>
        <time>2017-08-06T14:28:30.000Z</time>
      </trkpt>
      <trkpt lat="46.42774" lon="5.73514">
        <ele>914</ele>
        <time>2017-08-06T14:28:32.000Z</time>
      </trkpt>
      <trkpt lat="46.4277" lon="5.73514">
        <ele>914.59997558594</ele>
        <time>2017-08-06T14:28:35.000Z</time>
      </trkpt>
      <trkpt lat="46.42767" lon="5.73515">
        <ele>915</ele>
        <time>2017-08-06T14:28:38.000Z</time>
      </trkpt>
      <trkpt lat="46.42765" lon="5.73517">
        <ele>915.20001220703</ele>
        <time>2017-08-06T14:28:40.000Z</time>
      </trkpt>
      <trkpt lat="46.42762" lon="5.7352">
        <ele>915.20001220703</ele>
        <time>2017-08-06T14:28:42.000Z</time>
      </trkpt>
      <trkpt lat="46.4276" lon="5.73523">
        <ele>915.40002441406</ele>
        <time>2017-08-06T14:28:44.000Z</time>
      </trkpt>
      <trkpt lat="46.42757" lon="5.73526">
        <ele>915.59997558594</ele>
        <time>2017-08-06T14:28:47.000Z</time>
      </trkpt>
      <trkpt lat="46.42755" lon="5.73528">
        <ele>915.79998779297</ele>
        <time>2017-08-06T14:28:49.000Z</time>
      </trkpt>
      <trkpt lat="46.42754" lon="5.73531">
        <ele>915.79998779297</ele>
        <time>2017-08-06T14:28:51.000Z</time>
      </trkpt>
      <trkpt lat="46.42754" lon="5.73534">
        <ele>916.40002441406</ele>
        <time>2017-08-06T14:28:54.000Z</time>
      </trkpt>
      <trkpt lat="46.42753" lon="5.73536">
        <ele>916.59997558594</ele>
        <time>2017-08-06T14:28:56.000Z</time>
      </trkpt>
      <trkpt lat="46.42753" lon="5.73537">
        <ele>916.59997558594</ele>
        <time>2017-08-06T14:28:57.000Z</time>
      </trkpt>
      <trkpt lat="46.42751" lon="5.7354">
        <ele>916.79998779297</ele>
        <time>2017-08-06T14:28:59.000Z</time>
      </trkpt>
      <trkpt lat="46.42749" lon="5.73541">
        <ele>917</ele>
        <time>2017-08-06T14:29:01.000Z</time>
      </trkpt>
      <trkpt lat="46.42746" lon="5.73543">
        <ele>917.20001220703</ele>
        <time>2017-08-06T14:29:04.000Z</time>
      </trkpt>
      <trkpt lat="46.42745" lon="5.73546">
        <ele>917.20001220703</ele>
        <time>2017-08-06T14:29:06.000Z</time>
      </trkpt>
      <trkpt lat="46.42741" lon="5.73553">
        <ele>917.40002441406</ele>
        <time>2017-08-06T14:29:12.000Z</time>
      </trkpt>
      <trkpt lat="46.42741" lon="5.73557">
        <ele>917.40002441406</ele>
        <time>2017-08-06T14:29:14.000Z</time>
      </trkpt>
      <trkpt lat="46.4274" lon="5.7356">
        <ele>917.40002441406</ele>
        <time>2017-08-06T14:29:16.000Z</time>
      </trkpt>
      <trkpt lat="46.42739" lon="5.73561">
        <ele>917.59997558594</ele>
        <time>2017-08-06T14:29:17.000Z</time>
      </trkpt>
      <trkpt lat="46.42738" lon="5.73564">
        <ele>917.79998779297</ele>
        <time>2017-08-06T14:29:20.000Z</time>
      </trkpt>
      <trkpt lat="46.42738" lon="5.73567">
        <ele>918</ele>
        <time>2017-08-06T14:29:22.000Z</time>
      </trkpt>
      <trkpt lat="46.42737" lon="5.73569">
        <ele>918</ele>
        <time>2017-08-06T14:29:24.000Z</time>
      </trkpt>
      <trkpt lat="46.42735" lon="5.73575">
        <ele>917.79998779297</ele>
        <time>2017-08-06T14:29:29.000Z</time>
      </trkpt>
      <trkpt lat="46.42735" lon="5.73577">
        <ele>917.59997558594</ele>
        <time>2017-08-06T14:29:31.000Z</time>
      </trkpt>
      <trkpt lat="46.42734" lon="5.73582">
        <ele>917.40002441406</ele>
        <time>2017-08-06T14:29:35.000Z</time>
      </trkpt>
      <trkpt lat="46.42734" lon="5.73584">
        <ele>917.40002441406</ele>
        <time>2017-08-06T14:29:36.000Z</time>
      </trkpt>
      <trkpt lat="46.42734" lon="5.73586">
        <ele>917.40002441406</ele>
        <time>2017-08-06T14:29:38.000Z</time>
      </trkpt>
      <trkpt lat="46.42734" lon="5.73588">
        <ele>917.59997558594</ele>
        <time>2017-08-06T14:29:40.000Z</time>
      </trkpt>
      <trkpt lat="46.42733" lon="5.73596">
        <ele>916.59997558594</ele>
        <time>2017-08-06T14:29:52.000Z</time>
      </trkpt>
      <trkpt lat="46.42731" lon="5.73607">
        <ele>915.79998779297</ele>
        <time>2017-08-06T14:29:59.000Z</time>
      </trkpt>
      <trkpt lat="46.42731" lon="5.73608">
        <ele>915.40002441406</ele>
        <time>2017-08-06T14:30:00.000Z</time>
      </trkpt>
      <trkpt lat="46.4273" lon="5.73609">
        <ele>915.20001220703</ele>
        <time>2017-08-06T14:30:01.000Z</time>
      </trkpt>
      <trkpt lat="46.4273" lon="5.73611">
        <ele>914.59997558594</ele>
        <time>2017-08-06T14:30:03.000Z</time>
      </trkpt>
      <trkpt lat="46.4273" lon="5.73613">
        <ele>914.40002441406</ele>
        <time>2017-08-06T14:30:04.000Z</time>
      </trkpt>
      <trkpt lat="46.42729" lon="5.73617">
        <ele>913.40002441406</ele>
        <time>2017-08-06T14:30:08.000Z</time>
      </trkpt>
      <trkpt lat="46.42728" lon="5.73619">
        <ele>913.20001220703</ele>
        <time>2017-08-06T14:30:09.000Z</time>
      </trkpt>
      <trkpt lat="46.42728" lon="5.73621">
        <ele>913</ele>
        <time>2017-08-06T14:30:10.000Z</time>
      </trkpt>
      <trkpt lat="46.42728" lon="5.73624">
        <ele>912.59997558594</ele>
        <time>2017-08-06T14:30:12.000Z</time>
      </trkpt>
      <trkpt lat="46.42727" lon="5.73628">
        <ele>912</ele>
        <time>2017-08-06T14:30:16.000Z</time>
      </trkpt>
      <trkpt lat="46.42725" lon="5.73634">
        <ele>910.79998779297</ele>
        <time>2017-08-06T14:30:21.000Z</time>
      </trkpt>
      <trkpt lat="46.42725" lon="5.73639">
        <ele>910.20001220703</ele>
        <time>2017-08-06T14:30:25.000Z</time>
      </trkpt>
      <trkpt lat="46.42724" lon="5.73642">
        <ele>909.79998779297</ele>
        <time>2017-08-06T14:30:27.000Z</time>
      </trkpt>
      <trkpt lat="46.42724" lon="5.73644">
        <ele>909.40002441406</ele>
        <time>2017-08-06T14:30:29.000Z</time>
      </trkpt>
      <trkpt lat="46.42722" lon="5.73649">
        <ele>908.79998779297</ele>
        <time>2017-08-06T14:30:32.000Z</time>
      </trkpt>
      <trkpt lat="46.42721" lon="5.73651">
        <ele>908.59997558594</ele>
        <time>2017-08-06T14:30:33.000Z</time>
      </trkpt>
      <trkpt lat="46.42719" lon="5.73655">
        <ele>908.20001220703</ele>
        <time>2017-08-06T14:30:36.000Z</time>
      </trkpt>
      <trkpt lat="46.42719" lon="5.73658">
        <ele>908</ele>
        <time>2017-08-06T14:30:38.000Z</time>
      </trkpt>
      <trkpt lat="46.42719" lon="5.73659">
        <ele>907.79998779297</ele>
        <time>2017-08-06T14:30:40.000Z</time>
      </trkpt>
      <trkpt lat="46.42718" lon="5.7366">
        <ele>907.40002441406</ele>
        <time>2017-08-06T14:30:45.000Z</time>
      </trkpt>
      <trkpt lat="46.42717" lon="5.73664">
        <ele>907.20001220703</ele>
        <time>2017-08-06T14:30:49.000Z</time>
      </trkpt>
      <trkpt lat="46.42713" lon="5.73667">
        <ele>907.20001220703</ele>
        <time>2017-08-06T14:30:53.000Z</time>
      </trkpt>
      <trkpt lat="46.42711" lon="5.73669">
        <ele>907.20001220703</ele>
        <time>2017-08-06T14:30:55.000Z</time>
      </trkpt>
      <trkpt lat="46.42706" lon="5.73676">
        <ele>907.20001220703</ele>
        <time>2017-08-06T14:31:00.000Z</time>
      </trkpt>
      <trkpt lat="46.42701" lon="5.73678">
        <ele>906.79998779297</ele>
        <time>2017-08-06T14:31:04.000Z</time>
      </trkpt>
      <trkpt lat="46.42698" lon="5.73679">
        <ele>906.79998779297</ele>
        <time>2017-08-06T14:31:06.000Z</time>
      </trkpt>
      <trkpt lat="46.42695" lon="5.7368">
        <ele>906.59997558594</ele>
        <time>2017-08-06T14:31:09.000Z</time>
      </trkpt>
      <trkpt lat="46.42693" lon="5.73683">
        <ele>906.79998779297</ele>
        <time>2017-08-06T14:31:12.000Z</time>
      </trkpt>
      <trkpt lat="46.4269" lon="5.73686">
        <ele>907</ele>
        <time>2017-08-06T14:31:16.000Z</time>
      </trkpt>
      <trkpt lat="46.42687" lon="5.73688">
        <ele>907</ele>
        <time>2017-08-06T14:31:19.000Z</time>
      </trkpt>
      <trkpt lat="46.42686" lon="5.73689">
        <ele>906.79998779297</ele>
        <time>2017-08-06T14:31:21.000Z</time>
      </trkpt>
      <trkpt lat="46.42681" lon="5.73692">
        <ele>906.59997558594</ele>
        <time>2017-08-06T14:31:24.000Z</time>
      </trkpt>
      <trkpt lat="46.42679" lon="5.73694">
        <ele>906.40002441406</ele>
        <time>2017-08-06T14:31:26.000Z</time>
      </trkpt>
      <trkpt lat="46.42673" lon="5.73699">
        <ele>905.79998779297</ele>
        <time>2017-08-06T14:31:32.000Z</time>
      </trkpt>
      <trkpt lat="46.42673" lon="5.737">
        <ele>905.59997558594</ele>
        <time>2017-08-06T14:31:33.000Z</time>
      </trkpt>
      <trkpt lat="46.42671" lon="5.73704">
        <ele>905.40002441406</ele>
        <time>2017-08-06T14:31:36.000Z</time>
      </trkpt>
      <trkpt lat="46.42669" lon="5.73707">
        <ele>905.40002441406</ele>
        <time>2017-08-06T14:31:38.000Z</time>
      </trkpt>
      <trkpt lat="46.42666" lon="5.73712">
        <ele>905.59997558594</ele>
        <time>2017-08-06T14:31:42.000Z</time>
      </trkpt>
      <trkpt lat="46.42665" lon="5.73716">
        <ele>905.59997558594</ele>
        <time>2017-08-06T14:31:44.000Z</time>
      </trkpt>
      <trkpt lat="46.42666" lon="5.7373">
        <ele>905.20001220703</ele>
        <time>2017-08-06T14:31:51.000Z</time>
      </trkpt>
      <trkpt lat="46.42664" lon="5.73738">
        <ele>904.59997558594</ele>
        <time>2017-08-06T14:31:57.000Z</time>
      </trkpt>
      <trkpt lat="46.42664" lon="5.73744">
        <ele>904</ele>
        <time>2017-08-06T14:32:02.000Z</time>
      </trkpt>
      <trkpt lat="46.42664" lon="5.7375">
        <ele>903.79998779297</ele>
        <time>2017-08-06T14:32:05.000Z</time>
      </trkpt>
      <trkpt lat="46.42661" lon="5.73757">
        <ele>903.40002441406</ele>
        <time>2017-08-06T14:32:11.000Z</time>
      </trkpt>
      <trkpt lat="46.42658" lon="5.73761">
        <ele>902.79998779297</ele>
        <time>2017-08-06T14:32:15.000Z</time>
      </trkpt>
      <trkpt lat="46.42657" lon="5.73763">
        <ele>902.20001220703</ele>
        <time>2017-08-06T14:32:17.000Z</time>
      </trkpt>
      <trkpt lat="46.42655" lon="5.73765">
        <ele>901.79998779297</ele>
        <time>2017-08-06T14:32:19.000Z</time>
      </trkpt>
      <trkpt lat="46.42654" lon="5.73767">
        <ele>901.20001220703</ele>
        <time>2017-08-06T14:32:21.000Z</time>
      </trkpt>
      <trkpt lat="46.42651" lon="5.73769">
        <ele>900.79998779297</ele>
        <time>2017-08-06T14:32:24.000Z</time>
      </trkpt>
      <trkpt lat="46.4265" lon="5.7377">
        <ele>900.20001220703</ele>
        <time>2017-08-06T14:32:26.000Z</time>
      </trkpt>
      <trkpt lat="46.42649" lon="5.73771">
        <ele>899.79998779297</ele>
        <time>2017-08-06T14:32:27.000Z</time>
      </trkpt>
      <trkpt lat="46.42648" lon="5.73774">
        <ele>899.20001220703</ele>
        <time>2017-08-06T14:32:29.000Z</time>
      </trkpt>
      <trkpt lat="46.42645" lon="5.73776">
        <ele>898.40002441406</ele>
        <time>2017-08-06T14:32:32.000Z</time>
      </trkpt>
      <trkpt lat="46.42644" lon="5.73777">
        <ele>898</ele>
        <time>2017-08-06T14:32:33.000Z</time>
      </trkpt>
      <trkpt lat="46.42641" lon="5.73781">
        <ele>897</ele>
        <time>2017-08-06T14:32:37.000Z</time>
      </trkpt>
      <trkpt lat="46.42638" lon="5.73785">
        <ele>896.20001220703</ele>
        <time>2017-08-06T14:32:40.000Z</time>
      </trkpt>
      <trkpt lat="46.42636" lon="5.73788">
        <ele>895.79998779297</ele>
        <time>2017-08-06T14:32:42.000Z</time>
      </trkpt>
      <trkpt lat="46.42633" lon="5.73792">
        <ele>894.79998779297</ele>
        <time>2017-08-06T14:32:46.000Z</time>
      </trkpt>
      <trkpt lat="46.42633" lon="5.73794">
        <ele>894.40002441406</ele>
        <time>2017-08-06T14:32:47.000Z</time>
      </trkpt>
      <trkpt lat="46.4263" lon="5.73797">
        <ele>893.59997558594</ele>
        <time>2017-08-06T14:32:50.000Z</time>
      </trkpt>
      <trkpt lat="46.4263" lon="5.738">
        <ele>893.40002441406</ele>
        <time>2017-08-06T14:32:51.000Z</time>
      </trkpt>
      <trkpt lat="46.42629" lon="5.73803">
        <ele>893.20001220703</ele>
        <time>2017-08-06T14:32:53.000Z</time>
      </trkpt>
      <trkpt lat="46.42628" lon="5.73806">
        <ele>892.79998779297</ele>
        <time>2017-08-06T14:32:55.000Z</time>
      </trkpt>
      <trkpt lat="46.42627" lon="5.73807">
        <ele>892.59997558594</ele>
        <time>2017-08-06T14:32:56.000Z</time>
      </trkpt>
      <trkpt lat="46.42626" lon="5.73809">
        <ele>892.40002441406</ele>
        <time>2017-08-06T14:32:57.000Z</time>
      </trkpt>
      <trkpt lat="46.4262" lon="5.73813">
        <ele>892</ele>
        <time>2017-08-06T14:33:00.000Z</time>
      </trkpt>
      <trkpt lat="46.42618" lon="5.73814">
        <ele>891.79998779297</ele>
        <time>2017-08-06T14:33:02.000Z</time>
      </trkpt>
      <trkpt lat="46.42616" lon="5.73815">
        <ele>891.59997558594</ele>
        <time>2017-08-06T14:33:04.000Z</time>
      </trkpt>
      <trkpt lat="46.42614" lon="5.73817">
        <ele>891.40002441406</ele>
        <time>2017-08-06T14:33:06.000Z</time>
      </trkpt>
      <trkpt lat="46.42613" lon="5.73819">
        <ele>891.20001220703</ele>
        <time>2017-08-06T14:33:08.000Z</time>
      </trkpt>
      <trkpt lat="46.42612" lon="5.73822">
        <ele>891</ele>
        <time>2017-08-06T14:33:10.000Z</time>
      </trkpt>
      <trkpt lat="46.42607" lon="5.73829">
        <ele>890.59997558594</ele>
        <time>2017-08-06T14:33:14.000Z</time>
      </trkpt>
      <trkpt lat="46.42605" lon="5.73832">
        <ele>890.20001220703</ele>
        <time>2017-08-06T14:33:18.000Z</time>
      </trkpt>
      <trkpt lat="46.42608" lon="5.7383">
        <ele>890.20001220703</ele>
        <time>2017-08-06T14:33:29.000Z</time>
      </trkpt>
      <trkpt lat="46.42598" lon="5.73834">
        <ele>890.20001220703</ele>
        <time>2017-08-06T14:33:57.000Z</time>
      </trkpt>
      <trkpt lat="46.42595" lon="5.73843">
        <ele>889.79998779297</ele>
        <time>2017-08-06T14:34:02.000Z</time>
      </trkpt>
      <trkpt lat="46.42593" lon="5.73848">
        <ele>889.40002441406</ele>
        <time>2017-08-06T14:34:05.000Z</time>
      </trkpt>
      <trkpt lat="46.42591" lon="5.7385">
        <ele>889.20001220703</ele>
        <time>2017-08-06T14:34:07.000Z</time>
      </trkpt>
      <trkpt lat="46.42589" lon="5.73852">
        <ele>889</ele>
        <time>2017-08-06T14:34:08.000Z</time>
      </trkpt>
      <trkpt lat="46.42588" lon="5.73852">
        <ele>888.79998779297</ele>
        <time>2017-08-06T14:34:10.000Z</time>
      </trkpt>
      <trkpt lat="46.42587" lon="5.73853">
        <ele>888.59997558594</ele>
        <time>2017-08-06T14:34:12.000Z</time>
      </trkpt>
      <trkpt lat="46.42586" lon="5.73855">
        <ele>888.20001220703</ele>
        <time>2017-08-06T14:34:15.000Z</time>
      </trkpt>
      <trkpt lat="46.4258" lon="5.7386">
        <ele>888</ele>
        <time>2017-08-06T14:34:20.000Z</time>
      </trkpt>
      <trkpt lat="46.42578" lon="5.73862">
        <ele>887.79998779297</ele>
        <time>2017-08-06T14:34:23.000Z</time>
      </trkpt>
      <trkpt lat="46.42574" lon="5.73864">
        <ele>887.59997558594</ele>
        <time>2017-08-06T14:34:28.000Z</time>
      </trkpt>
      <trkpt lat="46.42565" lon="5.73864">
        <ele>887.79998779297</ele>
        <time>2017-08-06T14:34:35.000Z</time>
      </trkpt>
      <trkpt lat="46.42561" lon="5.73862">
        <ele>888</ele>
        <time>2017-08-06T14:34:38.000Z</time>
      </trkpt>
      <trkpt lat="46.42554" lon="5.73863">
        <ele>888</ele>
        <time>2017-08-06T14:34:42.000Z</time>
      </trkpt>
      <trkpt lat="46.42549" lon="5.73864">
        <ele>887.79998779297</ele>
        <time>2017-08-06T14:34:46.000Z</time>
      </trkpt>
      <trkpt lat="46.42546" lon="5.73863">
        <ele>887</ele>
        <time>2017-08-06T14:34:49.000Z</time>
      </trkpt>
      <trkpt lat="46.42543" lon="5.73863">
        <ele>885.79998779297</ele>
        <time>2017-08-06T14:34:54.000Z</time>
      </trkpt>
      <trkpt lat="46.42538" lon="5.73866">
        <ele>884.79998779297</ele>
        <time>2017-08-06T14:35:00.000Z</time>
      </trkpt>
      <trkpt lat="46.42533" lon="5.73868">
        <ele>884.40002441406</ele>
        <time>2017-08-06T14:35:11.000Z</time>
      </trkpt>
      <trkpt lat="46.4253" lon="5.73868">
        <ele>884.40002441406</ele>
        <time>2017-08-06T14:35:13.000Z</time>
      </trkpt>
      <trkpt lat="46.42529" lon="5.73868">
        <ele>884.40002441406</ele>
        <time>2017-08-06T14:35:15.000Z</time>
      </trkpt>
      <trkpt lat="46.42523" lon="5.73871">
        <ele>884</ele>
        <time>2017-08-06T14:35:22.000Z</time>
      </trkpt>
      <trkpt lat="46.42522" lon="5.73872">
        <ele>883.79998779297</ele>
        <time>2017-08-06T14:35:24.000Z</time>
      </trkpt>
      <trkpt lat="46.4252" lon="5.73876">
        <ele>883.40002441406</ele>
        <time>2017-08-06T14:35:27.000Z</time>
      </trkpt>
      <trkpt lat="46.42518" lon="5.73879">
        <ele>883.20001220703</ele>
        <time>2017-08-06T14:35:29.000Z</time>
      </trkpt>
      <trkpt lat="46.42514" lon="5.73882">
        <ele>882.59997558594</ele>
        <time>2017-08-06T14:35:33.000Z</time>
      </trkpt>
      <trkpt lat="46.42513" lon="5.73883">
        <ele>882.40002441406</ele>
        <time>2017-08-06T14:35:34.000Z</time>
      </trkpt>
      <trkpt lat="46.42511" lon="5.73884">
        <ele>881.79998779297</ele>
        <time>2017-08-06T14:35:37.000Z</time>
      </trkpt>
      <trkpt lat="46.4251" lon="5.73885">
        <ele>881.59997558594</ele>
        <time>2017-08-06T14:35:38.000Z</time>
      </trkpt>
      <trkpt lat="46.42509" lon="5.73886">
        <ele>881</ele>
        <time>2017-08-06T14:35:41.000Z</time>
      </trkpt>
      <trkpt lat="46.42506" lon="5.73887">
        <ele>880.59997558594</ele>
        <time>2017-08-06T14:35:44.000Z</time>
      </trkpt>
      <trkpt lat="46.42502" lon="5.7389">
        <ele>879.79998779297</ele>
        <time>2017-08-06T14:35:47.000Z</time>
      </trkpt>
      <trkpt lat="46.42501" lon="5.73892">
        <ele>879.59997558594</ele>
        <time>2017-08-06T14:35:49.000Z</time>
      </trkpt>
      <trkpt lat="46.42497" lon="5.73893">
        <ele>879</ele>
        <time>2017-08-06T14:35:52.000Z</time>
      </trkpt>
      <trkpt lat="46.42495" lon="5.73894">
        <ele>878.59997558594</ele>
        <time>2017-08-06T14:35:54.000Z</time>
      </trkpt>
      <trkpt lat="46.42493" lon="5.73894">
        <ele>878.20001220703</ele>
        <time>2017-08-06T14:35:55.000Z</time>
      </trkpt>
      <trkpt lat="46.4249" lon="5.73896">
        <ele>877.20001220703</ele>
        <time>2017-08-06T14:35:58.000Z</time>
      </trkpt>
      <trkpt lat="46.42485" lon="5.73898">
        <ele>876.20001220703</ele>
        <time>2017-08-06T14:36:03.000Z</time>
      </trkpt>
      <trkpt lat="46.4248" lon="5.73898">
        <ele>875.59997558594</ele>
        <time>2017-08-06T14:36:06.000Z</time>
      </trkpt>
      <trkpt lat="46.42478" lon="5.73899">
        <ele>875</ele>
        <time>2017-08-06T14:36:08.000Z</time>
      </trkpt>
      <trkpt lat="46.42476" lon="5.73899">
        <ele>874.79998779297</ele>
        <time>2017-08-06T14:36:09.000Z</time>
      </trkpt>
      <trkpt lat="46.42471" lon="5.73901">
        <ele>874.20001220703</ele>
        <time>2017-08-06T14:36:13.000Z</time>
      </trkpt>
      <trkpt lat="46.42469" lon="5.73901">
        <ele>874</ele>
        <time>2017-08-06T14:36:15.000Z</time>
      </trkpt>
      <trkpt lat="46.42468" lon="5.73902">
        <ele>873.79998779297</ele>
        <time>2017-08-06T14:36:16.000Z</time>
      </trkpt>
      <trkpt lat="46.4246" lon="5.73905">
        <ele>873.20001220703</ele>
        <time>2017-08-06T14:36:21.000Z</time>
      </trkpt>
      <trkpt lat="46.42459" lon="5.73905">
        <ele>873</ele>
        <time>2017-08-06T14:36:22.000Z</time>
      </trkpt>
      <trkpt lat="46.42458" lon="5.73906">
        <ele>872.59997558594</ele>
        <time>2017-08-06T14:36:23.000Z</time>
      </trkpt>
      <trkpt lat="46.42453" lon="5.73907">
        <ele>872.20001220703</ele>
        <time>2017-08-06T14:36:27.000Z</time>
      </trkpt>
      <trkpt lat="46.42451" lon="5.73909">
        <ele>871.59997558594</ele>
        <time>2017-08-06T14:36:29.000Z</time>
      </trkpt>
      <trkpt lat="46.4245" lon="5.7391">
        <ele>871.40002441406</ele>
        <time>2017-08-06T14:36:30.000Z</time>
      </trkpt>
      <trkpt lat="46.42446" lon="5.7391">
        <ele>870.59997558594</ele>
        <time>2017-08-06T14:36:34.000Z</time>
      </trkpt>
      <trkpt lat="46.42444" lon="5.7391">
        <ele>870</ele>
        <time>2017-08-06T14:36:37.000Z</time>
      </trkpt>
      <trkpt lat="46.42444" lon="5.7391">
        <ele>869.59997558594</ele>
        <time>2017-08-06T14:36:38.000Z</time>
      </trkpt>
      <trkpt lat="46.42436" lon="5.73911">
        <ele>869</ele>
        <time>2017-08-06T14:36:44.000Z</time>
      </trkpt>
      <trkpt lat="46.42431" lon="5.73909">
        <ele>868.59997558594</ele>
        <time>2017-08-06T14:36:48.000Z</time>
      </trkpt>
      <trkpt lat="46.42429" lon="5.73909">
        <ele>868.59997558594</ele>
        <time>2017-08-06T14:36:49.000Z</time>
      </trkpt>
      <trkpt lat="46.42422" lon="5.73906">
        <ele>867.59997558594</ele>
        <time>2017-08-06T14:36:55.000Z</time>
      </trkpt>
      <trkpt lat="46.42421" lon="5.73905">
        <ele>867.59997558594</ele>
        <time>2017-08-06T14:36:56.000Z</time>
      </trkpt>
      <trkpt lat="46.42418" lon="5.73905">
        <ele>867.20001220703</ele>
        <time>2017-08-06T14:36:58.000Z</time>
      </trkpt>
      <trkpt lat="46.42413" lon="5.73904">
        <ele>866.59997558594</ele>
        <time>2017-08-06T14:37:02.000Z</time>
      </trkpt>
      <trkpt lat="46.42411" lon="5.73905">
        <ele>866.40002441406</ele>
        <time>2017-08-06T14:37:03.000Z</time>
      </trkpt>
      <trkpt lat="46.42409" lon="5.73905">
        <ele>866</ele>
        <time>2017-08-06T14:37:06.000Z</time>
      </trkpt>
      <trkpt lat="46.42407" lon="5.73905">
        <ele>865.59997558594</ele>
        <time>2017-08-06T14:37:08.000Z</time>
      </trkpt>
      <trkpt lat="46.42406" lon="5.73907">
        <ele>865.40002441406</ele>
        <time>2017-08-06T14:37:10.000Z</time>
      </trkpt>
      <trkpt lat="46.42405" lon="5.73907">
        <ele>865.20001220703</ele>
        <time>2017-08-06T14:37:11.000Z</time>
      </trkpt>
      <trkpt lat="46.424" lon="5.73907">
        <ele>864.20001220703</ele>
        <time>2017-08-06T14:37:15.000Z</time>
      </trkpt>
      <trkpt lat="46.42399" lon="5.73907">
        <ele>864</ele>
        <time>2017-08-06T14:37:16.000Z</time>
      </trkpt>
      <trkpt lat="46.42395" lon="5.73907">
        <ele>863.59997558594</ele>
        <time>2017-08-06T14:37:19.000Z</time>
      </trkpt>
      <trkpt lat="46.42393" lon="5.73907">
        <ele>863</ele>
        <time>2017-08-06T14:37:21.000Z</time>
      </trkpt>
      <trkpt lat="46.42392" lon="5.73908">
        <ele>862.59997558594</ele>
        <time>2017-08-06T14:37:22.000Z</time>
      </trkpt>
      <trkpt lat="46.42389" lon="5.73909">
        <ele>862</ele>
        <time>2017-08-06T14:37:25.000Z</time>
      </trkpt>
      <trkpt lat="46.42387" lon="5.7391">
        <ele>861.79998779297</ele>
        <time>2017-08-06T14:37:26.000Z</time>
      </trkpt>
      <trkpt lat="46.42385" lon="5.73912">
        <ele>861</ele>
        <time>2017-08-06T14:37:29.000Z</time>
      </trkpt>
      <trkpt lat="46.42384" lon="5.73913">
        <ele>860.79998779297</ele>
        <time>2017-08-06T14:37:31.000Z</time>
      </trkpt>
      <trkpt lat="46.42381" lon="5.73913">
        <ele>860</ele>
        <time>2017-08-06T14:37:40.000Z</time>
      </trkpt>
      <trkpt lat="46.42382" lon="5.73913">
        <ele>860</ele>
        <time>2017-08-06T14:37:41.000Z</time>
      </trkpt>
      <trkpt lat="46.42383" lon="5.73912">
        <ele>860</ele>
        <time>2017-08-06T14:37:43.000Z</time>
      </trkpt>
      <trkpt lat="46.42377" lon="5.73911">
        <ele>859.79998779297</ele>
        <time>2017-08-06T14:38:56.000Z</time>
      </trkpt>
      <trkpt lat="46.42376" lon="5.73911">
        <ele>859.59997558594</ele>
        <time>2017-08-06T14:38:57.000Z</time>
      </trkpt>
      <trkpt lat="46.42375" lon="5.73912">
        <ele>859</ele>
        <time>2017-08-06T14:38:59.000Z</time>
      </trkpt>
      <trkpt lat="46.42374" lon="5.73913">
        <ele>858.79998779297</ele>
        <time>2017-08-06T14:39:00.000Z</time>
      </trkpt>
      <trkpt lat="46.42373" lon="5.73914">
        <ele>858.59997558594</ele>
        <time>2017-08-06T14:39:01.000Z</time>
      </trkpt>
      <trkpt lat="46.42367" lon="5.73917">
        <ele>857.59997558594</ele>
        <time>2017-08-06T14:39:06.000Z</time>
      </trkpt>
      <trkpt lat="46.42365" lon="5.73917">
        <ele>856.79998779297</ele>
        <time>2017-08-06T14:39:09.000Z</time>
      </trkpt>
      <trkpt lat="46.42364" lon="5.73918">
        <ele>856.59997558594</ele>
        <time>2017-08-06T14:39:10.000Z</time>
      </trkpt>
      <trkpt lat="46.42364" lon="5.73918">
        <ele>856.40002441406</ele>
        <time>2017-08-06T14:39:11.000Z</time>
      </trkpt>
      <trkpt lat="46.42361" lon="5.73919">
        <ele>856</ele>
        <time>2017-08-06T14:39:13.000Z</time>
      </trkpt>
      <trkpt lat="46.42359" lon="5.73919">
        <ele>855.59997558594</ele>
        <time>2017-08-06T14:39:15.000Z</time>
      </trkpt>
      <trkpt lat="46.42357" lon="5.73919">
        <ele>855.40002441406</ele>
        <time>2017-08-06T14:39:17.000Z</time>
      </trkpt>
      <trkpt lat="46.42354" lon="5.73921">
        <ele>854.79998779297</ele>
        <time>2017-08-06T14:39:20.000Z</time>
      </trkpt>
      <trkpt lat="46.42354" lon="5.73921">
        <ele>854.59997558594</ele>
        <time>2017-08-06T14:39:21.000Z</time>
      </trkpt>
      <trkpt lat="46.42354" lon="5.73921">
        <ele>854.40002441406</ele>
        <time>2017-08-06T14:39:22.000Z</time>
      </trkpt>
      <trkpt lat="46.42361" lon="5.73921">
        <ele>854</ele>
        <time>2017-08-06T14:39:59.000Z</time>
      </trkpt>
      <trkpt lat="46.42341" lon="5.73916">
        <ele>854</ele>
        <time>2017-08-06T14:40:27.000Z</time>
      </trkpt>
      <trkpt lat="46.42341" lon="5.73917">
        <ele>853.79998779297</ele>
        <time>2017-08-06T14:40:29.000Z</time>
      </trkpt>
      <trkpt lat="46.42342" lon="5.73919">
        <ele>853.40002441406</ele>
        <time>2017-08-06T14:40:31.000Z</time>
      </trkpt>
      <trkpt lat="46.42342" lon="5.73919">
        <ele>852.40002441406</ele>
        <time>2017-08-06T14:41:53.000Z</time>
      </trkpt>
      <trkpt lat="46.42337" lon="5.73932">
        <ele>853.20001220703</ele>
        <time>2017-08-06T14:42:37.000Z</time>
      </trkpt>
      <trkpt lat="46.42334" lon="5.73935">
        <ele>852.59997558594</ele>
        <time>2017-08-06T14:42:41.000Z</time>
      </trkpt>
      <trkpt lat="46.42331" lon="5.73937">
        <ele>851.59997558594</ele>
        <time>2017-08-06T14:42:44.000Z</time>
      </trkpt>
      <trkpt lat="46.42329" lon="5.73937">
        <ele>851.40002441406</ele>
        <time>2017-08-06T14:42:45.000Z</time>
      </trkpt>
      <trkpt lat="46.42327" lon="5.73938">
        <ele>850.59997558594</ele>
        <time>2017-08-06T14:42:48.000Z</time>
      </trkpt>
      <trkpt lat="46.42325" lon="5.73939">
        <ele>850.40002441406</ele>
        <time>2017-08-06T14:42:50.000Z</time>
      </trkpt>
      <trkpt lat="46.42322" lon="5.73938">
        <ele>849.79998779297</ele>
        <time>2017-08-06T14:42:52.000Z</time>
      </trkpt>
      <trkpt lat="46.4232" lon="5.73939">
        <ele>849</ele>
        <time>2017-08-06T14:42:54.000Z</time>
      </trkpt>
      <trkpt lat="46.42317" lon="5.73942">
        <ele>847.79998779297</ele>
        <time>2017-08-06T14:42:57.000Z</time>
      </trkpt>
      <trkpt lat="46.42312" lon="5.73945">
        <ele>846.40002441406</ele>
        <time>2017-08-06T14:43:01.000Z</time>
      </trkpt>
      <trkpt lat="46.42311" lon="5.73946">
        <ele>846.20001220703</ele>
        <time>2017-08-06T14:43:02.000Z</time>
      </trkpt>
      <trkpt lat="46.42306" lon="5.73949">
        <ele>845.40002441406</ele>
        <time>2017-08-06T14:43:06.000Z</time>
      </trkpt>
      <trkpt lat="46.42302" lon="5.73952">
        <ele>844.20001220703</ele>
        <time>2017-08-06T14:43:10.000Z</time>
      </trkpt>
      <trkpt lat="46.423" lon="5.73954">
        <ele>843.59997558594</ele>
        <time>2017-08-06T14:43:13.000Z</time>
      </trkpt>
      <trkpt lat="46.42298" lon="5.73955">
        <ele>843.20001220703</ele>
        <time>2017-08-06T14:43:15.000Z</time>
      </trkpt>
      <trkpt lat="46.42298" lon="5.73956">
        <ele>843</ele>
        <time>2017-08-06T14:43:16.000Z</time>
      </trkpt>
      <trkpt lat="46.42297" lon="5.73958">
        <ele>842.40002441406</ele>
        <time>2017-08-06T14:43:19.000Z</time>
      </trkpt>
      <trkpt lat="46.42293" lon="5.73961">
        <ele>842</ele>
        <time>2017-08-06T14:43:23.000Z</time>
      </trkpt>
      <trkpt lat="46.42289" lon="5.7396">
        <ele>841.59997558594</ele>
        <time>2017-08-06T14:43:25.000Z</time>
      </trkpt>
      <trkpt lat="46.42285" lon="5.73961">
        <ele>841.20001220703</ele>
        <time>2017-08-06T14:43:29.000Z</time>
      </trkpt>
      <trkpt lat="46.42283" lon="5.73963">
        <ele>841</ele>
        <time>2017-08-06T14:43:32.000Z</time>
      </trkpt>
      <trkpt lat="46.42282" lon="5.73964">
        <ele>840.59997558594</ele>
        <time>2017-08-06T14:43:33.000Z</time>
      </trkpt>
      <trkpt lat="46.42276" lon="5.73967">
        <ele>840</ele>
        <time>2017-08-06T14:43:38.000Z</time>
      </trkpt>
      <trkpt lat="46.42273" lon="5.73968">
        <ele>840</ele>
        <time>2017-08-06T14:43:40.000Z</time>
      </trkpt>
      <trkpt lat="46.42271" lon="5.73967">
        <ele>839.59997558594</ele>
        <time>2017-08-06T14:43:42.000Z</time>
      </trkpt>
      <trkpt lat="46.42268" lon="5.73967">
        <ele>839.40002441406</ele>
        <time>2017-08-06T14:43:44.000Z</time>
      </trkpt>
      <trkpt lat="46.42265" lon="5.73965">
        <ele>839.40002441406</ele>
        <time>2017-08-06T14:43:46.000Z</time>
      </trkpt>
      <trkpt lat="46.42257" lon="5.73961">
        <ele>838.79998779297</ele>
        <time>2017-08-06T14:43:50.000Z</time>
      </trkpt>
      <trkpt lat="46.42248" lon="5.73954">
        <ele>837.79998779297</ele>
        <time>2017-08-06T14:43:58.000Z</time>
      </trkpt>
      <trkpt lat="46.42247" lon="5.73952">
        <ele>837.40002441406</ele>
        <time>2017-08-06T14:44:00.000Z</time>
      </trkpt>
      <trkpt lat="46.42245" lon="5.73951">
        <ele>837</ele>
        <time>2017-08-06T14:44:02.000Z</time>
      </trkpt>
      <trkpt lat="46.42242" lon="5.73949">
        <ele>836.79998779297</ele>
        <time>2017-08-06T14:44:05.000Z</time>
      </trkpt>
      <trkpt lat="46.42232" lon="5.73937">
        <ele>835.79998779297</ele>
        <time>2017-08-06T14:44:23.000Z</time>
      </trkpt>
      <trkpt lat="46.42225" lon="5.73925">
        <ele>835.79998779297</ele>
        <time>2017-08-06T14:44:32.000Z</time>
      </trkpt>
      <trkpt lat="46.42221" lon="5.73921">
        <ele>835.79998779297</ele>
        <time>2017-08-06T14:44:37.000Z</time>
      </trkpt>
      <trkpt lat="46.42215" lon="5.73917">
        <ele>835</ele>
        <time>2017-08-06T14:44:43.000Z</time>
      </trkpt>
      <trkpt lat="46.42213" lon="5.73915">
        <ele>834.59997558594</ele>
        <time>2017-08-06T14:44:45.000Z</time>
      </trkpt>
      <trkpt lat="46.4221" lon="5.73912">
        <ele>834.20001220703</ele>
        <time>2017-08-06T14:44:48.000Z</time>
      </trkpt>
      <trkpt lat="46.42206" lon="5.7391">
        <ele>833.40002441406</ele>
        <time>2017-08-06T14:44:51.000Z</time>
      </trkpt>
      <trkpt lat="46.42206" lon="5.7391">
        <ele>833</ele>
        <time>2017-08-06T14:44:52.000Z</time>
      </trkpt>
      <trkpt lat="46.42204" lon="5.73914">
        <ele>832.20001220703</ele>
        <time>2017-08-06T14:44:56.000Z</time>
      </trkpt>
      <trkpt lat="46.42204" lon="5.73915">
        <ele>832.20001220703</ele>
        <time>2017-08-06T14:44:57.000Z</time>
      </trkpt>
      <trkpt lat="46.42201" lon="5.73913">
        <ele>831.59997558594</ele>
        <time>2017-08-06T14:45:00.000Z</time>
      </trkpt>
      <trkpt lat="46.42199" lon="5.73911">
        <ele>831.20001220703</ele>
        <time>2017-08-06T14:45:02.000Z</time>
      </trkpt>
      <trkpt lat="46.42198" lon="5.7391">
        <ele>831</ele>
        <time>2017-08-06T14:45:03.000Z</time>
      </trkpt>
      <trkpt lat="46.42196" lon="5.73906">
        <ele>830.40002441406</ele>
        <time>2017-08-06T14:45:06.000Z</time>
      </trkpt>
      <trkpt lat="46.42195" lon="5.73904">
        <ele>830.20001220703</ele>
        <time>2017-08-06T14:45:08.000Z</time>
      </trkpt>
      <trkpt lat="46.42195" lon="5.73903">
        <ele>830.20001220703</ele>
        <time>2017-08-06T14:45:09.000Z</time>
      </trkpt>
      <trkpt lat="46.42194" lon="5.73899">
        <ele>829.79998779297</ele>
        <time>2017-08-06T14:45:12.000Z</time>
      </trkpt>
      <trkpt lat="46.42192" lon="5.73893">
        <ele>829.20001220703</ele>
        <time>2017-08-06T14:45:17.000Z</time>
      </trkpt>
      <trkpt lat="46.42191" lon="5.73892">
        <ele>828.79998779297</ele>
        <time>2017-08-06T14:45:18.000Z</time>
      </trkpt>
      <trkpt lat="46.4219" lon="5.73889">
        <ele>828.20001220703</ele>
        <time>2017-08-06T14:45:20.000Z</time>
      </trkpt>
      <trkpt lat="46.42188" lon="5.73887">
        <ele>827.59997558594</ele>
        <time>2017-08-06T14:45:22.000Z</time>
      </trkpt>
      <trkpt lat="46.42186" lon="5.73884">
        <ele>827</ele>
        <time>2017-08-06T14:45:24.000Z</time>
      </trkpt>
      <trkpt lat="46.42185" lon="5.73883">
        <ele>826.79998779297</ele>
        <time>2017-08-06T14:45:25.000Z</time>
      </trkpt>
      <trkpt lat="46.42184" lon="5.73881">
        <ele>826.20001220703</ele>
        <time>2017-08-06T14:45:27.000Z</time>
      </trkpt>
      <trkpt lat="46.42183" lon="5.7388">
        <ele>826</ele>
        <time>2017-08-06T14:45:28.000Z</time>
      </trkpt>
      <trkpt lat="46.42178" lon="5.73876">
        <ele>824.79998779297</ele>
        <time>2017-08-06T14:45:33.000Z</time>
      </trkpt>
      <trkpt lat="46.42176" lon="5.73874">
        <ele>824.59997558594</ele>
        <time>2017-08-06T14:45:35.000Z</time>
      </trkpt>
      <trkpt lat="46.42173" lon="5.73872">
        <ele>824</ele>
        <time>2017-08-06T14:45:38.000Z</time>
      </trkpt>
      <trkpt lat="46.42172" lon="5.73871">
        <ele>823.79998779297</ele>
        <time>2017-08-06T14:45:39.000Z</time>
      </trkpt>
      <trkpt lat="46.42171" lon="5.7387">
        <ele>823.79998779297</ele>
        <time>2017-08-06T14:45:40.000Z</time>
      </trkpt>
      <trkpt lat="46.4217" lon="5.73868">
        <ele>823.59997558594</ele>
        <time>2017-08-06T14:45:42.000Z</time>
      </trkpt>
      <trkpt lat="46.42165" lon="5.73864">
        <ele>823</ele>
        <time>2017-08-06T14:45:46.000Z</time>
      </trkpt>
      <trkpt lat="46.42164" lon="5.73863">
        <ele>822.79998779297</ele>
        <time>2017-08-06T14:45:47.000Z</time>
      </trkpt>
      <trkpt lat="46.42161" lon="5.73859">
        <ele>822</ele>
        <time>2017-08-06T14:45:51.000Z</time>
      </trkpt>
      <trkpt lat="46.42158" lon="5.73857">
        <ele>821.59997558594</ele>
        <time>2017-08-06T14:45:53.000Z</time>
      </trkpt>
      <trkpt lat="46.42151" lon="5.73854">
        <ele>820.40002441406</ele>
        <time>2017-08-06T14:45:59.000Z</time>
      </trkpt>
      <trkpt lat="46.42149" lon="5.73855">
        <ele>820</ele>
        <time>2017-08-06T14:46:01.000Z</time>
      </trkpt>
      <trkpt lat="46.42145" lon="5.73854">
        <ele>819.59997558594</ele>
        <time>2017-08-06T14:46:05.000Z</time>
      </trkpt>
      <trkpt lat="46.42144" lon="5.73854">
        <ele>819.40002441406</ele>
        <time>2017-08-06T14:46:06.000Z</time>
      </trkpt>
      <trkpt lat="46.42143" lon="5.73854">
        <ele>819.20001220703</ele>
        <time>2017-08-06T14:46:07.000Z</time>
      </trkpt>
      <trkpt lat="46.42141" lon="5.73854">
        <ele>818.79998779297</ele>
        <time>2017-08-06T14:46:09.000Z</time>
      </trkpt>
      <trkpt lat="46.42136" lon="5.73853">
        <ele>818.40002441406</ele>
        <time>2017-08-06T14:46:12.000Z</time>
      </trkpt>
      <trkpt lat="46.42129" lon="5.73851">
        <ele>817.20001220703</ele>
        <time>2017-08-06T14:46:18.000Z</time>
      </trkpt>
      <trkpt lat="46.42129" lon="5.7385">
        <ele>817</ele>
        <time>2017-08-06T14:46:19.000Z</time>
      </trkpt>
      <trkpt lat="46.42126" lon="5.73849">
        <ele>816.59997558594</ele>
        <time>2017-08-06T14:46:22.000Z</time>
      </trkpt>
      <trkpt lat="46.42123" lon="5.73848">
        <ele>816.40002441406</ele>
        <time>2017-08-06T14:46:25.000Z</time>
      </trkpt>
      <trkpt lat="46.42122" lon="5.73849">
        <ele>816.20001220703</ele>
        <time>2017-08-06T14:46:27.000Z</time>
      </trkpt>
      <trkpt lat="46.42122" lon="5.7385">
        <ele>816</ele>
        <time>2017-08-06T14:46:28.000Z</time>
      </trkpt>
      <trkpt lat="46.42122" lon="5.73853">
        <ele>815.59997558594</ele>
        <time>2017-08-06T14:46:30.000Z</time>
      </trkpt>
      <trkpt lat="46.42122" lon="5.73857">
        <ele>815.20001220703</ele>
        <time>2017-08-06T14:46:33.000Z</time>
      </trkpt>
      <trkpt lat="46.42122" lon="5.73858">
        <ele>815</ele>
        <time>2017-08-06T14:46:34.000Z</time>
      </trkpt>
      <trkpt lat="46.42122" lon="5.73859">
        <ele>815</ele>
        <time>2017-08-06T14:46:35.000Z</time>
      </trkpt>
      <trkpt lat="46.42123" lon="5.73864">
        <ele>814.59997558594</ele>
        <time>2017-08-06T14:46:40.000Z</time>
      </trkpt>
      <trkpt lat="46.42124" lon="5.73873">
        <ele>814.59997558594</ele>
        <time>2017-08-06T14:46:50.000Z</time>
      </trkpt>
      <trkpt lat="46.42123" lon="5.73875">
        <ele>814.20001220703</ele>
        <time>2017-08-06T14:46:52.000Z</time>
      </trkpt>
      <trkpt lat="46.42123" lon="5.73876">
        <ele>814</ele>
        <time>2017-08-06T14:46:53.000Z</time>
      </trkpt>
      <trkpt lat="46.42122" lon="5.73877">
        <ele>813.79998779297</ele>
        <time>2017-08-06T14:46:54.000Z</time>
      </trkpt>
      <trkpt lat="46.42121" lon="5.7388">
        <ele>812.79998779297</ele>
        <time>2017-08-06T14:46:59.000Z</time>
      </trkpt>
      <trkpt lat="46.4212" lon="5.73884">
        <ele>811.79998779297</ele>
        <time>2017-08-06T14:47:03.000Z</time>
      </trkpt>
      <trkpt lat="46.42124" lon="5.73889">
        <ele>811.40002441406</ele>
        <time>2017-08-06T14:47:11.000Z</time>
      </trkpt>
      <trkpt lat="46.42133" lon="5.73893">
        <ele>812.79998779297</ele>
        <time>2017-08-06T14:47:19.000Z</time>
      </trkpt>
      <trkpt lat="46.4214" lon="5.73898">
        <ele>813.59997558594</ele>
        <time>2017-08-06T14:47:27.000Z</time>
      </trkpt>
      <trkpt lat="46.42143" lon="5.739">
        <ele>814</ele>
        <time>2017-08-06T14:47:29.000Z</time>
      </trkpt>
      <trkpt lat="46.42145" lon="5.73901">
        <ele>814.40002441406</ele>
        <time>2017-08-06T14:47:31.000Z</time>
      </trkpt>
      <trkpt lat="46.42153" lon="5.73905">
        <ele>815.20001220703</ele>
        <time>2017-08-06T14:47:37.000Z</time>
      </trkpt>
      <trkpt lat="46.42163" lon="5.73914">
        <ele>816.40002441406</ele>
        <time>2017-08-06T14:47:48.000Z</time>
      </trkpt>
      <trkpt lat="46.42171" lon="5.73924">
        <ele>817.40002441406</ele>
        <time>2017-08-06T14:47:58.000Z</time>
      </trkpt>
      <trkpt lat="46.4218" lon="5.73936">
        <ele>818.40002441406</ele>
        <time>2017-08-06T14:48:08.000Z</time>
      </trkpt>
      <trkpt lat="46.42183" lon="5.73939">
        <ele>818.79998779297</ele>
        <time>2017-08-06T14:48:11.000Z</time>
      </trkpt>
      <trkpt lat="46.42188" lon="5.73943">
        <ele>819.59997558594</ele>
        <time>2017-08-06T14:48:16.000Z</time>
      </trkpt>
      <trkpt lat="46.42195" lon="5.7395">
        <ele>820.59997558594</ele>
        <time>2017-08-06T14:48:23.000Z</time>
      </trkpt>
      <trkpt lat="46.42201" lon="5.73957">
        <ele>821.59997558594</ele>
        <time>2017-08-06T14:48:30.000Z</time>
      </trkpt>
      <trkpt lat="46.42207" lon="5.7397">
        <ele>822.59997558594</ele>
        <time>2017-08-06T14:48:39.000Z</time>
      </trkpt>
      <trkpt lat="46.42209" lon="5.73972">
        <ele>823</ele>
        <time>2017-08-06T14:48:41.000Z</time>
      </trkpt>
      <trkpt lat="46.4221" lon="5.73973">
        <ele>823.20001220703</ele>
        <time>2017-08-06T14:48:43.000Z</time>
      </trkpt>
      <trkpt lat="46.42216" lon="5.73977">
        <ele>823.79998779297</ele>
        <time>2017-08-06T14:48:48.000Z</time>
      </trkpt>
      <trkpt lat="46.42217" lon="5.73978">
        <ele>823.79998779297</ele>
        <time>2017-08-06T14:48:49.000Z</time>
      </trkpt>
      <trkpt lat="46.42219" lon="5.73981">
        <ele>824</ele>
        <time>2017-08-06T14:48:51.000Z</time>
      </trkpt>
      <trkpt lat="46.42221" lon="5.73985">
        <ele>824.79998779297</ele>
        <time>2017-08-06T14:48:54.000Z</time>
      </trkpt>
      <trkpt lat="46.42228" lon="5.73997">
        <ele>825.79998779297</ele>
        <time>2017-08-06T14:49:02.000Z</time>
      </trkpt>
      <trkpt lat="46.42237" lon="5.7401">
        <ele>827</ele>
        <time>2017-08-06T14:49:13.000Z</time>
      </trkpt>
      <trkpt lat="46.42238" lon="5.74012">
        <ele>827.20001220703</ele>
        <time>2017-08-06T14:49:15.000Z</time>
      </trkpt>
      <trkpt lat="46.42241" lon="5.74017">
        <ele>827.40002441406</ele>
        <time>2017-08-06T14:49:19.000Z</time>
      </trkpt>
      <trkpt lat="46.42248" lon="5.7402">
        <ele>827.59997558594</ele>
        <time>2017-08-06T14:49:23.000Z</time>
      </trkpt>
      <trkpt lat="46.42252" lon="5.74026">
        <ele>827.20001220703</ele>
        <time>2017-08-06T14:49:28.000Z</time>
      </trkpt>
      <trkpt lat="46.42255" lon="5.74029">
        <ele>827.20001220703</ele>
        <time>2017-08-06T14:49:32.000Z</time>
      </trkpt>
      <trkpt lat="46.4227" lon="5.7405">
        <ele>826.20001220703</ele>
        <time>2017-08-06T14:50:14.000Z</time>
      </trkpt>
      <trkpt lat="46.42271" lon="5.74055">
        <ele>826</ele>
        <time>2017-08-06T14:50:17.000Z</time>
      </trkpt>
      <trkpt lat="46.42272" lon="5.74064">
        <ele>825.40002441406</ele>
        <time>2017-08-06T14:50:21.000Z</time>
      </trkpt>
      <trkpt lat="46.42274" lon="5.74085">
        <ele>825.20001220703</ele>
        <time>2017-08-06T14:50:34.000Z</time>
      </trkpt>
      <trkpt lat="46.42273" lon="5.74091">
        <ele>825</ele>
        <time>2017-08-06T14:50:38.000Z</time>
      </trkpt>
      <trkpt lat="46.42273" lon="5.74092">
        <ele>824.79998779297</ele>
        <time>2017-08-06T14:50:39.000Z</time>
      </trkpt>
      <trkpt lat="46.42273" lon="5.74096">
        <ele>824.79998779297</ele>
        <time>2017-08-06T14:50:42.000Z</time>
      </trkpt>
      <trkpt lat="46.42273" lon="5.74099">
        <ele>825</ele>
        <time>2017-08-06T14:50:45.000Z</time>
      </trkpt>
      <trkpt lat="46.42272" lon="5.74101">
        <ele>825</ele>
        <time>2017-08-06T14:50:47.000Z</time>
      </trkpt>
      <trkpt lat="46.42261" lon="5.74111">
        <ele>824.20001220703</ele>
        <time>2017-08-06T14:51:17.000Z</time>
      </trkpt>
      <trkpt lat="46.42263" lon="5.74125">
        <ele>823.79998779297</ele>
        <time>2017-08-06T14:51:24.000Z</time>
      </trkpt>
      <trkpt lat="46.42263" lon="5.74136">
        <ele>823.20001220703</ele>
        <time>2017-08-06T14:51:30.000Z</time>
      </trkpt>
    </trkseg>
  </trk>
</gpx>